<?xml version="1.0" encoding="UTF-8" standalone="no" ?>
<gpx xmlns="http://www.topografix.com/GPX/1/1" xmlns:xsi="http://www.w3.org/2001/XMLSchema-instance" xsi:schemaLocation="http://www.topografix.com/GPX/1/1 http://www.topografix.com/GPX/1/1/gpx.xsd" version="1.1" creator="VisuGPX - https://www.visugpx.com">
  <metadata>
    <name>Pornichet 23/07/2020</name>
    <desc><![CDATA[Sortie VTT du jeudi 23 juillet 2020]]></desc>
  </metadata>
  <trk>
    <name><![CDATA[Pornichet Cyclisme]]></name>
    <trkseg>
      <trkpt lat="47.26406" lon="-2.31566">
        <ele>7</ele>
        <time>2020-07-23T07:02:57.000Z</time>
      </trkpt>
      <trkpt lat="47.26407" lon="-2.31581">
        <ele>7</ele>
        <time>2020-07-23T07:03:00.000Z</time>
      </trkpt>
      <trkpt lat="47.26407" lon="-2.31587">
        <ele>6.5999999046326</ele>
        <time>2020-07-23T07:03:01.000Z</time>
      </trkpt>
      <trkpt lat="47.26408" lon="-2.31616">
        <ele>6.5999999046326</ele>
        <time>2020-07-23T07:03:05.000Z</time>
      </trkpt>
      <trkpt lat="47.26408" lon="-2.31644">
        <ele>6.5999999046326</ele>
        <time>2020-07-23T07:03:09.000Z</time>
      </trkpt>
      <trkpt lat="47.26408" lon="-2.3165">
        <ele>6.5999999046326</ele>
        <time>2020-07-23T07:03:10.000Z</time>
      </trkpt>
      <trkpt lat="47.26404" lon="-2.31662">
        <ele>6.5999999046326</ele>
        <time>2020-07-23T07:03:13.000Z</time>
      </trkpt>
      <trkpt lat="47.26397" lon="-2.31664">
        <ele>6.5999999046326</ele>
        <time>2020-07-23T07:03:15.000Z</time>
      </trkpt>
      <trkpt lat="47.26389" lon="-2.31667">
        <ele>6.5999999046326</ele>
        <time>2020-07-23T07:03:17.000Z</time>
      </trkpt>
      <trkpt lat="47.26357" lon="-2.31687">
        <ele>6.5999999046326</ele>
        <time>2020-07-23T07:03:24.000Z</time>
      </trkpt>
      <trkpt lat="47.26323" lon="-2.31701">
        <ele>6.1999998092651</ele>
        <time>2020-07-23T07:03:30.000Z</time>
      </trkpt>
      <trkpt lat="47.26319" lon="-2.31703">
        <ele>5.8000001907349</ele>
        <time>2020-07-23T07:03:31.000Z</time>
      </trkpt>
      <trkpt lat="47.26314" lon="-2.31705">
        <ele>5.4000000953674</ele>
        <time>2020-07-23T07:03:32.000Z</time>
      </trkpt>
      <trkpt lat="47.26309" lon="-2.31704">
        <ele>4.8000001907349</ele>
        <time>2020-07-23T07:03:33.000Z</time>
      </trkpt>
      <trkpt lat="47.26305" lon="-2.31702">
        <ele>4.4000000953674</ele>
        <time>2020-07-23T07:03:34.000Z</time>
      </trkpt>
      <trkpt lat="47.26291" lon="-2.31685">
        <ele>4.4000000953674</ele>
        <time>2020-07-23T07:03:38.000Z</time>
      </trkpt>
      <trkpt lat="47.26288" lon="-2.31681">
        <ele>4.4000000953674</ele>
        <time>2020-07-23T07:03:39.000Z</time>
      </trkpt>
      <trkpt lat="47.26272" lon="-2.31651">
        <ele>4.4000000953674</ele>
        <time>2020-07-23T07:03:45.000Z</time>
      </trkpt>
      <trkpt lat="47.26256" lon="-2.31626">
        <ele>4.4000000953674</ele>
        <time>2020-07-23T07:03:50.000Z</time>
      </trkpt>
      <trkpt lat="47.26247" lon="-2.31615">
        <ele>4.4000000953674</ele>
        <time>2020-07-23T07:03:52.000Z</time>
      </trkpt>
      <trkpt lat="47.26231" lon="-2.31598">
        <ele>4.4000000953674</ele>
        <time>2020-07-23T07:03:56.000Z</time>
      </trkpt>
      <trkpt lat="47.26206" lon="-2.31592">
        <ele>4.4000000953674</ele>
        <time>2020-07-23T07:04:01.000Z</time>
      </trkpt>
      <trkpt lat="47.26201" lon="-2.31592">
        <ele>4.4000000953674</ele>
        <time>2020-07-23T07:04:02.000Z</time>
      </trkpt>
      <trkpt lat="47.26187" lon="-2.31596">
        <ele>4</ele>
        <time>2020-07-23T07:04:05.000Z</time>
      </trkpt>
      <trkpt lat="47.26183" lon="-2.31597">
        <ele>3.2000000476837</ele>
        <time>2020-07-23T07:04:06.000Z</time>
      </trkpt>
      <trkpt lat="47.26179" lon="-2.31597">
        <ele>2.7999999523163</ele>
        <time>2020-07-23T07:04:07.000Z</time>
      </trkpt>
      <trkpt lat="47.26175" lon="-2.31598">
        <ele>2.4000000953674</ele>
        <time>2020-07-23T07:04:08.000Z</time>
      </trkpt>
      <trkpt lat="47.26153" lon="-2.31605">
        <ele>2.4000000953674</ele>
        <time>2020-07-23T07:04:14.000Z</time>
      </trkpt>
      <trkpt lat="47.2613" lon="-2.31613">
        <ele>2.4000000953674</ele>
        <time>2020-07-23T07:04:20.000Z</time>
      </trkpt>
      <trkpt lat="47.26108" lon="-2.31612">
        <ele>2.4000000953674</ele>
        <time>2020-07-23T07:04:25.000Z</time>
      </trkpt>
      <trkpt lat="47.26104" lon="-2.3161">
        <ele>2.4000000953674</ele>
        <time>2020-07-23T07:04:26.000Z</time>
      </trkpt>
      <trkpt lat="47.26093" lon="-2.31592">
        <ele>2.4000000953674</ele>
        <time>2020-07-23T07:04:30.000Z</time>
      </trkpt>
      <trkpt lat="47.26087" lon="-2.31582">
        <ele>2.4000000953674</ele>
        <time>2020-07-23T07:04:33.000Z</time>
      </trkpt>
      <trkpt lat="47.26085" lon="-2.31581">
        <ele>2.4000000953674</ele>
        <time>2020-07-23T07:04:34.000Z</time>
      </trkpt>
      <trkpt lat="47.26082" lon="-2.31582">
        <ele>2.4000000953674</ele>
        <time>2020-07-23T07:04:37.000Z</time>
      </trkpt>
      <trkpt lat="47.26079" lon="-2.31582">
        <ele>2.4000000953674</ele>
        <time>2020-07-23T07:04:39.000Z</time>
      </trkpt>
      <trkpt lat="47.26074" lon="-2.31574">
        <ele>2.4000000953674</ele>
        <time>2020-07-23T07:04:42.000Z</time>
      </trkpt>
      <trkpt lat="47.26072" lon="-2.3157">
        <ele>2.4000000953674</ele>
        <time>2020-07-23T07:04:43.000Z</time>
      </trkpt>
      <trkpt lat="47.26064" lon="-2.31552">
        <ele>2.4000000953674</ele>
        <time>2020-07-23T07:04:47.000Z</time>
      </trkpt>
      <trkpt lat="47.26046" lon="-2.3152">
        <ele>2.4000000953674</ele>
        <time>2020-07-23T07:04:54.000Z</time>
      </trkpt>
      <trkpt lat="47.26038" lon="-2.31512">
        <ele>2.7999999523163</ele>
        <time>2020-07-23T07:04:57.000Z</time>
      </trkpt>
      <trkpt lat="47.26035" lon="-2.31513">
        <ele>3.2000000476837</ele>
        <time>2020-07-23T07:04:58.000Z</time>
      </trkpt>
      <trkpt lat="47.26033" lon="-2.31515">
        <ele>3.5999999046326</ele>
        <time>2020-07-23T07:04:59.000Z</time>
      </trkpt>
      <trkpt lat="47.26031" lon="-2.31519">
        <ele>4</ele>
        <time>2020-07-23T07:05:00.000Z</time>
      </trkpt>
      <trkpt lat="47.2603" lon="-2.31524">
        <ele>4.4000000953674</ele>
        <time>2020-07-23T07:05:01.000Z</time>
      </trkpt>
      <trkpt lat="47.26026" lon="-2.31538">
        <ele>4.4000000953674</ele>
        <time>2020-07-23T07:05:04.000Z</time>
      </trkpt>
      <trkpt lat="47.2602" lon="-2.31553">
        <ele>4.4000000953674</ele>
        <time>2020-07-23T07:05:07.000Z</time>
      </trkpt>
      <trkpt lat="47.26012" lon="-2.31561">
        <ele>4.4000000953674</ele>
        <time>2020-07-23T07:05:10.000Z</time>
      </trkpt>
      <trkpt lat="47.26009" lon="-2.31561">
        <ele>4.4000000953674</ele>
        <time>2020-07-23T07:05:11.000Z</time>
      </trkpt>
      <trkpt lat="47.26" lon="-2.31551">
        <ele>4.4000000953674</ele>
        <time>2020-07-23T07:05:14.000Z</time>
      </trkpt>
      <trkpt lat="47.25998" lon="-2.31547">
        <ele>4.4000000953674</ele>
        <time>2020-07-23T07:05:15.000Z</time>
      </trkpt>
      <trkpt lat="47.25978" lon="-2.31513">
        <ele>4.4000000953674</ele>
        <time>2020-07-23T07:05:22.000Z</time>
      </trkpt>
      <trkpt lat="47.25969" lon="-2.31491">
        <ele>4.4000000953674</ele>
        <time>2020-07-23T07:05:26.000Z</time>
      </trkpt>
      <trkpt lat="47.2596" lon="-2.31477">
        <ele>4.4000000953674</ele>
        <time>2020-07-23T07:05:29.000Z</time>
      </trkpt>
      <trkpt lat="47.25953" lon="-2.31469">
        <ele>4.4000000953674</ele>
        <time>2020-07-23T07:05:31.000Z</time>
      </trkpt>
      <trkpt lat="47.25946" lon="-2.31463">
        <ele>4.4000000953674</ele>
        <time>2020-07-23T07:05:33.000Z</time>
      </trkpt>
      <trkpt lat="47.25938" lon="-2.31458">
        <ele>4.4000000953674</ele>
        <time>2020-07-23T07:05:35.000Z</time>
      </trkpt>
      <trkpt lat="47.25924" lon="-2.31465">
        <ele>4.4000000953674</ele>
        <time>2020-07-23T07:05:39.000Z</time>
      </trkpt>
      <trkpt lat="47.2592" lon="-2.31474">
        <ele>4.4000000953674</ele>
        <time>2020-07-23T07:05:41.000Z</time>
      </trkpt>
      <trkpt lat="47.25915" lon="-2.31488">
        <ele>4.4000000953674</ele>
        <time>2020-07-23T07:05:44.000Z</time>
      </trkpt>
      <trkpt lat="47.25909" lon="-2.31505">
        <ele>4.8000001907349</ele>
        <time>2020-07-23T07:05:49.000Z</time>
      </trkpt>
      <trkpt lat="47.25909" lon="-2.31507">
        <ele>5.1999998092651</ele>
        <time>2020-07-23T07:05:50.000Z</time>
      </trkpt>
      <trkpt lat="47.25909" lon="-2.31508">
        <ele>5.5999999046326</ele>
        <time>2020-07-23T07:05:51.000Z</time>
      </trkpt>
      <trkpt lat="47.25909" lon="-2.31509">
        <ele>6</ele>
        <time>2020-07-23T07:05:52.000Z</time>
      </trkpt>
      <trkpt lat="47.25909" lon="-2.3151">
        <ele>6.4000000953674</ele>
        <time>2020-07-23T07:05:53.000Z</time>
      </trkpt>
      <trkpt lat="47.25901" lon="-2.31524">
        <ele>6.4000000953674</ele>
        <time>2020-07-23T07:05:58.000Z</time>
      </trkpt>
      <trkpt lat="47.25891" lon="-2.31549">
        <ele>6.4000000953674</ele>
        <time>2020-07-23T07:06:03.000Z</time>
      </trkpt>
      <trkpt lat="47.25877" lon="-2.31576">
        <ele>6.4000000953674</ele>
        <time>2020-07-23T07:06:09.000Z</time>
      </trkpt>
      <trkpt lat="47.25855" lon="-2.31598">
        <ele>6.8000001907349</ele>
        <time>2020-07-23T07:06:16.000Z</time>
      </trkpt>
      <trkpt lat="47.25853" lon="-2.31601">
        <ele>7.1999998092651</ele>
        <time>2020-07-23T07:06:17.000Z</time>
      </trkpt>
      <trkpt lat="47.2585" lon="-2.31604">
        <ele>7.5999999046326</ele>
        <time>2020-07-23T07:06:18.000Z</time>
      </trkpt>
      <trkpt lat="47.25847" lon="-2.31607">
        <ele>8</ele>
        <time>2020-07-23T07:06:19.000Z</time>
      </trkpt>
      <trkpt lat="47.25844" lon="-2.31609">
        <ele>8.6000003814697</ele>
        <time>2020-07-23T07:06:20.000Z</time>
      </trkpt>
      <trkpt lat="47.25828" lon="-2.31621">
        <ele>8.6000003814697</ele>
        <time>2020-07-23T07:06:25.000Z</time>
      </trkpt>
      <trkpt lat="47.25814" lon="-2.31637">
        <ele>8.6000003814697</ele>
        <time>2020-07-23T07:06:30.000Z</time>
      </trkpt>
      <trkpt lat="47.25811" lon="-2.31639">
        <ele>8.6000003814697</ele>
        <time>2020-07-23T07:06:31.000Z</time>
      </trkpt>
      <trkpt lat="47.25769" lon="-2.3167">
        <ele>8.6000003814697</ele>
        <time>2020-07-23T07:06:41.000Z</time>
      </trkpt>
      <trkpt lat="47.25737" lon="-2.31692">
        <ele>8.6000003814697</ele>
        <time>2020-07-23T07:06:47.000Z</time>
      </trkpt>
      <trkpt lat="47.25733" lon="-2.31697">
        <ele>8.6000003814697</ele>
        <time>2020-07-23T07:06:50.000Z</time>
      </trkpt>
      <trkpt lat="47.25733" lon="-2.31697">
        <ele>8.6000003814697</ele>
        <time>2020-07-23T07:06:51.000Z</time>
      </trkpt>
      <trkpt lat="47.25732" lon="-2.31699">
        <ele>8.6000003814697</ele>
        <time>2020-07-23T07:06:57.000Z</time>
      </trkpt>
      <trkpt lat="47.2573" lon="-2.317">
        <ele>8.6000003814697</ele>
        <time>2020-07-23T07:06:58.000Z</time>
      </trkpt>
      <trkpt lat="47.25721" lon="-2.31694">
        <ele>8.6000003814697</ele>
        <time>2020-07-23T07:07:01.000Z</time>
      </trkpt>
      <trkpt lat="47.25699" lon="-2.31682">
        <ele>8.6000003814697</ele>
        <time>2020-07-23T07:07:07.000Z</time>
      </trkpt>
      <trkpt lat="47.25672" lon="-2.31677">
        <ele>8.6000003814697</ele>
        <time>2020-07-23T07:07:14.000Z</time>
      </trkpt>
      <trkpt lat="47.25654" lon="-2.31687">
        <ele>8.6000003814697</ele>
        <time>2020-07-23T07:07:19.000Z</time>
      </trkpt>
      <trkpt lat="47.25652" lon="-2.31691">
        <ele>9</ele>
        <time>2020-07-23T07:07:20.000Z</time>
      </trkpt>
      <trkpt lat="47.2565" lon="-2.31695">
        <ele>9.3999996185303</ele>
        <time>2020-07-23T07:07:21.000Z</time>
      </trkpt>
      <trkpt lat="47.25648" lon="-2.31699">
        <ele>9.8000001907349</ele>
        <time>2020-07-23T07:07:22.000Z</time>
      </trkpt>
      <trkpt lat="47.25645" lon="-2.31703">
        <ele>10.199999809265</ele>
        <time>2020-07-23T07:07:23.000Z</time>
      </trkpt>
      <trkpt lat="47.25642" lon="-2.31706">
        <ele>10.60000038147</ele>
        <time>2020-07-23T07:07:24.000Z</time>
      </trkpt>
      <trkpt lat="47.25631" lon="-2.3172">
        <ele>10.60000038147</ele>
        <time>2020-07-23T07:07:28.000Z</time>
      </trkpt>
      <trkpt lat="47.25627" lon="-2.3173">
        <ele>11</ele>
        <time>2020-07-23T07:07:30.000Z</time>
      </trkpt>
      <trkpt lat="47.25626" lon="-2.31736">
        <ele>11.39999961853</ele>
        <time>2020-07-23T07:07:31.000Z</time>
      </trkpt>
      <trkpt lat="47.25624" lon="-2.31742">
        <ele>11.800000190735</ele>
        <time>2020-07-23T07:07:32.000Z</time>
      </trkpt>
      <trkpt lat="47.25623" lon="-2.31748">
        <ele>12.199999809265</ele>
        <time>2020-07-23T07:07:33.000Z</time>
      </trkpt>
      <trkpt lat="47.2562" lon="-2.31753">
        <ele>12.60000038147</ele>
        <time>2020-07-23T07:07:34.000Z</time>
      </trkpt>
      <trkpt lat="47.25609" lon="-2.31763">
        <ele>12.60000038147</ele>
        <time>2020-07-23T07:07:37.000Z</time>
      </trkpt>
      <trkpt lat="47.25601" lon="-2.31764">
        <ele>12.60000038147</ele>
        <time>2020-07-23T07:07:39.000Z</time>
      </trkpt>
      <trkpt lat="47.25587" lon="-2.31766">
        <ele>12.60000038147</ele>
        <time>2020-07-23T07:07:42.000Z</time>
      </trkpt>
      <trkpt lat="47.25583" lon="-2.31768">
        <ele>12.60000038147</ele>
        <time>2020-07-23T07:07:43.000Z</time>
      </trkpt>
      <trkpt lat="47.25569" lon="-2.31779">
        <ele>12.60000038147</ele>
        <time>2020-07-23T07:07:47.000Z</time>
      </trkpt>
      <trkpt lat="47.25559" lon="-2.318">
        <ele>13.199999809265</ele>
        <time>2020-07-23T07:07:52.000Z</time>
      </trkpt>
      <trkpt lat="47.25556" lon="-2.31802">
        <ele>13.60000038147</ele>
        <time>2020-07-23T07:07:53.000Z</time>
      </trkpt>
      <trkpt lat="47.25553" lon="-2.31803">
        <ele>14</ele>
        <time>2020-07-23T07:07:54.000Z</time>
      </trkpt>
      <trkpt lat="47.25549" lon="-2.31804">
        <ele>14.39999961853</ele>
        <time>2020-07-23T07:07:55.000Z</time>
      </trkpt>
      <trkpt lat="47.25546" lon="-2.31805">
        <ele>15</ele>
        <time>2020-07-23T07:07:56.000Z</time>
      </trkpt>
      <trkpt lat="47.25526" lon="-2.31809">
        <ele>15</ele>
        <time>2020-07-23T07:08:02.000Z</time>
      </trkpt>
      <trkpt lat="47.2551" lon="-2.31818">
        <ele>15</ele>
        <time>2020-07-23T07:08:09.000Z</time>
      </trkpt>
      <trkpt lat="47.25512" lon="-2.31822">
        <ele>15</ele>
        <time>2020-07-23T07:08:12.000Z</time>
      </trkpt>
      <trkpt lat="47.25513" lon="-2.31821">
        <ele>15</ele>
        <time>2020-07-23T07:08:13.000Z</time>
      </trkpt>
      <trkpt lat="47.25515" lon="-2.3182">
        <ele>15.39999961853</ele>
        <time>2020-07-23T07:08:14.000Z</time>
      </trkpt>
      <trkpt lat="47.25516" lon="-2.3182">
        <ele>15.800000190735</ele>
        <time>2020-07-23T07:08:15.000Z</time>
      </trkpt>
      <trkpt lat="47.25516" lon="-2.31821">
        <ele>16.200000762939</ele>
        <time>2020-07-23T07:08:16.000Z</time>
      </trkpt>
      <trkpt lat="47.25517" lon="-2.31817">
        <ele>17</ele>
        <time>2020-07-23T07:12:53.000Z</time>
      </trkpt>
      <trkpt lat="47.25527" lon="-2.31813">
        <ele>17</ele>
        <time>2020-07-23T07:12:58.000Z</time>
      </trkpt>
      <trkpt lat="47.25546" lon="-2.31805">
        <ele>17</ele>
        <time>2020-07-23T07:13:06.000Z</time>
      </trkpt>
      <trkpt lat="47.25549" lon="-2.31802">
        <ele>17</ele>
        <time>2020-07-23T07:13:08.000Z</time>
      </trkpt>
      <trkpt lat="47.25552" lon="-2.31796">
        <ele>17</ele>
        <time>2020-07-23T07:13:10.000Z</time>
      </trkpt>
      <trkpt lat="47.25567" lon="-2.31774">
        <ele>17</ele>
        <time>2020-07-23T07:13:16.000Z</time>
      </trkpt>
      <trkpt lat="47.25577" lon="-2.31759">
        <ele>17</ele>
        <time>2020-07-23T07:13:19.000Z</time>
      </trkpt>
      <trkpt lat="47.25584" lon="-2.31746">
        <ele>17</ele>
        <time>2020-07-23T07:13:21.000Z</time>
      </trkpt>
      <trkpt lat="47.25589" lon="-2.31732">
        <ele>17</ele>
        <time>2020-07-23T07:13:23.000Z</time>
      </trkpt>
      <trkpt lat="47.25594" lon="-2.31721">
        <ele>17</ele>
        <time>2020-07-23T07:13:25.000Z</time>
      </trkpt>
      <trkpt lat="47.25598" lon="-2.31716">
        <ele>17</ele>
        <time>2020-07-23T07:13:26.000Z</time>
      </trkpt>
      <trkpt lat="47.25617" lon="-2.31707">
        <ele>16.60000038147</ele>
        <time>2020-07-23T07:13:30.000Z</time>
      </trkpt>
      <trkpt lat="47.25622" lon="-2.31706">
        <ele>16</ele>
        <time>2020-07-23T07:13:31.000Z</time>
      </trkpt>
      <trkpt lat="47.25628" lon="-2.31704">
        <ele>15.60000038147</ele>
        <time>2020-07-23T07:13:32.000Z</time>
      </trkpt>
      <trkpt lat="47.25633" lon="-2.31702">
        <ele>15.199999809265</ele>
        <time>2020-07-23T07:13:33.000Z</time>
      </trkpt>
      <trkpt lat="47.25639" lon="-2.31698">
        <ele>14.800000190735</ele>
        <time>2020-07-23T07:13:34.000Z</time>
      </trkpt>
      <trkpt lat="47.25644" lon="-2.31693">
        <ele>14.800000190735</ele>
        <time>2020-07-23T07:13:35.000Z</time>
      </trkpt>
      <trkpt lat="47.25655" lon="-2.31671">
        <ele>14.800000190735</ele>
        <time>2020-07-23T07:13:38.000Z</time>
      </trkpt>
      <trkpt lat="47.25662" lon="-2.31662">
        <ele>14.39999961853</ele>
        <time>2020-07-23T07:13:40.000Z</time>
      </trkpt>
      <trkpt lat="47.25667" lon="-2.31662">
        <ele>13.800000190735</ele>
        <time>2020-07-23T07:13:41.000Z</time>
      </trkpt>
      <trkpt lat="47.25672" lon="-2.31664">
        <ele>13.39999961853</ele>
        <time>2020-07-23T07:13:42.000Z</time>
      </trkpt>
      <trkpt lat="47.25676" lon="-2.31667">
        <ele>13</ele>
        <time>2020-07-23T07:13:43.000Z</time>
      </trkpt>
      <trkpt lat="47.25681" lon="-2.3167">
        <ele>12.60000038147</ele>
        <time>2020-07-23T07:13:44.000Z</time>
      </trkpt>
      <trkpt lat="47.25687" lon="-2.31673">
        <ele>12.60000038147</ele>
        <time>2020-07-23T07:13:45.000Z</time>
      </trkpt>
      <trkpt lat="47.25719" lon="-2.31691">
        <ele>12.60000038147</ele>
        <time>2020-07-23T07:13:50.000Z</time>
      </trkpt>
      <trkpt lat="47.25725" lon="-2.31695">
        <ele>12.60000038147</ele>
        <time>2020-07-23T07:13:51.000Z</time>
      </trkpt>
      <trkpt lat="47.25738" lon="-2.31693">
        <ele>12.60000038147</ele>
        <time>2020-07-23T07:13:53.000Z</time>
      </trkpt>
      <trkpt lat="47.25744" lon="-2.3169">
        <ele>12.199999809265</ele>
        <time>2020-07-23T07:13:54.000Z</time>
      </trkpt>
      <trkpt lat="47.25749" lon="-2.31686">
        <ele>11.800000190735</ele>
        <time>2020-07-23T07:13:55.000Z</time>
      </trkpt>
      <trkpt lat="47.25754" lon="-2.31681">
        <ele>11.39999961853</ele>
        <time>2020-07-23T07:13:56.000Z</time>
      </trkpt>
      <trkpt lat="47.25759" lon="-2.31677">
        <ele>10.800000190735</ele>
        <time>2020-07-23T07:13:57.000Z</time>
      </trkpt>
      <trkpt lat="47.25764" lon="-2.31674">
        <ele>10.39999961853</ele>
        <time>2020-07-23T07:13:58.000Z</time>
      </trkpt>
      <trkpt lat="47.25788" lon="-2.31651">
        <ele>10.39999961853</ele>
        <time>2020-07-23T07:14:04.000Z</time>
      </trkpt>
      <trkpt lat="47.25805" lon="-2.3164">
        <ele>10.39999961853</ele>
        <time>2020-07-23T07:14:08.000Z</time>
      </trkpt>
      <trkpt lat="47.25814" lon="-2.31633">
        <ele>10.39999961853</ele>
        <time>2020-07-23T07:14:10.000Z</time>
      </trkpt>
      <trkpt lat="47.25842" lon="-2.31607">
        <ele>10.39999961853</ele>
        <time>2020-07-23T07:14:17.000Z</time>
      </trkpt>
      <trkpt lat="47.25875" lon="-2.31575">
        <ele>10.39999961853</ele>
        <time>2020-07-23T07:14:24.000Z</time>
      </trkpt>
      <trkpt lat="47.25885" lon="-2.31563">
        <ele>10.39999961853</ele>
        <time>2020-07-23T07:14:26.000Z</time>
      </trkpt>
      <trkpt lat="47.25892" lon="-2.31549">
        <ele>10.39999961853</ele>
        <time>2020-07-23T07:14:28.000Z</time>
      </trkpt>
      <trkpt lat="47.25901" lon="-2.31525">
        <ele>10</ele>
        <time>2020-07-23T07:14:32.000Z</time>
      </trkpt>
      <trkpt lat="47.25902" lon="-2.31522">
        <ele>9.6000003814697</ele>
        <time>2020-07-23T07:14:33.000Z</time>
      </trkpt>
      <trkpt lat="47.25903" lon="-2.31521">
        <ele>9.1999998092651</ele>
        <time>2020-07-23T07:14:34.000Z</time>
      </trkpt>
      <trkpt lat="47.25905" lon="-2.31519">
        <ele>8.8000001907349</ele>
        <time>2020-07-23T07:14:35.000Z</time>
      </trkpt>
      <trkpt lat="47.25906" lon="-2.31518">
        <ele>8.3999996185303</ele>
        <time>2020-07-23T07:14:36.000Z</time>
      </trkpt>
      <trkpt lat="47.25913" lon="-2.31511">
        <ele>8.3999996185303</ele>
        <time>2020-07-23T07:14:43.000Z</time>
      </trkpt>
      <trkpt lat="47.25913" lon="-2.31504">
        <ele>8.3999996185303</ele>
        <time>2020-07-23T07:14:48.000Z</time>
      </trkpt>
      <trkpt lat="47.25913" lon="-2.31499">
        <ele>8.3999996185303</ele>
        <time>2020-07-23T07:14:51.000Z</time>
      </trkpt>
      <trkpt lat="47.25915" lon="-2.31492">
        <ele>8.3999996185303</ele>
        <time>2020-07-23T07:14:53.000Z</time>
      </trkpt>
      <trkpt lat="47.25926" lon="-2.31464">
        <ele>8.3999996185303</ele>
        <time>2020-07-23T07:14:58.000Z</time>
      </trkpt>
      <trkpt lat="47.25928" lon="-2.31459">
        <ele>8.3999996185303</ele>
        <time>2020-07-23T07:14:59.000Z</time>
      </trkpt>
      <trkpt lat="47.25935" lon="-2.31456">
        <ele>8.3999996185303</ele>
        <time>2020-07-23T07:15:01.000Z</time>
      </trkpt>
      <trkpt lat="47.25951" lon="-2.31466">
        <ele>8.3999996185303</ele>
        <time>2020-07-23T07:15:05.000Z</time>
      </trkpt>
      <trkpt lat="47.25955" lon="-2.3147">
        <ele>8.3999996185303</ele>
        <time>2020-07-23T07:15:06.000Z</time>
      </trkpt>
      <trkpt lat="47.25968" lon="-2.31486">
        <ele>8</ele>
        <time>2020-07-23T07:15:09.000Z</time>
      </trkpt>
      <trkpt lat="47.25971" lon="-2.31492">
        <ele>7.5999999046326</ele>
        <time>2020-07-23T07:15:10.000Z</time>
      </trkpt>
      <trkpt lat="47.25974" lon="-2.31499">
        <ele>7.1999998092651</ele>
        <time>2020-07-23T07:15:11.000Z</time>
      </trkpt>
      <trkpt lat="47.25977" lon="-2.31506">
        <ele>6.8000001907349</ele>
        <time>2020-07-23T07:15:12.000Z</time>
      </trkpt>
      <trkpt lat="47.25979" lon="-2.31512">
        <ele>6.4000000953674</ele>
        <time>2020-07-23T07:15:13.000Z</time>
      </trkpt>
      <trkpt lat="47.25982" lon="-2.31517">
        <ele>6.4000000953674</ele>
        <time>2020-07-23T07:15:14.000Z</time>
      </trkpt>
      <trkpt lat="47.25987" lon="-2.31524">
        <ele>6.4000000953674</ele>
        <time>2020-07-23T07:15:16.000Z</time>
      </trkpt>
      <trkpt lat="47.25998" lon="-2.31542">
        <ele>6.4000000953674</ele>
        <time>2020-07-23T07:15:23.000Z</time>
      </trkpt>
      <trkpt lat="47.26006" lon="-2.31553">
        <ele>6.4000000953674</ele>
        <time>2020-07-23T07:15:29.000Z</time>
      </trkpt>
      <trkpt lat="47.26014" lon="-2.31558">
        <ele>6.4000000953674</ele>
        <time>2020-07-23T07:15:33.000Z</time>
      </trkpt>
      <trkpt lat="47.26017" lon="-2.31555">
        <ele>6.4000000953674</ele>
        <time>2020-07-23T07:15:34.000Z</time>
      </trkpt>
      <trkpt lat="47.2603" lon="-2.31536">
        <ele>6.4000000953674</ele>
        <time>2020-07-23T07:15:40.000Z</time>
      </trkpt>
      <trkpt lat="47.26031" lon="-2.31534">
        <ele>6.4000000953674</ele>
        <time>2020-07-23T07:15:41.000Z</time>
      </trkpt>
      <trkpt lat="47.26036" lon="-2.31519">
        <ele>6.4000000953674</ele>
        <time>2020-07-23T07:15:46.000Z</time>
      </trkpt>
      <trkpt lat="47.26041" lon="-2.31513">
        <ele>6.4000000953674</ele>
        <time>2020-07-23T07:15:49.000Z</time>
      </trkpt>
      <trkpt lat="47.26048" lon="-2.3152">
        <ele>6.4000000953674</ele>
        <time>2020-07-23T07:15:51.000Z</time>
      </trkpt>
      <trkpt lat="47.26061" lon="-2.31542">
        <ele>6.4000000953674</ele>
        <time>2020-07-23T07:15:55.000Z</time>
      </trkpt>
      <trkpt lat="47.26064" lon="-2.31547">
        <ele>6.4000000953674</ele>
        <time>2020-07-23T07:15:56.000Z</time>
      </trkpt>
      <trkpt lat="47.26069" lon="-2.31559">
        <ele>6.4000000953674</ele>
        <time>2020-07-23T07:15:58.000Z</time>
      </trkpt>
      <trkpt lat="47.26075" lon="-2.31574">
        <ele>6</ele>
        <time>2020-07-23T07:16:01.000Z</time>
      </trkpt>
      <trkpt lat="47.26078" lon="-2.31576">
        <ele>5.5999999046326</ele>
        <time>2020-07-23T07:16:02.000Z</time>
      </trkpt>
      <trkpt lat="47.2608" lon="-2.31579">
        <ele>5.1999998092651</ele>
        <time>2020-07-23T07:16:03.000Z</time>
      </trkpt>
      <trkpt lat="47.26083" lon="-2.3158">
        <ele>4.4000000953674</ele>
        <time>2020-07-23T07:16:04.000Z</time>
      </trkpt>
      <trkpt lat="47.26086" lon="-2.31582">
        <ele>4.4000000953674</ele>
        <time>2020-07-23T07:16:05.000Z</time>
      </trkpt>
      <trkpt lat="47.26096" lon="-2.31594">
        <ele>4.4000000953674</ele>
        <time>2020-07-23T07:16:08.000Z</time>
      </trkpt>
      <trkpt lat="47.26099" lon="-2.316">
        <ele>4.4000000953674</ele>
        <time>2020-07-23T07:16:09.000Z</time>
      </trkpt>
      <trkpt lat="47.26117" lon="-2.31642">
        <ele>4.4000000953674</ele>
        <time>2020-07-23T07:16:16.000Z</time>
      </trkpt>
      <trkpt lat="47.26122" lon="-2.31669">
        <ele>4.4000000953674</ele>
        <time>2020-07-23T07:16:21.000Z</time>
      </trkpt>
      <trkpt lat="47.26124" lon="-2.31704">
        <ele>4.4000000953674</ele>
        <time>2020-07-23T07:16:28.000Z</time>
      </trkpt>
      <trkpt lat="47.26127" lon="-2.31724">
        <ele>4.4000000953674</ele>
        <time>2020-07-23T07:16:33.000Z</time>
      </trkpt>
      <trkpt lat="47.26129" lon="-2.31743">
        <ele>4.4000000953674</ele>
        <time>2020-07-23T07:16:41.000Z</time>
      </trkpt>
      <trkpt lat="47.26131" lon="-2.31755">
        <ele>4.4000000953674</ele>
        <time>2020-07-23T07:16:46.000Z</time>
      </trkpt>
      <trkpt lat="47.26134" lon="-2.31775">
        <ele>4.4000000953674</ele>
        <time>2020-07-23T07:16:53.000Z</time>
      </trkpt>
      <trkpt lat="47.26138" lon="-2.31801">
        <ele>4.4000000953674</ele>
        <time>2020-07-23T07:17:01.000Z</time>
      </trkpt>
      <trkpt lat="47.26142" lon="-2.31835">
        <ele>4.4000000953674</ele>
        <time>2020-07-23T07:17:07.000Z</time>
      </trkpt>
      <trkpt lat="47.26143" lon="-2.3184">
        <ele>4.4000000953674</ele>
        <time>2020-07-23T07:17:08.000Z</time>
      </trkpt>
      <trkpt lat="47.26149" lon="-2.31878">
        <ele>4.4000000953674</ele>
        <time>2020-07-23T07:17:14.000Z</time>
      </trkpt>
      <trkpt lat="47.26157" lon="-2.31947">
        <ele>4.4000000953674</ele>
        <time>2020-07-23T07:17:23.000Z</time>
      </trkpt>
      <trkpt lat="47.26166" lon="-2.31996">
        <ele>4.4000000953674</ele>
        <time>2020-07-23T07:17:30.000Z</time>
      </trkpt>
      <trkpt lat="47.26171" lon="-2.3201">
        <ele>4.4000000953674</ele>
        <time>2020-07-23T07:17:34.000Z</time>
      </trkpt>
      <trkpt lat="47.26176" lon="-2.32017">
        <ele>4.4000000953674</ele>
        <time>2020-07-23T07:17:41.000Z</time>
      </trkpt>
      <trkpt lat="47.26187" lon="-2.32019">
        <ele>4.4000000953674</ele>
        <time>2020-07-23T07:17:46.000Z</time>
      </trkpt>
      <trkpt lat="47.2619" lon="-2.3202">
        <ele>4.4000000953674</ele>
        <time>2020-07-23T07:17:48.000Z</time>
      </trkpt>
      <trkpt lat="47.26195" lon="-2.32018">
        <ele>4.4000000953674</ele>
        <time>2020-07-23T07:17:51.000Z</time>
      </trkpt>
      <trkpt lat="47.26197" lon="-2.32011">
        <ele>4.4000000953674</ele>
        <time>2020-07-23T07:17:53.000Z</time>
      </trkpt>
      <trkpt lat="47.26203" lon="-2.31999">
        <ele>4.4000000953674</ele>
        <time>2020-07-23T07:17:57.000Z</time>
      </trkpt>
      <trkpt lat="47.26205" lon="-2.31997">
        <ele>4.4000000953674</ele>
        <time>2020-07-23T07:17:58.000Z</time>
      </trkpt>
      <trkpt lat="47.26222" lon="-2.3198">
        <ele>4.4000000953674</ele>
        <time>2020-07-23T07:18:04.000Z</time>
      </trkpt>
      <trkpt lat="47.26228" lon="-2.31976">
        <ele>4.4000000953674</ele>
        <time>2020-07-23T07:18:06.000Z</time>
      </trkpt>
      <trkpt lat="47.26236" lon="-2.31973">
        <ele>4.4000000953674</ele>
        <time>2020-07-23T07:18:08.000Z</time>
      </trkpt>
      <trkpt lat="47.26246" lon="-2.31958">
        <ele>4.4000000953674</ele>
        <time>2020-07-23T07:18:12.000Z</time>
      </trkpt>
      <trkpt lat="47.26259" lon="-2.31932">
        <ele>4.4000000953674</ele>
        <time>2020-07-23T07:18:18.000Z</time>
      </trkpt>
      <trkpt lat="47.26271" lon="-2.31912">
        <ele>4.4000000953674</ele>
        <time>2020-07-23T07:18:22.000Z</time>
      </trkpt>
      <trkpt lat="47.26275" lon="-2.31908">
        <ele>4.4000000953674</ele>
        <time>2020-07-23T07:18:23.000Z</time>
      </trkpt>
      <trkpt lat="47.26291" lon="-2.31894">
        <ele>4.4000000953674</ele>
        <time>2020-07-23T07:18:27.000Z</time>
      </trkpt>
      <trkpt lat="47.26294" lon="-2.31895">
        <ele>4.4000000953674</ele>
        <time>2020-07-23T07:18:28.000Z</time>
      </trkpt>
      <trkpt lat="47.26299" lon="-2.31904">
        <ele>4.4000000953674</ele>
        <time>2020-07-23T07:18:31.000Z</time>
      </trkpt>
      <trkpt lat="47.26302" lon="-2.31912">
        <ele>4.4000000953674</ele>
        <time>2020-07-23T07:18:33.000Z</time>
      </trkpt>
      <trkpt lat="47.26307" lon="-2.31921">
        <ele>4.4000000953674</ele>
        <time>2020-07-23T07:18:35.000Z</time>
      </trkpt>
      <trkpt lat="47.2631" lon="-2.31924">
        <ele>4.4000000953674</ele>
        <time>2020-07-23T07:18:36.000Z</time>
      </trkpt>
      <trkpt lat="47.26326" lon="-2.31924">
        <ele>4.4000000953674</ele>
        <time>2020-07-23T07:18:40.000Z</time>
      </trkpt>
      <trkpt lat="47.26346" lon="-2.3193">
        <ele>4.4000000953674</ele>
        <time>2020-07-23T07:18:45.000Z</time>
      </trkpt>
      <trkpt lat="47.26353" lon="-2.3195">
        <ele>4.4000000953674</ele>
        <time>2020-07-23T07:18:49.000Z</time>
      </trkpt>
      <trkpt lat="47.26367" lon="-2.31977">
        <ele>4.8000001907349</ele>
        <time>2020-07-23T07:18:55.000Z</time>
      </trkpt>
      <trkpt lat="47.2637" lon="-2.31979">
        <ele>5.1999998092651</ele>
        <time>2020-07-23T07:18:56.000Z</time>
      </trkpt>
      <trkpt lat="47.26374" lon="-2.3198">
        <ele>5.5999999046326</ele>
        <time>2020-07-23T07:18:57.000Z</time>
      </trkpt>
      <trkpt lat="47.26378" lon="-2.31981">
        <ele>6.1999998092651</ele>
        <time>2020-07-23T07:18:58.000Z</time>
      </trkpt>
      <trkpt lat="47.26381" lon="-2.31981">
        <ele>6.5999999046326</ele>
        <time>2020-07-23T07:18:59.000Z</time>
      </trkpt>
      <trkpt lat="47.26385" lon="-2.31981">
        <ele>6.5999999046326</ele>
        <time>2020-07-23T07:19:00.000Z</time>
      </trkpt>
      <trkpt lat="47.26398" lon="-2.31983">
        <ele>7</ele>
        <time>2020-07-23T07:19:04.000Z</time>
      </trkpt>
      <trkpt lat="47.26401" lon="-2.31984">
        <ele>7.4000000953674</ele>
        <time>2020-07-23T07:19:05.000Z</time>
      </trkpt>
      <trkpt lat="47.26404" lon="-2.31985">
        <ele>7.8000001907349</ele>
        <time>2020-07-23T07:19:06.000Z</time>
      </trkpt>
      <trkpt lat="47.26407" lon="-2.31985">
        <ele>8.1999998092651</ele>
        <time>2020-07-23T07:19:07.000Z</time>
      </trkpt>
      <trkpt lat="47.26411" lon="-2.31986">
        <ele>8.6000003814697</ele>
        <time>2020-07-23T07:19:08.000Z</time>
      </trkpt>
      <trkpt lat="47.26431" lon="-2.3199">
        <ele>9</ele>
        <time>2020-07-23T07:19:14.000Z</time>
      </trkpt>
      <trkpt lat="47.26435" lon="-2.3199">
        <ele>9.3999996185303</ele>
        <time>2020-07-23T07:19:15.000Z</time>
      </trkpt>
      <trkpt lat="47.26438" lon="-2.3199">
        <ele>9.8000001907349</ele>
        <time>2020-07-23T07:19:16.000Z</time>
      </trkpt>
      <trkpt lat="47.26442" lon="-2.3199">
        <ele>10.199999809265</ele>
        <time>2020-07-23T07:19:17.000Z</time>
      </trkpt>
      <trkpt lat="47.26445" lon="-2.31991">
        <ele>10.60000038147</ele>
        <time>2020-07-23T07:19:18.000Z</time>
      </trkpt>
      <trkpt lat="47.26454" lon="-2.31992">
        <ele>10.60000038147</ele>
        <time>2020-07-23T07:19:21.000Z</time>
      </trkpt>
      <trkpt lat="47.2646" lon="-2.31992">
        <ele>11</ele>
        <time>2020-07-23T07:19:23.000Z</time>
      </trkpt>
      <trkpt lat="47.26463" lon="-2.31992">
        <ele>11.39999961853</ele>
        <time>2020-07-23T07:19:24.000Z</time>
      </trkpt>
      <trkpt lat="47.26466" lon="-2.31992">
        <ele>11.800000190735</ele>
        <time>2020-07-23T07:19:25.000Z</time>
      </trkpt>
      <trkpt lat="47.26469" lon="-2.31992">
        <ele>12.199999809265</ele>
        <time>2020-07-23T07:19:26.000Z</time>
      </trkpt>
      <trkpt lat="47.26472" lon="-2.31992">
        <ele>12.60000038147</ele>
        <time>2020-07-23T07:19:27.000Z</time>
      </trkpt>
      <trkpt lat="47.26494" lon="-2.31996">
        <ele>12.60000038147</ele>
        <time>2020-07-23T07:19:34.000Z</time>
      </trkpt>
      <trkpt lat="47.26502" lon="-2.31995">
        <ele>13</ele>
        <time>2020-07-23T07:19:37.000Z</time>
      </trkpt>
      <trkpt lat="47.26505" lon="-2.31995">
        <ele>13.39999961853</ele>
        <time>2020-07-23T07:19:38.000Z</time>
      </trkpt>
      <trkpt lat="47.26507" lon="-2.31995">
        <ele>13.800000190735</ele>
        <time>2020-07-23T07:19:39.000Z</time>
      </trkpt>
      <trkpt lat="47.26508" lon="-2.31994">
        <ele>14.199999809265</ele>
        <time>2020-07-23T07:19:40.000Z</time>
      </trkpt>
      <trkpt lat="47.2651" lon="-2.31993">
        <ele>14.60000038147</ele>
        <time>2020-07-23T07:19:41.000Z</time>
      </trkpt>
      <trkpt lat="47.26517" lon="-2.31991">
        <ele>15.60000038147</ele>
        <time>2020-07-23T07:19:46.000Z</time>
      </trkpt>
      <trkpt lat="47.26518" lon="-2.31991">
        <ele>16</ele>
        <time>2020-07-23T07:19:47.000Z</time>
      </trkpt>
      <trkpt lat="47.2652" lon="-2.31991">
        <ele>16.39999961853</ele>
        <time>2020-07-23T07:19:48.000Z</time>
      </trkpt>
      <trkpt lat="47.26522" lon="-2.31992">
        <ele>16.799999237061</ele>
        <time>2020-07-23T07:19:49.000Z</time>
      </trkpt>
      <trkpt lat="47.26528" lon="-2.31999">
        <ele>16.799999237061</ele>
        <time>2020-07-23T07:19:53.000Z</time>
      </trkpt>
      <trkpt lat="47.26538" lon="-2.32012">
        <ele>16.799999237061</ele>
        <time>2020-07-23T07:19:59.000Z</time>
      </trkpt>
      <trkpt lat="47.26543" lon="-2.32027">
        <ele>17.200000762939</ele>
        <time>2020-07-23T07:20:03.000Z</time>
      </trkpt>
      <trkpt lat="47.26544" lon="-2.3203">
        <ele>17.60000038147</ele>
        <time>2020-07-23T07:20:04.000Z</time>
      </trkpt>
      <trkpt lat="47.26546" lon="-2.32032">
        <ele>18</ele>
        <time>2020-07-23T07:20:05.000Z</time>
      </trkpt>
      <trkpt lat="47.26549" lon="-2.32034">
        <ele>18.39999961853</ele>
        <time>2020-07-23T07:20:06.000Z</time>
      </trkpt>
      <trkpt lat="47.26552" lon="-2.32034">
        <ele>18.799999237061</ele>
        <time>2020-07-23T07:20:07.000Z</time>
      </trkpt>
      <trkpt lat="47.26559" lon="-2.32033">
        <ele>18.799999237061</ele>
        <time>2020-07-23T07:20:09.000Z</time>
      </trkpt>
      <trkpt lat="47.26565" lon="-2.32031">
        <ele>19.200000762939</ele>
        <time>2020-07-23T07:20:11.000Z</time>
      </trkpt>
      <trkpt lat="47.26569" lon="-2.3203">
        <ele>19.60000038147</ele>
        <time>2020-07-23T07:20:12.000Z</time>
      </trkpt>
      <trkpt lat="47.26572" lon="-2.32028">
        <ele>20</ele>
        <time>2020-07-23T07:20:13.000Z</time>
      </trkpt>
      <trkpt lat="47.26576" lon="-2.32027">
        <ele>20.60000038147</ele>
        <time>2020-07-23T07:20:14.000Z</time>
      </trkpt>
      <trkpt lat="47.26579" lon="-2.32026">
        <ele>21</ele>
        <time>2020-07-23T07:20:15.000Z</time>
      </trkpt>
      <trkpt lat="47.26582" lon="-2.32025">
        <ele>21</ele>
        <time>2020-07-23T07:20:16.000Z</time>
      </trkpt>
      <trkpt lat="47.26605" lon="-2.32016">
        <ele>21</ele>
        <time>2020-07-23T07:20:23.000Z</time>
      </trkpt>
      <trkpt lat="47.26622" lon="-2.32011">
        <ele>21.39999961853</ele>
        <time>2020-07-23T07:20:28.000Z</time>
      </trkpt>
      <trkpt lat="47.26625" lon="-2.32009">
        <ele>21.799999237061</ele>
        <time>2020-07-23T07:20:29.000Z</time>
      </trkpt>
      <trkpt lat="47.26629" lon="-2.32008">
        <ele>22.200000762939</ele>
        <time>2020-07-23T07:20:30.000Z</time>
      </trkpt>
      <trkpt lat="47.26632" lon="-2.32007">
        <ele>22.60000038147</ele>
        <time>2020-07-23T07:20:31.000Z</time>
      </trkpt>
      <trkpt lat="47.26636" lon="-2.32006">
        <ele>23</ele>
        <time>2020-07-23T07:20:32.000Z</time>
      </trkpt>
      <trkpt lat="47.26644" lon="-2.32006">
        <ele>23</ele>
        <time>2020-07-23T07:20:36.000Z</time>
      </trkpt>
      <trkpt lat="47.26651" lon="-2.32015">
        <ele>23</ele>
        <time>2020-07-23T07:20:40.000Z</time>
      </trkpt>
      <trkpt lat="47.26658" lon="-2.32046">
        <ele>23</ele>
        <time>2020-07-23T07:20:45.000Z</time>
      </trkpt>
      <trkpt lat="47.26668" lon="-2.32092">
        <ele>23</ele>
        <time>2020-07-23T07:20:52.000Z</time>
      </trkpt>
      <trkpt lat="47.26677" lon="-2.32123">
        <ele>23</ele>
        <time>2020-07-23T07:20:58.000Z</time>
      </trkpt>
      <trkpt lat="47.26682" lon="-2.32118">
        <ele>23</ele>
        <time>2020-07-23T07:21:01.000Z</time>
      </trkpt>
      <trkpt lat="47.26684" lon="-2.321">
        <ele>23</ele>
        <time>2020-07-23T07:21:06.000Z</time>
      </trkpt>
      <trkpt lat="47.26685" lon="-2.32095">
        <ele>23</ele>
        <time>2020-07-23T07:21:07.000Z</time>
      </trkpt>
      <trkpt lat="47.26685" lon="-2.32072">
        <ele>23</ele>
        <time>2020-07-23T07:21:13.000Z</time>
      </trkpt>
      <trkpt lat="47.26686" lon="-2.32059">
        <ele>23</ele>
        <time>2020-07-23T07:21:19.000Z</time>
      </trkpt>
      <trkpt lat="47.26687" lon="-2.32043">
        <ele>23</ele>
        <time>2020-07-23T07:21:26.000Z</time>
      </trkpt>
      <trkpt lat="47.26692" lon="-2.32023">
        <ele>23</ele>
        <time>2020-07-23T07:21:31.000Z</time>
      </trkpt>
      <trkpt lat="47.26703" lon="-2.32003">
        <ele>23</ele>
        <time>2020-07-23T07:21:36.000Z</time>
      </trkpt>
      <trkpt lat="47.26706" lon="-2.31999">
        <ele>23</ele>
        <time>2020-07-23T07:21:37.000Z</time>
      </trkpt>
      <trkpt lat="47.26725" lon="-2.31989">
        <ele>23</ele>
        <time>2020-07-23T07:21:41.000Z</time>
      </trkpt>
      <trkpt lat="47.26729" lon="-2.31986">
        <ele>23</ele>
        <time>2020-07-23T07:21:42.000Z</time>
      </trkpt>
      <trkpt lat="47.26737" lon="-2.31979">
        <ele>22.60000038147</ele>
        <time>2020-07-23T07:21:44.000Z</time>
      </trkpt>
      <trkpt lat="47.26743" lon="-2.31975">
        <ele>22.200000762939</ele>
        <time>2020-07-23T07:21:45.000Z</time>
      </trkpt>
      <trkpt lat="47.26747" lon="-2.31971">
        <ele>21.799999237061</ele>
        <time>2020-07-23T07:21:46.000Z</time>
      </trkpt>
      <trkpt lat="47.2675" lon="-2.31967">
        <ele>21.39999961853</ele>
        <time>2020-07-23T07:21:47.000Z</time>
      </trkpt>
      <trkpt lat="47.26753" lon="-2.31961">
        <ele>21</ele>
        <time>2020-07-23T07:21:48.000Z</time>
      </trkpt>
      <trkpt lat="47.26765" lon="-2.31946">
        <ele>21</ele>
        <time>2020-07-23T07:21:52.000Z</time>
      </trkpt>
      <trkpt lat="47.26775" lon="-2.31958">
        <ele>21</ele>
        <time>2020-07-23T07:21:55.000Z</time>
      </trkpt>
      <trkpt lat="47.26778" lon="-2.31965">
        <ele>21</ele>
        <time>2020-07-23T07:21:56.000Z</time>
      </trkpt>
      <trkpt lat="47.26787" lon="-2.31979">
        <ele>20.60000038147</ele>
        <time>2020-07-23T07:21:58.000Z</time>
      </trkpt>
      <trkpt lat="47.26791" lon="-2.31986">
        <ele>20.200000762939</ele>
        <time>2020-07-23T07:21:59.000Z</time>
      </trkpt>
      <trkpt lat="47.26795" lon="-2.31995">
        <ele>19.799999237061</ele>
        <time>2020-07-23T07:22:00.000Z</time>
      </trkpt>
      <trkpt lat="47.268" lon="-2.32004">
        <ele>19.39999961853</ele>
        <time>2020-07-23T07:22:01.000Z</time>
      </trkpt>
      <trkpt lat="47.26804" lon="-2.32014">
        <ele>19</ele>
        <time>2020-07-23T07:22:02.000Z</time>
      </trkpt>
      <trkpt lat="47.26812" lon="-2.32035">
        <ele>19</ele>
        <time>2020-07-23T07:22:04.000Z</time>
      </trkpt>
      <trkpt lat="47.26831" lon="-2.32102">
        <ele>19</ele>
        <time>2020-07-23T07:22:10.000Z</time>
      </trkpt>
      <trkpt lat="47.26836" lon="-2.32124">
        <ele>18.39999961853</ele>
        <time>2020-07-23T07:22:12.000Z</time>
      </trkpt>
      <trkpt lat="47.26839" lon="-2.32134">
        <ele>18</ele>
        <time>2020-07-23T07:22:13.000Z</time>
      </trkpt>
      <trkpt lat="47.26842" lon="-2.32144">
        <ele>17.60000038147</ele>
        <time>2020-07-23T07:22:14.000Z</time>
      </trkpt>
      <trkpt lat="47.26845" lon="-2.32155">
        <ele>16.60000038147</ele>
        <time>2020-07-23T07:22:15.000Z</time>
      </trkpt>
      <trkpt lat="47.26848" lon="-2.32164">
        <ele>16.60000038147</ele>
        <time>2020-07-23T07:22:16.000Z</time>
      </trkpt>
      <trkpt lat="47.26855" lon="-2.32183">
        <ele>16.60000038147</ele>
        <time>2020-07-23T07:22:18.000Z</time>
      </trkpt>
      <trkpt lat="47.26864" lon="-2.32201">
        <ele>16.200000762939</ele>
        <time>2020-07-23T07:22:20.000Z</time>
      </trkpt>
      <trkpt lat="47.26868" lon="-2.3221">
        <ele>15.800000190735</ele>
        <time>2020-07-23T07:22:21.000Z</time>
      </trkpt>
      <trkpt lat="47.26872" lon="-2.32219">
        <ele>15.39999961853</ele>
        <time>2020-07-23T07:22:22.000Z</time>
      </trkpt>
      <trkpt lat="47.26877" lon="-2.32227">
        <ele>15</ele>
        <time>2020-07-23T07:22:23.000Z</time>
      </trkpt>
      <trkpt lat="47.26882" lon="-2.32235">
        <ele>14.60000038147</ele>
        <time>2020-07-23T07:22:24.000Z</time>
      </trkpt>
      <trkpt lat="47.26891" lon="-2.32251">
        <ele>14.60000038147</ele>
        <time>2020-07-23T07:22:26.000Z</time>
      </trkpt>
      <trkpt lat="47.26906" lon="-2.32277">
        <ele>14</ele>
        <time>2020-07-23T07:22:29.000Z</time>
      </trkpt>
      <trkpt lat="47.2691" lon="-2.32287">
        <ele>13.60000038147</ele>
        <time>2020-07-23T07:22:30.000Z</time>
      </trkpt>
      <trkpt lat="47.26914" lon="-2.32298">
        <ele>13.199999809265</ele>
        <time>2020-07-23T07:22:31.000Z</time>
      </trkpt>
      <trkpt lat="47.26917" lon="-2.32309">
        <ele>12.800000190735</ele>
        <time>2020-07-23T07:22:32.000Z</time>
      </trkpt>
      <trkpt lat="47.26919" lon="-2.32319">
        <ele>12.199999809265</ele>
        <time>2020-07-23T07:22:33.000Z</time>
      </trkpt>
      <trkpt lat="47.26924" lon="-2.32337">
        <ele>12.199999809265</ele>
        <time>2020-07-23T07:22:35.000Z</time>
      </trkpt>
      <trkpt lat="47.26928" lon="-2.32344">
        <ele>11.800000190735</ele>
        <time>2020-07-23T07:22:36.000Z</time>
      </trkpt>
      <trkpt lat="47.26932" lon="-2.3235">
        <ele>11.39999961853</ele>
        <time>2020-07-23T07:22:37.000Z</time>
      </trkpt>
      <trkpt lat="47.26935" lon="-2.32356">
        <ele>11</ele>
        <time>2020-07-23T07:22:38.000Z</time>
      </trkpt>
      <trkpt lat="47.26938" lon="-2.32364">
        <ele>10.199999809265</ele>
        <time>2020-07-23T07:22:39.000Z</time>
      </trkpt>
      <trkpt lat="47.2694" lon="-2.32371">
        <ele>10.199999809265</ele>
        <time>2020-07-23T07:22:40.000Z</time>
      </trkpt>
      <trkpt lat="47.26942" lon="-2.3238">
        <ele>10.199999809265</ele>
        <time>2020-07-23T07:22:41.000Z</time>
      </trkpt>
      <trkpt lat="47.26955" lon="-2.32421">
        <ele>10.199999809265</ele>
        <time>2020-07-23T07:22:46.000Z</time>
      </trkpt>
      <trkpt lat="47.26963" lon="-2.32436">
        <ele>10.199999809265</ele>
        <time>2020-07-23T07:22:48.000Z</time>
      </trkpt>
      <trkpt lat="47.26974" lon="-2.32448">
        <ele>10.199999809265</ele>
        <time>2020-07-23T07:22:50.000Z</time>
      </trkpt>
      <trkpt lat="47.26994" lon="-2.32485">
        <ele>9.8000001907349</ele>
        <time>2020-07-23T07:22:55.000Z</time>
      </trkpt>
      <trkpt lat="47.26997" lon="-2.32492">
        <ele>9.3999996185303</ele>
        <time>2020-07-23T07:22:56.000Z</time>
      </trkpt>
      <trkpt lat="47.27" lon="-2.32498">
        <ele>8.8000001907349</ele>
        <time>2020-07-23T07:22:57.000Z</time>
      </trkpt>
      <trkpt lat="47.27003" lon="-2.32503">
        <ele>8.3999996185303</ele>
        <time>2020-07-23T07:22:58.000Z</time>
      </trkpt>
      <trkpt lat="47.27008" lon="-2.32506">
        <ele>8</ele>
        <time>2020-07-23T07:22:59.000Z</time>
      </trkpt>
      <trkpt lat="47.27025" lon="-2.32502">
        <ele>8</ele>
        <time>2020-07-23T07:23:02.000Z</time>
      </trkpt>
      <trkpt lat="47.27033" lon="-2.32486">
        <ele>8</ele>
        <time>2020-07-23T07:23:05.000Z</time>
      </trkpt>
      <trkpt lat="47.27033" lon="-2.3246">
        <ele>8</ele>
        <time>2020-07-23T07:23:08.000Z</time>
      </trkpt>
      <trkpt lat="47.27032" lon="-2.32449">
        <ele>8</ele>
        <time>2020-07-23T07:23:09.000Z</time>
      </trkpt>
      <trkpt lat="47.27028" lon="-2.32389">
        <ele>8</ele>
        <time>2020-07-23T07:23:15.000Z</time>
      </trkpt>
      <trkpt lat="47.27021" lon="-2.32333">
        <ele>7.5999999046326</ele>
        <time>2020-07-23T07:23:21.000Z</time>
      </trkpt>
      <trkpt lat="47.27021" lon="-2.32325">
        <ele>7.1999998092651</ele>
        <time>2020-07-23T07:23:22.000Z</time>
      </trkpt>
      <trkpt lat="47.2702" lon="-2.32316">
        <ele>6.8000001907349</ele>
        <time>2020-07-23T07:23:23.000Z</time>
      </trkpt>
      <trkpt lat="47.2702" lon="-2.32306">
        <ele>6.4000000953674</ele>
        <time>2020-07-23T07:23:24.000Z</time>
      </trkpt>
      <trkpt lat="47.2702" lon="-2.32297">
        <ele>6</ele>
        <time>2020-07-23T07:23:25.000Z</time>
      </trkpt>
      <trkpt lat="47.2702" lon="-2.32263">
        <ele>6</ele>
        <time>2020-07-23T07:23:29.000Z</time>
      </trkpt>
      <trkpt lat="47.27018" lon="-2.32221">
        <ele>6</ele>
        <time>2020-07-23T07:23:34.000Z</time>
      </trkpt>
      <trkpt lat="47.27017" lon="-2.32212">
        <ele>6</ele>
        <time>2020-07-23T07:23:35.000Z</time>
      </trkpt>
      <trkpt lat="47.27002" lon="-2.32175">
        <ele>6</ele>
        <time>2020-07-23T07:23:40.000Z</time>
      </trkpt>
      <trkpt lat="47.26989" lon="-2.32148">
        <ele>6</ele>
        <time>2020-07-23T07:23:44.000Z</time>
      </trkpt>
      <trkpt lat="47.26995" lon="-2.32131">
        <ele>6</ele>
        <time>2020-07-23T07:23:47.000Z</time>
      </trkpt>
      <trkpt lat="47.27001" lon="-2.32124">
        <ele>6</ele>
        <time>2020-07-23T07:23:49.000Z</time>
      </trkpt>
      <trkpt lat="47.27009" lon="-2.32111">
        <ele>6</ele>
        <time>2020-07-23T07:23:52.000Z</time>
      </trkpt>
      <trkpt lat="47.27013" lon="-2.32099">
        <ele>6</ele>
        <time>2020-07-23T07:23:54.000Z</time>
      </trkpt>
      <trkpt lat="47.27014" lon="-2.32084">
        <ele>6</ele>
        <time>2020-07-23T07:23:56.000Z</time>
      </trkpt>
      <trkpt lat="47.27015" lon="-2.3207">
        <ele>6</ele>
        <time>2020-07-23T07:23:58.000Z</time>
      </trkpt>
      <trkpt lat="47.27016" lon="-2.32043">
        <ele>6</ele>
        <time>2020-07-23T07:24:02.000Z</time>
      </trkpt>
      <trkpt lat="47.27015" lon="-2.32036">
        <ele>6.4000000953674</ele>
        <time>2020-07-23T07:24:03.000Z</time>
      </trkpt>
      <trkpt lat="47.27014" lon="-2.3203">
        <ele>6.8000001907349</ele>
        <time>2020-07-23T07:24:04.000Z</time>
      </trkpt>
      <trkpt lat="47.27013" lon="-2.32025">
        <ele>7.1999998092651</ele>
        <time>2020-07-23T07:24:05.000Z</time>
      </trkpt>
      <trkpt lat="47.27012" lon="-2.32019">
        <ele>7.5999999046326</ele>
        <time>2020-07-23T07:24:06.000Z</time>
      </trkpt>
      <trkpt lat="47.2701" lon="-2.32014">
        <ele>8.1999998092651</ele>
        <time>2020-07-23T07:24:07.000Z</time>
      </trkpt>
      <trkpt lat="47.27009" lon="-2.32008">
        <ele>8.1999998092651</ele>
        <time>2020-07-23T07:24:08.000Z</time>
      </trkpt>
      <trkpt lat="47.27006" lon="-2.31979">
        <ele>8.1999998092651</ele>
        <time>2020-07-23T07:24:13.000Z</time>
      </trkpt>
      <trkpt lat="47.27009" lon="-2.31977">
        <ele>8.1999998092651</ele>
        <time>2020-07-23T07:24:14.000Z</time>
      </trkpt>
      <trkpt lat="47.27012" lon="-2.31975">
        <ele>8.6000003814697</ele>
        <time>2020-07-23T07:24:15.000Z</time>
      </trkpt>
      <trkpt lat="47.27014" lon="-2.31973">
        <ele>9</ele>
        <time>2020-07-23T07:24:16.000Z</time>
      </trkpt>
      <trkpt lat="47.27018" lon="-2.3197">
        <ele>9.3999996185303</ele>
        <time>2020-07-23T07:24:17.000Z</time>
      </trkpt>
      <trkpt lat="47.27023" lon="-2.31968">
        <ele>10.199999809265</ele>
        <time>2020-07-23T07:24:18.000Z</time>
      </trkpt>
      <trkpt lat="47.27027" lon="-2.31966">
        <ele>10.199999809265</ele>
        <time>2020-07-23T07:24:19.000Z</time>
      </trkpt>
      <trkpt lat="47.27034" lon="-2.31961">
        <ele>10.199999809265</ele>
        <time>2020-07-23T07:24:21.000Z</time>
      </trkpt>
      <trkpt lat="47.27048" lon="-2.31958">
        <ele>10.199999809265</ele>
        <time>2020-07-23T07:24:24.000Z</time>
      </trkpt>
      <trkpt lat="47.27079" lon="-2.31955">
        <ele>10.199999809265</ele>
        <time>2020-07-23T07:24:29.000Z</time>
      </trkpt>
      <trkpt lat="47.27091" lon="-2.31956">
        <ele>10.199999809265</ele>
        <time>2020-07-23T07:24:31.000Z</time>
      </trkpt>
      <trkpt lat="47.27109" lon="-2.31962">
        <ele>10.199999809265</ele>
        <time>2020-07-23T07:24:34.000Z</time>
      </trkpt>
      <trkpt lat="47.27115" lon="-2.31965">
        <ele>10.199999809265</ele>
        <time>2020-07-23T07:24:35.000Z</time>
      </trkpt>
      <trkpt lat="47.27141" lon="-2.31983">
        <ele>9.8000001907349</ele>
        <time>2020-07-23T07:24:39.000Z</time>
      </trkpt>
      <trkpt lat="47.27146" lon="-2.31987">
        <ele>9.3999996185303</ele>
        <time>2020-07-23T07:24:40.000Z</time>
      </trkpt>
      <trkpt lat="47.27151" lon="-2.31991">
        <ele>9</ele>
        <time>2020-07-23T07:24:41.000Z</time>
      </trkpt>
      <trkpt lat="47.27157" lon="-2.31993">
        <ele>8.3999996185303</ele>
        <time>2020-07-23T07:24:42.000Z</time>
      </trkpt>
      <trkpt lat="47.27162" lon="-2.31994">
        <ele>8</ele>
        <time>2020-07-23T07:24:43.000Z</time>
      </trkpt>
      <trkpt lat="47.27173" lon="-2.31982">
        <ele>8</ele>
        <time>2020-07-23T07:24:46.000Z</time>
      </trkpt>
      <trkpt lat="47.27188" lon="-2.31961">
        <ele>8</ele>
        <time>2020-07-23T07:24:51.000Z</time>
      </trkpt>
      <trkpt lat="47.27203" lon="-2.3194">
        <ele>8</ele>
        <time>2020-07-23T07:24:56.000Z</time>
      </trkpt>
      <trkpt lat="47.27218" lon="-2.31922">
        <ele>8</ele>
        <time>2020-07-23T07:25:02.000Z</time>
      </trkpt>
      <trkpt lat="47.27232" lon="-2.31925">
        <ele>8</ele>
        <time>2020-07-23T07:25:06.000Z</time>
      </trkpt>
      <trkpt lat="47.27266" lon="-2.31935">
        <ele>8</ele>
        <time>2020-07-23T07:25:13.000Z</time>
      </trkpt>
      <trkpt lat="47.27288" lon="-2.31945">
        <ele>8</ele>
        <time>2020-07-23T07:25:19.000Z</time>
      </trkpt>
      <trkpt lat="47.27305" lon="-2.31959">
        <ele>8</ele>
        <time>2020-07-23T07:25:24.000Z</time>
      </trkpt>
      <trkpt lat="47.27318" lon="-2.31968">
        <ele>8</ele>
        <time>2020-07-23T07:25:27.000Z</time>
      </trkpt>
      <trkpt lat="47.27337" lon="-2.31983">
        <ele>8</ele>
        <time>2020-07-23T07:25:31.000Z</time>
      </trkpt>
      <trkpt lat="47.27369" lon="-2.32015">
        <ele>8</ele>
        <time>2020-07-23T07:25:38.000Z</time>
      </trkpt>
      <trkpt lat="47.27401" lon="-2.3205">
        <ele>8</ele>
        <time>2020-07-23T07:25:46.000Z</time>
      </trkpt>
      <trkpt lat="47.27408" lon="-2.32059">
        <ele>8</ele>
        <time>2020-07-23T07:25:48.000Z</time>
      </trkpt>
      <trkpt lat="47.27412" lon="-2.32063">
        <ele>8.3999996185303</ele>
        <time>2020-07-23T07:25:49.000Z</time>
      </trkpt>
      <trkpt lat="47.27416" lon="-2.32067">
        <ele>9</ele>
        <time>2020-07-23T07:25:50.000Z</time>
      </trkpt>
      <trkpt lat="47.2742" lon="-2.32071">
        <ele>9.3999996185303</ele>
        <time>2020-07-23T07:25:51.000Z</time>
      </trkpt>
      <trkpt lat="47.27423" lon="-2.32075">
        <ele>9.8000001907349</ele>
        <time>2020-07-23T07:25:52.000Z</time>
      </trkpt>
      <trkpt lat="47.27427" lon="-2.32079">
        <ele>10.199999809265</ele>
        <time>2020-07-23T07:25:53.000Z</time>
      </trkpt>
      <trkpt lat="47.27455" lon="-2.32111">
        <ele>10.199999809265</ele>
        <time>2020-07-23T07:26:00.000Z</time>
      </trkpt>
      <trkpt lat="47.27485" lon="-2.32153">
        <ele>10.199999809265</ele>
        <time>2020-07-23T07:26:08.000Z</time>
      </trkpt>
      <trkpt lat="47.27494" lon="-2.32163">
        <ele>10.60000038147</ele>
        <time>2020-07-23T07:26:10.000Z</time>
      </trkpt>
      <trkpt lat="47.27498" lon="-2.32169">
        <ele>11</ele>
        <time>2020-07-23T07:26:11.000Z</time>
      </trkpt>
      <trkpt lat="47.27502" lon="-2.32174">
        <ele>11.39999961853</ele>
        <time>2020-07-23T07:26:12.000Z</time>
      </trkpt>
      <trkpt lat="47.27506" lon="-2.32179">
        <ele>11.800000190735</ele>
        <time>2020-07-23T07:26:13.000Z</time>
      </trkpt>
      <trkpt lat="47.27509" lon="-2.32184">
        <ele>12.199999809265</ele>
        <time>2020-07-23T07:26:14.000Z</time>
      </trkpt>
      <trkpt lat="47.27513" lon="-2.32189">
        <ele>12.199999809265</ele>
        <time>2020-07-23T07:26:15.000Z</time>
      </trkpt>
      <trkpt lat="47.27532" lon="-2.32212">
        <ele>12.60000038147</ele>
        <time>2020-07-23T07:26:20.000Z</time>
      </trkpt>
      <trkpt lat="47.27536" lon="-2.32216">
        <ele>13</ele>
        <time>2020-07-23T07:26:21.000Z</time>
      </trkpt>
      <trkpt lat="47.27539" lon="-2.3222">
        <ele>14</ele>
        <time>2020-07-23T07:26:22.000Z</time>
      </trkpt>
      <trkpt lat="47.27543" lon="-2.32224">
        <ele>14.39999961853</ele>
        <time>2020-07-23T07:26:23.000Z</time>
      </trkpt>
      <trkpt lat="47.27562" lon="-2.3224">
        <ele>14.800000190735</ele>
        <time>2020-07-23T07:26:28.000Z</time>
      </trkpt>
      <trkpt lat="47.27566" lon="-2.32243">
        <ele>15.199999809265</ele>
        <time>2020-07-23T07:26:29.000Z</time>
      </trkpt>
      <trkpt lat="47.2757" lon="-2.32246">
        <ele>15.60000038147</ele>
        <time>2020-07-23T07:26:30.000Z</time>
      </trkpt>
      <trkpt lat="47.27573" lon="-2.3225">
        <ele>16</ele>
        <time>2020-07-23T07:26:31.000Z</time>
      </trkpt>
      <trkpt lat="47.27577" lon="-2.32253">
        <ele>16.39999961853</ele>
        <time>2020-07-23T07:26:32.000Z</time>
      </trkpt>
      <trkpt lat="47.27594" lon="-2.32269">
        <ele>16.39999961853</ele>
        <time>2020-07-23T07:26:37.000Z</time>
      </trkpt>
      <trkpt lat="47.27601" lon="-2.32274">
        <ele>17</ele>
        <time>2020-07-23T07:26:39.000Z</time>
      </trkpt>
      <trkpt lat="47.27604" lon="-2.32277">
        <ele>17.39999961853</ele>
        <time>2020-07-23T07:26:40.000Z</time>
      </trkpt>
      <trkpt lat="47.27607" lon="-2.32278">
        <ele>17.799999237061</ele>
        <time>2020-07-23T07:26:41.000Z</time>
      </trkpt>
      <trkpt lat="47.27609" lon="-2.3228">
        <ele>18.200000762939</ele>
        <time>2020-07-23T07:26:42.000Z</time>
      </trkpt>
      <trkpt lat="47.27611" lon="-2.32281">
        <ele>18.60000038147</ele>
        <time>2020-07-23T07:26:43.000Z</time>
      </trkpt>
      <trkpt lat="47.27612" lon="-2.32283">
        <ele>18.60000038147</ele>
        <time>2020-07-23T07:26:44.000Z</time>
      </trkpt>
      <trkpt lat="47.27624" lon="-2.32297">
        <ele>18.60000038147</ele>
        <time>2020-07-23T07:26:50.000Z</time>
      </trkpt>
      <trkpt lat="47.27633" lon="-2.32304">
        <ele>18.60000038147</ele>
        <time>2020-07-23T07:26:56.000Z</time>
      </trkpt>
      <trkpt lat="47.27641" lon="-2.32306">
        <ele>19</ele>
        <time>2020-07-23T07:27:00.000Z</time>
      </trkpt>
      <trkpt lat="47.27644" lon="-2.32306">
        <ele>19.39999961853</ele>
        <time>2020-07-23T07:27:01.000Z</time>
      </trkpt>
      <trkpt lat="47.27646" lon="-2.32307">
        <ele>19.799999237061</ele>
        <time>2020-07-23T07:27:02.000Z</time>
      </trkpt>
      <trkpt lat="47.27648" lon="-2.32308">
        <ele>20.200000762939</ele>
        <time>2020-07-23T07:27:03.000Z</time>
      </trkpt>
      <trkpt lat="47.27651" lon="-2.32309">
        <ele>20.60000038147</ele>
        <time>2020-07-23T07:27:04.000Z</time>
      </trkpt>
      <trkpt lat="47.27662" lon="-2.32312">
        <ele>20.60000038147</ele>
        <time>2020-07-23T07:27:08.000Z</time>
      </trkpt>
      <trkpt lat="47.27689" lon="-2.32321">
        <ele>20.60000038147</ele>
        <time>2020-07-23T07:27:16.000Z</time>
      </trkpt>
      <trkpt lat="47.27716" lon="-2.32339">
        <ele>20.60000038147</ele>
        <time>2020-07-23T07:27:23.000Z</time>
      </trkpt>
      <trkpt lat="47.2774" lon="-2.32356">
        <ele>20.60000038147</ele>
        <time>2020-07-23T07:27:29.000Z</time>
      </trkpt>
      <trkpt lat="47.27765" lon="-2.32375">
        <ele>20.60000038147</ele>
        <time>2020-07-23T07:27:35.000Z</time>
      </trkpt>
      <trkpt lat="47.27775" lon="-2.32381">
        <ele>20.60000038147</ele>
        <time>2020-07-23T07:27:39.000Z</time>
      </trkpt>
      <trkpt lat="47.2778" lon="-2.32382">
        <ele>20.60000038147</ele>
        <time>2020-07-23T07:27:43.000Z</time>
      </trkpt>
      <trkpt lat="47.27788" lon="-2.32381">
        <ele>20.60000038147</ele>
        <time>2020-07-23T07:28:24.000Z</time>
      </trkpt>
      <trkpt lat="47.27804" lon="-2.32378">
        <ele>20.60000038147</ele>
        <time>2020-07-23T07:28:29.000Z</time>
      </trkpt>
      <trkpt lat="47.27827" lon="-2.32372">
        <ele>20.60000038147</ele>
        <time>2020-07-23T07:28:34.000Z</time>
      </trkpt>
      <trkpt lat="47.27842" lon="-2.32371">
        <ele>20.60000038147</ele>
        <time>2020-07-23T07:28:38.000Z</time>
      </trkpt>
      <trkpt lat="47.27866" lon="-2.32383">
        <ele>20.60000038147</ele>
        <time>2020-07-23T07:28:43.000Z</time>
      </trkpt>
      <trkpt lat="47.27872" lon="-2.32384">
        <ele>20.60000038147</ele>
        <time>2020-07-23T07:28:44.000Z</time>
      </trkpt>
      <trkpt lat="47.27881" lon="-2.32384">
        <ele>20.60000038147</ele>
        <time>2020-07-23T07:28:46.000Z</time>
      </trkpt>
      <trkpt lat="47.27894" lon="-2.32381">
        <ele>20.60000038147</ele>
        <time>2020-07-23T07:28:49.000Z</time>
      </trkpt>
      <trkpt lat="47.27913" lon="-2.32387">
        <ele>20.60000038147</ele>
        <time>2020-07-23T07:28:54.000Z</time>
      </trkpt>
      <trkpt lat="47.2793" lon="-2.32396">
        <ele>20.60000038147</ele>
        <time>2020-07-23T07:28:59.000Z</time>
      </trkpt>
      <trkpt lat="47.27959" lon="-2.32406">
        <ele>20.60000038147</ele>
        <time>2020-07-23T07:29:05.000Z</time>
      </trkpt>
      <trkpt lat="47.28004" lon="-2.32421">
        <ele>20.60000038147</ele>
        <time>2020-07-23T07:29:12.000Z</time>
      </trkpt>
      <trkpt lat="47.2802" lon="-2.32423">
        <ele>20.60000038147</ele>
        <time>2020-07-23T07:29:14.000Z</time>
      </trkpt>
      <trkpt lat="47.28045" lon="-2.32427">
        <ele>20.60000038147</ele>
        <time>2020-07-23T07:29:17.000Z</time>
      </trkpt>
      <trkpt lat="47.2809" lon="-2.32432">
        <ele>20.60000038147</ele>
        <time>2020-07-23T07:29:24.000Z</time>
      </trkpt>
      <trkpt lat="47.28094" lon="-2.32435">
        <ele>20.200000762939</ele>
        <time>2020-07-23T07:29:25.000Z</time>
      </trkpt>
      <trkpt lat="47.28097" lon="-2.32438">
        <ele>19.799999237061</ele>
        <time>2020-07-23T07:29:26.000Z</time>
      </trkpt>
      <trkpt lat="47.281" lon="-2.3244">
        <ele>19.39999961853</ele>
        <time>2020-07-23T07:29:27.000Z</time>
      </trkpt>
      <trkpt lat="47.28103" lon="-2.32443">
        <ele>19</ele>
        <time>2020-07-23T07:29:28.000Z</time>
      </trkpt>
      <trkpt lat="47.28107" lon="-2.32444">
        <ele>18.60000038147</ele>
        <time>2020-07-23T07:29:29.000Z</time>
      </trkpt>
      <trkpt lat="47.28111" lon="-2.32447">
        <ele>18.60000038147</ele>
        <time>2020-07-23T07:29:30.000Z</time>
      </trkpt>
      <trkpt lat="47.28114" lon="-2.32449">
        <ele>18.60000038147</ele>
        <time>2020-07-23T07:29:31.000Z</time>
      </trkpt>
      <trkpt lat="47.28136" lon="-2.32451">
        <ele>18.60000038147</ele>
        <time>2020-07-23T07:29:36.000Z</time>
      </trkpt>
      <trkpt lat="47.28149" lon="-2.32448">
        <ele>18.60000038147</ele>
        <time>2020-07-23T07:29:39.000Z</time>
      </trkpt>
      <trkpt lat="47.28154" lon="-2.32449">
        <ele>18.60000038147</ele>
        <time>2020-07-23T07:29:40.000Z</time>
      </trkpt>
      <trkpt lat="47.28159" lon="-2.32448">
        <ele>18.60000038147</ele>
        <time>2020-07-23T07:29:41.000Z</time>
      </trkpt>
      <trkpt lat="47.28188" lon="-2.32452">
        <ele>18.60000038147</ele>
        <time>2020-07-23T07:29:46.000Z</time>
      </trkpt>
      <trkpt lat="47.28219" lon="-2.3247">
        <ele>18.60000038147</ele>
        <time>2020-07-23T07:29:51.000Z</time>
      </trkpt>
      <trkpt lat="47.28247" lon="-2.325">
        <ele>18.60000038147</ele>
        <time>2020-07-23T07:29:56.000Z</time>
      </trkpt>
      <trkpt lat="47.28257" lon="-2.32512">
        <ele>18.60000038147</ele>
        <time>2020-07-23T07:29:58.000Z</time>
      </trkpt>
      <trkpt lat="47.28268" lon="-2.32516">
        <ele>18.60000038147</ele>
        <time>2020-07-23T07:30:00.000Z</time>
      </trkpt>
      <trkpt lat="47.28286" lon="-2.32519">
        <ele>18.60000038147</ele>
        <time>2020-07-23T07:30:03.000Z</time>
      </trkpt>
      <trkpt lat="47.28299" lon="-2.3252">
        <ele>18.60000038147</ele>
        <time>2020-07-23T07:30:05.000Z</time>
      </trkpt>
      <trkpt lat="47.28341" lon="-2.32521">
        <ele>18.60000038147</ele>
        <time>2020-07-23T07:30:12.000Z</time>
      </trkpt>
      <trkpt lat="47.28346" lon="-2.32522">
        <ele>18.200000762939</ele>
        <time>2020-07-23T07:30:13.000Z</time>
      </trkpt>
      <trkpt lat="47.28349" lon="-2.32526">
        <ele>17.799999237061</ele>
        <time>2020-07-23T07:30:14.000Z</time>
      </trkpt>
      <trkpt lat="47.28352" lon="-2.3253">
        <ele>17.39999961853</ele>
        <time>2020-07-23T07:30:15.000Z</time>
      </trkpt>
      <trkpt lat="47.28353" lon="-2.32535">
        <ele>17</ele>
        <time>2020-07-23T07:30:16.000Z</time>
      </trkpt>
      <trkpt lat="47.28353" lon="-2.3254">
        <ele>16.39999961853</ele>
        <time>2020-07-23T07:30:17.000Z</time>
      </trkpt>
      <trkpt lat="47.28354" lon="-2.32545">
        <ele>16.39999961853</ele>
        <time>2020-07-23T07:30:18.000Z</time>
      </trkpt>
      <trkpt lat="47.28354" lon="-2.3255">
        <ele>16.39999961853</ele>
        <time>2020-07-23T07:30:19.000Z</time>
      </trkpt>
      <trkpt lat="47.2836" lon="-2.32573">
        <ele>16.39999961853</ele>
        <time>2020-07-23T07:30:24.000Z</time>
      </trkpt>
      <trkpt lat="47.28363" lon="-2.32575">
        <ele>16.39999961853</ele>
        <time>2020-07-23T07:30:25.000Z</time>
      </trkpt>
      <trkpt lat="47.2837" lon="-2.32573">
        <ele>16.39999961853</ele>
        <time>2020-07-23T07:30:27.000Z</time>
      </trkpt>
      <trkpt lat="47.28383" lon="-2.32581">
        <ele>16.39999961853</ele>
        <time>2020-07-23T07:30:30.000Z</time>
      </trkpt>
      <trkpt lat="47.2839" lon="-2.32591">
        <ele>16.39999961853</ele>
        <time>2020-07-23T07:30:32.000Z</time>
      </trkpt>
      <trkpt lat="47.28396" lon="-2.32598">
        <ele>16.39999961853</ele>
        <time>2020-07-23T07:30:34.000Z</time>
      </trkpt>
      <trkpt lat="47.284" lon="-2.32605">
        <ele>16.39999961853</ele>
        <time>2020-07-23T07:30:35.000Z</time>
      </trkpt>
      <trkpt lat="47.28402" lon="-2.32617">
        <ele>16.39999961853</ele>
        <time>2020-07-23T07:30:37.000Z</time>
      </trkpt>
      <trkpt lat="47.28399" lon="-2.32641">
        <ele>16.39999961853</ele>
        <time>2020-07-23T07:30:40.000Z</time>
      </trkpt>
      <trkpt lat="47.28397" lon="-2.3265">
        <ele>16.39999961853</ele>
        <time>2020-07-23T07:30:41.000Z</time>
      </trkpt>
      <trkpt lat="47.28383" lon="-2.3272">
        <ele>16.39999961853</ele>
        <time>2020-07-23T07:30:49.000Z</time>
      </trkpt>
      <trkpt lat="47.28371" lon="-2.32782">
        <ele>16.39999961853</ele>
        <time>2020-07-23T07:30:56.000Z</time>
      </trkpt>
      <trkpt lat="47.28364" lon="-2.32829">
        <ele>16.39999961853</ele>
        <time>2020-07-23T07:31:01.000Z</time>
      </trkpt>
      <trkpt lat="47.28364" lon="-2.32838">
        <ele>16.39999961853</ele>
        <time>2020-07-23T07:31:02.000Z</time>
      </trkpt>
      <trkpt lat="47.28367" lon="-2.32882">
        <ele>16</ele>
        <time>2020-07-23T07:31:07.000Z</time>
      </trkpt>
      <trkpt lat="47.28366" lon="-2.32889">
        <ele>15.60000038147</ele>
        <time>2020-07-23T07:31:08.000Z</time>
      </trkpt>
      <trkpt lat="47.28365" lon="-2.32895">
        <ele>15.199999809265</ele>
        <time>2020-07-23T07:31:09.000Z</time>
      </trkpt>
      <trkpt lat="47.28363" lon="-2.32903">
        <ele>14.800000190735</ele>
        <time>2020-07-23T07:31:10.000Z</time>
      </trkpt>
      <trkpt lat="47.28362" lon="-2.32911">
        <ele>14.39999961853</ele>
        <time>2020-07-23T07:31:11.000Z</time>
      </trkpt>
      <trkpt lat="47.28345" lon="-2.32939">
        <ele>14.39999961853</ele>
        <time>2020-07-23T07:31:15.000Z</time>
      </trkpt>
      <trkpt lat="47.28334" lon="-2.32951">
        <ele>14.39999961853</ele>
        <time>2020-07-23T07:31:17.000Z</time>
      </trkpt>
      <trkpt lat="47.28317" lon="-2.32966">
        <ele>14.39999961853</ele>
        <time>2020-07-23T07:31:20.000Z</time>
      </trkpt>
      <trkpt lat="47.28269" lon="-2.33007">
        <ele>14.39999961853</ele>
        <time>2020-07-23T07:31:28.000Z</time>
      </trkpt>
      <trkpt lat="47.28235" lon="-2.33033">
        <ele>14.39999961853</ele>
        <time>2020-07-23T07:31:34.000Z</time>
      </trkpt>
      <trkpt lat="47.28217" lon="-2.33057">
        <ele>14.39999961853</ele>
        <time>2020-07-23T07:31:38.000Z</time>
      </trkpt>
      <trkpt lat="47.28213" lon="-2.33064">
        <ele>14.39999961853</ele>
        <time>2020-07-23T07:31:39.000Z</time>
      </trkpt>
      <trkpt lat="47.28195" lon="-2.33112">
        <ele>14.39999961853</ele>
        <time>2020-07-23T07:31:45.000Z</time>
      </trkpt>
      <trkpt lat="47.28194" lon="-2.3312">
        <ele>14.39999961853</ele>
        <time>2020-07-23T07:31:46.000Z</time>
      </trkpt>
      <trkpt lat="47.28192" lon="-2.33161">
        <ele>14.39999961853</ele>
        <time>2020-07-23T07:31:51.000Z</time>
      </trkpt>
      <trkpt lat="47.2819" lon="-2.33226">
        <ele>14.39999961853</ele>
        <time>2020-07-23T07:31:59.000Z</time>
      </trkpt>
      <trkpt lat="47.28181" lon="-2.33286">
        <ele>14.39999961853</ele>
        <time>2020-07-23T07:32:07.000Z</time>
      </trkpt>
      <trkpt lat="47.2817" lon="-2.33322">
        <ele>14.39999961853</ele>
        <time>2020-07-23T07:32:13.000Z</time>
      </trkpt>
      <trkpt lat="47.28151" lon="-2.33363">
        <ele>14.39999961853</ele>
        <time>2020-07-23T07:32:20.000Z</time>
      </trkpt>
      <trkpt lat="47.28143" lon="-2.33381">
        <ele>14.800000190735</ele>
        <time>2020-07-23T07:32:23.000Z</time>
      </trkpt>
      <trkpt lat="47.2814" lon="-2.33387">
        <ele>15.199999809265</ele>
        <time>2020-07-23T07:32:24.000Z</time>
      </trkpt>
      <trkpt lat="47.28138" lon="-2.33392">
        <ele>15.60000038147</ele>
        <time>2020-07-23T07:32:25.000Z</time>
      </trkpt>
      <trkpt lat="47.28135" lon="-2.33398">
        <ele>16</ele>
        <time>2020-07-23T07:32:26.000Z</time>
      </trkpt>
      <trkpt lat="47.28132" lon="-2.33404">
        <ele>16.39999961853</ele>
        <time>2020-07-23T07:32:27.000Z</time>
      </trkpt>
      <trkpt lat="47.2813" lon="-2.33409">
        <ele>16.39999961853</ele>
        <time>2020-07-23T07:32:28.000Z</time>
      </trkpt>
      <trkpt lat="47.28106" lon="-2.33462">
        <ele>16.39999961853</ele>
        <time>2020-07-23T07:32:37.000Z</time>
      </trkpt>
      <trkpt lat="47.28092" lon="-2.33492">
        <ele>16.39999961853</ele>
        <time>2020-07-23T07:32:43.000Z</time>
      </trkpt>
      <trkpt lat="47.28078" lon="-2.33515">
        <ele>16.39999961853</ele>
        <time>2020-07-23T07:32:49.000Z</time>
      </trkpt>
      <trkpt lat="47.28077" lon="-2.3352">
        <ele>16.39999961853</ele>
        <time>2020-07-23T07:32:50.000Z</time>
      </trkpt>
      <trkpt lat="47.28076" lon="-2.33536">
        <ele>16.39999961853</ele>
        <time>2020-07-23T07:32:53.000Z</time>
      </trkpt>
      <trkpt lat="47.28078" lon="-2.33563">
        <ele>16.39999961853</ele>
        <time>2020-07-23T07:32:58.000Z</time>
      </trkpt>
      <trkpt lat="47.28088" lon="-2.33612">
        <ele>16.39999961853</ele>
        <time>2020-07-23T07:33:06.000Z</time>
      </trkpt>
      <trkpt lat="47.28089" lon="-2.33619">
        <ele>16.799999237061</ele>
        <time>2020-07-23T07:33:07.000Z</time>
      </trkpt>
      <trkpt lat="47.2809" lon="-2.33624">
        <ele>17.200000762939</ele>
        <time>2020-07-23T07:33:08.000Z</time>
      </trkpt>
      <trkpt lat="47.28091" lon="-2.33628">
        <ele>17.60000038147</ele>
        <time>2020-07-23T07:33:09.000Z</time>
      </trkpt>
      <trkpt lat="47.28092" lon="-2.33631">
        <ele>18</ele>
        <time>2020-07-23T07:33:10.000Z</time>
      </trkpt>
      <trkpt lat="47.28092" lon="-2.33634">
        <ele>18.39999961853</ele>
        <time>2020-07-23T07:33:11.000Z</time>
      </trkpt>
      <trkpt lat="47.28095" lon="-2.33653">
        <ele>18.39999961853</ele>
        <time>2020-07-23T07:33:16.000Z</time>
      </trkpt>
      <trkpt lat="47.281" lon="-2.33664">
        <ele>18.39999961853</ele>
        <time>2020-07-23T07:33:18.000Z</time>
      </trkpt>
      <trkpt lat="47.28108" lon="-2.33674">
        <ele>18.39999961853</ele>
        <time>2020-07-23T07:33:20.000Z</time>
      </trkpt>
      <trkpt lat="47.2813" lon="-2.33702">
        <ele>18.39999961853</ele>
        <time>2020-07-23T07:33:26.000Z</time>
      </trkpt>
      <trkpt lat="47.28141" lon="-2.33725">
        <ele>18.39999961853</ele>
        <time>2020-07-23T07:33:30.000Z</time>
      </trkpt>
      <trkpt lat="47.28157" lon="-2.33744">
        <ele>18.39999961853</ele>
        <time>2020-07-23T07:33:34.000Z</time>
      </trkpt>
      <trkpt lat="47.28162" lon="-2.33748">
        <ele>18.39999961853</ele>
        <time>2020-07-23T07:33:35.000Z</time>
      </trkpt>
      <trkpt lat="47.2818" lon="-2.3377">
        <ele>18.39999961853</ele>
        <time>2020-07-23T07:33:40.000Z</time>
      </trkpt>
      <trkpt lat="47.28187" lon="-2.33779">
        <ele>18.39999961853</ele>
        <time>2020-07-23T07:33:42.000Z</time>
      </trkpt>
      <trkpt lat="47.28192" lon="-2.33784">
        <ele>18.799999237061</ele>
        <time>2020-07-23T07:33:43.000Z</time>
      </trkpt>
      <trkpt lat="47.28197" lon="-2.33788">
        <ele>19.200000762939</ele>
        <time>2020-07-23T07:33:44.000Z</time>
      </trkpt>
      <trkpt lat="47.28202" lon="-2.33792">
        <ele>19.60000038147</ele>
        <time>2020-07-23T07:33:45.000Z</time>
      </trkpt>
      <trkpt lat="47.28208" lon="-2.33796">
        <ele>20.39999961853</ele>
        <time>2020-07-23T07:33:46.000Z</time>
      </trkpt>
      <trkpt lat="47.28224" lon="-2.33803">
        <ele>20.39999961853</ele>
        <time>2020-07-23T07:33:49.000Z</time>
      </trkpt>
      <trkpt lat="47.2823" lon="-2.33804">
        <ele>20.39999961853</ele>
        <time>2020-07-23T07:33:50.000Z</time>
      </trkpt>
      <trkpt lat="47.28235" lon="-2.33807">
        <ele>20.39999961853</ele>
        <time>2020-07-23T07:33:51.000Z</time>
      </trkpt>
      <trkpt lat="47.28253" lon="-2.33816">
        <ele>20.39999961853</ele>
        <time>2020-07-23T07:33:55.000Z</time>
      </trkpt>
      <trkpt lat="47.28259" lon="-2.33826">
        <ele>20.39999961853</ele>
        <time>2020-07-23T07:33:57.000Z</time>
      </trkpt>
      <trkpt lat="47.28264" lon="-2.33838">
        <ele>20.39999961853</ele>
        <time>2020-07-23T07:33:59.000Z</time>
      </trkpt>
      <trkpt lat="47.28281" lon="-2.33875">
        <ele>20.39999961853</ele>
        <time>2020-07-23T07:34:06.000Z</time>
      </trkpt>
      <trkpt lat="47.28299" lon="-2.33915">
        <ele>20.39999961853</ele>
        <time>2020-07-23T07:34:14.000Z</time>
      </trkpt>
      <trkpt lat="47.28305" lon="-2.33929">
        <ele>20.39999961853</ele>
        <time>2020-07-23T07:34:17.000Z</time>
      </trkpt>
      <trkpt lat="47.28308" lon="-2.33939">
        <ele>20.39999961853</ele>
        <time>2020-07-23T07:34:19.000Z</time>
      </trkpt>
      <trkpt lat="47.28314" lon="-2.33954">
        <ele>20.799999237061</ele>
        <time>2020-07-23T07:34:22.000Z</time>
      </trkpt>
      <trkpt lat="47.28316" lon="-2.3396">
        <ele>21.200000762939</ele>
        <time>2020-07-23T07:34:23.000Z</time>
      </trkpt>
      <trkpt lat="47.28318" lon="-2.33966">
        <ele>21.60000038147</ele>
        <time>2020-07-23T07:34:24.000Z</time>
      </trkpt>
      <trkpt lat="47.2832" lon="-2.33971">
        <ele>22.200000762939</ele>
        <time>2020-07-23T07:34:25.000Z</time>
      </trkpt>
      <trkpt lat="47.28322" lon="-2.33977">
        <ele>22.60000038147</ele>
        <time>2020-07-23T07:34:26.000Z</time>
      </trkpt>
      <trkpt lat="47.2834" lon="-2.34011">
        <ele>22.60000038147</ele>
        <time>2020-07-23T07:34:34.000Z</time>
      </trkpt>
      <trkpt lat="47.28344" lon="-2.34021">
        <ele>22.60000038147</ele>
        <time>2020-07-23T07:34:39.000Z</time>
      </trkpt>
      <trkpt lat="47.28348" lon="-2.34042">
        <ele>22.60000038147</ele>
        <time>2020-07-23T07:34:44.000Z</time>
      </trkpt>
      <trkpt lat="47.28351" lon="-2.34045">
        <ele>22.60000038147</ele>
        <time>2020-07-23T07:34:45.000Z</time>
      </trkpt>
      <trkpt lat="47.28361" lon="-2.34053">
        <ele>22.60000038147</ele>
        <time>2020-07-23T07:34:48.000Z</time>
      </trkpt>
      <trkpt lat="47.28379" lon="-2.34063">
        <ele>22.60000038147</ele>
        <time>2020-07-23T07:34:53.000Z</time>
      </trkpt>
      <trkpt lat="47.28383" lon="-2.34067">
        <ele>22.60000038147</ele>
        <time>2020-07-23T07:34:54.000Z</time>
      </trkpt>
      <trkpt lat="47.28388" lon="-2.34078">
        <ele>22.60000038147</ele>
        <time>2020-07-23T07:34:57.000Z</time>
      </trkpt>
      <trkpt lat="47.28382" lon="-2.34085">
        <ele>22.60000038147</ele>
        <time>2020-07-23T07:35:00.000Z</time>
      </trkpt>
      <trkpt lat="47.28374" lon="-2.34088">
        <ele>22.60000038147</ele>
        <time>2020-07-23T07:35:02.000Z</time>
      </trkpt>
      <trkpt lat="47.28366" lon="-2.34094">
        <ele>22.60000038147</ele>
        <time>2020-07-23T07:35:04.000Z</time>
      </trkpt>
      <trkpt lat="47.28366" lon="-2.341">
        <ele>22.60000038147</ele>
        <time>2020-07-23T07:35:05.000Z</time>
      </trkpt>
      <trkpt lat="47.28364" lon="-2.34121">
        <ele>23</ele>
        <time>2020-07-23T07:35:09.000Z</time>
      </trkpt>
      <trkpt lat="47.28363" lon="-2.34125">
        <ele>23.39999961853</ele>
        <time>2020-07-23T07:35:10.000Z</time>
      </trkpt>
      <trkpt lat="47.28362" lon="-2.3413">
        <ele>23.799999237061</ele>
        <time>2020-07-23T07:35:11.000Z</time>
      </trkpt>
      <trkpt lat="47.28361" lon="-2.34135">
        <ele>24.200000762939</ele>
        <time>2020-07-23T07:35:12.000Z</time>
      </trkpt>
      <trkpt lat="47.2836" lon="-2.3414">
        <ele>24.60000038147</ele>
        <time>2020-07-23T07:35:13.000Z</time>
      </trkpt>
      <trkpt lat="47.28357" lon="-2.34159">
        <ele>24.60000038147</ele>
        <time>2020-07-23T07:35:17.000Z</time>
      </trkpt>
      <trkpt lat="47.28358" lon="-2.34193">
        <ele>24.60000038147</ele>
        <time>2020-07-23T07:35:24.000Z</time>
      </trkpt>
      <trkpt lat="47.28357" lon="-2.34228">
        <ele>24.60000038147</ele>
        <time>2020-07-23T07:35:31.000Z</time>
      </trkpt>
      <trkpt lat="47.2834" lon="-2.3424">
        <ele>24.60000038147</ele>
        <time>2020-07-23T07:35:35.000Z</time>
      </trkpt>
      <trkpt lat="47.2832" lon="-2.34251">
        <ele>24.60000038147</ele>
        <time>2020-07-23T07:35:40.000Z</time>
      </trkpt>
      <trkpt lat="47.28313" lon="-2.34255">
        <ele>24.60000038147</ele>
        <time>2020-07-23T07:35:42.000Z</time>
      </trkpt>
      <trkpt lat="47.28281" lon="-2.3427">
        <ele>24.60000038147</ele>
        <time>2020-07-23T07:35:50.000Z</time>
      </trkpt>
      <trkpt lat="47.28248" lon="-2.34285">
        <ele>24.60000038147</ele>
        <time>2020-07-23T07:35:58.000Z</time>
      </trkpt>
      <trkpt lat="47.28224" lon="-2.34297">
        <ele>25</ele>
        <time>2020-07-23T07:36:04.000Z</time>
      </trkpt>
      <trkpt lat="47.2822" lon="-2.34299">
        <ele>25.39999961853</ele>
        <time>2020-07-23T07:36:05.000Z</time>
      </trkpt>
      <trkpt lat="47.28216" lon="-2.34301">
        <ele>25.799999237061</ele>
        <time>2020-07-23T07:36:06.000Z</time>
      </trkpt>
      <trkpt lat="47.28212" lon="-2.34303">
        <ele>26.200000762939</ele>
        <time>2020-07-23T07:36:07.000Z</time>
      </trkpt>
      <trkpt lat="47.28208" lon="-2.34305">
        <ele>26.60000038147</ele>
        <time>2020-07-23T07:36:08.000Z</time>
      </trkpt>
      <trkpt lat="47.28188" lon="-2.34315">
        <ele>26.60000038147</ele>
        <time>2020-07-23T07:36:13.000Z</time>
      </trkpt>
      <trkpt lat="47.28162" lon="-2.34318">
        <ele>26.60000038147</ele>
        <time>2020-07-23T07:36:20.000Z</time>
      </trkpt>
      <trkpt lat="47.28144" lon="-2.34316">
        <ele>26.60000038147</ele>
        <time>2020-07-23T07:36:25.000Z</time>
      </trkpt>
      <trkpt lat="47.2814" lon="-2.34315">
        <ele>26.60000038147</ele>
        <time>2020-07-23T07:36:26.000Z</time>
      </trkpt>
      <trkpt lat="47.28111" lon="-2.34309">
        <ele>26.60000038147</ele>
        <time>2020-07-23T07:36:33.000Z</time>
      </trkpt>
      <trkpt lat="47.28081" lon="-2.34307">
        <ele>26.60000038147</ele>
        <time>2020-07-23T07:36:40.000Z</time>
      </trkpt>
      <trkpt lat="47.28073" lon="-2.34308">
        <ele>26.60000038147</ele>
        <time>2020-07-23T07:36:42.000Z</time>
      </trkpt>
      <trkpt lat="47.2806" lon="-2.34311">
        <ele>26.60000038147</ele>
        <time>2020-07-23T07:36:45.000Z</time>
      </trkpt>
      <trkpt lat="47.28054" lon="-2.3432">
        <ele>26.60000038147</ele>
        <time>2020-07-23T07:36:47.000Z</time>
      </trkpt>
      <trkpt lat="47.28053" lon="-2.34345">
        <ele>26.60000038147</ele>
        <time>2020-07-23T07:36:51.000Z</time>
      </trkpt>
      <trkpt lat="47.28061" lon="-2.34357">
        <ele>26.60000038147</ele>
        <time>2020-07-23T07:36:54.000Z</time>
      </trkpt>
      <trkpt lat="47.28064" lon="-2.34362">
        <ele>26.60000038147</ele>
        <time>2020-07-23T07:36:55.000Z</time>
      </trkpt>
      <trkpt lat="47.28073" lon="-2.3438">
        <ele>26.60000038147</ele>
        <time>2020-07-23T07:36:59.000Z</time>
      </trkpt>
      <trkpt lat="47.28097" lon="-2.34418">
        <ele>26.60000038147</ele>
        <time>2020-07-23T07:37:07.000Z</time>
      </trkpt>
      <trkpt lat="47.28122" lon="-2.34455">
        <ele>26.60000038147</ele>
        <time>2020-07-23T07:37:15.000Z</time>
      </trkpt>
      <trkpt lat="47.28144" lon="-2.34492">
        <ele>26.60000038147</ele>
        <time>2020-07-23T07:37:22.000Z</time>
      </trkpt>
      <trkpt lat="47.28154" lon="-2.34517">
        <ele>26.60000038147</ele>
        <time>2020-07-23T07:37:27.000Z</time>
      </trkpt>
      <trkpt lat="47.28154" lon="-2.34522">
        <ele>26.60000038147</ele>
        <time>2020-07-23T07:37:28.000Z</time>
      </trkpt>
      <trkpt lat="47.28152" lon="-2.34526">
        <ele>26.60000038147</ele>
        <time>2020-07-23T07:37:29.000Z</time>
      </trkpt>
      <trkpt lat="47.28147" lon="-2.34536">
        <ele>26.60000038147</ele>
        <time>2020-07-23T07:37:31.000Z</time>
      </trkpt>
      <trkpt lat="47.28142" lon="-2.34547">
        <ele>26.60000038147</ele>
        <time>2020-07-23T07:37:33.000Z</time>
      </trkpt>
      <trkpt lat="47.28138" lon="-2.34551">
        <ele>26.60000038147</ele>
        <time>2020-07-23T07:37:34.000Z</time>
      </trkpt>
      <trkpt lat="47.28128" lon="-2.3456">
        <ele>26.60000038147</ele>
        <time>2020-07-23T07:37:37.000Z</time>
      </trkpt>
      <trkpt lat="47.28112" lon="-2.34578">
        <ele>26.60000038147</ele>
        <time>2020-07-23T07:37:42.000Z</time>
      </trkpt>
      <trkpt lat="47.2811" lon="-2.34584">
        <ele>26.60000038147</ele>
        <time>2020-07-23T07:37:43.000Z</time>
      </trkpt>
      <trkpt lat="47.28107" lon="-2.34602">
        <ele>26.60000038147</ele>
        <time>2020-07-23T07:37:46.000Z</time>
      </trkpt>
      <trkpt lat="47.28108" lon="-2.34616">
        <ele>26.60000038147</ele>
        <time>2020-07-23T07:37:48.000Z</time>
      </trkpt>
      <trkpt lat="47.28115" lon="-2.34634">
        <ele>26.60000038147</ele>
        <time>2020-07-23T07:37:51.000Z</time>
      </trkpt>
      <trkpt lat="47.28118" lon="-2.3464">
        <ele>26.60000038147</ele>
        <time>2020-07-23T07:37:52.000Z</time>
      </trkpt>
      <trkpt lat="47.28141" lon="-2.34694">
        <ele>26.60000038147</ele>
        <time>2020-07-23T07:38:01.000Z</time>
      </trkpt>
      <trkpt lat="47.28148" lon="-2.34713">
        <ele>26.60000038147</ele>
        <time>2020-07-23T07:38:04.000Z</time>
      </trkpt>
      <trkpt lat="47.28154" lon="-2.34732">
        <ele>26.60000038147</ele>
        <time>2020-07-23T07:38:07.000Z</time>
      </trkpt>
      <trkpt lat="47.28155" lon="-2.3474">
        <ele>26.60000038147</ele>
        <time>2020-07-23T07:38:08.000Z</time>
      </trkpt>
      <trkpt lat="47.28165" lon="-2.34774">
        <ele>26.60000038147</ele>
        <time>2020-07-23T07:38:13.000Z</time>
      </trkpt>
      <trkpt lat="47.28168" lon="-2.34779">
        <ele>26.60000038147</ele>
        <time>2020-07-23T07:38:14.000Z</time>
      </trkpt>
      <trkpt lat="47.28181" lon="-2.34801">
        <ele>26.60000038147</ele>
        <time>2020-07-23T07:38:18.000Z</time>
      </trkpt>
      <trkpt lat="47.28182" lon="-2.34809">
        <ele>26.60000038147</ele>
        <time>2020-07-23T07:38:19.000Z</time>
      </trkpt>
      <trkpt lat="47.28183" lon="-2.34825">
        <ele>26.60000038147</ele>
        <time>2020-07-23T07:38:21.000Z</time>
      </trkpt>
      <trkpt lat="47.28185" lon="-2.34841">
        <ele>26.60000038147</ele>
        <time>2020-07-23T07:38:23.000Z</time>
      </trkpt>
      <trkpt lat="47.28187" lon="-2.34857">
        <ele>26.60000038147</ele>
        <time>2020-07-23T07:38:25.000Z</time>
      </trkpt>
      <trkpt lat="47.28189" lon="-2.34864">
        <ele>26.60000038147</ele>
        <time>2020-07-23T07:38:26.000Z</time>
      </trkpt>
      <trkpt lat="47.28206" lon="-2.34924">
        <ele>26.60000038147</ele>
        <time>2020-07-23T07:38:34.000Z</time>
      </trkpt>
      <trkpt lat="47.28223" lon="-2.34974">
        <ele>26.60000038147</ele>
        <time>2020-07-23T07:38:41.000Z</time>
      </trkpt>
      <trkpt lat="47.28253" lon="-2.35031">
        <ele>26.60000038147</ele>
        <time>2020-07-23T07:38:50.000Z</time>
      </trkpt>
      <trkpt lat="47.28257" lon="-2.35036">
        <ele>26.60000038147</ele>
        <time>2020-07-23T07:38:51.000Z</time>
      </trkpt>
      <trkpt lat="47.28279" lon="-2.3506">
        <ele>26.60000038147</ele>
        <time>2020-07-23T07:38:56.000Z</time>
      </trkpt>
      <trkpt lat="47.28294" lon="-2.35072">
        <ele>26.60000038147</ele>
        <time>2020-07-23T07:38:59.000Z</time>
      </trkpt>
      <trkpt lat="47.28306" lon="-2.35076">
        <ele>26.60000038147</ele>
        <time>2020-07-23T07:39:01.000Z</time>
      </trkpt>
      <trkpt lat="47.28329" lon="-2.35078">
        <ele>26.60000038147</ele>
        <time>2020-07-23T07:39:05.000Z</time>
      </trkpt>
      <trkpt lat="47.2834" lon="-2.35075">
        <ele>26.60000038147</ele>
        <time>2020-07-23T07:39:07.000Z</time>
      </trkpt>
      <trkpt lat="47.28392" lon="-2.35058">
        <ele>26.60000038147</ele>
        <time>2020-07-23T07:39:16.000Z</time>
      </trkpt>
      <trkpt lat="47.28436" lon="-2.35045">
        <ele>26.60000038147</ele>
        <time>2020-07-23T07:39:24.000Z</time>
      </trkpt>
      <trkpt lat="47.28441" lon="-2.35045">
        <ele>26.60000038147</ele>
        <time>2020-07-23T07:39:25.000Z</time>
      </trkpt>
      <trkpt lat="47.28451" lon="-2.35049">
        <ele>26.60000038147</ele>
        <time>2020-07-23T07:39:27.000Z</time>
      </trkpt>
      <trkpt lat="47.28455" lon="-2.35051">
        <ele>26.60000038147</ele>
        <time>2020-07-23T07:39:28.000Z</time>
      </trkpt>
      <trkpt lat="47.28465" lon="-2.35066">
        <ele>26.60000038147</ele>
        <time>2020-07-23T07:39:31.000Z</time>
      </trkpt>
      <trkpt lat="47.28468" lon="-2.35073">
        <ele>26.60000038147</ele>
        <time>2020-07-23T07:39:32.000Z</time>
      </trkpt>
      <trkpt lat="47.28477" lon="-2.35096">
        <ele>26.200000762939</ele>
        <time>2020-07-23T07:39:35.000Z</time>
      </trkpt>
      <trkpt lat="47.28479" lon="-2.35104">
        <ele>25.799999237061</ele>
        <time>2020-07-23T07:39:36.000Z</time>
      </trkpt>
      <trkpt lat="47.28481" lon="-2.35112">
        <ele>25.39999961853</ele>
        <time>2020-07-23T07:39:37.000Z</time>
      </trkpt>
      <trkpt lat="47.28484" lon="-2.35119">
        <ele>25</ele>
        <time>2020-07-23T07:39:38.000Z</time>
      </trkpt>
      <trkpt lat="47.28486" lon="-2.35127">
        <ele>24.60000038147</ele>
        <time>2020-07-23T07:39:39.000Z</time>
      </trkpt>
      <trkpt lat="47.28493" lon="-2.3515">
        <ele>24.60000038147</ele>
        <time>2020-07-23T07:39:42.000Z</time>
      </trkpt>
      <trkpt lat="47.28504" lon="-2.35202">
        <ele>24.60000038147</ele>
        <time>2020-07-23T07:39:48.000Z</time>
      </trkpt>
      <trkpt lat="47.2852" lon="-2.35265">
        <ele>24.60000038147</ele>
        <time>2020-07-23T07:39:56.000Z</time>
      </trkpt>
      <trkpt lat="47.28535" lon="-2.35312">
        <ele>24.60000038147</ele>
        <time>2020-07-23T07:40:03.000Z</time>
      </trkpt>
      <trkpt lat="47.28543" lon="-2.35333">
        <ele>24.60000038147</ele>
        <time>2020-07-23T07:40:06.000Z</time>
      </trkpt>
      <trkpt lat="47.28548" lon="-2.35345">
        <ele>24.60000038147</ele>
        <time>2020-07-23T07:40:08.000Z</time>
      </trkpt>
      <trkpt lat="47.28555" lon="-2.35362">
        <ele>24.60000038147</ele>
        <time>2020-07-23T07:40:11.000Z</time>
      </trkpt>
      <trkpt lat="47.2856" lon="-2.35381">
        <ele>24.60000038147</ele>
        <time>2020-07-23T07:40:14.000Z</time>
      </trkpt>
      <trkpt lat="47.28564" lon="-2.35406">
        <ele>24.60000038147</ele>
        <time>2020-07-23T07:40:19.000Z</time>
      </trkpt>
      <trkpt lat="47.28568" lon="-2.35443">
        <ele>24.60000038147</ele>
        <time>2020-07-23T07:40:27.000Z</time>
      </trkpt>
      <trkpt lat="47.28572" lon="-2.35474">
        <ele>24.60000038147</ele>
        <time>2020-07-23T07:40:33.000Z</time>
      </trkpt>
      <trkpt lat="47.28563" lon="-2.3548">
        <ele>24.60000038147</ele>
        <time>2020-07-23T07:40:37.000Z</time>
      </trkpt>
      <trkpt lat="47.28555" lon="-2.35482">
        <ele>24.60000038147</ele>
        <time>2020-07-23T07:40:40.000Z</time>
      </trkpt>
      <trkpt lat="47.28552" lon="-2.35482">
        <ele>25</ele>
        <time>2020-07-23T07:40:41.000Z</time>
      </trkpt>
      <trkpt lat="47.28549" lon="-2.35483">
        <ele>25.39999961853</ele>
        <time>2020-07-23T07:40:42.000Z</time>
      </trkpt>
      <trkpt lat="47.28547" lon="-2.35483">
        <ele>25.799999237061</ele>
        <time>2020-07-23T07:40:43.000Z</time>
      </trkpt>
      <trkpt lat="47.28545" lon="-2.35484">
        <ele>26.200000762939</ele>
        <time>2020-07-23T07:40:44.000Z</time>
      </trkpt>
      <trkpt lat="47.28542" lon="-2.35484">
        <ele>26.60000038147</ele>
        <time>2020-07-23T07:40:45.000Z</time>
      </trkpt>
      <trkpt lat="47.28536" lon="-2.35488">
        <ele>26.60000038147</ele>
        <time>2020-07-23T07:40:49.000Z</time>
      </trkpt>
      <trkpt lat="47.28534" lon="-2.35491">
        <ele>26.60000038147</ele>
        <time>2020-07-23T07:40:50.000Z</time>
      </trkpt>
      <trkpt lat="47.2853" lon="-2.35505">
        <ele>27</ele>
        <time>2020-07-23T07:40:55.000Z</time>
      </trkpt>
      <trkpt lat="47.28531" lon="-2.35508">
        <ele>27.39999961853</ele>
        <time>2020-07-23T07:40:56.000Z</time>
      </trkpt>
      <trkpt lat="47.28531" lon="-2.35511">
        <ele>27.799999237061</ele>
        <time>2020-07-23T07:40:57.000Z</time>
      </trkpt>
      <trkpt lat="47.28531" lon="-2.35514">
        <ele>28.200000762939</ele>
        <time>2020-07-23T07:40:58.000Z</time>
      </trkpt>
      <trkpt lat="47.28532" lon="-2.35517">
        <ele>28.60000038147</ele>
        <time>2020-07-23T07:40:59.000Z</time>
      </trkpt>
      <trkpt lat="47.28532" lon="-2.35529">
        <ele>29</ele>
        <time>2020-07-23T07:41:03.000Z</time>
      </trkpt>
      <trkpt lat="47.28533" lon="-2.35532">
        <ele>29.39999961853</ele>
        <time>2020-07-23T07:41:04.000Z</time>
      </trkpt>
      <trkpt lat="47.28534" lon="-2.35535">
        <ele>29.799999237061</ele>
        <time>2020-07-23T07:41:05.000Z</time>
      </trkpt>
      <trkpt lat="47.28534" lon="-2.3554">
        <ele>30.200000762939</ele>
        <time>2020-07-23T07:41:06.000Z</time>
      </trkpt>
      <trkpt lat="47.28535" lon="-2.35545">
        <ele>30.799999237061</ele>
        <time>2020-07-23T07:41:07.000Z</time>
      </trkpt>
      <trkpt lat="47.28534" lon="-2.3556">
        <ele>30.799999237061</ele>
        <time>2020-07-23T07:41:10.000Z</time>
      </trkpt>
      <trkpt lat="47.28529" lon="-2.35579">
        <ele>31.200000762939</ele>
        <time>2020-07-23T07:41:14.000Z</time>
      </trkpt>
      <trkpt lat="47.28528" lon="-2.35582">
        <ele>31.60000038147</ele>
        <time>2020-07-23T07:41:15.000Z</time>
      </trkpt>
      <trkpt lat="47.28527" lon="-2.35586">
        <ele>32</ele>
        <time>2020-07-23T07:41:16.000Z</time>
      </trkpt>
      <trkpt lat="47.28526" lon="-2.3559">
        <ele>32.599998474121</ele>
        <time>2020-07-23T07:41:17.000Z</time>
      </trkpt>
      <trkpt lat="47.28525" lon="-2.35594">
        <ele>33</ele>
        <time>2020-07-23T07:41:18.000Z</time>
      </trkpt>
      <trkpt lat="47.28518" lon="-2.356">
        <ele>33.400001525879</ele>
        <time>2020-07-23T07:41:21.000Z</time>
      </trkpt>
      <trkpt lat="47.28516" lon="-2.35601">
        <ele>33.799999237061</ele>
        <time>2020-07-23T07:41:22.000Z</time>
      </trkpt>
      <trkpt lat="47.28514" lon="-2.35601">
        <ele>34.400001525879</ele>
        <time>2020-07-23T07:41:23.000Z</time>
      </trkpt>
      <trkpt lat="47.28511" lon="-2.35601">
        <ele>34.799999237061</ele>
        <time>2020-07-23T07:41:24.000Z</time>
      </trkpt>
      <trkpt lat="47.2851" lon="-2.35602">
        <ele>35.200000762939</ele>
        <time>2020-07-23T07:41:25.000Z</time>
      </trkpt>
      <trkpt lat="47.28506" lon="-2.35601">
        <ele>35.200000762939</ele>
        <time>2020-07-23T07:41:27.000Z</time>
      </trkpt>
      <trkpt lat="47.28503" lon="-2.35594">
        <ele>35.599998474121</ele>
        <time>2020-07-23T07:41:30.000Z</time>
      </trkpt>
      <trkpt lat="47.28502" lon="-2.35591">
        <ele>36</ele>
        <time>2020-07-23T07:41:31.000Z</time>
      </trkpt>
      <trkpt lat="47.28501" lon="-2.35588">
        <ele>36.599998474121</ele>
        <time>2020-07-23T07:41:32.000Z</time>
      </trkpt>
      <trkpt lat="47.285" lon="-2.35584">
        <ele>37</ele>
        <time>2020-07-23T07:41:33.000Z</time>
      </trkpt>
      <trkpt lat="47.28499" lon="-2.35581">
        <ele>37.400001525879</ele>
        <time>2020-07-23T07:41:34.000Z</time>
      </trkpt>
      <trkpt lat="47.28493" lon="-2.35568">
        <ele>37.400001525879</ele>
        <time>2020-07-23T07:41:38.000Z</time>
      </trkpt>
      <trkpt lat="47.28491" lon="-2.35565">
        <ele>37.799999237061</ele>
        <time>2020-07-23T07:41:39.000Z</time>
      </trkpt>
      <trkpt lat="47.2849" lon="-2.35561">
        <ele>38.200000762939</ele>
        <time>2020-07-23T07:41:40.000Z</time>
      </trkpt>
      <trkpt lat="47.28488" lon="-2.35558">
        <ele>38.599998474121</ele>
        <time>2020-07-23T07:41:41.000Z</time>
      </trkpt>
      <trkpt lat="47.28486" lon="-2.35555">
        <ele>39</ele>
        <time>2020-07-23T07:41:42.000Z</time>
      </trkpt>
      <trkpt lat="47.28485" lon="-2.35552">
        <ele>39.400001525879</ele>
        <time>2020-07-23T07:41:43.000Z</time>
      </trkpt>
      <trkpt lat="47.28484" lon="-2.35544">
        <ele>39.400001525879</ele>
        <time>2020-07-23T07:41:45.000Z</time>
      </trkpt>
      <trkpt lat="47.2848" lon="-2.35526">
        <ele>39.400001525879</ele>
        <time>2020-07-23T07:41:51.000Z</time>
      </trkpt>
      <trkpt lat="47.28476" lon="-2.35516">
        <ele>39.400001525879</ele>
        <time>2020-07-23T07:41:54.000Z</time>
      </trkpt>
      <trkpt lat="47.28473" lon="-2.35512">
        <ele>39.400001525879</ele>
        <time>2020-07-23T07:41:55.000Z</time>
      </trkpt>
      <trkpt lat="47.28459" lon="-2.35487">
        <ele>39</ele>
        <time>2020-07-23T07:42:01.000Z</time>
      </trkpt>
      <trkpt lat="47.28457" lon="-2.3548">
        <ele>38.599998474121</ele>
        <time>2020-07-23T07:42:02.000Z</time>
      </trkpt>
      <trkpt lat="47.28455" lon="-2.35473">
        <ele>38.200000762939</ele>
        <time>2020-07-23T07:42:03.000Z</time>
      </trkpt>
      <trkpt lat="47.28453" lon="-2.35467">
        <ele>37.799999237061</ele>
        <time>2020-07-23T07:42:04.000Z</time>
      </trkpt>
      <trkpt lat="47.28451" lon="-2.35462">
        <ele>37.200000762939</ele>
        <time>2020-07-23T07:42:05.000Z</time>
      </trkpt>
      <trkpt lat="47.28447" lon="-2.35457">
        <ele>36.599998474121</ele>
        <time>2020-07-23T07:42:06.000Z</time>
      </trkpt>
      <trkpt lat="47.28444" lon="-2.35454">
        <ele>36</ele>
        <time>2020-07-23T07:42:07.000Z</time>
      </trkpt>
      <trkpt lat="47.2844" lon="-2.35452">
        <ele>35.400001525879</ele>
        <time>2020-07-23T07:42:08.000Z</time>
      </trkpt>
      <trkpt lat="47.28434" lon="-2.35451">
        <ele>34.799999237061</ele>
        <time>2020-07-23T07:42:09.000Z</time>
      </trkpt>
      <trkpt lat="47.28429" lon="-2.3545">
        <ele>34.200000762939</ele>
        <time>2020-07-23T07:42:10.000Z</time>
      </trkpt>
      <trkpt lat="47.28425" lon="-2.35448">
        <ele>33.599998474121</ele>
        <time>2020-07-23T07:42:11.000Z</time>
      </trkpt>
      <trkpt lat="47.2842" lon="-2.35447">
        <ele>33</ele>
        <time>2020-07-23T07:42:12.000Z</time>
      </trkpt>
      <trkpt lat="47.28415" lon="-2.35446">
        <ele>32.599998474121</ele>
        <time>2020-07-23T07:42:13.000Z</time>
      </trkpt>
      <trkpt lat="47.28408" lon="-2.35443">
        <ele>32.599998474121</ele>
        <time>2020-07-23T07:42:15.000Z</time>
      </trkpt>
      <trkpt lat="47.28406" lon="-2.35439">
        <ele>32.599998474121</ele>
        <time>2020-07-23T07:42:16.000Z</time>
      </trkpt>
      <trkpt lat="47.28387" lon="-2.35413">
        <ele>32.599998474121</ele>
        <time>2020-07-23T07:42:22.000Z</time>
      </trkpt>
      <trkpt lat="47.28382" lon="-2.35404">
        <ele>32</ele>
        <time>2020-07-23T07:42:24.000Z</time>
      </trkpt>
      <trkpt lat="47.28379" lon="-2.35398">
        <ele>31.60000038147</ele>
        <time>2020-07-23T07:42:25.000Z</time>
      </trkpt>
      <trkpt lat="47.28377" lon="-2.35392">
        <ele>31.200000762939</ele>
        <time>2020-07-23T07:42:26.000Z</time>
      </trkpt>
      <trkpt lat="47.28375" lon="-2.35386">
        <ele>30.60000038147</ele>
        <time>2020-07-23T07:42:27.000Z</time>
      </trkpt>
      <trkpt lat="47.28373" lon="-2.3538">
        <ele>30</ele>
        <time>2020-07-23T07:42:28.000Z</time>
      </trkpt>
      <trkpt lat="47.28372" lon="-2.35376">
        <ele>29.200000762939</ele>
        <time>2020-07-23T07:42:29.000Z</time>
      </trkpt>
      <trkpt lat="47.28371" lon="-2.35372">
        <ele>28.60000038147</ele>
        <time>2020-07-23T07:42:30.000Z</time>
      </trkpt>
      <trkpt lat="47.28368" lon="-2.35369">
        <ele>27.799999237061</ele>
        <time>2020-07-23T07:42:31.000Z</time>
      </trkpt>
      <trkpt lat="47.28367" lon="-2.35366">
        <ele>27.200000762939</ele>
        <time>2020-07-23T07:42:32.000Z</time>
      </trkpt>
      <trkpt lat="47.28365" lon="-2.35364">
        <ele>26.39999961853</ele>
        <time>2020-07-23T07:42:33.000Z</time>
      </trkpt>
      <trkpt lat="47.28364" lon="-2.35361">
        <ele>25.799999237061</ele>
        <time>2020-07-23T07:42:34.000Z</time>
      </trkpt>
      <trkpt lat="47.2836" lon="-2.3535">
        <ele>25.799999237061</ele>
        <time>2020-07-23T07:42:37.000Z</time>
      </trkpt>
      <trkpt lat="47.28358" lon="-2.35347">
        <ele>25.39999961853</ele>
        <time>2020-07-23T07:42:38.000Z</time>
      </trkpt>
      <trkpt lat="47.28356" lon="-2.35346">
        <ele>24.799999237061</ele>
        <time>2020-07-23T07:42:39.000Z</time>
      </trkpt>
      <trkpt lat="47.28354" lon="-2.35346">
        <ele>24.39999961853</ele>
        <time>2020-07-23T07:42:40.000Z</time>
      </trkpt>
      <trkpt lat="47.28352" lon="-2.35347">
        <ele>24</ele>
        <time>2020-07-23T07:42:41.000Z</time>
      </trkpt>
      <trkpt lat="47.28349" lon="-2.35347">
        <ele>23.60000038147</ele>
        <time>2020-07-23T07:42:42.000Z</time>
      </trkpt>
      <trkpt lat="47.28341" lon="-2.35353">
        <ele>23.60000038147</ele>
        <time>2020-07-23T07:42:47.000Z</time>
      </trkpt>
      <trkpt lat="47.28327" lon="-2.35363">
        <ele>23.60000038147</ele>
        <time>2020-07-23T07:42:53.000Z</time>
      </trkpt>
      <trkpt lat="47.28325" lon="-2.35363">
        <ele>23.60000038147</ele>
        <time>2020-07-23T07:42:54.000Z</time>
      </trkpt>
      <trkpt lat="47.28323" lon="-2.35359">
        <ele>23.60000038147</ele>
        <time>2020-07-23T07:42:56.000Z</time>
      </trkpt>
      <trkpt lat="47.28314" lon="-2.35355">
        <ele>23.60000038147</ele>
        <time>2020-07-23T07:43:00.000Z</time>
      </trkpt>
      <trkpt lat="47.2831" lon="-2.35357">
        <ele>23.60000038147</ele>
        <time>2020-07-23T07:43:01.000Z</time>
      </trkpt>
      <trkpt lat="47.28294" lon="-2.35368">
        <ele>23.60000038147</ele>
        <time>2020-07-23T07:43:05.000Z</time>
      </trkpt>
      <trkpt lat="47.28282" lon="-2.35389">
        <ele>23.60000038147</ele>
        <time>2020-07-23T07:43:10.000Z</time>
      </trkpt>
      <trkpt lat="47.28278" lon="-2.35401">
        <ele>23.60000038147</ele>
        <time>2020-07-23T07:43:13.000Z</time>
      </trkpt>
      <trkpt lat="47.28276" lon="-2.35402">
        <ele>23.60000038147</ele>
        <time>2020-07-23T07:43:14.000Z</time>
      </trkpt>
      <trkpt lat="47.28257" lon="-2.35401">
        <ele>23.60000038147</ele>
        <time>2020-07-23T07:43:19.000Z</time>
      </trkpt>
      <trkpt lat="47.28247" lon="-2.35393">
        <ele>23.200000762939</ele>
        <time>2020-07-23T07:43:22.000Z</time>
      </trkpt>
      <trkpt lat="47.28243" lon="-2.35395">
        <ele>22.799999237061</ele>
        <time>2020-07-23T07:43:23.000Z</time>
      </trkpt>
      <trkpt lat="47.2824" lon="-2.354">
        <ele>22.200000762939</ele>
        <time>2020-07-23T07:43:24.000Z</time>
      </trkpt>
      <trkpt lat="47.28237" lon="-2.35404">
        <ele>21.799999237061</ele>
        <time>2020-07-23T07:43:25.000Z</time>
      </trkpt>
      <trkpt lat="47.28233" lon="-2.35409">
        <ele>21.39999961853</ele>
        <time>2020-07-23T07:43:26.000Z</time>
      </trkpt>
      <trkpt lat="47.2821" lon="-2.35438">
        <ele>21.39999961853</ele>
        <time>2020-07-23T07:43:32.000Z</time>
      </trkpt>
      <trkpt lat="47.28184" lon="-2.35475">
        <ele>21.39999961853</ele>
        <time>2020-07-23T07:43:39.000Z</time>
      </trkpt>
      <trkpt lat="47.28166" lon="-2.35503">
        <ele>21.39999961853</ele>
        <time>2020-07-23T07:43:44.000Z</time>
      </trkpt>
      <trkpt lat="47.28151" lon="-2.35531">
        <ele>21.39999961853</ele>
        <time>2020-07-23T07:43:49.000Z</time>
      </trkpt>
      <trkpt lat="47.28149" lon="-2.35536">
        <ele>21.39999961853</ele>
        <time>2020-07-23T07:43:50.000Z</time>
      </trkpt>
      <trkpt lat="47.2815" lon="-2.35552">
        <ele>21.39999961853</ele>
        <time>2020-07-23T07:43:53.000Z</time>
      </trkpt>
      <trkpt lat="47.28158" lon="-2.3556">
        <ele>21.39999961853</ele>
        <time>2020-07-23T07:43:56.000Z</time>
      </trkpt>
      <trkpt lat="47.2816" lon="-2.35561">
        <ele>21.799999237061</ele>
        <time>2020-07-23T07:43:57.000Z</time>
      </trkpt>
      <trkpt lat="47.28162" lon="-2.35563">
        <ele>22.200000762939</ele>
        <time>2020-07-23T07:43:58.000Z</time>
      </trkpt>
      <trkpt lat="47.28165" lon="-2.35564">
        <ele>22.799999237061</ele>
        <time>2020-07-23T07:43:59.000Z</time>
      </trkpt>
      <trkpt lat="47.28168" lon="-2.35565">
        <ele>23.200000762939</ele>
        <time>2020-07-23T07:44:00.000Z</time>
      </trkpt>
      <trkpt lat="47.28171" lon="-2.35566">
        <ele>23.60000038147</ele>
        <time>2020-07-23T07:44:01.000Z</time>
      </trkpt>
      <trkpt lat="47.28179" lon="-2.35569">
        <ele>23.60000038147</ele>
        <time>2020-07-23T07:44:04.000Z</time>
      </trkpt>
      <trkpt lat="47.28191" lon="-2.35579">
        <ele>23.60000038147</ele>
        <time>2020-07-23T07:44:10.000Z</time>
      </trkpt>
      <trkpt lat="47.28193" lon="-2.35587">
        <ele>23.60000038147</ele>
        <time>2020-07-23T07:44:15.000Z</time>
      </trkpt>
      <trkpt lat="47.28191" lon="-2.35587">
        <ele>23.60000038147</ele>
        <time>2020-07-23T07:44:16.000Z</time>
      </trkpt>
      <trkpt lat="47.28184" lon="-2.35584">
        <ele>23.60000038147</ele>
        <time>2020-07-23T07:44:20.000Z</time>
      </trkpt>
      <trkpt lat="47.28168" lon="-2.35574">
        <ele>23.60000038147</ele>
        <time>2020-07-23T07:44:25.000Z</time>
      </trkpt>
      <trkpt lat="47.28144" lon="-2.35566">
        <ele>23.60000038147</ele>
        <time>2020-07-23T07:44:30.000Z</time>
      </trkpt>
      <trkpt lat="47.28104" lon="-2.35562">
        <ele>23.60000038147</ele>
        <time>2020-07-23T07:44:37.000Z</time>
      </trkpt>
      <trkpt lat="47.28077" lon="-2.35558">
        <ele>23.60000038147</ele>
        <time>2020-07-23T07:44:42.000Z</time>
      </trkpt>
      <trkpt lat="47.28074" lon="-2.35559">
        <ele>23.200000762939</ele>
        <time>2020-07-23T07:44:43.000Z</time>
      </trkpt>
      <trkpt lat="47.28072" lon="-2.35561">
        <ele>22.60000038147</ele>
        <time>2020-07-23T07:44:44.000Z</time>
      </trkpt>
      <trkpt lat="47.2807" lon="-2.35564">
        <ele>22.200000762939</ele>
        <time>2020-07-23T07:44:45.000Z</time>
      </trkpt>
      <trkpt lat="47.28069" lon="-2.35566">
        <ele>21.799999237061</ele>
        <time>2020-07-23T07:44:46.000Z</time>
      </trkpt>
      <trkpt lat="47.28069" lon="-2.35569">
        <ele>21.200000762939</ele>
        <time>2020-07-23T07:44:47.000Z</time>
      </trkpt>
      <trkpt lat="47.28071" lon="-2.35584">
        <ele>21.200000762939</ele>
        <time>2020-07-23T07:44:51.000Z</time>
      </trkpt>
      <trkpt lat="47.28071" lon="-2.35586">
        <ele>21.200000762939</ele>
        <time>2020-07-23T07:44:52.000Z</time>
      </trkpt>
      <trkpt lat="47.28073" lon="-2.35585">
        <ele>21.200000762939</ele>
        <time>2020-07-23T07:44:54.000Z</time>
      </trkpt>
      <trkpt lat="47.28075" lon="-2.35583">
        <ele>21.200000762939</ele>
        <time>2020-07-23T07:44:55.000Z</time>
      </trkpt>
      <trkpt lat="47.28086" lon="-2.3558">
        <ele>21.200000762939</ele>
        <time>2020-07-23T07:45:00.000Z</time>
      </trkpt>
      <trkpt lat="47.28093" lon="-2.35582">
        <ele>21.200000762939</ele>
        <time>2020-07-23T07:45:04.000Z</time>
      </trkpt>
      <trkpt lat="47.28096" lon="-2.35586">
        <ele>21.200000762939</ele>
        <time>2020-07-23T07:45:06.000Z</time>
      </trkpt>
      <trkpt lat="47.28096" lon="-2.35594">
        <ele>21.200000762939</ele>
        <time>2020-07-23T07:45:10.000Z</time>
      </trkpt>
      <trkpt lat="47.28095" lon="-2.35597">
        <ele>21.200000762939</ele>
        <time>2020-07-23T07:45:11.000Z</time>
      </trkpt>
      <trkpt lat="47.28092" lon="-2.35606">
        <ele>21.200000762939</ele>
        <time>2020-07-23T07:45:14.000Z</time>
      </trkpt>
      <trkpt lat="47.28089" lon="-2.35608">
        <ele>21.200000762939</ele>
        <time>2020-07-23T07:45:16.000Z</time>
      </trkpt>
      <trkpt lat="47.28082" lon="-2.35605">
        <ele>21.200000762939</ele>
        <time>2020-07-23T07:45:20.000Z</time>
      </trkpt>
      <trkpt lat="47.2808" lon="-2.35605">
        <ele>21.200000762939</ele>
        <time>2020-07-23T07:45:21.000Z</time>
      </trkpt>
      <trkpt lat="47.28076" lon="-2.35611">
        <ele>21.200000762939</ele>
        <time>2020-07-23T07:45:24.000Z</time>
      </trkpt>
      <trkpt lat="47.28078" lon="-2.35624">
        <ele>21.200000762939</ele>
        <time>2020-07-23T07:45:28.000Z</time>
      </trkpt>
      <trkpt lat="47.2808" lon="-2.35629">
        <ele>21.200000762939</ele>
        <time>2020-07-23T07:45:30.000Z</time>
      </trkpt>
      <trkpt lat="47.28081" lon="-2.35634">
        <ele>21.60000038147</ele>
        <time>2020-07-23T07:45:32.000Z</time>
      </trkpt>
      <trkpt lat="47.28081" lon="-2.35637">
        <ele>22</ele>
        <time>2020-07-23T07:45:33.000Z</time>
      </trkpt>
      <trkpt lat="47.28082" lon="-2.35639">
        <ele>22.39999961853</ele>
        <time>2020-07-23T07:45:34.000Z</time>
      </trkpt>
      <trkpt lat="47.28082" lon="-2.35642">
        <ele>23</ele>
        <time>2020-07-23T07:45:35.000Z</time>
      </trkpt>
      <trkpt lat="47.28083" lon="-2.35645">
        <ele>23.39999961853</ele>
        <time>2020-07-23T07:45:36.000Z</time>
      </trkpt>
      <trkpt lat="47.28085" lon="-2.35652">
        <ele>23.39999961853</ele>
        <time>2020-07-23T07:45:38.000Z</time>
      </trkpt>
      <trkpt lat="47.28086" lon="-2.35655">
        <ele>23.799999237061</ele>
        <time>2020-07-23T07:45:39.000Z</time>
      </trkpt>
      <trkpt lat="47.28086" lon="-2.3566">
        <ele>24.200000762939</ele>
        <time>2020-07-23T07:45:40.000Z</time>
      </trkpt>
      <trkpt lat="47.28087" lon="-2.35664">
        <ele>24.60000038147</ele>
        <time>2020-07-23T07:45:41.000Z</time>
      </trkpt>
      <trkpt lat="47.28088" lon="-2.35668">
        <ele>25.39999961853</ele>
        <time>2020-07-23T07:45:42.000Z</time>
      </trkpt>
      <trkpt lat="47.28091" lon="-2.35683">
        <ele>25.39999961853</ele>
        <time>2020-07-23T07:45:46.000Z</time>
      </trkpt>
      <trkpt lat="47.28095" lon="-2.35691">
        <ele>25.39999961853</ele>
        <time>2020-07-23T07:45:51.000Z</time>
      </trkpt>
      <trkpt lat="47.28094" lon="-2.35691">
        <ele>25.39999961853</ele>
        <time>2020-07-23T07:45:52.000Z</time>
      </trkpt>
      <trkpt lat="47.28102" lon="-2.35691">
        <ele>27.39999961853</ele>
        <time>2020-07-23T07:46:28.000Z</time>
      </trkpt>
      <trkpt lat="47.28107" lon="-2.35687">
        <ele>27.39999961853</ele>
        <time>2020-07-23T07:46:31.000Z</time>
      </trkpt>
      <trkpt lat="47.28108" lon="-2.35686">
        <ele>28</ele>
        <time>2020-07-23T07:46:32.000Z</time>
      </trkpt>
      <trkpt lat="47.2811" lon="-2.35685">
        <ele>28.39999961853</ele>
        <time>2020-07-23T07:46:33.000Z</time>
      </trkpt>
      <trkpt lat="47.28111" lon="-2.35684">
        <ele>28.799999237061</ele>
        <time>2020-07-23T07:46:34.000Z</time>
      </trkpt>
      <trkpt lat="47.28113" lon="-2.35683">
        <ele>29.39999961853</ele>
        <time>2020-07-23T07:46:35.000Z</time>
      </trkpt>
      <trkpt lat="47.28115" lon="-2.35683">
        <ele>29.799999237061</ele>
        <time>2020-07-23T07:46:36.000Z</time>
      </trkpt>
      <trkpt lat="47.28119" lon="-2.35681">
        <ele>30.200000762939</ele>
        <time>2020-07-23T07:46:38.000Z</time>
      </trkpt>
      <trkpt lat="47.28121" lon="-2.3568">
        <ele>30.799999237061</ele>
        <time>2020-07-23T07:46:39.000Z</time>
      </trkpt>
      <trkpt lat="47.28123" lon="-2.3568">
        <ele>31.200000762939</ele>
        <time>2020-07-23T07:46:40.000Z</time>
      </trkpt>
      <trkpt lat="47.28124" lon="-2.35679">
        <ele>31.60000038147</ele>
        <time>2020-07-23T07:46:41.000Z</time>
      </trkpt>
      <trkpt lat="47.28126" lon="-2.35678">
        <ele>32</ele>
        <time>2020-07-23T07:46:42.000Z</time>
      </trkpt>
      <trkpt lat="47.28128" lon="-2.35677">
        <ele>32</ele>
        <time>2020-07-23T07:46:43.000Z</time>
      </trkpt>
      <trkpt lat="47.28138" lon="-2.35671">
        <ele>32.599998474121</ele>
        <time>2020-07-23T07:46:47.000Z</time>
      </trkpt>
      <trkpt lat="47.2814" lon="-2.3567">
        <ele>33</ele>
        <time>2020-07-23T07:46:48.000Z</time>
      </trkpt>
      <trkpt lat="47.28141" lon="-2.35668">
        <ele>33.400001525879</ele>
        <time>2020-07-23T07:46:49.000Z</time>
      </trkpt>
      <trkpt lat="47.28142" lon="-2.35667">
        <ele>33.799999237061</ele>
        <time>2020-07-23T07:46:50.000Z</time>
      </trkpt>
      <trkpt lat="47.28143" lon="-2.35667">
        <ele>34.200000762939</ele>
        <time>2020-07-23T07:46:51.000Z</time>
      </trkpt>
      <trkpt lat="47.28149" lon="-2.35659">
        <ele>34.200000762939</ele>
        <time>2020-07-23T07:46:59.000Z</time>
      </trkpt>
      <trkpt lat="47.28155" lon="-2.35648">
        <ele>34.200000762939</ele>
        <time>2020-07-23T07:47:06.000Z</time>
      </trkpt>
      <trkpt lat="47.28154" lon="-2.35634">
        <ele>34.200000762939</ele>
        <time>2020-07-23T07:47:10.000Z</time>
      </trkpt>
      <trkpt lat="47.28154" lon="-2.35631">
        <ele>34.200000762939</ele>
        <time>2020-07-23T07:47:11.000Z</time>
      </trkpt>
      <trkpt lat="47.28154" lon="-2.35621">
        <ele>33.799999237061</ele>
        <time>2020-07-23T07:47:15.000Z</time>
      </trkpt>
      <trkpt lat="47.28154" lon="-2.35619">
        <ele>33.400001525879</ele>
        <time>2020-07-23T07:47:16.000Z</time>
      </trkpt>
      <trkpt lat="47.28155" lon="-2.35617">
        <ele>33</ele>
        <time>2020-07-23T07:47:17.000Z</time>
      </trkpt>
      <trkpt lat="47.28156" lon="-2.35616">
        <ele>32.599998474121</ele>
        <time>2020-07-23T07:47:18.000Z</time>
      </trkpt>
      <trkpt lat="47.28157" lon="-2.35616">
        <ele>32.200000762939</ele>
        <time>2020-07-23T07:47:19.000Z</time>
      </trkpt>
      <trkpt lat="47.28158" lon="-2.35618">
        <ele>32.200000762939</ele>
        <time>2020-07-23T07:47:21.000Z</time>
      </trkpt>
      <trkpt lat="47.2816" lon="-2.35621">
        <ele>32.200000762939</ele>
        <time>2020-07-23T07:47:23.000Z</time>
      </trkpt>
      <trkpt lat="47.28166" lon="-2.3563">
        <ele>32.200000762939</ele>
        <time>2020-07-23T07:47:29.000Z</time>
      </trkpt>
      <trkpt lat="47.28167" lon="-2.35631">
        <ele>32.200000762939</ele>
        <time>2020-07-23T07:47:30.000Z</time>
      </trkpt>
      <trkpt lat="47.28168" lon="-2.3564">
        <ele>32.200000762939</ele>
        <time>2020-07-23T07:47:37.000Z</time>
      </trkpt>
      <trkpt lat="47.28169" lon="-2.35648">
        <ele>32.200000762939</ele>
        <time>2020-07-23T07:47:40.000Z</time>
      </trkpt>
      <trkpt lat="47.28167" lon="-2.35654">
        <ele>32.200000762939</ele>
        <time>2020-07-23T07:47:42.000Z</time>
      </trkpt>
      <trkpt lat="47.28163" lon="-2.35663">
        <ele>32.200000762939</ele>
        <time>2020-07-23T07:47:45.000Z</time>
      </trkpt>
      <trkpt lat="47.28163" lon="-2.35671">
        <ele>32.200000762939</ele>
        <time>2020-07-23T07:47:50.000Z</time>
      </trkpt>
      <trkpt lat="47.28165" lon="-2.35672">
        <ele>32.200000762939</ele>
        <time>2020-07-23T07:47:55.000Z</time>
      </trkpt>
      <trkpt lat="47.28168" lon="-2.35676">
        <ele>32.200000762939</ele>
        <time>2020-07-23T07:47:58.000Z</time>
      </trkpt>
      <trkpt lat="47.2817" lon="-2.3568">
        <ele>31.799999237061</ele>
        <time>2020-07-23T07:48:01.000Z</time>
      </trkpt>
      <trkpt lat="47.28171" lon="-2.35682">
        <ele>31.200000762939</ele>
        <time>2020-07-23T07:48:02.000Z</time>
      </trkpt>
      <trkpt lat="47.28171" lon="-2.35683">
        <ele>30.799999237061</ele>
        <time>2020-07-23T07:48:03.000Z</time>
      </trkpt>
      <trkpt lat="47.28173" lon="-2.35685">
        <ele>30.39999961853</ele>
        <time>2020-07-23T07:48:04.000Z</time>
      </trkpt>
      <trkpt lat="47.28174" lon="-2.35686">
        <ele>29.799999237061</ele>
        <time>2020-07-23T07:48:05.000Z</time>
      </trkpt>
      <trkpt lat="47.28176" lon="-2.35691">
        <ele>29.39999961853</ele>
        <time>2020-07-23T07:48:08.000Z</time>
      </trkpt>
      <trkpt lat="47.28179" lon="-2.35705">
        <ele>27.60000038147</ele>
        <time>2020-07-23T07:48:25.000Z</time>
      </trkpt>
      <trkpt lat="47.28179" lon="-2.3571">
        <ele>27.60000038147</ele>
        <time>2020-07-23T07:48:26.000Z</time>
      </trkpt>
      <trkpt lat="47.28179" lon="-2.35716">
        <ele>27</ele>
        <time>2020-07-23T07:48:28.000Z</time>
      </trkpt>
      <trkpt lat="47.28179" lon="-2.35717">
        <ele>26.39999961853</ele>
        <time>2020-07-23T07:48:29.000Z</time>
      </trkpt>
      <trkpt lat="47.28179" lon="-2.3572">
        <ele>25.60000038147</ele>
        <time>2020-07-23T07:48:30.000Z</time>
      </trkpt>
      <trkpt lat="47.28179" lon="-2.35721">
        <ele>26</ele>
        <time>2020-07-23T07:48:31.000Z</time>
      </trkpt>
      <trkpt lat="47.28179" lon="-2.35722">
        <ele>26.39999961853</ele>
        <time>2020-07-23T07:48:32.000Z</time>
      </trkpt>
      <trkpt lat="47.28162" lon="-2.3576">
        <ele>25.39999961853</ele>
        <time>2020-07-23T07:48:59.000Z</time>
      </trkpt>
      <trkpt lat="47.28149" lon="-2.35759">
        <ele>25</ele>
        <time>2020-07-23T07:49:05.000Z</time>
      </trkpt>
      <trkpt lat="47.28146" lon="-2.35761">
        <ele>24.39999961853</ele>
        <time>2020-07-23T07:49:06.000Z</time>
      </trkpt>
      <trkpt lat="47.28143" lon="-2.35763">
        <ele>24</ele>
        <time>2020-07-23T07:49:07.000Z</time>
      </trkpt>
      <trkpt lat="47.2814" lon="-2.35764">
        <ele>23.60000038147</ele>
        <time>2020-07-23T07:49:08.000Z</time>
      </trkpt>
      <trkpt lat="47.28139" lon="-2.35767">
        <ele>23.200000762939</ele>
        <time>2020-07-23T07:49:09.000Z</time>
      </trkpt>
      <trkpt lat="47.28138" lon="-2.35769">
        <ele>23.200000762939</ele>
        <time>2020-07-23T07:49:10.000Z</time>
      </trkpt>
      <trkpt lat="47.28137" lon="-2.35773">
        <ele>23.200000762939</ele>
        <time>2020-07-23T07:49:11.000Z</time>
      </trkpt>
      <trkpt lat="47.28141" lon="-2.3579">
        <ele>23.200000762939</ele>
        <time>2020-07-23T07:49:15.000Z</time>
      </trkpt>
      <trkpt lat="47.28154" lon="-2.35815">
        <ele>23.200000762939</ele>
        <time>2020-07-23T07:49:21.000Z</time>
      </trkpt>
      <trkpt lat="47.28169" lon="-2.35833">
        <ele>23.200000762939</ele>
        <time>2020-07-23T07:49:27.000Z</time>
      </trkpt>
      <trkpt lat="47.28173" lon="-2.3585">
        <ele>23.200000762939</ele>
        <time>2020-07-23T07:49:32.000Z</time>
      </trkpt>
      <trkpt lat="47.28176" lon="-2.35872">
        <ele>23.200000762939</ele>
        <time>2020-07-23T07:49:38.000Z</time>
      </trkpt>
      <trkpt lat="47.28176" lon="-2.35904">
        <ele>23.200000762939</ele>
        <time>2020-07-23T07:49:44.000Z</time>
      </trkpt>
      <trkpt lat="47.2818" lon="-2.35926">
        <ele>23.200000762939</ele>
        <time>2020-07-23T07:49:47.000Z</time>
      </trkpt>
      <trkpt lat="47.28185" lon="-2.35943">
        <ele>23.200000762939</ele>
        <time>2020-07-23T07:49:49.000Z</time>
      </trkpt>
      <trkpt lat="47.28192" lon="-2.35966">
        <ele>22.799999237061</ele>
        <time>2020-07-23T07:49:52.000Z</time>
      </trkpt>
      <trkpt lat="47.28194" lon="-2.35973">
        <ele>22.39999961853</ele>
        <time>2020-07-23T07:49:53.000Z</time>
      </trkpt>
      <trkpt lat="47.28197" lon="-2.35981">
        <ele>22</ele>
        <time>2020-07-23T07:49:54.000Z</time>
      </trkpt>
      <trkpt lat="47.282" lon="-2.35991">
        <ele>21.39999961853</ele>
        <time>2020-07-23T07:49:55.000Z</time>
      </trkpt>
      <trkpt lat="47.28203" lon="-2.35998">
        <ele>21</ele>
        <time>2020-07-23T07:49:56.000Z</time>
      </trkpt>
      <trkpt lat="47.28212" lon="-2.36016">
        <ele>21</ele>
        <time>2020-07-23T07:50:00.000Z</time>
      </trkpt>
      <trkpt lat="47.28215" lon="-2.36024">
        <ele>21</ele>
        <time>2020-07-23T07:50:02.000Z</time>
      </trkpt>
      <trkpt lat="47.28213" lon="-2.3603">
        <ele>21</ele>
        <time>2020-07-23T07:50:04.000Z</time>
      </trkpt>
      <trkpt lat="47.28212" lon="-2.36046">
        <ele>21</ele>
        <time>2020-07-23T07:50:08.000Z</time>
      </trkpt>
      <trkpt lat="47.28216" lon="-2.36061">
        <ele>21</ele>
        <time>2020-07-23T07:50:11.000Z</time>
      </trkpt>
      <trkpt lat="47.28218" lon="-2.36069">
        <ele>21</ele>
        <time>2020-07-23T07:50:13.000Z</time>
      </trkpt>
      <trkpt lat="47.28227" lon="-2.36091">
        <ele>21.39999961853</ele>
        <time>2020-07-23T07:50:19.000Z</time>
      </trkpt>
      <trkpt lat="47.28227" lon="-2.36094">
        <ele>21.799999237061</ele>
        <time>2020-07-23T07:50:20.000Z</time>
      </trkpt>
      <trkpt lat="47.28228" lon="-2.36096">
        <ele>22.200000762939</ele>
        <time>2020-07-23T07:50:21.000Z</time>
      </trkpt>
      <trkpt lat="47.28229" lon="-2.36097">
        <ele>22.799999237061</ele>
        <time>2020-07-23T07:50:22.000Z</time>
      </trkpt>
      <trkpt lat="47.28229" lon="-2.36097">
        <ele>23.200000762939</ele>
        <time>2020-07-23T07:50:23.000Z</time>
      </trkpt>
      <trkpt lat="47.28229" lon="-2.36097">
        <ele>23.200000762939</ele>
        <time>2020-07-23T07:50:25.000Z</time>
      </trkpt>
      <trkpt lat="47.28233" lon="-2.36103">
        <ele>23.200000762939</ele>
        <time>2020-07-23T07:50:35.000Z</time>
      </trkpt>
      <trkpt lat="47.28236" lon="-2.36104">
        <ele>23.200000762939</ele>
        <time>2020-07-23T07:50:38.000Z</time>
      </trkpt>
      <trkpt lat="47.28237" lon="-2.36104">
        <ele>23.200000762939</ele>
        <time>2020-07-23T07:50:39.000Z</time>
      </trkpt>
      <trkpt lat="47.28242" lon="-2.36106">
        <ele>23.200000762939</ele>
        <time>2020-07-23T07:50:42.000Z</time>
      </trkpt>
      <trkpt lat="47.28245" lon="-2.36106">
        <ele>23.200000762939</ele>
        <time>2020-07-23T07:50:43.000Z</time>
      </trkpt>
      <trkpt lat="47.28255" lon="-2.36117">
        <ele>23.200000762939</ele>
        <time>2020-07-23T07:50:47.000Z</time>
      </trkpt>
      <trkpt lat="47.28258" lon="-2.36123">
        <ele>23.200000762939</ele>
        <time>2020-07-23T07:50:48.000Z</time>
      </trkpt>
      <trkpt lat="47.28266" lon="-2.36145">
        <ele>23.200000762939</ele>
        <time>2020-07-23T07:50:52.000Z</time>
      </trkpt>
      <trkpt lat="47.28272" lon="-2.3618">
        <ele>23.200000762939</ele>
        <time>2020-07-23T07:50:58.000Z</time>
      </trkpt>
      <trkpt lat="47.28277" lon="-2.36201">
        <ele>23.200000762939</ele>
        <time>2020-07-23T07:51:02.000Z</time>
      </trkpt>
      <trkpt lat="47.28279" lon="-2.36204">
        <ele>23.200000762939</ele>
        <time>2020-07-23T07:51:03.000Z</time>
      </trkpt>
      <trkpt lat="47.28286" lon="-2.36211">
        <ele>23.200000762939</ele>
        <time>2020-07-23T07:51:08.000Z</time>
      </trkpt>
      <trkpt lat="47.28294" lon="-2.3621">
        <ele>23.200000762939</ele>
        <time>2020-07-23T07:51:11.000Z</time>
      </trkpt>
      <trkpt lat="47.28297" lon="-2.3621">
        <ele>23.200000762939</ele>
        <time>2020-07-23T07:51:12.000Z</time>
      </trkpt>
      <trkpt lat="47.28299" lon="-2.3621">
        <ele>23.200000762939</ele>
        <time>2020-07-23T07:51:13.000Z</time>
      </trkpt>
      <trkpt lat="47.28306" lon="-2.36209">
        <ele>23.200000762939</ele>
        <time>2020-07-23T07:51:16.000Z</time>
      </trkpt>
      <trkpt lat="47.2832" lon="-2.36202">
        <ele>23.200000762939</ele>
        <time>2020-07-23T07:51:23.000Z</time>
      </trkpt>
      <trkpt lat="47.28327" lon="-2.36193">
        <ele>23.60000038147</ele>
        <time>2020-07-23T07:51:28.000Z</time>
      </trkpt>
      <trkpt lat="47.28328" lon="-2.36192">
        <ele>24</ele>
        <time>2020-07-23T07:51:29.000Z</time>
      </trkpt>
      <trkpt lat="47.2833" lon="-2.3619">
        <ele>24.39999961853</ele>
        <time>2020-07-23T07:51:30.000Z</time>
      </trkpt>
      <trkpt lat="47.28332" lon="-2.36189">
        <ele>24.799999237061</ele>
        <time>2020-07-23T07:51:31.000Z</time>
      </trkpt>
      <trkpt lat="47.28333" lon="-2.36188">
        <ele>25.200000762939</ele>
        <time>2020-07-23T07:51:32.000Z</time>
      </trkpt>
      <trkpt lat="47.28337" lon="-2.36181">
        <ele>25.200000762939</ele>
        <time>2020-07-23T07:51:36.000Z</time>
      </trkpt>
      <trkpt lat="47.28339" lon="-2.36179">
        <ele>25.60000038147</ele>
        <time>2020-07-23T07:51:38.000Z</time>
      </trkpt>
      <trkpt lat="47.28341" lon="-2.36177">
        <ele>26</ele>
        <time>2020-07-23T07:51:39.000Z</time>
      </trkpt>
      <trkpt lat="47.28342" lon="-2.36176">
        <ele>26.39999961853</ele>
        <time>2020-07-23T07:51:40.000Z</time>
      </trkpt>
      <trkpt lat="47.28343" lon="-2.36175">
        <ele>27</ele>
        <time>2020-07-23T07:51:41.000Z</time>
      </trkpt>
      <trkpt lat="47.28344" lon="-2.36174">
        <ele>27.39999961853</ele>
        <time>2020-07-23T07:51:42.000Z</time>
      </trkpt>
      <trkpt lat="47.28347" lon="-2.3617">
        <ele>27.799999237061</ele>
        <time>2020-07-23T07:51:45.000Z</time>
      </trkpt>
      <trkpt lat="47.28347" lon="-2.3617">
        <ele>28.200000762939</ele>
        <time>2020-07-23T07:51:46.000Z</time>
      </trkpt>
      <trkpt lat="47.28349" lon="-2.36168">
        <ele>28.60000038147</ele>
        <time>2020-07-23T07:51:47.000Z</time>
      </trkpt>
      <trkpt lat="47.2835" lon="-2.36167">
        <ele>29</ele>
        <time>2020-07-23T07:51:48.000Z</time>
      </trkpt>
      <trkpt lat="47.28351" lon="-2.36165">
        <ele>29.60000038147</ele>
        <time>2020-07-23T07:51:49.000Z</time>
      </trkpt>
      <trkpt lat="47.28352" lon="-2.36164">
        <ele>30</ele>
        <time>2020-07-23T07:51:50.000Z</time>
      </trkpt>
      <trkpt lat="47.28354" lon="-2.36162">
        <ele>30.39999961853</ele>
        <time>2020-07-23T07:51:51.000Z</time>
      </trkpt>
      <trkpt lat="47.28355" lon="-2.36162">
        <ele>30.799999237061</ele>
        <time>2020-07-23T07:51:52.000Z</time>
      </trkpt>
      <trkpt lat="47.28356" lon="-2.36161">
        <ele>31.200000762939</ele>
        <time>2020-07-23T07:51:53.000Z</time>
      </trkpt>
      <trkpt lat="47.28358" lon="-2.3616">
        <ele>31.60000038147</ele>
        <time>2020-07-23T07:51:54.000Z</time>
      </trkpt>
      <trkpt lat="47.2836" lon="-2.36158">
        <ele>31.60000038147</ele>
        <time>2020-07-23T07:51:56.000Z</time>
      </trkpt>
      <trkpt lat="47.28362" lon="-2.36157">
        <ele>32</ele>
        <time>2020-07-23T07:51:57.000Z</time>
      </trkpt>
      <trkpt lat="47.28363" lon="-2.36156">
        <ele>32.400001525879</ele>
        <time>2020-07-23T07:51:58.000Z</time>
      </trkpt>
      <trkpt lat="47.28365" lon="-2.36154">
        <ele>33</ele>
        <time>2020-07-23T07:51:59.000Z</time>
      </trkpt>
      <trkpt lat="47.28366" lon="-2.36152">
        <ele>33.400001525879</ele>
        <time>2020-07-23T07:52:00.000Z</time>
      </trkpt>
      <trkpt lat="47.28368" lon="-2.36151">
        <ele>33.799999237061</ele>
        <time>2020-07-23T07:52:01.000Z</time>
      </trkpt>
      <trkpt lat="47.28369" lon="-2.36148">
        <ele>33.799999237061</ele>
        <time>2020-07-23T07:52:02.000Z</time>
      </trkpt>
      <trkpt lat="47.28371" lon="-2.36146">
        <ele>33.799999237061</ele>
        <time>2020-07-23T07:52:03.000Z</time>
      </trkpt>
      <trkpt lat="47.28376" lon="-2.36138">
        <ele>34.200000762939</ele>
        <time>2020-07-23T07:52:08.000Z</time>
      </trkpt>
      <trkpt lat="47.28376" lon="-2.36136">
        <ele>34.599998474121</ele>
        <time>2020-07-23T07:52:09.000Z</time>
      </trkpt>
      <trkpt lat="47.28377" lon="-2.36134">
        <ele>35</ele>
        <time>2020-07-23T07:52:10.000Z</time>
      </trkpt>
      <trkpt lat="47.28378" lon="-2.36132">
        <ele>35.400001525879</ele>
        <time>2020-07-23T07:52:11.000Z</time>
      </trkpt>
      <trkpt lat="47.28379" lon="-2.3613">
        <ele>36</ele>
        <time>2020-07-23T07:52:12.000Z</time>
      </trkpt>
      <trkpt lat="47.28379" lon="-2.36125">
        <ele>36</ele>
        <time>2020-07-23T07:52:14.000Z</time>
      </trkpt>
      <trkpt lat="47.28379" lon="-2.36123">
        <ele>36</ele>
        <time>2020-07-23T07:52:15.000Z</time>
      </trkpt>
      <trkpt lat="47.28383" lon="-2.3611">
        <ele>36.400001525879</ele>
        <time>2020-07-23T07:52:20.000Z</time>
      </trkpt>
      <trkpt lat="47.28383" lon="-2.36108">
        <ele>36.799999237061</ele>
        <time>2020-07-23T07:52:21.000Z</time>
      </trkpt>
      <trkpt lat="47.28384" lon="-2.36105">
        <ele>37.200000762939</ele>
        <time>2020-07-23T07:52:22.000Z</time>
      </trkpt>
      <trkpt lat="47.28384" lon="-2.36102">
        <ele>37.599998474121</ele>
        <time>2020-07-23T07:52:23.000Z</time>
      </trkpt>
      <trkpt lat="47.28384" lon="-2.36099">
        <ele>38</ele>
        <time>2020-07-23T07:52:24.000Z</time>
      </trkpt>
      <trkpt lat="47.28385" lon="-2.36093">
        <ele>38</ele>
        <time>2020-07-23T07:52:26.000Z</time>
      </trkpt>
      <trkpt lat="47.28384" lon="-2.36075">
        <ele>38</ele>
        <time>2020-07-23T07:52:33.000Z</time>
      </trkpt>
      <trkpt lat="47.28386" lon="-2.36069">
        <ele>38</ele>
        <time>2020-07-23T07:52:36.000Z</time>
      </trkpt>
      <trkpt lat="47.2839" lon="-2.36065">
        <ele>38</ele>
        <time>2020-07-23T07:52:38.000Z</time>
      </trkpt>
      <trkpt lat="47.28394" lon="-2.36064">
        <ele>38</ele>
        <time>2020-07-23T07:52:41.000Z</time>
      </trkpt>
      <trkpt lat="47.28395" lon="-2.36065">
        <ele>38.400001525879</ele>
        <time>2020-07-23T07:52:42.000Z</time>
      </trkpt>
      <trkpt lat="47.28397" lon="-2.36066">
        <ele>38.799999237061</ele>
        <time>2020-07-23T07:52:43.000Z</time>
      </trkpt>
      <trkpt lat="47.28397" lon="-2.36067">
        <ele>39.200000762939</ele>
        <time>2020-07-23T07:52:44.000Z</time>
      </trkpt>
      <trkpt lat="47.28398" lon="-2.36069">
        <ele>39.599998474121</ele>
        <time>2020-07-23T07:52:45.000Z</time>
      </trkpt>
      <trkpt lat="47.28399" lon="-2.36071">
        <ele>40</ele>
        <time>2020-07-23T07:52:46.000Z</time>
      </trkpt>
      <trkpt lat="47.284" lon="-2.36073">
        <ele>40</ele>
        <time>2020-07-23T07:52:49.000Z</time>
      </trkpt>
      <trkpt lat="47.28424" lon="-2.36065">
        <ele>40</ele>
        <time>2020-07-23T07:53:18.000Z</time>
      </trkpt>
      <trkpt lat="47.28428" lon="-2.36084">
        <ele>39.599998474121</ele>
        <time>2020-07-23T07:53:22.000Z</time>
      </trkpt>
      <trkpt lat="47.28429" lon="-2.36091">
        <ele>39.200000762939</ele>
        <time>2020-07-23T07:53:23.000Z</time>
      </trkpt>
      <trkpt lat="47.2843" lon="-2.36098">
        <ele>38.799999237061</ele>
        <time>2020-07-23T07:53:24.000Z</time>
      </trkpt>
      <trkpt lat="47.28431" lon="-2.36105">
        <ele>38.400001525879</ele>
        <time>2020-07-23T07:53:25.000Z</time>
      </trkpt>
      <trkpt lat="47.28432" lon="-2.36111">
        <ele>38</ele>
        <time>2020-07-23T07:53:26.000Z</time>
      </trkpt>
      <trkpt lat="47.28437" lon="-2.36127">
        <ele>37.200000762939</ele>
        <time>2020-07-23T07:53:29.000Z</time>
      </trkpt>
      <trkpt lat="47.28439" lon="-2.36132">
        <ele>36.799999237061</ele>
        <time>2020-07-23T07:53:30.000Z</time>
      </trkpt>
      <trkpt lat="47.28439" lon="-2.36137">
        <ele>36.400001525879</ele>
        <time>2020-07-23T07:53:31.000Z</time>
      </trkpt>
      <trkpt lat="47.2844" lon="-2.36142">
        <ele>36</ele>
        <time>2020-07-23T07:53:32.000Z</time>
      </trkpt>
      <trkpt lat="47.28443" lon="-2.36154">
        <ele>35.400001525879</ele>
        <time>2020-07-23T07:53:35.000Z</time>
      </trkpt>
      <trkpt lat="47.28445" lon="-2.36159">
        <ele>35</ele>
        <time>2020-07-23T07:53:36.000Z</time>
      </trkpt>
      <trkpt lat="47.28445" lon="-2.36165">
        <ele>34.599998474121</ele>
        <time>2020-07-23T07:53:37.000Z</time>
      </trkpt>
      <trkpt lat="47.28444" lon="-2.3617">
        <ele>34.200000762939</ele>
        <time>2020-07-23T07:53:38.000Z</time>
      </trkpt>
      <trkpt lat="47.28443" lon="-2.36176">
        <ele>33.599998474121</ele>
        <time>2020-07-23T07:53:39.000Z</time>
      </trkpt>
      <trkpt lat="47.28446" lon="-2.36188">
        <ele>33.200000762939</ele>
        <time>2020-07-23T07:53:42.000Z</time>
      </trkpt>
      <trkpt lat="47.28447" lon="-2.36191">
        <ele>32.599998474121</ele>
        <time>2020-07-23T07:53:43.000Z</time>
      </trkpt>
      <trkpt lat="47.28448" lon="-2.36194">
        <ele>32.200000762939</ele>
        <time>2020-07-23T07:53:44.000Z</time>
      </trkpt>
      <trkpt lat="47.28449" lon="-2.36198">
        <ele>31.799999237061</ele>
        <time>2020-07-23T07:53:45.000Z</time>
      </trkpt>
      <trkpt lat="47.2845" lon="-2.36202">
        <ele>31.200000762939</ele>
        <time>2020-07-23T07:53:46.000Z</time>
      </trkpt>
      <trkpt lat="47.28451" lon="-2.36208">
        <ele>31.200000762939</ele>
        <time>2020-07-23T07:53:47.000Z</time>
      </trkpt>
      <trkpt lat="47.28451" lon="-2.36214">
        <ele>31.200000762939</ele>
        <time>2020-07-23T07:53:48.000Z</time>
      </trkpt>
      <trkpt lat="47.28456" lon="-2.36239">
        <ele>30.799999237061</ele>
        <time>2020-07-23T07:53:52.000Z</time>
      </trkpt>
      <trkpt lat="47.28457" lon="-2.36246">
        <ele>30.39999961853</ele>
        <time>2020-07-23T07:53:53.000Z</time>
      </trkpt>
      <trkpt lat="47.28458" lon="-2.36253">
        <ele>29.60000038147</ele>
        <time>2020-07-23T07:53:54.000Z</time>
      </trkpt>
      <trkpt lat="47.28459" lon="-2.3626">
        <ele>29</ele>
        <time>2020-07-23T07:53:55.000Z</time>
      </trkpt>
      <trkpt lat="47.28461" lon="-2.36274">
        <ele>29</ele>
        <time>2020-07-23T07:53:57.000Z</time>
      </trkpt>
      <trkpt lat="47.28462" lon="-2.36282">
        <ele>29</ele>
        <time>2020-07-23T07:53:59.000Z</time>
      </trkpt>
      <trkpt lat="47.28458" lon="-2.36292">
        <ele>29</ele>
        <time>2020-07-23T07:54:02.000Z</time>
      </trkpt>
      <trkpt lat="47.28457" lon="-2.36294">
        <ele>29</ele>
        <time>2020-07-23T07:54:03.000Z</time>
      </trkpt>
      <trkpt lat="47.28443" lon="-2.36298">
        <ele>29</ele>
        <time>2020-07-23T07:54:09.000Z</time>
      </trkpt>
      <trkpt lat="47.28438" lon="-2.36294">
        <ele>28.60000038147</ele>
        <time>2020-07-23T07:54:11.000Z</time>
      </trkpt>
      <trkpt lat="47.28435" lon="-2.36292">
        <ele>28.200000762939</ele>
        <time>2020-07-23T07:54:12.000Z</time>
      </trkpt>
      <trkpt lat="47.28432" lon="-2.3629">
        <ele>27.799999237061</ele>
        <time>2020-07-23T07:54:13.000Z</time>
      </trkpt>
      <trkpt lat="47.28429" lon="-2.36289">
        <ele>27.39999961853</ele>
        <time>2020-07-23T07:54:14.000Z</time>
      </trkpt>
      <trkpt lat="47.28426" lon="-2.36288">
        <ele>27</ele>
        <time>2020-07-23T07:54:15.000Z</time>
      </trkpt>
      <trkpt lat="47.28407" lon="-2.36284">
        <ele>27</ele>
        <time>2020-07-23T07:54:21.000Z</time>
      </trkpt>
      <trkpt lat="47.28401" lon="-2.36281">
        <ele>26.60000038147</ele>
        <time>2020-07-23T07:54:23.000Z</time>
      </trkpt>
      <trkpt lat="47.28398" lon="-2.3628">
        <ele>26.200000762939</ele>
        <time>2020-07-23T07:54:24.000Z</time>
      </trkpt>
      <trkpt lat="47.28394" lon="-2.3628">
        <ele>25.60000038147</ele>
        <time>2020-07-23T07:54:25.000Z</time>
      </trkpt>
      <trkpt lat="47.2839" lon="-2.3628">
        <ele>25.200000762939</ele>
        <time>2020-07-23T07:54:26.000Z</time>
      </trkpt>
      <trkpt lat="47.28386" lon="-2.36279">
        <ele>24.799999237061</ele>
        <time>2020-07-23T07:54:27.000Z</time>
      </trkpt>
      <trkpt lat="47.28373" lon="-2.36275">
        <ele>24.39999961853</ele>
        <time>2020-07-23T07:54:32.000Z</time>
      </trkpt>
      <trkpt lat="47.28371" lon="-2.36277">
        <ele>24</ele>
        <time>2020-07-23T07:54:33.000Z</time>
      </trkpt>
      <trkpt lat="47.2837" lon="-2.36279">
        <ele>23.60000038147</ele>
        <time>2020-07-23T07:54:34.000Z</time>
      </trkpt>
      <trkpt lat="47.28369" lon="-2.36281">
        <ele>23</ele>
        <time>2020-07-23T07:54:35.000Z</time>
      </trkpt>
      <trkpt lat="47.28368" lon="-2.36285">
        <ele>22.60000038147</ele>
        <time>2020-07-23T07:54:36.000Z</time>
      </trkpt>
      <trkpt lat="47.28366" lon="-2.36288">
        <ele>22.60000038147</ele>
        <time>2020-07-23T07:54:37.000Z</time>
      </trkpt>
      <trkpt lat="47.28368" lon="-2.36301">
        <ele>22.60000038147</ele>
        <time>2020-07-23T07:54:42.000Z</time>
      </trkpt>
      <trkpt lat="47.28374" lon="-2.36306">
        <ele>22.60000038147</ele>
        <time>2020-07-23T07:54:47.000Z</time>
      </trkpt>
      <trkpt lat="47.28382" lon="-2.36312">
        <ele>23.200000762939</ele>
        <time>2020-07-23T07:54:50.000Z</time>
      </trkpt>
      <trkpt lat="47.28385" lon="-2.36315">
        <ele>23.60000038147</ele>
        <time>2020-07-23T07:54:51.000Z</time>
      </trkpt>
      <trkpt lat="47.28388" lon="-2.36316">
        <ele>24</ele>
        <time>2020-07-23T07:54:52.000Z</time>
      </trkpt>
      <trkpt lat="47.28392" lon="-2.36319">
        <ele>24.39999961853</ele>
        <time>2020-07-23T07:54:53.000Z</time>
      </trkpt>
      <trkpt lat="47.28396" lon="-2.36322">
        <ele>24.799999237061</ele>
        <time>2020-07-23T07:54:54.000Z</time>
      </trkpt>
      <trkpt lat="47.28407" lon="-2.36337">
        <ele>24.799999237061</ele>
        <time>2020-07-23T07:54:57.000Z</time>
      </trkpt>
      <trkpt lat="47.28429" lon="-2.36364">
        <ele>24.799999237061</ele>
        <time>2020-07-23T07:55:03.000Z</time>
      </trkpt>
      <trkpt lat="47.28455" lon="-2.36389">
        <ele>25.60000038147</ele>
        <time>2020-07-23T07:55:09.000Z</time>
      </trkpt>
      <trkpt lat="47.28459" lon="-2.36393">
        <ele>26</ele>
        <time>2020-07-23T07:55:10.000Z</time>
      </trkpt>
      <trkpt lat="47.28462" lon="-2.36396">
        <ele>26.39999961853</ele>
        <time>2020-07-23T07:55:11.000Z</time>
      </trkpt>
      <trkpt lat="47.28464" lon="-2.36399">
        <ele>26.799999237061</ele>
        <time>2020-07-23T07:55:12.000Z</time>
      </trkpt>
      <trkpt lat="47.28466" lon="-2.36402">
        <ele>26.799999237061</ele>
        <time>2020-07-23T07:55:13.000Z</time>
      </trkpt>
      <trkpt lat="47.28468" lon="-2.36406">
        <ele>27.200000762939</ele>
        <time>2020-07-23T07:55:15.000Z</time>
      </trkpt>
      <trkpt lat="47.28468" lon="-2.36407">
        <ele>27.60000038147</ele>
        <time>2020-07-23T07:55:16.000Z</time>
      </trkpt>
      <trkpt lat="47.28468" lon="-2.36409">
        <ele>28</ele>
        <time>2020-07-23T07:55:17.000Z</time>
      </trkpt>
      <trkpt lat="47.28468" lon="-2.36411">
        <ele>28.60000038147</ele>
        <time>2020-07-23T07:55:18.000Z</time>
      </trkpt>
      <trkpt lat="47.28468" lon="-2.36413">
        <ele>29</ele>
        <time>2020-07-23T07:55:19.000Z</time>
      </trkpt>
      <trkpt lat="47.28465" lon="-2.36431">
        <ele>29</ele>
        <time>2020-07-23T07:55:25.000Z</time>
      </trkpt>
      <trkpt lat="47.28458" lon="-2.36442">
        <ele>29</ele>
        <time>2020-07-23T07:55:31.000Z</time>
      </trkpt>
      <trkpt lat="47.28457" lon="-2.36443">
        <ele>29</ele>
        <time>2020-07-23T07:55:32.000Z</time>
      </trkpt>
      <trkpt lat="47.28455" lon="-2.36443">
        <ele>28.39999961853</ele>
        <time>2020-07-23T07:55:33.000Z</time>
      </trkpt>
      <trkpt lat="47.28454" lon="-2.36443">
        <ele>28</ele>
        <time>2020-07-23T07:55:34.000Z</time>
      </trkpt>
      <trkpt lat="47.28452" lon="-2.36444">
        <ele>27.60000038147</ele>
        <time>2020-07-23T07:55:35.000Z</time>
      </trkpt>
      <trkpt lat="47.28451" lon="-2.36445">
        <ele>27.200000762939</ele>
        <time>2020-07-23T07:55:36.000Z</time>
      </trkpt>
      <trkpt lat="47.28449" lon="-2.36446">
        <ele>26.60000038147</ele>
        <time>2020-07-23T07:55:37.000Z</time>
      </trkpt>
      <trkpt lat="47.28448" lon="-2.36448">
        <ele>26.60000038147</ele>
        <time>2020-07-23T07:55:38.000Z</time>
      </trkpt>
      <trkpt lat="47.28447" lon="-2.36449">
        <ele>26.200000762939</ele>
        <time>2020-07-23T07:55:39.000Z</time>
      </trkpt>
      <trkpt lat="47.28447" lon="-2.36451">
        <ele>25.799999237061</ele>
        <time>2020-07-23T07:55:40.000Z</time>
      </trkpt>
      <trkpt lat="47.28447" lon="-2.36453">
        <ele>25.39999961853</ele>
        <time>2020-07-23T07:55:41.000Z</time>
      </trkpt>
      <trkpt lat="47.28447" lon="-2.36456">
        <ele>24.799999237061</ele>
        <time>2020-07-23T07:55:42.000Z</time>
      </trkpt>
      <trkpt lat="47.28446" lon="-2.36459">
        <ele>24.39999961853</ele>
        <time>2020-07-23T07:55:43.000Z</time>
      </trkpt>
      <trkpt lat="47.28452" lon="-2.3648">
        <ele>24.39999961853</ele>
        <time>2020-07-23T07:55:47.000Z</time>
      </trkpt>
      <trkpt lat="47.28464" lon="-2.36532">
        <ele>24.39999961853</ele>
        <time>2020-07-23T07:55:54.000Z</time>
      </trkpt>
      <trkpt lat="47.2848" lon="-2.36589">
        <ele>24.39999961853</ele>
        <time>2020-07-23T07:56:03.000Z</time>
      </trkpt>
      <trkpt lat="47.2849" lon="-2.36623">
        <ele>24.39999961853</ele>
        <time>2020-07-23T07:56:09.000Z</time>
      </trkpt>
      <trkpt lat="47.28502" lon="-2.36663">
        <ele>24.39999961853</ele>
        <time>2020-07-23T07:56:16.000Z</time>
      </trkpt>
      <trkpt lat="47.28509" lon="-2.36676">
        <ele>24.39999961853</ele>
        <time>2020-07-23T07:56:20.000Z</time>
      </trkpt>
      <trkpt lat="47.28523" lon="-2.36702">
        <ele>24.39999961853</ele>
        <time>2020-07-23T07:56:25.000Z</time>
      </trkpt>
      <trkpt lat="47.28544" lon="-2.36739">
        <ele>24.39999961853</ele>
        <time>2020-07-23T07:56:30.000Z</time>
      </trkpt>
      <trkpt lat="47.28549" lon="-2.36747">
        <ele>24</ele>
        <time>2020-07-23T07:56:31.000Z</time>
      </trkpt>
      <trkpt lat="47.28553" lon="-2.36757">
        <ele>23.60000038147</ele>
        <time>2020-07-23T07:56:32.000Z</time>
      </trkpt>
      <trkpt lat="47.28558" lon="-2.36767">
        <ele>23</ele>
        <time>2020-07-23T07:56:33.000Z</time>
      </trkpt>
      <trkpt lat="47.28562" lon="-2.36776">
        <ele>22.60000038147</ele>
        <time>2020-07-23T07:56:34.000Z</time>
      </trkpt>
      <trkpt lat="47.28567" lon="-2.36786">
        <ele>22.200000762939</ele>
        <time>2020-07-23T07:56:35.000Z</time>
      </trkpt>
      <trkpt lat="47.2859" lon="-2.36828">
        <ele>21.799999237061</ele>
        <time>2020-07-23T07:56:40.000Z</time>
      </trkpt>
      <trkpt lat="47.28595" lon="-2.36836">
        <ele>21.200000762939</ele>
        <time>2020-07-23T07:56:41.000Z</time>
      </trkpt>
      <trkpt lat="47.28599" lon="-2.36842">
        <ele>20.799999237061</ele>
        <time>2020-07-23T07:56:42.000Z</time>
      </trkpt>
      <trkpt lat="47.28605" lon="-2.36844">
        <ele>20.39999961853</ele>
        <time>2020-07-23T07:56:43.000Z</time>
      </trkpt>
      <trkpt lat="47.2861" lon="-2.36844">
        <ele>20</ele>
        <time>2020-07-23T07:56:44.000Z</time>
      </trkpt>
      <trkpt lat="47.28615" lon="-2.36842">
        <ele>19.60000038147</ele>
        <time>2020-07-23T07:56:45.000Z</time>
      </trkpt>
      <trkpt lat="47.2862" lon="-2.36839">
        <ele>19.200000762939</ele>
        <time>2020-07-23T07:56:46.000Z</time>
      </trkpt>
      <trkpt lat="47.28624" lon="-2.36835">
        <ele>18.799999237061</ele>
        <time>2020-07-23T07:56:47.000Z</time>
      </trkpt>
      <trkpt lat="47.28628" lon="-2.3683">
        <ele>17.799999237061</ele>
        <time>2020-07-23T07:56:48.000Z</time>
      </trkpt>
      <trkpt lat="47.28632" lon="-2.36825">
        <ele>17.799999237061</ele>
        <time>2020-07-23T07:56:49.000Z</time>
      </trkpt>
      <trkpt lat="47.28659" lon="-2.36793">
        <ele>17.799999237061</ele>
        <time>2020-07-23T07:56:57.000Z</time>
      </trkpt>
      <trkpt lat="47.28665" lon="-2.36787">
        <ele>18.200000762939</ele>
        <time>2020-07-23T07:56:59.000Z</time>
      </trkpt>
      <trkpt lat="47.28667" lon="-2.36784">
        <ele>18.60000038147</ele>
        <time>2020-07-23T07:57:00.000Z</time>
      </trkpt>
      <trkpt lat="47.2867" lon="-2.36782">
        <ele>19</ele>
        <time>2020-07-23T07:57:01.000Z</time>
      </trkpt>
      <trkpt lat="47.28672" lon="-2.3678">
        <ele>19.39999961853</ele>
        <time>2020-07-23T07:57:02.000Z</time>
      </trkpt>
      <trkpt lat="47.28673" lon="-2.36778">
        <ele>19.799999237061</ele>
        <time>2020-07-23T07:57:03.000Z</time>
      </trkpt>
      <trkpt lat="47.28677" lon="-2.36771">
        <ele>20.39999961853</ele>
        <time>2020-07-23T07:57:06.000Z</time>
      </trkpt>
      <trkpt lat="47.28679" lon="-2.36768">
        <ele>20.799999237061</ele>
        <time>2020-07-23T07:57:07.000Z</time>
      </trkpt>
      <trkpt lat="47.2868" lon="-2.36766">
        <ele>21.200000762939</ele>
        <time>2020-07-23T07:57:08.000Z</time>
      </trkpt>
      <trkpt lat="47.28682" lon="-2.36764">
        <ele>21.60000038147</ele>
        <time>2020-07-23T07:57:09.000Z</time>
      </trkpt>
      <trkpt lat="47.28683" lon="-2.36763">
        <ele>22</ele>
        <time>2020-07-23T07:57:10.000Z</time>
      </trkpt>
      <trkpt lat="47.28688" lon="-2.36757">
        <ele>22</ele>
        <time>2020-07-23T07:57:15.000Z</time>
      </trkpt>
      <trkpt lat="47.28692" lon="-2.36754">
        <ele>22</ele>
        <time>2020-07-23T07:57:20.000Z</time>
      </trkpt>
      <trkpt lat="47.28718" lon="-2.36698">
        <ele>26</ele>
        <time>2020-07-23T08:02:11.000Z</time>
      </trkpt>
      <trkpt lat="47.28721" lon="-2.36695">
        <ele>26</ele>
        <time>2020-07-23T08:02:13.000Z</time>
      </trkpt>
      <trkpt lat="47.28726" lon="-2.36687">
        <ele>26.60000038147</ele>
        <time>2020-07-23T08:02:16.000Z</time>
      </trkpt>
      <trkpt lat="47.28727" lon="-2.36684">
        <ele>27</ele>
        <time>2020-07-23T08:02:17.000Z</time>
      </trkpt>
      <trkpt lat="47.28729" lon="-2.36682">
        <ele>27.39999961853</ele>
        <time>2020-07-23T08:02:18.000Z</time>
      </trkpt>
      <trkpt lat="47.2873" lon="-2.36678">
        <ele>28</ele>
        <time>2020-07-23T08:02:19.000Z</time>
      </trkpt>
      <trkpt lat="47.28732" lon="-2.36674">
        <ele>28.39999961853</ele>
        <time>2020-07-23T08:02:20.000Z</time>
      </trkpt>
      <trkpt lat="47.28737" lon="-2.36662">
        <ele>28.39999961853</ele>
        <time>2020-07-23T08:02:24.000Z</time>
      </trkpt>
      <trkpt lat="47.28749" lon="-2.36641">
        <ele>28.799999237061</ele>
        <time>2020-07-23T08:02:30.000Z</time>
      </trkpt>
      <trkpt lat="47.28752" lon="-2.36637">
        <ele>29.200000762939</ele>
        <time>2020-07-23T08:02:31.000Z</time>
      </trkpt>
      <trkpt lat="47.28753" lon="-2.36633">
        <ele>29.60000038147</ele>
        <time>2020-07-23T08:02:32.000Z</time>
      </trkpt>
      <trkpt lat="47.28755" lon="-2.36629">
        <ele>30</ele>
        <time>2020-07-23T08:02:33.000Z</time>
      </trkpt>
      <trkpt lat="47.28757" lon="-2.36626">
        <ele>30.39999961853</ele>
        <time>2020-07-23T08:02:34.000Z</time>
      </trkpt>
      <trkpt lat="47.28761" lon="-2.3662">
        <ele>30.39999961853</ele>
        <time>2020-07-23T08:02:36.000Z</time>
      </trkpt>
      <trkpt lat="47.2877" lon="-2.36602">
        <ele>30.39999961853</ele>
        <time>2020-07-23T08:02:42.000Z</time>
      </trkpt>
      <trkpt lat="47.28777" lon="-2.36594">
        <ele>30.39999961853</ele>
        <time>2020-07-23T08:02:46.000Z</time>
      </trkpt>
      <trkpt lat="47.28783" lon="-2.36594">
        <ele>30.39999961853</ele>
        <time>2020-07-23T08:02:48.000Z</time>
      </trkpt>
      <trkpt lat="47.28786" lon="-2.36595">
        <ele>30.39999961853</ele>
        <time>2020-07-23T08:02:49.000Z</time>
      </trkpt>
      <trkpt lat="47.28795" lon="-2.36606">
        <ele>30.39999961853</ele>
        <time>2020-07-23T08:02:53.000Z</time>
      </trkpt>
      <trkpt lat="47.28807" lon="-2.3663">
        <ele>29.60000038147</ele>
        <time>2020-07-23T08:02:58.000Z</time>
      </trkpt>
      <trkpt lat="47.28809" lon="-2.36634">
        <ele>29.200000762939</ele>
        <time>2020-07-23T08:02:59.000Z</time>
      </trkpt>
      <trkpt lat="47.2881" lon="-2.36639">
        <ele>28.799999237061</ele>
        <time>2020-07-23T08:03:00.000Z</time>
      </trkpt>
      <trkpt lat="47.28811" lon="-2.36643">
        <ele>28.39999961853</ele>
        <time>2020-07-23T08:03:01.000Z</time>
      </trkpt>
      <trkpt lat="47.28812" lon="-2.36649">
        <ele>28</ele>
        <time>2020-07-23T08:03:02.000Z</time>
      </trkpt>
      <trkpt lat="47.28812" lon="-2.36653">
        <ele>27.60000038147</ele>
        <time>2020-07-23T08:03:03.000Z</time>
      </trkpt>
      <trkpt lat="47.28812" lon="-2.36658">
        <ele>27.200000762939</ele>
        <time>2020-07-23T08:03:04.000Z</time>
      </trkpt>
      <trkpt lat="47.28813" lon="-2.36665">
        <ele>26.799999237061</ele>
        <time>2020-07-23T08:03:05.000Z</time>
      </trkpt>
      <trkpt lat="47.28813" lon="-2.36673">
        <ele>26.200000762939</ele>
        <time>2020-07-23T08:03:06.000Z</time>
      </trkpt>
      <trkpt lat="47.28813" lon="-2.36679">
        <ele>25.60000038147</ele>
        <time>2020-07-23T08:03:07.000Z</time>
      </trkpt>
      <trkpt lat="47.28814" lon="-2.36687">
        <ele>25</ele>
        <time>2020-07-23T08:03:08.000Z</time>
      </trkpt>
      <trkpt lat="47.28812" lon="-2.36696">
        <ele>24.200000762939</ele>
        <time>2020-07-23T08:03:09.000Z</time>
      </trkpt>
      <trkpt lat="47.28809" lon="-2.36706">
        <ele>23.39999961853</ele>
        <time>2020-07-23T08:03:10.000Z</time>
      </trkpt>
      <trkpt lat="47.28806" lon="-2.36717">
        <ele>22.60000038147</ele>
        <time>2020-07-23T08:03:11.000Z</time>
      </trkpt>
      <trkpt lat="47.28804" lon="-2.36725">
        <ele>21.799999237061</ele>
        <time>2020-07-23T08:03:12.000Z</time>
      </trkpt>
      <trkpt lat="47.28801" lon="-2.36733">
        <ele>21.200000762939</ele>
        <time>2020-07-23T08:03:13.000Z</time>
      </trkpt>
      <trkpt lat="47.28798" lon="-2.3674">
        <ele>20.60000038147</ele>
        <time>2020-07-23T08:03:14.000Z</time>
      </trkpt>
      <trkpt lat="47.28796" lon="-2.36748">
        <ele>20</ele>
        <time>2020-07-23T08:03:15.000Z</time>
      </trkpt>
      <trkpt lat="47.28793" lon="-2.36756">
        <ele>19.39999961853</ele>
        <time>2020-07-23T08:03:16.000Z</time>
      </trkpt>
      <trkpt lat="47.28791" lon="-2.36763">
        <ele>18.60000038147</ele>
        <time>2020-07-23T08:03:17.000Z</time>
      </trkpt>
      <trkpt lat="47.28782" lon="-2.3679">
        <ele>18.200000762939</ele>
        <time>2020-07-23T08:03:23.000Z</time>
      </trkpt>
      <trkpt lat="47.28781" lon="-2.36796">
        <ele>17.799999237061</ele>
        <time>2020-07-23T08:03:24.000Z</time>
      </trkpt>
      <trkpt lat="47.28781" lon="-2.36801">
        <ele>17.39999961853</ele>
        <time>2020-07-23T08:03:25.000Z</time>
      </trkpt>
      <trkpt lat="47.2878" lon="-2.36806">
        <ele>17</ele>
        <time>2020-07-23T08:03:26.000Z</time>
      </trkpt>
      <trkpt lat="47.28779" lon="-2.36811">
        <ele>16.60000038147</ele>
        <time>2020-07-23T08:03:27.000Z</time>
      </trkpt>
      <trkpt lat="47.28777" lon="-2.36825">
        <ele>16.200000762939</ele>
        <time>2020-07-23T08:03:29.000Z</time>
      </trkpt>
      <trkpt lat="47.28775" lon="-2.36833">
        <ele>15.800000190735</ele>
        <time>2020-07-23T08:03:30.000Z</time>
      </trkpt>
      <trkpt lat="47.28775" lon="-2.36841">
        <ele>15.39999961853</ele>
        <time>2020-07-23T08:03:31.000Z</time>
      </trkpt>
      <trkpt lat="47.28774" lon="-2.36849">
        <ele>15</ele>
        <time>2020-07-23T08:03:32.000Z</time>
      </trkpt>
      <trkpt lat="47.28772" lon="-2.36857">
        <ele>14.60000038147</ele>
        <time>2020-07-23T08:03:33.000Z</time>
      </trkpt>
      <trkpt lat="47.2877" lon="-2.36865">
        <ele>14.60000038147</ele>
        <time>2020-07-23T08:03:34.000Z</time>
      </trkpt>
      <trkpt lat="47.28769" lon="-2.36871">
        <ele>14</ele>
        <time>2020-07-23T08:03:35.000Z</time>
      </trkpt>
      <trkpt lat="47.28767" lon="-2.36876">
        <ele>13.60000038147</ele>
        <time>2020-07-23T08:03:36.000Z</time>
      </trkpt>
      <trkpt lat="47.28765" lon="-2.36881">
        <ele>13.199999809265</ele>
        <time>2020-07-23T08:03:37.000Z</time>
      </trkpt>
      <trkpt lat="47.28762" lon="-2.36885">
        <ele>12.60000038147</ele>
        <time>2020-07-23T08:03:38.000Z</time>
      </trkpt>
      <trkpt lat="47.28759" lon="-2.36888">
        <ele>12.199999809265</ele>
        <time>2020-07-23T08:03:39.000Z</time>
      </trkpt>
      <trkpt lat="47.28744" lon="-2.36901">
        <ele>12.199999809265</ele>
        <time>2020-07-23T08:03:44.000Z</time>
      </trkpt>
      <trkpt lat="47.28744" lon="-2.36909">
        <ele>12.60000038147</ele>
        <time>2020-07-23T08:03:46.000Z</time>
      </trkpt>
      <trkpt lat="47.28744" lon="-2.36913">
        <ele>13</ele>
        <time>2020-07-23T08:03:47.000Z</time>
      </trkpt>
      <trkpt lat="47.28745" lon="-2.36915">
        <ele>13.800000190735</ele>
        <time>2020-07-23T08:03:48.000Z</time>
      </trkpt>
      <trkpt lat="47.28746" lon="-2.36918">
        <ele>14.199999809265</ele>
        <time>2020-07-23T08:03:49.000Z</time>
      </trkpt>
      <trkpt lat="47.28751" lon="-2.36926">
        <ele>14.60000038147</ele>
        <time>2020-07-23T08:03:53.000Z</time>
      </trkpt>
      <trkpt lat="47.28752" lon="-2.36928">
        <ele>15</ele>
        <time>2020-07-23T08:03:54.000Z</time>
      </trkpt>
      <trkpt lat="47.28752" lon="-2.36929">
        <ele>15.60000038147</ele>
        <time>2020-07-23T08:03:55.000Z</time>
      </trkpt>
      <trkpt lat="47.28752" lon="-2.36931">
        <ele>16</ele>
        <time>2020-07-23T08:03:56.000Z</time>
      </trkpt>
      <trkpt lat="47.28752" lon="-2.36932">
        <ele>16.39999961853</ele>
        <time>2020-07-23T08:03:57.000Z</time>
      </trkpt>
      <trkpt lat="47.28754" lon="-2.36945">
        <ele>16.799999237061</ele>
        <time>2020-07-23T08:04:04.000Z</time>
      </trkpt>
      <trkpt lat="47.28754" lon="-2.36946">
        <ele>17.200000762939</ele>
        <time>2020-07-23T08:04:05.000Z</time>
      </trkpt>
      <trkpt lat="47.28753" lon="-2.36948">
        <ele>17.60000038147</ele>
        <time>2020-07-23T08:04:06.000Z</time>
      </trkpt>
      <trkpt lat="47.28753" lon="-2.36949">
        <ele>18</ele>
        <time>2020-07-23T08:04:07.000Z</time>
      </trkpt>
      <trkpt lat="47.28753" lon="-2.3695">
        <ele>18.39999961853</ele>
        <time>2020-07-23T08:04:08.000Z</time>
      </trkpt>
      <trkpt lat="47.28757" lon="-2.36964">
        <ele>19.39999961853</ele>
        <time>2020-07-23T08:04:15.000Z</time>
      </trkpt>
      <trkpt lat="47.28758" lon="-2.36967">
        <ele>19.799999237061</ele>
        <time>2020-07-23T08:04:16.000Z</time>
      </trkpt>
      <trkpt lat="47.28759" lon="-2.3697">
        <ele>20.200000762939</ele>
        <time>2020-07-23T08:04:17.000Z</time>
      </trkpt>
      <trkpt lat="47.2876" lon="-2.36973">
        <ele>20.60000038147</ele>
        <time>2020-07-23T08:04:18.000Z</time>
      </trkpt>
      <trkpt lat="47.28766" lon="-2.36981">
        <ele>20.60000038147</ele>
        <time>2020-07-23T08:04:22.000Z</time>
      </trkpt>
      <trkpt lat="47.28772" lon="-2.36988">
        <ele>20.60000038147</ele>
        <time>2020-07-23T08:04:25.000Z</time>
      </trkpt>
      <trkpt lat="47.28776" lon="-2.36996">
        <ele>20.60000038147</ele>
        <time>2020-07-23T08:04:27.000Z</time>
      </trkpt>
      <trkpt lat="47.2879" lon="-2.37038">
        <ele>20.200000762939</ele>
        <time>2020-07-23T08:04:34.000Z</time>
      </trkpt>
      <trkpt lat="47.28792" lon="-2.37045">
        <ele>19.799999237061</ele>
        <time>2020-07-23T08:04:35.000Z</time>
      </trkpt>
      <trkpt lat="47.28794" lon="-2.37054">
        <ele>19</ele>
        <time>2020-07-23T08:04:36.000Z</time>
      </trkpt>
      <trkpt lat="47.28794" lon="-2.37064">
        <ele>18.60000038147</ele>
        <time>2020-07-23T08:04:37.000Z</time>
      </trkpt>
      <trkpt lat="47.28796" lon="-2.37074">
        <ele>18</ele>
        <time>2020-07-23T08:04:38.000Z</time>
      </trkpt>
      <trkpt lat="47.28797" lon="-2.37083">
        <ele>17.60000038147</ele>
        <time>2020-07-23T08:04:39.000Z</time>
      </trkpt>
      <trkpt lat="47.28798" lon="-2.37091">
        <ele>17</ele>
        <time>2020-07-23T08:04:40.000Z</time>
      </trkpt>
      <trkpt lat="47.288" lon="-2.37096">
        <ele>16.60000038147</ele>
        <time>2020-07-23T08:04:41.000Z</time>
      </trkpt>
      <trkpt lat="47.28803" lon="-2.371">
        <ele>16</ele>
        <time>2020-07-23T08:04:42.000Z</time>
      </trkpt>
      <trkpt lat="47.28809" lon="-2.37107">
        <ele>15.60000038147</ele>
        <time>2020-07-23T08:04:44.000Z</time>
      </trkpt>
      <trkpt lat="47.28812" lon="-2.37109">
        <ele>15</ele>
        <time>2020-07-23T08:04:45.000Z</time>
      </trkpt>
      <trkpt lat="47.28814" lon="-2.37109">
        <ele>14.60000038147</ele>
        <time>2020-07-23T08:04:46.000Z</time>
      </trkpt>
      <trkpt lat="47.28817" lon="-2.37107">
        <ele>14</ele>
        <time>2020-07-23T08:04:47.000Z</time>
      </trkpt>
      <trkpt lat="47.2882" lon="-2.37105">
        <ele>13.39999961853</ele>
        <time>2020-07-23T08:04:48.000Z</time>
      </trkpt>
      <trkpt lat="47.28822" lon="-2.37104">
        <ele>12.800000190735</ele>
        <time>2020-07-23T08:04:49.000Z</time>
      </trkpt>
      <trkpt lat="47.28824" lon="-2.37105">
        <ele>12.199999809265</ele>
        <time>2020-07-23T08:04:50.000Z</time>
      </trkpt>
      <trkpt lat="47.28825" lon="-2.37108">
        <ele>11.60000038147</ele>
        <time>2020-07-23T08:04:51.000Z</time>
      </trkpt>
      <trkpt lat="47.28826" lon="-2.37112">
        <ele>11.199999809265</ele>
        <time>2020-07-23T08:04:52.000Z</time>
      </trkpt>
      <trkpt lat="47.28828" lon="-2.37122">
        <ele>11.199999809265</ele>
        <time>2020-07-23T08:04:54.000Z</time>
      </trkpt>
      <trkpt lat="47.28828" lon="-2.37133">
        <ele>11.199999809265</ele>
        <time>2020-07-23T08:04:56.000Z</time>
      </trkpt>
      <trkpt lat="47.2883" lon="-2.37144">
        <ele>10.800000190735</ele>
        <time>2020-07-23T08:04:58.000Z</time>
      </trkpt>
      <trkpt lat="47.28831" lon="-2.3715">
        <ele>10.39999961853</ele>
        <time>2020-07-23T08:04:59.000Z</time>
      </trkpt>
      <trkpt lat="47.28832" lon="-2.37156">
        <ele>9.6000003814697</ele>
        <time>2020-07-23T08:05:00.000Z</time>
      </trkpt>
      <trkpt lat="47.28834" lon="-2.37162">
        <ele>9.1999998092651</ele>
        <time>2020-07-23T08:05:01.000Z</time>
      </trkpt>
      <trkpt lat="47.28839" lon="-2.372">
        <ele>9.1999998092651</ele>
        <time>2020-07-23T08:05:08.000Z</time>
      </trkpt>
      <trkpt lat="47.28847" lon="-2.3723">
        <ele>9.1999998092651</ele>
        <time>2020-07-23T08:05:14.000Z</time>
      </trkpt>
      <trkpt lat="47.28852" lon="-2.37257">
        <ele>9.1999998092651</ele>
        <time>2020-07-23T08:05:19.000Z</time>
      </trkpt>
      <trkpt lat="47.28857" lon="-2.37297">
        <ele>9.1999998092651</ele>
        <time>2020-07-23T08:05:25.000Z</time>
      </trkpt>
      <trkpt lat="47.28858" lon="-2.37311">
        <ele>9.1999998092651</ele>
        <time>2020-07-23T08:05:27.000Z</time>
      </trkpt>
      <trkpt lat="47.28861" lon="-2.37339">
        <ele>9.1999998092651</ele>
        <time>2020-07-23T08:05:31.000Z</time>
      </trkpt>
      <trkpt lat="47.28862" lon="-2.37346">
        <ele>9.1999998092651</ele>
        <time>2020-07-23T08:05:32.000Z</time>
      </trkpt>
      <trkpt lat="47.28866" lon="-2.37365">
        <ele>9.1999998092651</ele>
        <time>2020-07-23T08:05:35.000Z</time>
      </trkpt>
      <trkpt lat="47.28867" lon="-2.37373">
        <ele>9.1999998092651</ele>
        <time>2020-07-23T08:05:36.000Z</time>
      </trkpt>
      <trkpt lat="47.2887" lon="-2.37406">
        <ele>9.1999998092651</ele>
        <time>2020-07-23T08:05:40.000Z</time>
      </trkpt>
      <trkpt lat="47.28878" lon="-2.37458">
        <ele>9.1999998092651</ele>
        <time>2020-07-23T08:05:47.000Z</time>
      </trkpt>
      <trkpt lat="47.28882" lon="-2.37498">
        <ele>9.1999998092651</ele>
        <time>2020-07-23T08:05:53.000Z</time>
      </trkpt>
      <trkpt lat="47.28885" lon="-2.37514">
        <ele>8.6000003814697</ele>
        <time>2020-07-23T08:05:56.000Z</time>
      </trkpt>
      <trkpt lat="47.28886" lon="-2.37518">
        <ele>8.1999998092651</ele>
        <time>2020-07-23T08:05:57.000Z</time>
      </trkpt>
      <trkpt lat="47.28887" lon="-2.37521">
        <ele>7.8000001907349</ele>
        <time>2020-07-23T08:05:58.000Z</time>
      </trkpt>
      <trkpt lat="47.28886" lon="-2.37521">
        <ele>7.4000000953674</ele>
        <time>2020-07-23T08:05:59.000Z</time>
      </trkpt>
      <trkpt lat="47.28886" lon="-2.37521">
        <ele>7</ele>
        <time>2020-07-23T08:06:00.000Z</time>
      </trkpt>
      <trkpt lat="47.28888" lon="-2.37526">
        <ele>7</ele>
        <time>2020-07-23T08:06:12.000Z</time>
      </trkpt>
      <trkpt lat="47.28893" lon="-2.37545">
        <ele>7</ele>
        <time>2020-07-23T08:06:16.000Z</time>
      </trkpt>
      <trkpt lat="47.28901" lon="-2.37582">
        <ele>7</ele>
        <time>2020-07-23T08:06:21.000Z</time>
      </trkpt>
      <trkpt lat="47.28908" lon="-2.37634">
        <ele>7</ele>
        <time>2020-07-23T08:06:28.000Z</time>
      </trkpt>
      <trkpt lat="47.2891" lon="-2.3764">
        <ele>7</ele>
        <time>2020-07-23T08:06:29.000Z</time>
      </trkpt>
      <trkpt lat="47.28918" lon="-2.37644">
        <ele>7</ele>
        <time>2020-07-23T08:06:31.000Z</time>
      </trkpt>
      <trkpt lat="47.28935" lon="-2.37639">
        <ele>7</ele>
        <time>2020-07-23T08:06:35.000Z</time>
      </trkpt>
      <trkpt lat="47.28945" lon="-2.37635">
        <ele>7</ele>
        <time>2020-07-23T08:06:39.000Z</time>
      </trkpt>
      <trkpt lat="47.28953" lon="-2.37638">
        <ele>7</ele>
        <time>2020-07-23T08:06:41.000Z</time>
      </trkpt>
      <trkpt lat="47.28957" lon="-2.37641">
        <ele>7</ele>
        <time>2020-07-23T08:06:42.000Z</time>
      </trkpt>
      <trkpt lat="47.28982" lon="-2.37669">
        <ele>7</ele>
        <time>2020-07-23T08:06:48.000Z</time>
      </trkpt>
      <trkpt lat="47.29013" lon="-2.37708">
        <ele>7</ele>
        <time>2020-07-23T08:06:55.000Z</time>
      </trkpt>
      <trkpt lat="47.29024" lon="-2.37727">
        <ele>6.5999999046326</ele>
        <time>2020-07-23T08:06:58.000Z</time>
      </trkpt>
      <trkpt lat="47.29027" lon="-2.37733">
        <ele>6.1999998092651</ele>
        <time>2020-07-23T08:06:59.000Z</time>
      </trkpt>
      <trkpt lat="47.29031" lon="-2.37738">
        <ele>5.5999999046326</ele>
        <time>2020-07-23T08:07:00.000Z</time>
      </trkpt>
      <trkpt lat="47.29036" lon="-2.37744">
        <ele>5.1999998092651</ele>
        <time>2020-07-23T08:07:01.000Z</time>
      </trkpt>
      <trkpt lat="47.2904" lon="-2.3775">
        <ele>4.8000001907349</ele>
        <time>2020-07-23T08:07:02.000Z</time>
      </trkpt>
      <trkpt lat="47.29065" lon="-2.3778">
        <ele>4.8000001907349</ele>
        <time>2020-07-23T08:07:07.000Z</time>
      </trkpt>
      <trkpt lat="47.29101" lon="-2.37814">
        <ele>4.8000001907349</ele>
        <time>2020-07-23T08:07:14.000Z</time>
      </trkpt>
      <trkpt lat="47.29138" lon="-2.37845">
        <ele>4.8000001907349</ele>
        <time>2020-07-23T08:07:22.000Z</time>
      </trkpt>
      <trkpt lat="47.29147" lon="-2.37856">
        <ele>4.8000001907349</ele>
        <time>2020-07-23T08:07:25.000Z</time>
      </trkpt>
      <trkpt lat="47.29142" lon="-2.37872">
        <ele>4.8000001907349</ele>
        <time>2020-07-23T08:07:28.000Z</time>
      </trkpt>
      <trkpt lat="47.29138" lon="-2.37885">
        <ele>4.8000001907349</ele>
        <time>2020-07-23T08:07:32.000Z</time>
      </trkpt>
      <trkpt lat="47.29137" lon="-2.37887">
        <ele>4.8000001907349</ele>
        <time>2020-07-23T08:07:33.000Z</time>
      </trkpt>
      <trkpt lat="47.29131" lon="-2.37897">
        <ele>4.8000001907349</ele>
        <time>2020-07-23T08:07:39.000Z</time>
      </trkpt>
      <trkpt lat="47.29124" lon="-2.37908">
        <ele>4.8000001907349</ele>
        <time>2020-07-23T08:07:46.000Z</time>
      </trkpt>
      <trkpt lat="47.29121" lon="-2.3791">
        <ele>4.8000001907349</ele>
        <time>2020-07-23T08:07:49.000Z</time>
      </trkpt>
      <trkpt lat="47.29119" lon="-2.37904">
        <ele>4.8000001907349</ele>
        <time>2020-07-23T08:07:52.000Z</time>
      </trkpt>
      <trkpt lat="47.29128" lon="-2.37895">
        <ele>4.8000001907349</ele>
        <time>2020-07-23T08:07:56.000Z</time>
      </trkpt>
      <trkpt lat="47.29139" lon="-2.379">
        <ele>4.8000001907349</ele>
        <time>2020-07-23T08:08:01.000Z</time>
      </trkpt>
      <trkpt lat="47.29143" lon="-2.37913">
        <ele>4.8000001907349</ele>
        <time>2020-07-23T08:08:04.000Z</time>
      </trkpt>
      <trkpt lat="47.29145" lon="-2.37924">
        <ele>4.8000001907349</ele>
        <time>2020-07-23T08:08:06.000Z</time>
      </trkpt>
      <trkpt lat="47.29146" lon="-2.37931">
        <ele>4.8000001907349</ele>
        <time>2020-07-23T08:08:07.000Z</time>
      </trkpt>
      <trkpt lat="47.29148" lon="-2.3796">
        <ele>4.8000001907349</ele>
        <time>2020-07-23T08:08:12.000Z</time>
      </trkpt>
      <trkpt lat="47.29139" lon="-2.3799">
        <ele>4.8000001907349</ele>
        <time>2020-07-23T08:08:16.000Z</time>
      </trkpt>
      <trkpt lat="47.29126" lon="-2.38032">
        <ele>4.8000001907349</ele>
        <time>2020-07-23T08:08:21.000Z</time>
      </trkpt>
      <trkpt lat="47.29124" lon="-2.38041">
        <ele>4.8000001907349</ele>
        <time>2020-07-23T08:08:22.000Z</time>
      </trkpt>
      <trkpt lat="47.29119" lon="-2.38065">
        <ele>4.8000001907349</ele>
        <time>2020-07-23T08:08:25.000Z</time>
      </trkpt>
      <trkpt lat="47.29122" lon="-2.38079">
        <ele>4.8000001907349</ele>
        <time>2020-07-23T08:08:27.000Z</time>
      </trkpt>
      <trkpt lat="47.29134" lon="-2.38089">
        <ele>4.8000001907349</ele>
        <time>2020-07-23T08:08:30.000Z</time>
      </trkpt>
      <trkpt lat="47.2914" lon="-2.38091">
        <ele>4.8000001907349</ele>
        <time>2020-07-23T08:08:32.000Z</time>
      </trkpt>
      <trkpt lat="47.29147" lon="-2.38096">
        <ele>4.4000000953674</ele>
        <time>2020-07-23T08:08:35.000Z</time>
      </trkpt>
      <trkpt lat="47.2915" lon="-2.38098">
        <ele>4</ele>
        <time>2020-07-23T08:08:36.000Z</time>
      </trkpt>
      <trkpt lat="47.29151" lon="-2.381">
        <ele>3.5999999046326</ele>
        <time>2020-07-23T08:08:37.000Z</time>
      </trkpt>
      <trkpt lat="47.29153" lon="-2.38102">
        <ele>3.2000000476837</ele>
        <time>2020-07-23T08:08:38.000Z</time>
      </trkpt>
      <trkpt lat="47.29155" lon="-2.38102">
        <ele>2.7999999523163</ele>
        <time>2020-07-23T08:08:39.000Z</time>
      </trkpt>
      <trkpt lat="47.29159" lon="-2.38106">
        <ele>2.7999999523163</ele>
        <time>2020-07-23T08:08:42.000Z</time>
      </trkpt>
      <trkpt lat="47.29166" lon="-2.3811">
        <ele>2.7999999523163</ele>
        <time>2020-07-23T08:08:47.000Z</time>
      </trkpt>
      <trkpt lat="47.2917" lon="-2.3811">
        <ele>2.7999999523163</ele>
        <time>2020-07-23T08:08:50.000Z</time>
      </trkpt>
      <trkpt lat="47.29169" lon="-2.38116">
        <ele>2.7999999523163</ele>
        <time>2020-07-23T08:08:54.000Z</time>
      </trkpt>
      <trkpt lat="47.29164" lon="-2.38113">
        <ele>2.7999999523163</ele>
        <time>2020-07-23T08:08:58.000Z</time>
      </trkpt>
      <trkpt lat="47.29153" lon="-2.38103">
        <ele>2.7999999523163</ele>
        <time>2020-07-23T08:09:02.000Z</time>
      </trkpt>
      <trkpt lat="47.29132" lon="-2.38088">
        <ele>2.7999999523163</ele>
        <time>2020-07-23T08:09:08.000Z</time>
      </trkpt>
      <trkpt lat="47.2912" lon="-2.38078">
        <ele>2.7999999523163</ele>
        <time>2020-07-23T08:09:13.000Z</time>
      </trkpt>
      <trkpt lat="47.29118" lon="-2.38062">
        <ele>2.7999999523163</ele>
        <time>2020-07-23T08:09:18.000Z</time>
      </trkpt>
      <trkpt lat="47.29124" lon="-2.38041">
        <ele>2.7999999523163</ele>
        <time>2020-07-23T08:09:22.000Z</time>
      </trkpt>
      <trkpt lat="47.29131" lon="-2.38017">
        <ele>2.7999999523163</ele>
        <time>2020-07-23T08:09:26.000Z</time>
      </trkpt>
      <trkpt lat="47.29135" lon="-2.38007">
        <ele>2.7999999523163</ele>
        <time>2020-07-23T08:09:28.000Z</time>
      </trkpt>
      <trkpt lat="47.29139" lon="-2.37995">
        <ele>2.7999999523163</ele>
        <time>2020-07-23T08:09:30.000Z</time>
      </trkpt>
      <trkpt lat="47.29146" lon="-2.37969">
        <ele>2.7999999523163</ele>
        <time>2020-07-23T08:09:34.000Z</time>
      </trkpt>
      <trkpt lat="47.29147" lon="-2.37962">
        <ele>2.7999999523163</ele>
        <time>2020-07-23T08:09:35.000Z</time>
      </trkpt>
      <trkpt lat="47.29149" lon="-2.37936">
        <ele>2.7999999523163</ele>
        <time>2020-07-23T08:09:39.000Z</time>
      </trkpt>
      <trkpt lat="47.29149" lon="-2.3793">
        <ele>2.7999999523163</ele>
        <time>2020-07-23T08:09:40.000Z</time>
      </trkpt>
      <trkpt lat="47.29147" lon="-2.37912">
        <ele>2.7999999523163</ele>
        <time>2020-07-23T08:09:43.000Z</time>
      </trkpt>
      <trkpt lat="47.29144" lon="-2.37902">
        <ele>2.7999999523163</ele>
        <time>2020-07-23T08:09:45.000Z</time>
      </trkpt>
      <trkpt lat="47.29133" lon="-2.37897">
        <ele>2.7999999523163</ele>
        <time>2020-07-23T08:09:48.000Z</time>
      </trkpt>
      <trkpt lat="47.29123" lon="-2.37906">
        <ele>2.7999999523163</ele>
        <time>2020-07-23T08:09:51.000Z</time>
      </trkpt>
      <trkpt lat="47.29113" lon="-2.37924">
        <ele>2.7999999523163</ele>
        <time>2020-07-23T08:09:54.000Z</time>
      </trkpt>
      <trkpt lat="47.29109" lon="-2.37931">
        <ele>2.7999999523163</ele>
        <time>2020-07-23T08:09:55.000Z</time>
      </trkpt>
      <trkpt lat="47.29079" lon="-2.37978">
        <ele>2.7999999523163</ele>
        <time>2020-07-23T08:10:02.000Z</time>
      </trkpt>
      <trkpt lat="47.29052" lon="-2.38024">
        <ele>2.7999999523163</ele>
        <time>2020-07-23T08:10:10.000Z</time>
      </trkpt>
      <trkpt lat="47.29043" lon="-2.38041">
        <ele>2.7999999523163</ele>
        <time>2020-07-23T08:10:13.000Z</time>
      </trkpt>
      <trkpt lat="47.29041" lon="-2.38055">
        <ele>2.7999999523163</ele>
        <time>2020-07-23T08:10:15.000Z</time>
      </trkpt>
      <trkpt lat="47.29042" lon="-2.38084">
        <ele>2.7999999523163</ele>
        <time>2020-07-23T08:10:19.000Z</time>
      </trkpt>
      <trkpt lat="47.29047" lon="-2.38105">
        <ele>2.7999999523163</ele>
        <time>2020-07-23T08:10:22.000Z</time>
      </trkpt>
      <trkpt lat="47.29052" lon="-2.38124">
        <ele>2.7999999523163</ele>
        <time>2020-07-23T08:10:25.000Z</time>
      </trkpt>
      <trkpt lat="47.29063" lon="-2.3817">
        <ele>2.7999999523163</ele>
        <time>2020-07-23T08:10:32.000Z</time>
      </trkpt>
      <trkpt lat="47.29069" lon="-2.38203">
        <ele>2.7999999523163</ele>
        <time>2020-07-23T08:10:37.000Z</time>
      </trkpt>
      <trkpt lat="47.29068" lon="-2.38209">
        <ele>2.7999999523163</ele>
        <time>2020-07-23T08:10:38.000Z</time>
      </trkpt>
      <trkpt lat="47.2906" lon="-2.38226">
        <ele>2.7999999523163</ele>
        <time>2020-07-23T08:10:41.000Z</time>
      </trkpt>
      <trkpt lat="47.29047" lon="-2.38237">
        <ele>2.7999999523163</ele>
        <time>2020-07-23T08:10:44.000Z</time>
      </trkpt>
      <trkpt lat="47.29042" lon="-2.38241">
        <ele>2.7999999523163</ele>
        <time>2020-07-23T08:10:45.000Z</time>
      </trkpt>
      <trkpt lat="47.29035" lon="-2.38249">
        <ele>2.7999999523163</ele>
        <time>2020-07-23T08:10:49.000Z</time>
      </trkpt>
      <trkpt lat="47.2903" lon="-2.38257">
        <ele>2.7999999523163</ele>
        <time>2020-07-23T08:10:53.000Z</time>
      </trkpt>
      <trkpt lat="47.29031" lon="-2.38262">
        <ele>2.7999999523163</ele>
        <time>2020-07-23T08:10:54.000Z</time>
      </trkpt>
      <trkpt lat="47.29037" lon="-2.38287">
        <ele>2.7999999523163</ele>
        <time>2020-07-23T08:11:00.000Z</time>
      </trkpt>
      <trkpt lat="47.29043" lon="-2.38318">
        <ele>2.7999999523163</ele>
        <time>2020-07-23T08:11:06.000Z</time>
      </trkpt>
      <trkpt lat="47.29051" lon="-2.3834">
        <ele>2.7999999523163</ele>
        <time>2020-07-23T08:11:11.000Z</time>
      </trkpt>
      <trkpt lat="47.29068" lon="-2.38364">
        <ele>2.7999999523163</ele>
        <time>2020-07-23T08:11:17.000Z</time>
      </trkpt>
      <trkpt lat="47.2908" lon="-2.38378">
        <ele>2.7999999523163</ele>
        <time>2020-07-23T08:11:21.000Z</time>
      </trkpt>
      <trkpt lat="47.29083" lon="-2.38376">
        <ele>2.7999999523163</ele>
        <time>2020-07-23T08:11:22.000Z</time>
      </trkpt>
      <trkpt lat="47.29096" lon="-2.38367">
        <ele>2.7999999523163</ele>
        <time>2020-07-23T08:11:26.000Z</time>
      </trkpt>
      <trkpt lat="47.29104" lon="-2.38365">
        <ele>2.7999999523163</ele>
        <time>2020-07-23T08:11:28.000Z</time>
      </trkpt>
      <trkpt lat="47.29118" lon="-2.38366">
        <ele>2.7999999523163</ele>
        <time>2020-07-23T08:11:32.000Z</time>
      </trkpt>
      <trkpt lat="47.29124" lon="-2.38378">
        <ele>2.7999999523163</ele>
        <time>2020-07-23T08:11:35.000Z</time>
      </trkpt>
      <trkpt lat="47.29123" lon="-2.38382">
        <ele>2.7999999523163</ele>
        <time>2020-07-23T08:11:36.000Z</time>
      </trkpt>
      <trkpt lat="47.29121" lon="-2.3839">
        <ele>2.7999999523163</ele>
        <time>2020-07-23T08:11:38.000Z</time>
      </trkpt>
      <trkpt lat="47.29119" lon="-2.38398">
        <ele>2.7999999523163</ele>
        <time>2020-07-23T08:11:40.000Z</time>
      </trkpt>
      <trkpt lat="47.29112" lon="-2.38421">
        <ele>2.7999999523163</ele>
        <time>2020-07-23T08:11:46.000Z</time>
      </trkpt>
      <trkpt lat="47.29104" lon="-2.38447">
        <ele>2.7999999523163</ele>
        <time>2020-07-23T08:11:53.000Z</time>
      </trkpt>
      <trkpt lat="47.291" lon="-2.38471">
        <ele>2.7999999523163</ele>
        <time>2020-07-23T08:11:59.000Z</time>
      </trkpt>
      <trkpt lat="47.29092" lon="-2.38496">
        <ele>2.7999999523163</ele>
        <time>2020-07-23T08:12:05.000Z</time>
      </trkpt>
      <trkpt lat="47.29081" lon="-2.38511">
        <ele>2.7999999523163</ele>
        <time>2020-07-23T08:12:10.000Z</time>
      </trkpt>
      <trkpt lat="47.29056" lon="-2.38527">
        <ele>2.7999999523163</ele>
        <time>2020-07-23T08:12:18.000Z</time>
      </trkpt>
      <trkpt lat="47.29032" lon="-2.38532">
        <ele>2.7999999523163</ele>
        <time>2020-07-23T08:12:24.000Z</time>
      </trkpt>
      <trkpt lat="47.29024" lon="-2.38544">
        <ele>2.7999999523163</ele>
        <time>2020-07-23T08:12:27.000Z</time>
      </trkpt>
      <trkpt lat="47.29025" lon="-2.38561">
        <ele>2.7999999523163</ele>
        <time>2020-07-23T08:12:30.000Z</time>
      </trkpt>
      <trkpt lat="47.29033" lon="-2.38587">
        <ele>2.7999999523163</ele>
        <time>2020-07-23T08:12:35.000Z</time>
      </trkpt>
      <trkpt lat="47.29047" lon="-2.38617">
        <ele>2.7999999523163</ele>
        <time>2020-07-23T08:12:42.000Z</time>
      </trkpt>
      <trkpt lat="47.29055" lon="-2.38633">
        <ele>2.7999999523163</ele>
        <time>2020-07-23T08:12:48.000Z</time>
      </trkpt>
      <trkpt lat="47.29054" lon="-2.3865">
        <ele>2.7999999523163</ele>
        <time>2020-07-23T08:12:53.000Z</time>
      </trkpt>
      <trkpt lat="47.29048" lon="-2.38673">
        <ele>2.7999999523163</ele>
        <time>2020-07-23T08:12:59.000Z</time>
      </trkpt>
      <trkpt lat="47.29051" lon="-2.38682">
        <ele>2.7999999523163</ele>
        <time>2020-07-23T08:13:03.000Z</time>
      </trkpt>
      <trkpt lat="47.29052" lon="-2.38683">
        <ele>2.7999999523163</ele>
        <time>2020-07-23T08:13:04.000Z</time>
      </trkpt>
      <trkpt lat="47.29061" lon="-2.38684">
        <ele>2.7999999523163</ele>
        <time>2020-07-23T08:13:11.000Z</time>
      </trkpt>
      <trkpt lat="47.2907" lon="-2.38685">
        <ele>2.7999999523163</ele>
        <time>2020-07-23T08:13:17.000Z</time>
      </trkpt>
      <trkpt lat="47.29075" lon="-2.38685">
        <ele>2.7999999523163</ele>
        <time>2020-07-23T08:13:21.000Z</time>
      </trkpt>
      <trkpt lat="47.29075" lon="-2.38688">
        <ele>2.7999999523163</ele>
        <time>2020-07-23T08:13:23.000Z</time>
      </trkpt>
      <trkpt lat="47.29067" lon="-2.38695">
        <ele>2.7999999523163</ele>
        <time>2020-07-23T08:13:27.000Z</time>
      </trkpt>
      <trkpt lat="47.2905" lon="-2.38701">
        <ele>2.7999999523163</ele>
        <time>2020-07-23T08:13:32.000Z</time>
      </trkpt>
      <trkpt lat="47.29038" lon="-2.38708">
        <ele>2.7999999523163</ele>
        <time>2020-07-23T08:13:35.000Z</time>
      </trkpt>
      <trkpt lat="47.29033" lon="-2.38717">
        <ele>2.7999999523163</ele>
        <time>2020-07-23T08:13:37.000Z</time>
      </trkpt>
      <trkpt lat="47.29032" lon="-2.38723">
        <ele>2.7999999523163</ele>
        <time>2020-07-23T08:13:38.000Z</time>
      </trkpt>
      <trkpt lat="47.2903" lon="-2.38744">
        <ele>2.7999999523163</ele>
        <time>2020-07-23T08:13:41.000Z</time>
      </trkpt>
      <trkpt lat="47.29028" lon="-2.38765">
        <ele>2.7999999523163</ele>
        <time>2020-07-23T08:13:44.000Z</time>
      </trkpt>
      <trkpt lat="47.29025" lon="-2.38783">
        <ele>2.7999999523163</ele>
        <time>2020-07-23T08:13:47.000Z</time>
      </trkpt>
      <trkpt lat="47.29019" lon="-2.38827">
        <ele>2.7999999523163</ele>
        <time>2020-07-23T08:13:54.000Z</time>
      </trkpt>
      <trkpt lat="47.29013" lon="-2.38844">
        <ele>2.7999999523163</ele>
        <time>2020-07-23T08:13:57.000Z</time>
      </trkpt>
      <trkpt lat="47.2901" lon="-2.38848">
        <ele>2.7999999523163</ele>
        <time>2020-07-23T08:13:58.000Z</time>
      </trkpt>
      <trkpt lat="47.29001" lon="-2.38847">
        <ele>2.7999999523163</ele>
        <time>2020-07-23T08:14:00.000Z</time>
      </trkpt>
      <trkpt lat="47.28984" lon="-2.38845">
        <ele>2.7999999523163</ele>
        <time>2020-07-23T08:14:04.000Z</time>
      </trkpt>
      <trkpt lat="47.28969" lon="-2.38847">
        <ele>2.7999999523163</ele>
        <time>2020-07-23T08:14:08.000Z</time>
      </trkpt>
      <trkpt lat="47.28966" lon="-2.38852">
        <ele>2.7999999523163</ele>
        <time>2020-07-23T08:14:09.000Z</time>
      </trkpt>
      <trkpt lat="47.28965" lon="-2.3887">
        <ele>2.7999999523163</ele>
        <time>2020-07-23T08:14:12.000Z</time>
      </trkpt>
      <trkpt lat="47.28963" lon="-2.38889">
        <ele>3.2000000476837</ele>
        <time>2020-07-23T08:14:15.000Z</time>
      </trkpt>
      <trkpt lat="47.28962" lon="-2.38896">
        <ele>3.5999999046326</ele>
        <time>2020-07-23T08:14:16.000Z</time>
      </trkpt>
      <trkpt lat="47.28962" lon="-2.38903">
        <ele>4</ele>
        <time>2020-07-23T08:14:17.000Z</time>
      </trkpt>
      <trkpt lat="47.28962" lon="-2.38909">
        <ele>4.4000000953674</ele>
        <time>2020-07-23T08:14:18.000Z</time>
      </trkpt>
      <trkpt lat="47.28961" lon="-2.38916">
        <ele>4.8000001907349</ele>
        <time>2020-07-23T08:14:19.000Z</time>
      </trkpt>
      <trkpt lat="47.28961" lon="-2.38923">
        <ele>4.8000001907349</ele>
        <time>2020-07-23T08:14:20.000Z</time>
      </trkpt>
      <trkpt lat="47.28961" lon="-2.38943">
        <ele>4.8000001907349</ele>
        <time>2020-07-23T08:14:23.000Z</time>
      </trkpt>
      <trkpt lat="47.28958" lon="-2.38968">
        <ele>4.8000001907349</ele>
        <time>2020-07-23T08:14:27.000Z</time>
      </trkpt>
      <trkpt lat="47.28957" lon="-2.39003">
        <ele>4.8000001907349</ele>
        <time>2020-07-23T08:14:33.000Z</time>
      </trkpt>
      <trkpt lat="47.28955" lon="-2.39048">
        <ele>4.8000001907349</ele>
        <time>2020-07-23T08:14:39.000Z</time>
      </trkpt>
      <trkpt lat="47.28953" lon="-2.39077">
        <ele>4.8000001907349</ele>
        <time>2020-07-23T08:14:43.000Z</time>
      </trkpt>
      <trkpt lat="47.2895" lon="-2.39091">
        <ele>4.8000001907349</ele>
        <time>2020-07-23T08:14:45.000Z</time>
      </trkpt>
      <trkpt lat="47.28949" lon="-2.39097">
        <ele>4.8000001907349</ele>
        <time>2020-07-23T08:14:46.000Z</time>
      </trkpt>
      <trkpt lat="47.28942" lon="-2.39141">
        <ele>4.8000001907349</ele>
        <time>2020-07-23T08:14:53.000Z</time>
      </trkpt>
      <trkpt lat="47.28939" lon="-2.39178">
        <ele>4.8000001907349</ele>
        <time>2020-07-23T08:15:00.000Z</time>
      </trkpt>
      <trkpt lat="47.28941" lon="-2.39216">
        <ele>4.8000001907349</ele>
        <time>2020-07-23T08:15:07.000Z</time>
      </trkpt>
      <trkpt lat="47.28941" lon="-2.39239">
        <ele>4.8000001907349</ele>
        <time>2020-07-23T08:15:14.000Z</time>
      </trkpt>
      <trkpt lat="47.28944" lon="-2.39268">
        <ele>4.8000001907349</ele>
        <time>2020-07-23T08:15:20.000Z</time>
      </trkpt>
      <trkpt lat="47.28945" lon="-2.39274">
        <ele>4.8000001907349</ele>
        <time>2020-07-23T08:15:21.000Z</time>
      </trkpt>
      <trkpt lat="47.2895" lon="-2.39291">
        <ele>4.8000001907349</ele>
        <time>2020-07-23T08:15:24.000Z</time>
      </trkpt>
      <trkpt lat="47.28955" lon="-2.39302">
        <ele>4.8000001907349</ele>
        <time>2020-07-23T08:15:28.000Z</time>
      </trkpt>
      <trkpt lat="47.28972" lon="-2.39311">
        <ele>4.8000001907349</ele>
        <time>2020-07-23T08:15:33.000Z</time>
      </trkpt>
      <trkpt lat="47.29003" lon="-2.39321">
        <ele>4.8000001907349</ele>
        <time>2020-07-23T08:15:39.000Z</time>
      </trkpt>
      <trkpt lat="47.29038" lon="-2.39339">
        <ele>4.8000001907349</ele>
        <time>2020-07-23T08:15:46.000Z</time>
      </trkpt>
      <trkpt lat="47.29063" lon="-2.3935">
        <ele>4.8000001907349</ele>
        <time>2020-07-23T08:15:52.000Z</time>
      </trkpt>
      <trkpt lat="47.29087" lon="-2.39363">
        <ele>4.8000001907349</ele>
        <time>2020-07-23T08:16:00.000Z</time>
      </trkpt>
      <trkpt lat="47.29099" lon="-2.39373">
        <ele>4.8000001907349</ele>
        <time>2020-07-23T08:16:04.000Z</time>
      </trkpt>
      <trkpt lat="47.29103" lon="-2.39373">
        <ele>4.8000001907349</ele>
        <time>2020-07-23T08:16:05.000Z</time>
      </trkpt>
      <trkpt lat="47.2911" lon="-2.3937">
        <ele>4.8000001907349</ele>
        <time>2020-07-23T08:16:07.000Z</time>
      </trkpt>
      <trkpt lat="47.2912" lon="-2.39363">
        <ele>4.8000001907349</ele>
        <time>2020-07-23T08:16:09.000Z</time>
      </trkpt>
      <trkpt lat="47.29125" lon="-2.39361">
        <ele>4.8000001907349</ele>
        <time>2020-07-23T08:16:10.000Z</time>
      </trkpt>
      <trkpt lat="47.29134" lon="-2.39363">
        <ele>4.8000001907349</ele>
        <time>2020-07-23T08:16:12.000Z</time>
      </trkpt>
      <trkpt lat="47.29139" lon="-2.39382">
        <ele>4.8000001907349</ele>
        <time>2020-07-23T08:16:15.000Z</time>
      </trkpt>
      <trkpt lat="47.2914" lon="-2.39402">
        <ele>4.8000001907349</ele>
        <time>2020-07-23T08:16:18.000Z</time>
      </trkpt>
      <trkpt lat="47.2914" lon="-2.39421">
        <ele>4.8000001907349</ele>
        <time>2020-07-23T08:16:21.000Z</time>
      </trkpt>
      <trkpt lat="47.29139" lon="-2.3944">
        <ele>4.8000001907349</ele>
        <time>2020-07-23T08:16:26.000Z</time>
      </trkpt>
      <trkpt lat="47.29141" lon="-2.3946">
        <ele>4.8000001907349</ele>
        <time>2020-07-23T08:16:31.000Z</time>
      </trkpt>
      <trkpt lat="47.29158" lon="-2.39466">
        <ele>4.8000001907349</ele>
        <time>2020-07-23T08:16:36.000Z</time>
      </trkpt>
      <trkpt lat="47.29162" lon="-2.39466">
        <ele>4.8000001907349</ele>
        <time>2020-07-23T08:16:37.000Z</time>
      </trkpt>
      <trkpt lat="47.29188" lon="-2.39472">
        <ele>4.8000001907349</ele>
        <time>2020-07-23T08:16:42.000Z</time>
      </trkpt>
      <trkpt lat="47.29233" lon="-2.39478">
        <ele>4.8000001907349</ele>
        <time>2020-07-23T08:16:50.000Z</time>
      </trkpt>
      <trkpt lat="47.29283" lon="-2.39488">
        <ele>4.8000001907349</ele>
        <time>2020-07-23T08:16:58.000Z</time>
      </trkpt>
      <trkpt lat="47.29325" lon="-2.39495">
        <ele>4.8000001907349</ele>
        <time>2020-07-23T08:17:05.000Z</time>
      </trkpt>
      <trkpt lat="47.29373" lon="-2.39501">
        <ele>4.8000001907349</ele>
        <time>2020-07-23T08:17:12.000Z</time>
      </trkpt>
      <trkpt lat="47.29422" lon="-2.39513">
        <ele>4.8000001907349</ele>
        <time>2020-07-23T08:17:19.000Z</time>
      </trkpt>
      <trkpt lat="47.29481" lon="-2.39525">
        <ele>4.8000001907349</ele>
        <time>2020-07-23T08:17:28.000Z</time>
      </trkpt>
      <trkpt lat="47.29519" lon="-2.39533">
        <ele>4.8000001907349</ele>
        <time>2020-07-23T08:17:34.000Z</time>
      </trkpt>
      <trkpt lat="47.29553" lon="-2.39539">
        <ele>5.1999998092651</ele>
        <time>2020-07-23T08:17:40.000Z</time>
      </trkpt>
      <trkpt lat="47.29559" lon="-2.39539">
        <ele>5.5999999046326</ele>
        <time>2020-07-23T08:17:41.000Z</time>
      </trkpt>
      <trkpt lat="47.29564" lon="-2.39539">
        <ele>6</ele>
        <time>2020-07-23T08:17:42.000Z</time>
      </trkpt>
      <trkpt lat="47.2957" lon="-2.3954">
        <ele>6.5999999046326</ele>
        <time>2020-07-23T08:17:43.000Z</time>
      </trkpt>
      <trkpt lat="47.29576" lon="-2.39542">
        <ele>7</ele>
        <time>2020-07-23T08:17:44.000Z</time>
      </trkpt>
      <trkpt lat="47.29586" lon="-2.39544">
        <ele>7.4000000953674</ele>
        <time>2020-07-23T08:17:46.000Z</time>
      </trkpt>
      <trkpt lat="47.29591" lon="-2.39545">
        <ele>7.8000001907349</ele>
        <time>2020-07-23T08:17:47.000Z</time>
      </trkpt>
      <trkpt lat="47.29595" lon="-2.39546">
        <ele>8.8000001907349</ele>
        <time>2020-07-23T08:17:48.000Z</time>
      </trkpt>
      <trkpt lat="47.296" lon="-2.39547">
        <ele>9.1999998092651</ele>
        <time>2020-07-23T08:17:49.000Z</time>
      </trkpt>
      <trkpt lat="47.29609" lon="-2.39549">
        <ele>9.1999998092651</ele>
        <time>2020-07-23T08:17:51.000Z</time>
      </trkpt>
      <trkpt lat="47.29624" lon="-2.39553">
        <ele>9.1999998092651</ele>
        <time>2020-07-23T08:17:55.000Z</time>
      </trkpt>
      <trkpt lat="47.29626" lon="-2.39555">
        <ele>9.1999998092651</ele>
        <time>2020-07-23T08:17:56.000Z</time>
      </trkpt>
      <trkpt lat="47.29619" lon="-2.3956">
        <ele>9.1999998092651</ele>
        <time>2020-07-23T08:17:59.000Z</time>
      </trkpt>
      <trkpt lat="47.29615" lon="-2.39562">
        <ele>8.8000001907349</ele>
        <time>2020-07-23T08:18:00.000Z</time>
      </trkpt>
      <trkpt lat="47.29613" lon="-2.39566">
        <ele>8.3999996185303</ele>
        <time>2020-07-23T08:18:01.000Z</time>
      </trkpt>
      <trkpt lat="47.29613" lon="-2.3957">
        <ele>8</ele>
        <time>2020-07-23T08:18:02.000Z</time>
      </trkpt>
      <trkpt lat="47.29615" lon="-2.39572">
        <ele>7.5999999046326</ele>
        <time>2020-07-23T08:18:03.000Z</time>
      </trkpt>
      <trkpt lat="47.29619" lon="-2.39572">
        <ele>7.1999998092651</ele>
        <time>2020-07-23T08:18:04.000Z</time>
      </trkpt>
      <trkpt lat="47.29623" lon="-2.39572">
        <ele>7.1999998092651</ele>
        <time>2020-07-23T08:18:05.000Z</time>
      </trkpt>
      <trkpt lat="47.2963" lon="-2.39576">
        <ele>6.5999999046326</ele>
        <time>2020-07-23T08:18:07.000Z</time>
      </trkpt>
      <trkpt lat="47.29633" lon="-2.39579">
        <ele>6.1999998092651</ele>
        <time>2020-07-23T08:18:08.000Z</time>
      </trkpt>
      <trkpt lat="47.29634" lon="-2.39583">
        <ele>5.5999999046326</ele>
        <time>2020-07-23T08:18:09.000Z</time>
      </trkpt>
      <trkpt lat="47.29635" lon="-2.39587">
        <ele>5.1999998092651</ele>
        <time>2020-07-23T08:18:10.000Z</time>
      </trkpt>
      <trkpt lat="47.29636" lon="-2.39592">
        <ele>4.8000001907349</ele>
        <time>2020-07-23T08:18:11.000Z</time>
      </trkpt>
      <trkpt lat="47.29637" lon="-2.39597">
        <ele>4.8000001907349</ele>
        <time>2020-07-23T08:18:12.000Z</time>
      </trkpt>
      <trkpt lat="47.29637" lon="-2.39604">
        <ele>4.8000001907349</ele>
        <time>2020-07-23T08:18:13.000Z</time>
      </trkpt>
      <trkpt lat="47.29633" lon="-2.39633">
        <ele>4.8000001907349</ele>
        <time>2020-07-23T08:18:17.000Z</time>
      </trkpt>
      <trkpt lat="47.29618" lon="-2.39664">
        <ele>4.8000001907349</ele>
        <time>2020-07-23T08:18:21.000Z</time>
      </trkpt>
      <trkpt lat="47.29589" lon="-2.39716">
        <ele>4.8000001907349</ele>
        <time>2020-07-23T08:18:28.000Z</time>
      </trkpt>
      <trkpt lat="47.29566" lon="-2.3976">
        <ele>4.8000001907349</ele>
        <time>2020-07-23T08:18:35.000Z</time>
      </trkpt>
      <trkpt lat="47.29547" lon="-2.39804">
        <ele>4.8000001907349</ele>
        <time>2020-07-23T08:18:41.000Z</time>
      </trkpt>
      <trkpt lat="47.29533" lon="-2.39832">
        <ele>4.8000001907349</ele>
        <time>2020-07-23T08:18:45.000Z</time>
      </trkpt>
      <trkpt lat="47.29527" lon="-2.39846">
        <ele>4.8000001907349</ele>
        <time>2020-07-23T08:18:47.000Z</time>
      </trkpt>
      <trkpt lat="47.29507" lon="-2.39888">
        <ele>4.8000001907349</ele>
        <time>2020-07-23T08:18:54.000Z</time>
      </trkpt>
      <trkpt lat="47.29494" lon="-2.39904">
        <ele>4.8000001907349</ele>
        <time>2020-07-23T08:18:59.000Z</time>
      </trkpt>
      <trkpt lat="47.29492" lon="-2.39905">
        <ele>4.8000001907349</ele>
        <time>2020-07-23T08:19:01.000Z</time>
      </trkpt>
      <trkpt lat="47.29492" lon="-2.39905">
        <ele>4.8000001907349</ele>
        <time>2020-07-23T08:19:18.000Z</time>
      </trkpt>
      <trkpt lat="47.2949" lon="-2.39908">
        <ele>4.8000001907349</ele>
        <time>2020-07-23T08:19:19.000Z</time>
      </trkpt>
      <trkpt lat="47.29483" lon="-2.3993">
        <ele>4.8000001907349</ele>
        <time>2020-07-23T08:19:23.000Z</time>
      </trkpt>
      <trkpt lat="47.29468" lon="-2.39968">
        <ele>4.8000001907349</ele>
        <time>2020-07-23T08:19:28.000Z</time>
      </trkpt>
      <trkpt lat="47.29459" lon="-2.4001">
        <ele>4.4000000953674</ele>
        <time>2020-07-23T08:19:33.000Z</time>
      </trkpt>
      <trkpt lat="47.29458" lon="-2.40018">
        <ele>4</ele>
        <time>2020-07-23T08:19:34.000Z</time>
      </trkpt>
      <trkpt lat="47.29458" lon="-2.40024">
        <ele>3.5999999046326</ele>
        <time>2020-07-23T08:19:35.000Z</time>
      </trkpt>
      <trkpt lat="47.29459" lon="-2.40031">
        <ele>3.2000000476837</ele>
        <time>2020-07-23T08:19:36.000Z</time>
      </trkpt>
      <trkpt lat="47.2946" lon="-2.40038">
        <ele>2.7999999523163</ele>
        <time>2020-07-23T08:19:37.000Z</time>
      </trkpt>
      <trkpt lat="47.29462" lon="-2.40071">
        <ele>2.7999999523163</ele>
        <time>2020-07-23T08:19:42.000Z</time>
      </trkpt>
      <trkpt lat="47.29461" lon="-2.40086">
        <ele>2.7999999523163</ele>
        <time>2020-07-23T08:19:44.000Z</time>
      </trkpt>
      <trkpt lat="47.29458" lon="-2.40111">
        <ele>2.7999999523163</ele>
        <time>2020-07-23T08:19:47.000Z</time>
      </trkpt>
      <trkpt lat="47.29454" lon="-2.40164">
        <ele>2.7999999523163</ele>
        <time>2020-07-23T08:19:53.000Z</time>
      </trkpt>
      <trkpt lat="47.29448" lon="-2.40196">
        <ele>2.7999999523163</ele>
        <time>2020-07-23T08:19:57.000Z</time>
      </trkpt>
      <trkpt lat="47.29445" lon="-2.40211">
        <ele>2.7999999523163</ele>
        <time>2020-07-23T08:19:59.000Z</time>
      </trkpt>
      <trkpt lat="47.29433" lon="-2.4022">
        <ele>2.7999999523163</ele>
        <time>2020-07-23T08:20:02.000Z</time>
      </trkpt>
      <trkpt lat="47.29414" lon="-2.40224">
        <ele>2.7999999523163</ele>
        <time>2020-07-23T08:20:06.000Z</time>
      </trkpt>
      <trkpt lat="47.29405" lon="-2.40229">
        <ele>2.7999999523163</ele>
        <time>2020-07-23T08:20:08.000Z</time>
      </trkpt>
      <trkpt lat="47.29381" lon="-2.40244">
        <ele>2.7999999523163</ele>
        <time>2020-07-23T08:20:13.000Z</time>
      </trkpt>
      <trkpt lat="47.29372" lon="-2.4025">
        <ele>2.7999999523163</ele>
        <time>2020-07-23T08:20:15.000Z</time>
      </trkpt>
      <trkpt lat="47.29359" lon="-2.40265">
        <ele>2.7999999523163</ele>
        <time>2020-07-23T08:20:18.000Z</time>
      </trkpt>
      <trkpt lat="47.29354" lon="-2.40269">
        <ele>2.7999999523163</ele>
        <time>2020-07-23T08:20:19.000Z</time>
      </trkpt>
      <trkpt lat="47.29336" lon="-2.40285">
        <ele>2.7999999523163</ele>
        <time>2020-07-23T08:20:23.000Z</time>
      </trkpt>
      <trkpt lat="47.29316" lon="-2.40309">
        <ele>2.7999999523163</ele>
        <time>2020-07-23T08:20:28.000Z</time>
      </trkpt>
      <trkpt lat="47.29291" lon="-2.40335">
        <ele>2.7999999523163</ele>
        <time>2020-07-23T08:20:34.000Z</time>
      </trkpt>
      <trkpt lat="47.29288" lon="-2.40341">
        <ele>2.7999999523163</ele>
        <time>2020-07-23T08:20:35.000Z</time>
      </trkpt>
      <trkpt lat="47.29286" lon="-2.40355">
        <ele>2.7999999523163</ele>
        <time>2020-07-23T08:20:37.000Z</time>
      </trkpt>
      <trkpt lat="47.29287" lon="-2.40362">
        <ele>2.7999999523163</ele>
        <time>2020-07-23T08:20:38.000Z</time>
      </trkpt>
      <trkpt lat="47.29297" lon="-2.40388">
        <ele>2.7999999523163</ele>
        <time>2020-07-23T08:20:42.000Z</time>
      </trkpt>
      <trkpt lat="47.29306" lon="-2.40414">
        <ele>2.7999999523163</ele>
        <time>2020-07-23T08:20:46.000Z</time>
      </trkpt>
      <trkpt lat="47.29297" lon="-2.40443">
        <ele>2.7999999523163</ele>
        <time>2020-07-23T08:20:50.000Z</time>
      </trkpt>
      <trkpt lat="47.29282" lon="-2.40467">
        <ele>2.7999999523163</ele>
        <time>2020-07-23T08:20:54.000Z</time>
      </trkpt>
      <trkpt lat="47.29266" lon="-2.40473">
        <ele>2.7999999523163</ele>
        <time>2020-07-23T08:20:57.000Z</time>
      </trkpt>
      <trkpt lat="47.29261" lon="-2.40475">
        <ele>2.7999999523163</ele>
        <time>2020-07-23T08:20:58.000Z</time>
      </trkpt>
      <trkpt lat="47.29226" lon="-2.40494">
        <ele>2.7999999523163</ele>
        <time>2020-07-23T08:21:05.000Z</time>
      </trkpt>
      <trkpt lat="47.29193" lon="-2.40514">
        <ele>2.7999999523163</ele>
        <time>2020-07-23T08:21:12.000Z</time>
      </trkpt>
      <trkpt lat="47.29179" lon="-2.40519">
        <ele>2.7999999523163</ele>
        <time>2020-07-23T08:21:15.000Z</time>
      </trkpt>
      <trkpt lat="47.29171" lon="-2.40515">
        <ele>2.7999999523163</ele>
        <time>2020-07-23T08:21:17.000Z</time>
      </trkpt>
      <trkpt lat="47.29164" lon="-2.40494">
        <ele>2.7999999523163</ele>
        <time>2020-07-23T08:21:20.000Z</time>
      </trkpt>
      <trkpt lat="47.2915" lon="-2.40484">
        <ele>2.7999999523163</ele>
        <time>2020-07-23T08:21:23.000Z</time>
      </trkpt>
      <trkpt lat="47.29132" lon="-2.40489">
        <ele>2.7999999523163</ele>
        <time>2020-07-23T08:21:26.000Z</time>
      </trkpt>
      <trkpt lat="47.2911" lon="-2.40502">
        <ele>2.7999999523163</ele>
        <time>2020-07-23T08:21:30.000Z</time>
      </trkpt>
      <trkpt lat="47.29102" lon="-2.40514">
        <ele>2.7999999523163</ele>
        <time>2020-07-23T08:21:32.000Z</time>
      </trkpt>
      <trkpt lat="47.29098" lon="-2.40539">
        <ele>2.7999999523163</ele>
        <time>2020-07-23T08:21:35.000Z</time>
      </trkpt>
      <trkpt lat="47.29108" lon="-2.40559">
        <ele>2.7999999523163</ele>
        <time>2020-07-23T08:21:38.000Z</time>
      </trkpt>
      <trkpt lat="47.29113" lon="-2.40564">
        <ele>2.7999999523163</ele>
        <time>2020-07-23T08:21:39.000Z</time>
      </trkpt>
      <trkpt lat="47.29118" lon="-2.40569">
        <ele>2.7999999523163</ele>
        <time>2020-07-23T08:21:40.000Z</time>
      </trkpt>
      <trkpt lat="47.29131" lon="-2.40587">
        <ele>2.7999999523163</ele>
        <time>2020-07-23T08:21:43.000Z</time>
      </trkpt>
      <trkpt lat="47.29141" lon="-2.40617">
        <ele>2.7999999523163</ele>
        <time>2020-07-23T08:21:47.000Z</time>
      </trkpt>
      <trkpt lat="47.29142" lon="-2.40633">
        <ele>2.7999999523163</ele>
        <time>2020-07-23T08:21:49.000Z</time>
      </trkpt>
      <trkpt lat="47.29142" lon="-2.40647">
        <ele>2.7999999523163</ele>
        <time>2020-07-23T08:21:51.000Z</time>
      </trkpt>
      <trkpt lat="47.2914" lon="-2.40652">
        <ele>2.7999999523163</ele>
        <time>2020-07-23T08:21:52.000Z</time>
      </trkpt>
      <trkpt lat="47.2913" lon="-2.40668">
        <ele>2.7999999523163</ele>
        <time>2020-07-23T08:21:55.000Z</time>
      </trkpt>
      <trkpt lat="47.29126" lon="-2.40673">
        <ele>2.7999999523163</ele>
        <time>2020-07-23T08:21:56.000Z</time>
      </trkpt>
      <trkpt lat="47.29121" lon="-2.40677">
        <ele>2.7999999523163</ele>
        <time>2020-07-23T08:21:57.000Z</time>
      </trkpt>
      <trkpt lat="47.29105" lon="-2.40684">
        <ele>2.7999999523163</ele>
        <time>2020-07-23T08:22:00.000Z</time>
      </trkpt>
      <trkpt lat="47.29093" lon="-2.40684">
        <ele>2.7999999523163</ele>
        <time>2020-07-23T08:22:02.000Z</time>
      </trkpt>
      <trkpt lat="47.29071" lon="-2.40688">
        <ele>2.7999999523163</ele>
        <time>2020-07-23T08:22:06.000Z</time>
      </trkpt>
      <trkpt lat="47.29066" lon="-2.4069">
        <ele>2.7999999523163</ele>
        <time>2020-07-23T08:22:07.000Z</time>
      </trkpt>
      <trkpt lat="47.29051" lon="-2.40698">
        <ele>2.7999999523163</ele>
        <time>2020-07-23T08:22:10.000Z</time>
      </trkpt>
      <trkpt lat="47.29046" lon="-2.40703">
        <ele>2.7999999523163</ele>
        <time>2020-07-23T08:22:11.000Z</time>
      </trkpt>
      <trkpt lat="47.29021" lon="-2.40734">
        <ele>2.7999999523163</ele>
        <time>2020-07-23T08:22:17.000Z</time>
      </trkpt>
      <trkpt lat="47.29018" lon="-2.4074">
        <ele>2.7999999523163</ele>
        <time>2020-07-23T08:22:18.000Z</time>
      </trkpt>
      <trkpt lat="47.29018" lon="-2.40754">
        <ele>2.7999999523163</ele>
        <time>2020-07-23T08:22:20.000Z</time>
      </trkpt>
      <trkpt lat="47.29026" lon="-2.40776">
        <ele>2.7999999523163</ele>
        <time>2020-07-23T08:22:23.000Z</time>
      </trkpt>
      <trkpt lat="47.29041" lon="-2.40809">
        <ele>2.7999999523163</ele>
        <time>2020-07-23T08:22:28.000Z</time>
      </trkpt>
      <trkpt lat="47.29041" lon="-2.40818">
        <ele>2.7999999523163</ele>
        <time>2020-07-23T08:22:29.000Z</time>
      </trkpt>
      <trkpt lat="47.29032" lon="-2.4084">
        <ele>2.7999999523163</ele>
        <time>2020-07-23T08:22:32.000Z</time>
      </trkpt>
      <trkpt lat="47.29028" lon="-2.40846">
        <ele>2.7999999523163</ele>
        <time>2020-07-23T08:22:33.000Z</time>
      </trkpt>
      <trkpt lat="47.29005" lon="-2.40886">
        <ele>2.7999999523163</ele>
        <time>2020-07-23T08:22:39.000Z</time>
      </trkpt>
      <trkpt lat="47.28998" lon="-2.40898">
        <ele>2.7999999523163</ele>
        <time>2020-07-23T08:22:41.000Z</time>
      </trkpt>
      <trkpt lat="47.28989" lon="-2.40906">
        <ele>2.7999999523163</ele>
        <time>2020-07-23T08:22:43.000Z</time>
      </trkpt>
      <trkpt lat="47.28967" lon="-2.40911">
        <ele>2.7999999523163</ele>
        <time>2020-07-23T08:22:47.000Z</time>
      </trkpt>
      <trkpt lat="47.28947" lon="-2.40916">
        <ele>2.7999999523163</ele>
        <time>2020-07-23T08:22:51.000Z</time>
      </trkpt>
      <trkpt lat="47.28941" lon="-2.40938">
        <ele>2.7999999523163</ele>
        <time>2020-07-23T08:22:54.000Z</time>
      </trkpt>
      <trkpt lat="47.28936" lon="-2.40966">
        <ele>2.7999999523163</ele>
        <time>2020-07-23T08:22:58.000Z</time>
      </trkpt>
      <trkpt lat="47.28938" lon="-2.40974">
        <ele>2.7999999523163</ele>
        <time>2020-07-23T08:22:59.000Z</time>
      </trkpt>
      <trkpt lat="47.28946" lon="-2.40992">
        <ele>2.7999999523163</ele>
        <time>2020-07-23T08:23:02.000Z</time>
      </trkpt>
      <trkpt lat="47.28951" lon="-2.41012">
        <ele>2.7999999523163</ele>
        <time>2020-07-23T08:23:05.000Z</time>
      </trkpt>
      <trkpt lat="47.28952" lon="-2.41019">
        <ele>2.7999999523163</ele>
        <time>2020-07-23T08:23:06.000Z</time>
      </trkpt>
      <trkpt lat="47.28952" lon="-2.41026">
        <ele>2.7999999523163</ele>
        <time>2020-07-23T08:23:07.000Z</time>
      </trkpt>
      <trkpt lat="47.28956" lon="-2.41075">
        <ele>2.7999999523163</ele>
        <time>2020-07-23T08:23:14.000Z</time>
      </trkpt>
      <trkpt lat="47.28961" lon="-2.41125">
        <ele>2.7999999523163</ele>
        <time>2020-07-23T08:23:20.000Z</time>
      </trkpt>
      <trkpt lat="47.28965" lon="-2.41164">
        <ele>2.7999999523163</ele>
        <time>2020-07-23T08:23:25.000Z</time>
      </trkpt>
      <trkpt lat="47.28959" lon="-2.41196">
        <ele>2.7999999523163</ele>
        <time>2020-07-23T08:23:30.000Z</time>
      </trkpt>
      <trkpt lat="47.28947" lon="-2.41207">
        <ele>2.7999999523163</ele>
        <time>2020-07-23T08:23:33.000Z</time>
      </trkpt>
      <trkpt lat="47.28943" lon="-2.4121">
        <ele>2.7999999523163</ele>
        <time>2020-07-23T08:23:34.000Z</time>
      </trkpt>
      <trkpt lat="47.28939" lon="-2.41214">
        <ele>2</ele>
        <time>2020-07-23T08:23:35.000Z</time>
      </trkpt>
      <trkpt lat="47.28935" lon="-2.41218">
        <ele>1.6000000238419</ele>
        <time>2020-07-23T08:23:36.000Z</time>
      </trkpt>
      <trkpt lat="47.2893" lon="-2.4122">
        <ele>1.2000000476837</ele>
        <time>2020-07-23T08:23:37.000Z</time>
      </trkpt>
      <trkpt lat="47.28925" lon="-2.41219">
        <ele>0.80000001192093</ele>
        <time>2020-07-23T08:23:38.000Z</time>
      </trkpt>
      <trkpt lat="47.28914" lon="-2.41204">
        <ele>0.80000001192093</ele>
        <time>2020-07-23T08:23:41.000Z</time>
      </trkpt>
      <trkpt lat="47.28912" lon="-2.41197">
        <ele>0.80000001192093</ele>
        <time>2020-07-23T08:23:42.000Z</time>
      </trkpt>
      <trkpt lat="47.28909" lon="-2.41191">
        <ele>0.80000001192093</ele>
        <time>2020-07-23T08:23:43.000Z</time>
      </trkpt>
      <trkpt lat="47.289" lon="-2.41186">
        <ele>0.80000001192093</ele>
        <time>2020-07-23T08:23:45.000Z</time>
      </trkpt>
      <trkpt lat="47.28893" lon="-2.41188">
        <ele>0.80000001192093</ele>
        <time>2020-07-23T08:23:48.000Z</time>
      </trkpt>
      <trkpt lat="47.28887" lon="-2.41192">
        <ele>0.80000001192093</ele>
        <time>2020-07-23T08:23:51.000Z</time>
      </trkpt>
      <trkpt lat="47.28882" lon="-2.41196">
        <ele>0.80000001192093</ele>
        <time>2020-07-23T08:23:53.000Z</time>
      </trkpt>
      <trkpt lat="47.28868" lon="-2.41211">
        <ele>0.80000001192093</ele>
        <time>2020-07-23T08:23:59.000Z</time>
      </trkpt>
      <trkpt lat="47.28864" lon="-2.41228">
        <ele>0.80000001192093</ele>
        <time>2020-07-23T08:24:03.000Z</time>
      </trkpt>
      <trkpt lat="47.28866" lon="-2.41259">
        <ele>0.80000001192093</ele>
        <time>2020-07-23T08:24:09.000Z</time>
      </trkpt>
      <trkpt lat="47.28864" lon="-2.41275">
        <ele>0.80000001192093</ele>
        <time>2020-07-23T08:24:13.000Z</time>
      </trkpt>
      <trkpt lat="47.28862" lon="-2.41276">
        <ele>0.80000001192093</ele>
        <time>2020-07-23T08:24:14.000Z</time>
      </trkpt>
      <trkpt lat="47.28848" lon="-2.41274">
        <ele>0.80000001192093</ele>
        <time>2020-07-23T08:24:20.000Z</time>
      </trkpt>
      <trkpt lat="47.28843" lon="-2.41273">
        <ele>0.80000001192093</ele>
        <time>2020-07-23T08:24:22.000Z</time>
      </trkpt>
      <trkpt lat="47.28834" lon="-2.41269">
        <ele>0.80000001192093</ele>
        <time>2020-07-23T08:24:26.000Z</time>
      </trkpt>
      <trkpt lat="47.28826" lon="-2.41263">
        <ele>0.80000001192093</ele>
        <time>2020-07-23T08:24:30.000Z</time>
      </trkpt>
      <trkpt lat="47.28824" lon="-2.41262">
        <ele>0.80000001192093</ele>
        <time>2020-07-23T08:24:31.000Z</time>
      </trkpt>
      <trkpt lat="47.2881" lon="-2.41256">
        <ele>0.80000001192093</ele>
        <time>2020-07-23T08:24:37.000Z</time>
      </trkpt>
      <trkpt lat="47.28809" lon="-2.41258">
        <ele>0.80000001192093</ele>
        <time>2020-07-23T08:24:38.000Z</time>
      </trkpt>
      <trkpt lat="47.28802" lon="-2.41272">
        <ele>0.80000001192093</ele>
        <time>2020-07-23T08:24:43.000Z</time>
      </trkpt>
      <trkpt lat="47.28796" lon="-2.41294">
        <ele>0.80000001192093</ele>
        <time>2020-07-23T08:24:49.000Z</time>
      </trkpt>
      <trkpt lat="47.28795" lon="-2.41296">
        <ele>0.80000001192093</ele>
        <time>2020-07-23T08:24:50.000Z</time>
      </trkpt>
      <trkpt lat="47.2879" lon="-2.41296">
        <ele>0.80000001192093</ele>
        <time>2020-07-23T08:24:53.000Z</time>
      </trkpt>
      <trkpt lat="47.28784" lon="-2.41303">
        <ele>0.80000001192093</ele>
        <time>2020-07-23T08:24:56.000Z</time>
      </trkpt>
      <trkpt lat="47.28774" lon="-2.41326">
        <ele>0.80000001192093</ele>
        <time>2020-07-23T08:25:01.000Z</time>
      </trkpt>
      <trkpt lat="47.28768" lon="-2.41334">
        <ele>0.80000001192093</ele>
        <time>2020-07-23T08:25:03.000Z</time>
      </trkpt>
      <trkpt lat="47.28762" lon="-2.41342">
        <ele>0.80000001192093</ele>
        <time>2020-07-23T08:25:05.000Z</time>
      </trkpt>
      <trkpt lat="47.28755" lon="-2.41347">
        <ele>0.80000001192093</ele>
        <time>2020-07-23T08:25:08.000Z</time>
      </trkpt>
      <trkpt lat="47.28753" lon="-2.41345">
        <ele>0.80000001192093</ele>
        <time>2020-07-23T08:25:09.000Z</time>
      </trkpt>
      <trkpt lat="47.28752" lon="-2.41329">
        <ele>0.80000001192093</ele>
        <time>2020-07-23T08:25:13.000Z</time>
      </trkpt>
      <trkpt lat="47.28752" lon="-2.41325">
        <ele>0.80000001192093</ele>
        <time>2020-07-23T08:25:14.000Z</time>
      </trkpt>
      <trkpt lat="47.28753" lon="-2.41304">
        <ele>0.80000001192093</ele>
        <time>2020-07-23T08:25:18.000Z</time>
      </trkpt>
      <trkpt lat="47.28752" lon="-2.41296">
        <ele>0.80000001192093</ele>
        <time>2020-07-23T08:25:20.000Z</time>
      </trkpt>
      <trkpt lat="47.28748" lon="-2.41293">
        <ele>0.80000001192093</ele>
        <time>2020-07-23T08:25:22.000Z</time>
      </trkpt>
      <trkpt lat="47.28735" lon="-2.41294">
        <ele>0.80000001192093</ele>
        <time>2020-07-23T08:25:26.000Z</time>
      </trkpt>
      <trkpt lat="47.28726" lon="-2.41287">
        <ele>0.80000001192093</ele>
        <time>2020-07-23T08:25:29.000Z</time>
      </trkpt>
      <trkpt lat="47.2872" lon="-2.4128">
        <ele>0.80000001192093</ele>
        <time>2020-07-23T08:25:31.000Z</time>
      </trkpt>
      <trkpt lat="47.28714" lon="-2.41269">
        <ele>0.80000001192093</ele>
        <time>2020-07-23T08:25:34.000Z</time>
      </trkpt>
      <trkpt lat="47.28715" lon="-2.41266">
        <ele>0.80000001192093</ele>
        <time>2020-07-23T08:25:35.000Z</time>
      </trkpt>
      <trkpt lat="47.28716" lon="-2.41246">
        <ele>0.80000001192093</ele>
        <time>2020-07-23T08:25:40.000Z</time>
      </trkpt>
      <trkpt lat="47.28706" lon="-2.41236">
        <ele>0.80000001192093</ele>
        <time>2020-07-23T08:25:45.000Z</time>
      </trkpt>
      <trkpt lat="47.28702" lon="-2.41236">
        <ele>0.80000001192093</ele>
        <time>2020-07-23T08:25:46.000Z</time>
      </trkpt>
      <trkpt lat="47.28683" lon="-2.41232">
        <ele>0.80000001192093</ele>
        <time>2020-07-23T08:25:50.000Z</time>
      </trkpt>
      <trkpt lat="47.28643" lon="-2.41224">
        <ele>0.80000001192093</ele>
        <time>2020-07-23T08:25:57.000Z</time>
      </trkpt>
      <trkpt lat="47.28603" lon="-2.41214">
        <ele>0.80000001192093</ele>
        <time>2020-07-23T08:26:03.000Z</time>
      </trkpt>
      <trkpt lat="47.28582" lon="-2.41211">
        <ele>0.40000000596046</ele>
        <time>2020-07-23T08:26:06.000Z</time>
      </trkpt>
      <trkpt lat="47.28576" lon="-2.4121">
        <ele>3.1</ele>
        <time>2020-07-23T08:26:07.000Z</time>
      </trkpt>
      <trkpt lat="47.2857" lon="-2.41209">
        <ele>-0.40000000596046</ele>
        <time>2020-07-23T08:26:08.000Z</time>
      </trkpt>
      <trkpt lat="47.28565" lon="-2.41208">
        <ele>-1</ele>
        <time>2020-07-23T08:26:09.000Z</time>
      </trkpt>
      <trkpt lat="47.28559" lon="-2.41207">
        <ele>-1.3999999761581</ele>
        <time>2020-07-23T08:26:10.000Z</time>
      </trkpt>
      <trkpt lat="47.28526" lon="-2.41201">
        <ele>-0.80000001192093</ele>
        <time>2020-07-23T08:26:17.000Z</time>
      </trkpt>
      <trkpt lat="47.28522" lon="-2.41201">
        <ele>-0.40000000596046</ele>
        <time>2020-07-23T08:26:18.000Z</time>
      </trkpt>
      <trkpt lat="47.28518" lon="-2.41201">
        <ele>3.3</ele>
        <time>2020-07-23T08:26:19.000Z</time>
      </trkpt>
      <trkpt lat="47.28514" lon="-2.41202">
        <ele>0.40000000596046</ele>
        <time>2020-07-23T08:26:20.000Z</time>
      </trkpt>
      <trkpt lat="47.2851" lon="-2.41202">
        <ele>0.80000001192093</ele>
        <time>2020-07-23T08:26:21.000Z</time>
      </trkpt>
      <trkpt lat="47.28498" lon="-2.41212">
        <ele>0.80000001192093</ele>
        <time>2020-07-23T08:26:25.000Z</time>
      </trkpt>
      <trkpt lat="47.28491" lon="-2.41225">
        <ele>0.80000001192093</ele>
        <time>2020-07-23T08:26:28.000Z</time>
      </trkpt>
      <trkpt lat="47.2849" lon="-2.41232">
        <ele>0.80000001192093</ele>
        <time>2020-07-23T08:26:29.000Z</time>
      </trkpt>
      <trkpt lat="47.28484" lon="-2.41254">
        <ele>0.80000001192093</ele>
        <time>2020-07-23T08:26:33.000Z</time>
      </trkpt>
      <trkpt lat="47.2847" lon="-2.41258">
        <ele>0.80000001192093</ele>
        <time>2020-07-23T08:26:37.000Z</time>
      </trkpt>
      <trkpt lat="47.28464" lon="-2.4126">
        <ele>0.80000001192093</ele>
        <time>2020-07-23T08:26:39.000Z</time>
      </trkpt>
      <trkpt lat="47.28454" lon="-2.41266">
        <ele>0.80000001192093</ele>
        <time>2020-07-23T08:26:42.000Z</time>
      </trkpt>
      <trkpt lat="47.28455" lon="-2.41283">
        <ele>0.80000001192093</ele>
        <time>2020-07-23T08:26:45.000Z</time>
      </trkpt>
      <trkpt lat="47.28454" lon="-2.41311">
        <ele>0.80000001192093</ele>
        <time>2020-07-23T08:26:50.000Z</time>
      </trkpt>
      <trkpt lat="47.28447" lon="-2.41336">
        <ele>0.80000001192093</ele>
        <time>2020-07-23T08:26:55.000Z</time>
      </trkpt>
      <trkpt lat="47.2844" lon="-2.4137">
        <ele>0.80000001192093</ele>
        <time>2020-07-23T08:27:02.000Z</time>
      </trkpt>
      <trkpt lat="47.28432" lon="-2.41399">
        <ele>0.80000001192093</ele>
        <time>2020-07-23T08:27:09.000Z</time>
      </trkpt>
      <trkpt lat="47.28423" lon="-2.41425">
        <ele>0.80000001192093</ele>
        <time>2020-07-23T08:27:16.000Z</time>
      </trkpt>
      <trkpt lat="47.2842" lon="-2.41447">
        <ele>0.80000001192093</ele>
        <time>2020-07-23T08:27:22.000Z</time>
      </trkpt>
      <trkpt lat="47.28419" lon="-2.41467">
        <ele>0.80000001192093</ele>
        <time>2020-07-23T08:27:27.000Z</time>
      </trkpt>
      <trkpt lat="47.28416" lon="-2.41505">
        <ele>0.80000001192093</ele>
        <time>2020-07-23T08:27:35.000Z</time>
      </trkpt>
      <trkpt lat="47.28413" lon="-2.41533">
        <ele>0.80000001192093</ele>
        <time>2020-07-23T08:27:41.000Z</time>
      </trkpt>
      <trkpt lat="47.28409" lon="-2.41565">
        <ele>0.80000001192093</ele>
        <time>2020-07-23T08:27:47.000Z</time>
      </trkpt>
      <trkpt lat="47.28403" lon="-2.41601">
        <ele>0.80000001192093</ele>
        <time>2020-07-23T08:27:54.000Z</time>
      </trkpt>
      <trkpt lat="47.284" lon="-2.41632">
        <ele>0.80000001192093</ele>
        <time>2020-07-23T08:28:01.000Z</time>
      </trkpt>
      <trkpt lat="47.284" lon="-2.41665">
        <ele>0.80000001192093</ele>
        <time>2020-07-23T08:28:07.000Z</time>
      </trkpt>
      <trkpt lat="47.28394" lon="-2.41687">
        <ele>0.80000001192093</ele>
        <time>2020-07-23T08:28:12.000Z</time>
      </trkpt>
      <trkpt lat="47.28388" lon="-2.41714">
        <ele>0.80000001192093</ele>
        <time>2020-07-23T08:28:18.000Z</time>
      </trkpt>
      <trkpt lat="47.28376" lon="-2.41753">
        <ele>0.80000001192093</ele>
        <time>2020-07-23T08:28:26.000Z</time>
      </trkpt>
      <trkpt lat="47.28375" lon="-2.41759">
        <ele>0.80000001192093</ele>
        <time>2020-07-23T08:28:27.000Z</time>
      </trkpt>
      <trkpt lat="47.28373" lon="-2.41765">
        <ele>0.80000001192093</ele>
        <time>2020-07-23T08:28:28.000Z</time>
      </trkpt>
      <trkpt lat="47.28369" lon="-2.4178">
        <ele>0.80000001192093</ele>
        <time>2020-07-23T08:28:30.000Z</time>
      </trkpt>
      <trkpt lat="47.28357" lon="-2.41828">
        <ele>0.80000001192093</ele>
        <time>2020-07-23T08:28:36.000Z</time>
      </trkpt>
      <trkpt lat="47.28341" lon="-2.41896">
        <ele>0.80000001192093</ele>
        <time>2020-07-23T08:28:44.000Z</time>
      </trkpt>
      <trkpt lat="47.28333" lon="-2.41936">
        <ele>0.80000001192093</ele>
        <time>2020-07-23T08:28:49.000Z</time>
      </trkpt>
      <trkpt lat="47.28329" lon="-2.41952">
        <ele>0.80000001192093</ele>
        <time>2020-07-23T08:28:51.000Z</time>
      </trkpt>
      <trkpt lat="47.28312" lon="-2.42019">
        <ele>0.80000001192093</ele>
        <time>2020-07-23T08:28:59.000Z</time>
      </trkpt>
      <trkpt lat="47.28302" lon="-2.4208">
        <ele>0.80000001192093</ele>
        <time>2020-07-23T08:29:06.000Z</time>
      </trkpt>
      <trkpt lat="47.28291" lon="-2.42151">
        <ele>0.80000001192093</ele>
        <time>2020-07-23T08:29:14.000Z</time>
      </trkpt>
      <trkpt lat="47.28281" lon="-2.42223">
        <ele>0.80000001192093</ele>
        <time>2020-07-23T08:29:22.000Z</time>
      </trkpt>
      <trkpt lat="47.28271" lon="-2.42284">
        <ele>0.80000001192093</ele>
        <time>2020-07-23T08:29:29.000Z</time>
      </trkpt>
      <trkpt lat="47.28264" lon="-2.42343">
        <ele>0.80000001192093</ele>
        <time>2020-07-23T08:29:36.000Z</time>
      </trkpt>
      <trkpt lat="47.28252" lon="-2.424">
        <ele>0.80000001192093</ele>
        <time>2020-07-23T08:29:43.000Z</time>
      </trkpt>
      <trkpt lat="47.2824" lon="-2.42446">
        <ele>0.80000001192093</ele>
        <time>2020-07-23T08:29:49.000Z</time>
      </trkpt>
      <trkpt lat="47.28236" lon="-2.42453">
        <ele>0.80000001192093</ele>
        <time>2020-07-23T08:29:50.000Z</time>
      </trkpt>
      <trkpt lat="47.28216" lon="-2.42494">
        <ele>0.80000001192093</ele>
        <time>2020-07-23T08:29:56.000Z</time>
      </trkpt>
      <trkpt lat="47.28207" lon="-2.42506">
        <ele>0.80000001192093</ele>
        <time>2020-07-23T08:29:58.000Z</time>
      </trkpt>
      <trkpt lat="47.28183" lon="-2.42523">
        <ele>0.80000001192093</ele>
        <time>2020-07-23T08:30:03.000Z</time>
      </trkpt>
      <trkpt lat="47.28177" lon="-2.42525">
        <ele>0.80000001192093</ele>
        <time>2020-07-23T08:30:04.000Z</time>
      </trkpt>
      <trkpt lat="47.28146" lon="-2.42536">
        <ele>0.80000001192093</ele>
        <time>2020-07-23T08:30:10.000Z</time>
      </trkpt>
      <trkpt lat="47.28124" lon="-2.42544">
        <ele>0.80000001192093</ele>
        <time>2020-07-23T08:30:15.000Z</time>
      </trkpt>
      <trkpt lat="47.28108" lon="-2.42548">
        <ele>0.80000001192093</ele>
        <time>2020-07-23T08:30:20.000Z</time>
      </trkpt>
      <trkpt lat="47.28106" lon="-2.42549">
        <ele>0.80000001192093</ele>
        <time>2020-07-23T08:30:21.000Z</time>
      </trkpt>
      <trkpt lat="47.28105" lon="-2.42548">
        <ele>0.80000001192093</ele>
        <time>2020-07-23T08:30:23.000Z</time>
      </trkpt>
      <trkpt lat="47.28105" lon="-2.42549">
        <ele>0.80000001192093</ele>
        <time>2020-07-23T08:31:12.000Z</time>
      </trkpt>
      <trkpt lat="47.28103" lon="-2.42554">
        <ele>0.80000001192093</ele>
        <time>2020-07-23T08:31:16.000Z</time>
      </trkpt>
      <trkpt lat="47.28103" lon="-2.42557">
        <ele>0.80000001192093</ele>
        <time>2020-07-23T08:31:17.000Z</time>
      </trkpt>
      <trkpt lat="47.28111" lon="-2.42573">
        <ele>0.80000001192093</ele>
        <time>2020-07-23T08:31:21.000Z</time>
      </trkpt>
      <trkpt lat="47.28114" lon="-2.42577">
        <ele>0.80000001192093</ele>
        <time>2020-07-23T08:31:22.000Z</time>
      </trkpt>
      <trkpt lat="47.28117" lon="-2.42582">
        <ele>0.80000001192093</ele>
        <time>2020-07-23T08:31:23.000Z</time>
      </trkpt>
      <trkpt lat="47.28128" lon="-2.42604">
        <ele>0.80000001192093</ele>
        <time>2020-07-23T08:31:27.000Z</time>
      </trkpt>
      <trkpt lat="47.28143" lon="-2.42633">
        <ele>0.80000001192093</ele>
        <time>2020-07-23T08:31:34.000Z</time>
      </trkpt>
      <trkpt lat="47.28161" lon="-2.42666">
        <ele>0.80000001192093</ele>
        <time>2020-07-23T08:31:42.000Z</time>
      </trkpt>
      <trkpt lat="47.28181" lon="-2.42703">
        <ele>0.80000001192093</ele>
        <time>2020-07-23T08:31:49.000Z</time>
      </trkpt>
      <trkpt lat="47.2819" lon="-2.42714">
        <ele>0.80000001192093</ele>
        <time>2020-07-23T08:31:52.000Z</time>
      </trkpt>
      <trkpt lat="47.28192" lon="-2.42713">
        <ele>0.80000001192093</ele>
        <time>2020-07-23T08:31:53.000Z</time>
      </trkpt>
      <trkpt lat="47.28198" lon="-2.42698">
        <ele>0.80000001192093</ele>
        <time>2020-07-23T08:31:57.000Z</time>
      </trkpt>
      <trkpt lat="47.282" lon="-2.42688">
        <ele>0.80000001192093</ele>
        <time>2020-07-23T08:31:59.000Z</time>
      </trkpt>
      <trkpt lat="47.28202" lon="-2.4267">
        <ele>0.80000001192093</ele>
        <time>2020-07-23T08:32:02.000Z</time>
      </trkpt>
      <trkpt lat="47.28204" lon="-2.42664">
        <ele>0.80000001192093</ele>
        <time>2020-07-23T08:32:03.000Z</time>
      </trkpt>
      <trkpt lat="47.28214" lon="-2.42649">
        <ele>0.80000001192093</ele>
        <time>2020-07-23T08:32:06.000Z</time>
      </trkpt>
      <trkpt lat="47.28222" lon="-2.4264">
        <ele>0.80000001192093</ele>
        <time>2020-07-23T08:32:08.000Z</time>
      </trkpt>
      <trkpt lat="47.28244" lon="-2.42621">
        <ele>0.80000001192093</ele>
        <time>2020-07-23T08:32:13.000Z</time>
      </trkpt>
      <trkpt lat="47.28259" lon="-2.42607">
        <ele>0.80000001192093</ele>
        <time>2020-07-23T08:32:17.000Z</time>
      </trkpt>
      <trkpt lat="47.2827" lon="-2.42596">
        <ele>0.80000001192093</ele>
        <time>2020-07-23T08:32:20.000Z</time>
      </trkpt>
      <trkpt lat="47.28284" lon="-2.42581">
        <ele>0.80000001192093</ele>
        <time>2020-07-23T08:32:25.000Z</time>
      </trkpt>
      <trkpt lat="47.28296" lon="-2.42573">
        <ele>0.80000001192093</ele>
        <time>2020-07-23T08:32:28.000Z</time>
      </trkpt>
      <trkpt lat="47.28299" lon="-2.42569">
        <ele>0.80000001192093</ele>
        <time>2020-07-23T08:32:29.000Z</time>
      </trkpt>
      <trkpt lat="47.28313" lon="-2.42551">
        <ele>0.80000001192093</ele>
        <time>2020-07-23T08:32:33.000Z</time>
      </trkpt>
      <trkpt lat="47.28323" lon="-2.42534">
        <ele>0.80000001192093</ele>
        <time>2020-07-23T08:32:36.000Z</time>
      </trkpt>
      <trkpt lat="47.28327" lon="-2.42521">
        <ele>0.80000001192093</ele>
        <time>2020-07-23T08:32:38.000Z</time>
      </trkpt>
      <trkpt lat="47.28331" lon="-2.42507">
        <ele>0.80000001192093</ele>
        <time>2020-07-23T08:32:40.000Z</time>
      </trkpt>
      <trkpt lat="47.2834" lon="-2.42484">
        <ele>0.80000001192093</ele>
        <time>2020-07-23T08:32:43.000Z</time>
      </trkpt>
      <trkpt lat="47.28365" lon="-2.42423">
        <ele>0.80000001192093</ele>
        <time>2020-07-23T08:32:51.000Z</time>
      </trkpt>
      <trkpt lat="47.28387" lon="-2.42368">
        <ele>0.80000001192093</ele>
        <time>2020-07-23T08:32:58.000Z</time>
      </trkpt>
      <trkpt lat="47.28386" lon="-2.42342">
        <ele>0.80000001192093</ele>
        <time>2020-07-23T08:33:01.000Z</time>
      </trkpt>
      <trkpt lat="47.28385" lon="-2.42333">
        <ele>0.80000001192093</ele>
        <time>2020-07-23T08:33:02.000Z</time>
      </trkpt>
      <trkpt lat="47.28384" lon="-2.42326">
        <ele>0.80000001192093</ele>
        <time>2020-07-23T08:33:03.000Z</time>
      </trkpt>
      <trkpt lat="47.28379" lon="-2.42303">
        <ele>0.80000001192093</ele>
        <time>2020-07-23T08:33:06.000Z</time>
      </trkpt>
      <trkpt lat="47.28378" lon="-2.42294">
        <ele>0.80000001192093</ele>
        <time>2020-07-23T08:33:07.000Z</time>
      </trkpt>
      <trkpt lat="47.28381" lon="-2.42278">
        <ele>0.80000001192093</ele>
        <time>2020-07-23T08:33:09.000Z</time>
      </trkpt>
      <trkpt lat="47.28389" lon="-2.4223">
        <ele>0.80000001192093</ele>
        <time>2020-07-23T08:33:15.000Z</time>
      </trkpt>
      <trkpt lat="47.28396" lon="-2.42197">
        <ele>0.80000001192093</ele>
        <time>2020-07-23T08:33:20.000Z</time>
      </trkpt>
      <trkpt lat="47.284" lon="-2.4218">
        <ele>0.80000001192093</ele>
        <time>2020-07-23T08:33:25.000Z</time>
      </trkpt>
      <trkpt lat="47.28406" lon="-2.42156">
        <ele>0.80000001192093</ele>
        <time>2020-07-23T08:33:30.000Z</time>
      </trkpt>
      <trkpt lat="47.28407" lon="-2.42149">
        <ele>0.80000001192093</ele>
        <time>2020-07-23T08:33:31.000Z</time>
      </trkpt>
      <trkpt lat="47.28412" lon="-2.42126">
        <ele>0.80000001192093</ele>
        <time>2020-07-23T08:33:34.000Z</time>
      </trkpt>
      <trkpt lat="47.28419" lon="-2.42088">
        <ele>0.80000001192093</ele>
        <time>2020-07-23T08:33:39.000Z</time>
      </trkpt>
      <trkpt lat="47.28421" lon="-2.42073">
        <ele>0.80000001192093</ele>
        <time>2020-07-23T08:33:41.000Z</time>
      </trkpt>
      <trkpt lat="47.2843" lon="-2.42028">
        <ele>0.80000001192093</ele>
        <time>2020-07-23T08:33:47.000Z</time>
      </trkpt>
      <trkpt lat="47.28439" lon="-2.41988">
        <ele>0.80000001192093</ele>
        <time>2020-07-23T08:33:53.000Z</time>
      </trkpt>
      <trkpt lat="47.2844" lon="-2.41982">
        <ele>0.80000001192093</ele>
        <time>2020-07-23T08:33:54.000Z</time>
      </trkpt>
      <trkpt lat="47.28446" lon="-2.41958">
        <ele>0.80000001192093</ele>
        <time>2020-07-23T08:33:59.000Z</time>
      </trkpt>
      <trkpt lat="47.28448" lon="-2.41954">
        <ele>0.80000001192093</ele>
        <time>2020-07-23T08:34:00.000Z</time>
      </trkpt>
      <trkpt lat="47.28453" lon="-2.41948">
        <ele>0.80000001192093</ele>
        <time>2020-07-23T08:34:03.000Z</time>
      </trkpt>
      <trkpt lat="47.28469" lon="-2.41944">
        <ele>0.80000001192093</ele>
        <time>2020-07-23T08:34:07.000Z</time>
      </trkpt>
      <trkpt lat="47.28476" lon="-2.41942">
        <ele>0.80000001192093</ele>
        <time>2020-07-23T08:34:08.000Z</time>
      </trkpt>
      <trkpt lat="47.28484" lon="-2.41941">
        <ele>0.40000000596046</ele>
        <time>2020-07-23T08:34:10.000Z</time>
      </trkpt>
      <trkpt lat="47.28488" lon="-2.4194">
        <ele>2.6</ele>
        <time>2020-07-23T08:34:11.000Z</time>
      </trkpt>
      <trkpt lat="47.28491" lon="-2.4194">
        <ele>-0.40000000596046</ele>
        <time>2020-07-23T08:34:12.000Z</time>
      </trkpt>
      <trkpt lat="47.28493" lon="-2.41939">
        <ele>-0.80000001192093</ele>
        <time>2020-07-23T08:34:13.000Z</time>
      </trkpt>
      <trkpt lat="47.28495" lon="-2.41939">
        <ele>-1.2000000476837</ele>
        <time>2020-07-23T08:34:14.000Z</time>
      </trkpt>
      <trkpt lat="47.28497" lon="-2.41938">
        <ele>-1.2000000476837</ele>
        <time>2020-07-23T08:34:15.000Z</time>
      </trkpt>
      <trkpt lat="47.28505" lon="-2.41933">
        <ele>-1.2000000476837</ele>
        <time>2020-07-23T08:34:19.000Z</time>
      </trkpt>
      <trkpt lat="47.28505" lon="-2.41931">
        <ele>-1.2000000476837</ele>
        <time>2020-07-23T08:34:20.000Z</time>
      </trkpt>
      <trkpt lat="47.28499" lon="-2.41925">
        <ele>-0.80000001192093</ele>
        <time>2020-07-23T08:34:23.000Z</time>
      </trkpt>
      <trkpt lat="47.28498" lon="-2.41918">
        <ele>-0.40000000596046</ele>
        <time>2020-07-23T08:34:24.000Z</time>
      </trkpt>
      <trkpt lat="47.28498" lon="-2.41911">
        <ele>3.1</ele>
        <time>2020-07-23T08:34:25.000Z</time>
      </trkpt>
      <trkpt lat="47.28499" lon="-2.41903">
        <ele>0.40000000596046</ele>
        <time>2020-07-23T08:34:26.000Z</time>
      </trkpt>
      <trkpt lat="47.285" lon="-2.41895">
        <ele>0.80000001192093</ele>
        <time>2020-07-23T08:34:27.000Z</time>
      </trkpt>
      <trkpt lat="47.28507" lon="-2.41851">
        <ele>0.80000001192093</ele>
        <time>2020-07-23T08:34:32.000Z</time>
      </trkpt>
      <trkpt lat="47.28518" lon="-2.41789">
        <ele>0.80000001192093</ele>
        <time>2020-07-23T08:34:39.000Z</time>
      </trkpt>
      <trkpt lat="47.28527" lon="-2.41747">
        <ele>0.80000001192093</ele>
        <time>2020-07-23T08:34:44.000Z</time>
      </trkpt>
      <trkpt lat="47.28535" lon="-2.41735">
        <ele>0.80000001192093</ele>
        <time>2020-07-23T08:34:46.000Z</time>
      </trkpt>
      <trkpt lat="47.28552" lon="-2.41729">
        <ele>0.80000001192093</ele>
        <time>2020-07-23T08:34:49.000Z</time>
      </trkpt>
      <trkpt lat="47.28579" lon="-2.41733">
        <ele>0.80000001192093</ele>
        <time>2020-07-23T08:34:53.000Z</time>
      </trkpt>
      <trkpt lat="47.28604" lon="-2.41752">
        <ele>0.80000001192093</ele>
        <time>2020-07-23T08:34:57.000Z</time>
      </trkpt>
      <trkpt lat="47.28643" lon="-2.41793">
        <ele>0.80000001192093</ele>
        <time>2020-07-23T08:35:04.000Z</time>
      </trkpt>
      <trkpt lat="47.28675" lon="-2.41821">
        <ele>0.80000001192093</ele>
        <time>2020-07-23T08:35:10.000Z</time>
      </trkpt>
      <trkpt lat="47.28711" lon="-2.4185">
        <ele>0.80000001192093</ele>
        <time>2020-07-23T08:35:17.000Z</time>
      </trkpt>
      <trkpt lat="47.28743" lon="-2.41874">
        <ele>0.80000001192093</ele>
        <time>2020-07-23T08:35:23.000Z</time>
      </trkpt>
      <trkpt lat="47.28777" lon="-2.41894">
        <ele>0.80000001192093</ele>
        <time>2020-07-23T08:35:29.000Z</time>
      </trkpt>
      <trkpt lat="47.28787" lon="-2.41906">
        <ele>0.80000001192093</ele>
        <time>2020-07-23T08:35:31.000Z</time>
      </trkpt>
      <trkpt lat="47.28793" lon="-2.41934">
        <ele>0.80000001192093</ele>
        <time>2020-07-23T08:35:34.000Z</time>
      </trkpt>
      <trkpt lat="47.28794" lon="-2.41965">
        <ele>0.80000001192093</ele>
        <time>2020-07-23T08:35:37.000Z</time>
      </trkpt>
      <trkpt lat="47.28795" lon="-2.41975">
        <ele>0.80000001192093</ele>
        <time>2020-07-23T08:35:38.000Z</time>
      </trkpt>
      <trkpt lat="47.28795" lon="-2.41984">
        <ele>0.80000001192093</ele>
        <time>2020-07-23T08:35:39.000Z</time>
      </trkpt>
      <trkpt lat="47.28802" lon="-2.42022">
        <ele>0.80000001192093</ele>
        <time>2020-07-23T08:35:43.000Z</time>
      </trkpt>
      <trkpt lat="47.28811" lon="-2.42066">
        <ele>0.80000001192093</ele>
        <time>2020-07-23T08:35:48.000Z</time>
      </trkpt>
      <trkpt lat="47.28809" lon="-2.42085">
        <ele>0.80000001192093</ele>
        <time>2020-07-23T08:35:50.000Z</time>
      </trkpt>
      <trkpt lat="47.28795" lon="-2.42128">
        <ele>0.80000001192093</ele>
        <time>2020-07-23T08:35:55.000Z</time>
      </trkpt>
      <trkpt lat="47.28777" lon="-2.42143">
        <ele>0.80000001192093</ele>
        <time>2020-07-23T08:35:58.000Z</time>
      </trkpt>
      <trkpt lat="47.28771" lon="-2.42147">
        <ele>0.80000001192093</ele>
        <time>2020-07-23T08:35:59.000Z</time>
      </trkpt>
      <trkpt lat="47.28729" lon="-2.42177">
        <ele>0.80000001192093</ele>
        <time>2020-07-23T08:36:06.000Z</time>
      </trkpt>
      <trkpt lat="47.28716" lon="-2.42189">
        <ele>0.80000001192093</ele>
        <time>2020-07-23T08:36:10.000Z</time>
      </trkpt>
      <trkpt lat="47.28707" lon="-2.42197">
        <ele>0.80000001192093</ele>
        <time>2020-07-23T08:36:15.000Z</time>
      </trkpt>
      <trkpt lat="47.28702" lon="-2.42212">
        <ele>0.80000001192093</ele>
        <time>2020-07-23T08:36:20.000Z</time>
      </trkpt>
      <trkpt lat="47.287" lon="-2.42218">
        <ele>0.80000001192093</ele>
        <time>2020-07-23T08:36:21.000Z</time>
      </trkpt>
      <trkpt lat="47.2869" lon="-2.42247">
        <ele>0.80000001192093</ele>
        <time>2020-07-23T08:36:25.000Z</time>
      </trkpt>
      <trkpt lat="47.28679" lon="-2.42302">
        <ele>0.80000001192093</ele>
        <time>2020-07-23T08:36:31.000Z</time>
      </trkpt>
      <trkpt lat="47.28671" lon="-2.4237">
        <ele>0.80000001192093</ele>
        <time>2020-07-23T08:36:38.000Z</time>
      </trkpt>
      <trkpt lat="47.2867" lon="-2.42379">
        <ele>0.80000001192093</ele>
        <time>2020-07-23T08:36:39.000Z</time>
      </trkpt>
      <trkpt lat="47.28663" lon="-2.42394">
        <ele>0.80000001192093</ele>
        <time>2020-07-23T08:36:41.000Z</time>
      </trkpt>
      <trkpt lat="47.28653" lon="-2.42407">
        <ele>0.80000001192093</ele>
        <time>2020-07-23T08:36:43.000Z</time>
      </trkpt>
      <trkpt lat="47.28638" lon="-2.42424">
        <ele>0.80000001192093</ele>
        <time>2020-07-23T08:36:46.000Z</time>
      </trkpt>
      <trkpt lat="47.28605" lon="-2.42454">
        <ele>0.80000001192093</ele>
        <time>2020-07-23T08:36:52.000Z</time>
      </trkpt>
      <trkpt lat="47.28575" lon="-2.42493">
        <ele>0.80000001192093</ele>
        <time>2020-07-23T08:36:58.000Z</time>
      </trkpt>
      <trkpt lat="47.28572" lon="-2.42501">
        <ele>0.80000001192093</ele>
        <time>2020-07-23T08:36:59.000Z</time>
      </trkpt>
      <trkpt lat="47.28565" lon="-2.42537">
        <ele>0.80000001192093</ele>
        <time>2020-07-23T08:37:03.000Z</time>
      </trkpt>
      <trkpt lat="47.28569" lon="-2.42566">
        <ele>0.80000001192093</ele>
        <time>2020-07-23T08:37:06.000Z</time>
      </trkpt>
      <trkpt lat="47.28585" lon="-2.42599">
        <ele>0.80000001192093</ele>
        <time>2020-07-23T08:37:10.000Z</time>
      </trkpt>
      <trkpt lat="47.2859" lon="-2.42607">
        <ele>0.80000001192093</ele>
        <time>2020-07-23T08:37:11.000Z</time>
      </trkpt>
      <trkpt lat="47.28596" lon="-2.42613">
        <ele>0.80000001192093</ele>
        <time>2020-07-23T08:37:12.000Z</time>
      </trkpt>
      <trkpt lat="47.28609" lon="-2.42624">
        <ele>0.80000001192093</ele>
        <time>2020-07-23T08:37:14.000Z</time>
      </trkpt>
      <trkpt lat="47.28641" lon="-2.42647">
        <ele>0.80000001192093</ele>
        <time>2020-07-23T08:37:19.000Z</time>
      </trkpt>
      <trkpt lat="47.28648" lon="-2.42649">
        <ele>0.80000001192093</ele>
        <time>2020-07-23T08:37:20.000Z</time>
      </trkpt>
      <trkpt lat="47.28687" lon="-2.42658">
        <ele>0.80000001192093</ele>
        <time>2020-07-23T08:37:26.000Z</time>
      </trkpt>
      <trkpt lat="47.28716" lon="-2.42669">
        <ele>0.80000001192093</ele>
        <time>2020-07-23T08:37:31.000Z</time>
      </trkpt>
      <trkpt lat="47.2872" lon="-2.42675">
        <ele>0.80000001192093</ele>
        <time>2020-07-23T08:37:32.000Z</time>
      </trkpt>
      <trkpt lat="47.28721" lon="-2.42699">
        <ele>0.80000001192093</ele>
        <time>2020-07-23T08:37:35.000Z</time>
      </trkpt>
      <trkpt lat="47.28721" lon="-2.42708">
        <ele>0.80000001192093</ele>
        <time>2020-07-23T08:37:36.000Z</time>
      </trkpt>
      <trkpt lat="47.28715" lon="-2.42753">
        <ele>0.80000001192093</ele>
        <time>2020-07-23T08:37:41.000Z</time>
      </trkpt>
      <trkpt lat="47.28702" lon="-2.42786">
        <ele>0.80000001192093</ele>
        <time>2020-07-23T08:37:45.000Z</time>
      </trkpt>
      <trkpt lat="47.28676" lon="-2.42841">
        <ele>0.80000001192093</ele>
        <time>2020-07-23T08:37:52.000Z</time>
      </trkpt>
      <trkpt lat="47.2867" lon="-2.42876">
        <ele>0.80000001192093</ele>
        <time>2020-07-23T08:37:56.000Z</time>
      </trkpt>
      <trkpt lat="47.28669" lon="-2.42885">
        <ele>0.80000001192093</ele>
        <time>2020-07-23T08:37:57.000Z</time>
      </trkpt>
      <trkpt lat="47.28662" lon="-2.42954">
        <ele>0.80000001192093</ele>
        <time>2020-07-23T08:38:05.000Z</time>
      </trkpt>
      <trkpt lat="47.28651" lon="-2.43017">
        <ele>0.80000001192093</ele>
        <time>2020-07-23T08:38:12.000Z</time>
      </trkpt>
      <trkpt lat="47.28644" lon="-2.43054">
        <ele>0.80000001192093</ele>
        <time>2020-07-23T08:38:16.000Z</time>
      </trkpt>
      <trkpt lat="47.28638" lon="-2.43082">
        <ele>0.80000001192093</ele>
        <time>2020-07-23T08:38:19.000Z</time>
      </trkpt>
      <trkpt lat="47.28635" lon="-2.43092">
        <ele>0.80000001192093</ele>
        <time>2020-07-23T08:38:20.000Z</time>
      </trkpt>
      <trkpt lat="47.28627" lon="-2.43134">
        <ele>0.80000001192093</ele>
        <time>2020-07-23T08:38:24.000Z</time>
      </trkpt>
      <trkpt lat="47.28626" lon="-2.43163">
        <ele>0.80000001192093</ele>
        <time>2020-07-23T08:38:27.000Z</time>
      </trkpt>
      <trkpt lat="47.28628" lon="-2.43172">
        <ele>0.80000001192093</ele>
        <time>2020-07-23T08:38:28.000Z</time>
      </trkpt>
      <trkpt lat="47.28632" lon="-2.4319">
        <ele>0.80000001192093</ele>
        <time>2020-07-23T08:38:30.000Z</time>
      </trkpt>
      <trkpt lat="47.28639" lon="-2.43213">
        <ele>0.80000001192093</ele>
        <time>2020-07-23T08:38:33.000Z</time>
      </trkpt>
      <trkpt lat="47.28643" lon="-2.43219">
        <ele>0.80000001192093</ele>
        <time>2020-07-23T08:38:34.000Z</time>
      </trkpt>
      <trkpt lat="47.28652" lon="-2.43237">
        <ele>0.80000001192093</ele>
        <time>2020-07-23T08:38:37.000Z</time>
      </trkpt>
      <trkpt lat="47.28647" lon="-2.43249">
        <ele>0.80000001192093</ele>
        <time>2020-07-23T08:38:40.000Z</time>
      </trkpt>
      <trkpt lat="47.28625" lon="-2.43257">
        <ele>0.80000001192093</ele>
        <time>2020-07-23T08:38:44.000Z</time>
      </trkpt>
      <trkpt lat="47.28607" lon="-2.4326">
        <ele>0.80000001192093</ele>
        <time>2020-07-23T08:38:47.000Z</time>
      </trkpt>
      <trkpt lat="47.28598" lon="-2.43252">
        <ele>0.80000001192093</ele>
        <time>2020-07-23T08:38:49.000Z</time>
      </trkpt>
      <trkpt lat="47.28594" lon="-2.43229">
        <ele>0.80000001192093</ele>
        <time>2020-07-23T08:38:52.000Z</time>
      </trkpt>
      <trkpt lat="47.28593" lon="-2.43221">
        <ele>0.80000001192093</ele>
        <time>2020-07-23T08:38:53.000Z</time>
      </trkpt>
      <trkpt lat="47.28593" lon="-2.43176">
        <ele>0.80000001192093</ele>
        <time>2020-07-23T08:38:58.000Z</time>
      </trkpt>
      <trkpt lat="47.28592" lon="-2.43165">
        <ele>0.80000001192093</ele>
        <time>2020-07-23T08:38:59.000Z</time>
      </trkpt>
      <trkpt lat="47.28585" lon="-2.43127">
        <ele>0.80000001192093</ele>
        <time>2020-07-23T08:39:03.000Z</time>
      </trkpt>
      <trkpt lat="47.28579" lon="-2.4311">
        <ele>0.80000001192093</ele>
        <time>2020-07-23T08:39:05.000Z</time>
      </trkpt>
      <trkpt lat="47.28571" lon="-2.43094">
        <ele>0.80000001192093</ele>
        <time>2020-07-23T08:39:07.000Z</time>
      </trkpt>
      <trkpt lat="47.2855" lon="-2.4306">
        <ele>0.80000001192093</ele>
        <time>2020-07-23T08:39:12.000Z</time>
      </trkpt>
      <trkpt lat="47.28536" lon="-2.43043">
        <ele>0.80000001192093</ele>
        <time>2020-07-23T08:39:15.000Z</time>
      </trkpt>
      <trkpt lat="47.28525" lon="-2.43035">
        <ele>0.80000001192093</ele>
        <time>2020-07-23T08:39:17.000Z</time>
      </trkpt>
      <trkpt lat="47.28508" lon="-2.43028">
        <ele>0.80000001192093</ele>
        <time>2020-07-23T08:39:20.000Z</time>
      </trkpt>
      <trkpt lat="47.28497" lon="-2.43024">
        <ele>0.80000001192093</ele>
        <time>2020-07-23T08:39:22.000Z</time>
      </trkpt>
      <trkpt lat="47.28491" lon="-2.43025">
        <ele>0.80000001192093</ele>
        <time>2020-07-23T08:39:23.000Z</time>
      </trkpt>
      <trkpt lat="47.28481" lon="-2.4303">
        <ele>0.80000001192093</ele>
        <time>2020-07-23T08:39:25.000Z</time>
      </trkpt>
      <trkpt lat="47.28475" lon="-2.43034">
        <ele>0.80000001192093</ele>
        <time>2020-07-23T08:39:26.000Z</time>
      </trkpt>
      <trkpt lat="47.28463" lon="-2.43055">
        <ele>0.80000001192093</ele>
        <time>2020-07-23T08:39:29.000Z</time>
      </trkpt>
      <trkpt lat="47.28455" lon="-2.4307">
        <ele>0.80000001192093</ele>
        <time>2020-07-23T08:39:31.000Z</time>
      </trkpt>
      <trkpt lat="47.28441" lon="-2.43088">
        <ele>0.80000001192093</ele>
        <time>2020-07-23T08:39:34.000Z</time>
      </trkpt>
      <trkpt lat="47.28418" lon="-2.43119">
        <ele>0.80000001192093</ele>
        <time>2020-07-23T08:39:39.000Z</time>
      </trkpt>
      <trkpt lat="47.28415" lon="-2.43126">
        <ele>0.80000001192093</ele>
        <time>2020-07-23T08:39:40.000Z</time>
      </trkpt>
      <trkpt lat="47.28388" lon="-2.4316">
        <ele>0.80000001192093</ele>
        <time>2020-07-23T08:39:46.000Z</time>
      </trkpt>
      <trkpt lat="47.2836" lon="-2.43192">
        <ele>0.80000001192093</ele>
        <time>2020-07-23T08:39:52.000Z</time>
      </trkpt>
      <trkpt lat="47.28327" lon="-2.43232">
        <ele>0.80000001192093</ele>
        <time>2020-07-23T08:39:59.000Z</time>
      </trkpt>
      <trkpt lat="47.28323" lon="-2.43239">
        <ele>0.80000001192093</ele>
        <time>2020-07-23T08:40:00.000Z</time>
      </trkpt>
      <trkpt lat="47.28301" lon="-2.43267">
        <ele>0.80000001192093</ele>
        <time>2020-07-23T08:40:06.000Z</time>
      </trkpt>
      <trkpt lat="47.28283" lon="-2.43292">
        <ele>0.80000001192093</ele>
        <time>2020-07-23T08:40:12.000Z</time>
      </trkpt>
      <trkpt lat="47.28278" lon="-2.4331">
        <ele>0.40000000596046</ele>
        <time>2020-07-23T08:40:15.000Z</time>
      </trkpt>
      <trkpt lat="47.28277" lon="-2.43317">
        <ele>2.6</ele>
        <time>2020-07-23T08:40:16.000Z</time>
      </trkpt>
      <trkpt lat="47.28276" lon="-2.43321">
        <ele>-0.40000000596046</ele>
        <time>2020-07-23T08:40:17.000Z</time>
      </trkpt>
      <trkpt lat="47.28276" lon="-2.43326">
        <ele>-0.80000001192093</ele>
        <time>2020-07-23T08:40:18.000Z</time>
      </trkpt>
      <trkpt lat="47.28275" lon="-2.4333">
        <ele>-1.2000000476837</ele>
        <time>2020-07-23T08:40:19.000Z</time>
      </trkpt>
      <trkpt lat="47.28273" lon="-2.43346">
        <ele>-1.2000000476837</ele>
        <time>2020-07-23T08:40:23.000Z</time>
      </trkpt>
      <trkpt lat="47.28273" lon="-2.43358">
        <ele>-1.2000000476837</ele>
        <time>2020-07-23T08:40:28.000Z</time>
      </trkpt>
      <trkpt lat="47.28273" lon="-2.43357">
        <ele>-1.2000000476837</ele>
        <time>2020-07-23T08:40:29.000Z</time>
      </trkpt>
      <trkpt lat="47.28271" lon="-2.43364">
        <ele>-1.2000000476837</ele>
        <time>2020-07-23T08:42:18.000Z</time>
      </trkpt>
      <trkpt lat="47.2827" lon="-2.43368">
        <ele>-1.2000000476837</ele>
        <time>2020-07-23T08:42:19.000Z</time>
      </trkpt>
      <trkpt lat="47.28266" lon="-2.43385">
        <ele>-1.2000000476837</ele>
        <time>2020-07-23T08:42:22.000Z</time>
      </trkpt>
      <trkpt lat="47.28267" lon="-2.4339">
        <ele>-1.2000000476837</ele>
        <time>2020-07-23T08:42:23.000Z</time>
      </trkpt>
      <trkpt lat="47.28275" lon="-2.43401">
        <ele>-1.2000000476837</ele>
        <time>2020-07-23T08:42:26.000Z</time>
      </trkpt>
      <trkpt lat="47.28282" lon="-2.43407">
        <ele>-1.2000000476837</ele>
        <time>2020-07-23T08:42:28.000Z</time>
      </trkpt>
      <trkpt lat="47.28293" lon="-2.43412">
        <ele>-1.2000000476837</ele>
        <time>2020-07-23T08:42:31.000Z</time>
      </trkpt>
      <trkpt lat="47.28304" lon="-2.43417">
        <ele>-1.2000000476837</ele>
        <time>2020-07-23T08:42:37.000Z</time>
      </trkpt>
      <trkpt lat="47.28316" lon="-2.43426">
        <ele>-1.2000000476837</ele>
        <time>2020-07-23T08:42:43.000Z</time>
      </trkpt>
      <trkpt lat="47.28331" lon="-2.4344">
        <ele>-1.2000000476837</ele>
        <time>2020-07-23T08:42:48.000Z</time>
      </trkpt>
      <trkpt lat="47.28362" lon="-2.43464">
        <ele>-1.2000000476837</ele>
        <time>2020-07-23T08:42:55.000Z</time>
      </trkpt>
      <trkpt lat="47.28407" lon="-2.43499">
        <ele>-1.2000000476837</ele>
        <time>2020-07-23T08:43:04.000Z</time>
      </trkpt>
      <trkpt lat="47.28446" lon="-2.43531">
        <ele>-1.2000000476837</ele>
        <time>2020-07-23T08:43:12.000Z</time>
      </trkpt>
      <trkpt lat="47.28487" lon="-2.43562">
        <ele>-1.2000000476837</ele>
        <time>2020-07-23T08:43:20.000Z</time>
      </trkpt>
      <trkpt lat="47.28538" lon="-2.43603">
        <ele>-1.2000000476837</ele>
        <time>2020-07-23T08:43:29.000Z</time>
      </trkpt>
      <trkpt lat="47.2858" lon="-2.43636">
        <ele>-1.2000000476837</ele>
        <time>2020-07-23T08:43:35.000Z</time>
      </trkpt>
      <trkpt lat="47.28632" lon="-2.43678">
        <ele>-1.2000000476837</ele>
        <time>2020-07-23T08:43:43.000Z</time>
      </trkpt>
      <trkpt lat="47.28683" lon="-2.43717">
        <ele>-1.2000000476837</ele>
        <time>2020-07-23T08:43:51.000Z</time>
      </trkpt>
      <trkpt lat="47.28732" lon="-2.43756">
        <ele>-1.2000000476837</ele>
        <time>2020-07-23T08:43:59.000Z</time>
      </trkpt>
      <trkpt lat="47.28784" lon="-2.43797">
        <ele>-1.2000000476837</ele>
        <time>2020-07-23T08:44:08.000Z</time>
      </trkpt>
      <trkpt lat="47.2879" lon="-2.43802">
        <ele>-1.2000000476837</ele>
        <time>2020-07-23T08:44:09.000Z</time>
      </trkpt>
      <trkpt lat="47.28827" lon="-2.43823">
        <ele>-1.2000000476837</ele>
        <time>2020-07-23T08:44:15.000Z</time>
      </trkpt>
      <trkpt lat="47.28833" lon="-2.43825">
        <ele>-1.2000000476837</ele>
        <time>2020-07-23T08:44:16.000Z</time>
      </trkpt>
      <trkpt lat="47.28858" lon="-2.4382">
        <ele>-1.2000000476837</ele>
        <time>2020-07-23T08:44:20.000Z</time>
      </trkpt>
      <trkpt lat="47.28869" lon="-2.43815">
        <ele>-1.2000000476837</ele>
        <time>2020-07-23T08:44:22.000Z</time>
      </trkpt>
      <trkpt lat="47.28894" lon="-2.43805">
        <ele>-1.2000000476837</ele>
        <time>2020-07-23T08:44:26.000Z</time>
      </trkpt>
      <trkpt lat="47.28931" lon="-2.43792">
        <ele>-1.2000000476837</ele>
        <time>2020-07-23T08:44:32.000Z</time>
      </trkpt>
      <trkpt lat="47.28964" lon="-2.43796">
        <ele>-1.2000000476837</ele>
        <time>2020-07-23T08:44:37.000Z</time>
      </trkpt>
      <trkpt lat="47.28991" lon="-2.43809">
        <ele>-1.2000000476837</ele>
        <time>2020-07-23T08:44:42.000Z</time>
      </trkpt>
      <trkpt lat="47.29016" lon="-2.4382">
        <ele>-1.2000000476837</ele>
        <time>2020-07-23T08:44:48.000Z</time>
      </trkpt>
      <trkpt lat="47.2902" lon="-2.43818">
        <ele>-1.2000000476837</ele>
        <time>2020-07-23T08:44:49.000Z</time>
      </trkpt>
      <trkpt lat="47.29031" lon="-2.43808">
        <ele>-1.2000000476837</ele>
        <time>2020-07-23T08:44:52.000Z</time>
      </trkpt>
      <trkpt lat="47.29035" lon="-2.43806">
        <ele>-1.2000000476837</ele>
        <time>2020-07-23T08:44:53.000Z</time>
      </trkpt>
      <trkpt lat="47.29046" lon="-2.43799">
        <ele>-1.2000000476837</ele>
        <time>2020-07-23T08:44:57.000Z</time>
      </trkpt>
      <trkpt lat="47.29053" lon="-2.43791">
        <ele>-1.2000000476837</ele>
        <time>2020-07-23T08:45:02.000Z</time>
      </trkpt>
      <trkpt lat="47.29053" lon="-2.43791">
        <ele>-1.2000000476837</ele>
        <time>2020-07-23T08:45:03.000Z</time>
      </trkpt>
      <trkpt lat="47.29046" lon="-2.43797">
        <ele>-1.2000000476837</ele>
        <time>2020-07-23T08:47:04.000Z</time>
      </trkpt>
      <trkpt lat="47.29042" lon="-2.438">
        <ele>-1.2000000476837</ele>
        <time>2020-07-23T08:47:06.000Z</time>
      </trkpt>
      <trkpt lat="47.29027" lon="-2.4381">
        <ele>-1.2000000476837</ele>
        <time>2020-07-23T08:47:11.000Z</time>
      </trkpt>
      <trkpt lat="47.2902" lon="-2.43817">
        <ele>-1.2000000476837</ele>
        <time>2020-07-23T08:47:14.000Z</time>
      </trkpt>
      <trkpt lat="47.2902" lon="-2.4382">
        <ele>-1.2000000476837</ele>
        <time>2020-07-23T08:47:15.000Z</time>
      </trkpt>
      <trkpt lat="47.29028" lon="-2.43834">
        <ele>-1.2000000476837</ele>
        <time>2020-07-23T08:47:19.000Z</time>
      </trkpt>
      <trkpt lat="47.29031" lon="-2.43837">
        <ele>-1.2000000476837</ele>
        <time>2020-07-23T08:47:20.000Z</time>
      </trkpt>
      <trkpt lat="47.2905" lon="-2.43851">
        <ele>-1.2000000476837</ele>
        <time>2020-07-23T08:47:24.000Z</time>
      </trkpt>
      <trkpt lat="47.29056" lon="-2.43853">
        <ele>-1.2000000476837</ele>
        <time>2020-07-23T08:47:25.000Z</time>
      </trkpt>
      <trkpt lat="47.29066" lon="-2.43851">
        <ele>-1.2000000476837</ele>
        <time>2020-07-23T08:47:27.000Z</time>
      </trkpt>
      <trkpt lat="47.2907" lon="-2.43853">
        <ele>-1.2000000476837</ele>
        <time>2020-07-23T08:47:28.000Z</time>
      </trkpt>
      <trkpt lat="47.29083" lon="-2.43857">
        <ele>-1.2000000476837</ele>
        <time>2020-07-23T08:47:31.000Z</time>
      </trkpt>
      <trkpt lat="47.29102" lon="-2.4385">
        <ele>-1.2000000476837</ele>
        <time>2020-07-23T08:47:35.000Z</time>
      </trkpt>
      <trkpt lat="47.29106" lon="-2.43848">
        <ele>-1.2000000476837</ele>
        <time>2020-07-23T08:47:36.000Z</time>
      </trkpt>
      <trkpt lat="47.29111" lon="-2.43845">
        <ele>-1.2000000476837</ele>
        <time>2020-07-23T08:47:37.000Z</time>
      </trkpt>
      <trkpt lat="47.29138" lon="-2.43824">
        <ele>-1.2000000476837</ele>
        <time>2020-07-23T08:47:43.000Z</time>
      </trkpt>
      <trkpt lat="47.29175" lon="-2.43792">
        <ele>-1.2000000476837</ele>
        <time>2020-07-23T08:47:51.000Z</time>
      </trkpt>
      <trkpt lat="47.2922" lon="-2.43753">
        <ele>-1.2000000476837</ele>
        <time>2020-07-23T08:48:00.000Z</time>
      </trkpt>
      <trkpt lat="47.29266" lon="-2.43713">
        <ele>-1.2000000476837</ele>
        <time>2020-07-23T08:48:09.000Z</time>
      </trkpt>
      <trkpt lat="47.29315" lon="-2.43671">
        <ele>-1.2000000476837</ele>
        <time>2020-07-23T08:48:18.000Z</time>
      </trkpt>
      <trkpt lat="47.2932" lon="-2.43666">
        <ele>-1.2000000476837</ele>
        <time>2020-07-23T08:48:19.000Z</time>
      </trkpt>
      <trkpt lat="47.29354" lon="-2.43629">
        <ele>-1.2000000476837</ele>
        <time>2020-07-23T08:48:26.000Z</time>
      </trkpt>
      <trkpt lat="47.29388" lon="-2.43598">
        <ele>-1.2000000476837</ele>
        <time>2020-07-23T08:48:33.000Z</time>
      </trkpt>
      <trkpt lat="47.29428" lon="-2.43582">
        <ele>-1.2000000476837</ele>
        <time>2020-07-23T08:48:40.000Z</time>
      </trkpt>
      <trkpt lat="47.29466" lon="-2.43571">
        <ele>-1.2000000476837</ele>
        <time>2020-07-23T08:48:46.000Z</time>
      </trkpt>
      <trkpt lat="47.29519" lon="-2.43559">
        <ele>-1.2000000476837</ele>
        <time>2020-07-23T08:48:53.000Z</time>
      </trkpt>
      <trkpt lat="47.29574" lon="-2.43552">
        <ele>-1.2000000476837</ele>
        <time>2020-07-23T08:49:01.000Z</time>
      </trkpt>
      <trkpt lat="47.29613" lon="-2.43543">
        <ele>-1.2000000476837</ele>
        <time>2020-07-23T08:49:08.000Z</time>
      </trkpt>
      <trkpt lat="47.29618" lon="-2.4354">
        <ele>-1.2000000476837</ele>
        <time>2020-07-23T08:49:09.000Z</time>
      </trkpt>
      <trkpt lat="47.29627" lon="-2.43528">
        <ele>-1.2000000476837</ele>
        <time>2020-07-23T08:49:11.000Z</time>
      </trkpt>
      <trkpt lat="47.29642" lon="-2.43524">
        <ele>-1.2000000476837</ele>
        <time>2020-07-23T08:49:14.000Z</time>
      </trkpt>
      <trkpt lat="47.29666" lon="-2.43517">
        <ele>-1.2000000476837</ele>
        <time>2020-07-23T08:49:18.000Z</time>
      </trkpt>
      <trkpt lat="47.29673" lon="-2.43513">
        <ele>-1.2000000476837</ele>
        <time>2020-07-23T08:49:19.000Z</time>
      </trkpt>
      <trkpt lat="47.29711" lon="-2.43486">
        <ele>-1.2000000476837</ele>
        <time>2020-07-23T08:49:25.000Z</time>
      </trkpt>
      <trkpt lat="47.29757" lon="-2.43447">
        <ele>-1.2000000476837</ele>
        <time>2020-07-23T08:49:33.000Z</time>
      </trkpt>
      <trkpt lat="47.2979" lon="-2.43412">
        <ele>-1.2000000476837</ele>
        <time>2020-07-23T08:49:40.000Z</time>
      </trkpt>
      <trkpt lat="47.29831" lon="-2.43367">
        <ele>-1.2000000476837</ele>
        <time>2020-07-23T08:49:48.000Z</time>
      </trkpt>
      <trkpt lat="47.29861" lon="-2.43337">
        <ele>-1.2000000476837</ele>
        <time>2020-07-23T08:49:55.000Z</time>
      </trkpt>
      <trkpt lat="47.29876" lon="-2.43323">
        <ele>-1.2000000476837</ele>
        <time>2020-07-23T08:49:59.000Z</time>
      </trkpt>
      <trkpt lat="47.29885" lon="-2.43322">
        <ele>-1.2000000476837</ele>
        <time>2020-07-23T08:50:01.000Z</time>
      </trkpt>
      <trkpt lat="47.29918" lon="-2.43315">
        <ele>-1.2000000476837</ele>
        <time>2020-07-23T08:50:07.000Z</time>
      </trkpt>
      <trkpt lat="47.29954" lon="-2.43299">
        <ele>-1.2000000476837</ele>
        <time>2020-07-23T08:50:14.000Z</time>
      </trkpt>
      <trkpt lat="47.29964" lon="-2.43295">
        <ele>-1.2000000476837</ele>
        <time>2020-07-23T08:50:16.000Z</time>
      </trkpt>
      <trkpt lat="47.2998" lon="-2.433">
        <ele>-1.2000000476837</ele>
        <time>2020-07-23T08:50:19.000Z</time>
      </trkpt>
      <trkpt lat="47.29995" lon="-2.43314">
        <ele>-1.2000000476837</ele>
        <time>2020-07-23T08:50:22.000Z</time>
      </trkpt>
      <trkpt lat="47.30005" lon="-2.43323">
        <ele>-1.2000000476837</ele>
        <time>2020-07-23T08:50:24.000Z</time>
      </trkpt>
      <trkpt lat="47.3001" lon="-2.43326">
        <ele>-1.2000000476837</ele>
        <time>2020-07-23T08:50:25.000Z</time>
      </trkpt>
      <trkpt lat="47.30034" lon="-2.43336">
        <ele>-1.2000000476837</ele>
        <time>2020-07-23T08:50:29.000Z</time>
      </trkpt>
      <trkpt lat="47.30053" lon="-2.43336">
        <ele>-1.2000000476837</ele>
        <time>2020-07-23T08:50:32.000Z</time>
      </trkpt>
      <trkpt lat="47.30072" lon="-2.43333">
        <ele>-1.2000000476837</ele>
        <time>2020-07-23T08:50:35.000Z</time>
      </trkpt>
      <trkpt lat="47.30123" lon="-2.43321">
        <ele>-1.2000000476837</ele>
        <time>2020-07-23T08:50:43.000Z</time>
      </trkpt>
      <trkpt lat="47.30169" lon="-2.43307">
        <ele>-1.2000000476837</ele>
        <time>2020-07-23T08:50:50.000Z</time>
      </trkpt>
      <trkpt lat="47.30221" lon="-2.43282">
        <ele>-1.2000000476837</ele>
        <time>2020-07-23T08:50:58.000Z</time>
      </trkpt>
      <trkpt lat="47.30269" lon="-2.43263">
        <ele>-1.2000000476837</ele>
        <time>2020-07-23T08:51:05.000Z</time>
      </trkpt>
      <trkpt lat="47.30282" lon="-2.43258">
        <ele>-1.2000000476837</ele>
        <time>2020-07-23T08:51:07.000Z</time>
      </trkpt>
      <trkpt lat="47.30303" lon="-2.43252">
        <ele>-1.2000000476837</ele>
        <time>2020-07-23T08:51:10.000Z</time>
      </trkpt>
      <trkpt lat="47.30341" lon="-2.43245">
        <ele>-1.2000000476837</ele>
        <time>2020-07-23T08:51:16.000Z</time>
      </trkpt>
      <trkpt lat="47.30362" lon="-2.43239">
        <ele>-1.2000000476837</ele>
        <time>2020-07-23T08:51:20.000Z</time>
      </trkpt>
      <trkpt lat="47.30366" lon="-2.43237">
        <ele>-1.2000000476837</ele>
        <time>2020-07-23T08:51:21.000Z</time>
      </trkpt>
      <trkpt lat="47.3038" lon="-2.43233">
        <ele>-1.2000000476837</ele>
        <time>2020-07-23T08:51:24.000Z</time>
      </trkpt>
      <trkpt lat="47.30384" lon="-2.43236">
        <ele>-1.2000000476837</ele>
        <time>2020-07-23T08:51:25.000Z</time>
      </trkpt>
      <trkpt lat="47.30396" lon="-2.43253">
        <ele>-1.2000000476837</ele>
        <time>2020-07-23T08:51:28.000Z</time>
      </trkpt>
      <trkpt lat="47.30404" lon="-2.43276">
        <ele>-1.2000000476837</ele>
        <time>2020-07-23T08:51:31.000Z</time>
      </trkpt>
      <trkpt lat="47.30406" lon="-2.43286">
        <ele>-1.2000000476837</ele>
        <time>2020-07-23T08:51:32.000Z</time>
      </trkpt>
      <trkpt lat="47.3042" lon="-2.4335">
        <ele>-1.2000000476837</ele>
        <time>2020-07-23T08:51:39.000Z</time>
      </trkpt>
      <trkpt lat="47.30428" lon="-2.43404">
        <ele>-1.2000000476837</ele>
        <time>2020-07-23T08:51:45.000Z</time>
      </trkpt>
      <trkpt lat="47.30433" lon="-2.43418">
        <ele>-1.2000000476837</ele>
        <time>2020-07-23T08:51:47.000Z</time>
      </trkpt>
      <trkpt lat="47.30439" lon="-2.4342">
        <ele>-1.2000000476837</ele>
        <time>2020-07-23T08:51:48.000Z</time>
      </trkpt>
      <trkpt lat="47.30451" lon="-2.43419">
        <ele>-1.2000000476837</ele>
        <time>2020-07-23T08:51:50.000Z</time>
      </trkpt>
      <trkpt lat="47.30463" lon="-2.43415">
        <ele>-1.2000000476837</ele>
        <time>2020-07-23T08:51:52.000Z</time>
      </trkpt>
      <trkpt lat="47.30489" lon="-2.43412">
        <ele>-1.2000000476837</ele>
        <time>2020-07-23T08:51:56.000Z</time>
      </trkpt>
      <trkpt lat="47.30503" lon="-2.43412">
        <ele>-1.2000000476837</ele>
        <time>2020-07-23T08:51:58.000Z</time>
      </trkpt>
      <trkpt lat="47.30563" lon="-2.4342">
        <ele>-1.2000000476837</ele>
        <time>2020-07-23T08:52:07.000Z</time>
      </trkpt>
      <trkpt lat="47.30597" lon="-2.43414">
        <ele>-1.2000000476837</ele>
        <time>2020-07-23T08:52:12.000Z</time>
      </trkpt>
      <trkpt lat="47.30633" lon="-2.43406">
        <ele>-1.2000000476837</ele>
        <time>2020-07-23T08:52:18.000Z</time>
      </trkpt>
      <trkpt lat="47.30677" lon="-2.43395">
        <ele>-1.2000000476837</ele>
        <time>2020-07-23T08:52:25.000Z</time>
      </trkpt>
      <trkpt lat="47.30717" lon="-2.4339">
        <ele>-1.2000000476837</ele>
        <time>2020-07-23T08:52:31.000Z</time>
      </trkpt>
      <trkpt lat="47.3077" lon="-2.43388">
        <ele>-1.2000000476837</ele>
        <time>2020-07-23T08:52:38.000Z</time>
      </trkpt>
      <trkpt lat="47.30821" lon="-2.43383">
        <ele>-1.2000000476837</ele>
        <time>2020-07-23T08:52:45.000Z</time>
      </trkpt>
      <trkpt lat="47.30869" lon="-2.43363">
        <ele>-1.2000000476837</ele>
        <time>2020-07-23T08:52:52.000Z</time>
      </trkpt>
      <trkpt lat="47.30919" lon="-2.43342">
        <ele>-1.2000000476837</ele>
        <time>2020-07-23T08:52:59.000Z</time>
      </trkpt>
      <trkpt lat="47.30978" lon="-2.43317">
        <ele>-1.2000000476837</ele>
        <time>2020-07-23T08:53:07.000Z</time>
      </trkpt>
      <trkpt lat="47.30985" lon="-2.43313">
        <ele>-1.2000000476837</ele>
        <time>2020-07-23T08:53:08.000Z</time>
      </trkpt>
      <trkpt lat="47.3102" lon="-2.43285">
        <ele>-1.2000000476837</ele>
        <time>2020-07-23T08:53:13.000Z</time>
      </trkpt>
      <trkpt lat="47.31053" lon="-2.43239">
        <ele>-1.2000000476837</ele>
        <time>2020-07-23T08:53:19.000Z</time>
      </trkpt>
      <trkpt lat="47.31086" lon="-2.43207">
        <ele>-1.2000000476837</ele>
        <time>2020-07-23T08:53:25.000Z</time>
      </trkpt>
      <trkpt lat="47.31103" lon="-2.43196">
        <ele>-1.2000000476837</ele>
        <time>2020-07-23T08:53:29.000Z</time>
      </trkpt>
      <trkpt lat="47.31111" lon="-2.43195">
        <ele>-1.2000000476837</ele>
        <time>2020-07-23T08:53:33.000Z</time>
      </trkpt>
      <trkpt lat="47.31118" lon="-2.43198">
        <ele>-1.2000000476837</ele>
        <time>2020-07-23T08:53:38.000Z</time>
      </trkpt>
      <trkpt lat="47.31124" lon="-2.43204">
        <ele>-1.2000000476837</ele>
        <time>2020-07-23T08:53:40.000Z</time>
      </trkpt>
      <trkpt lat="47.31131" lon="-2.43214">
        <ele>-1.2000000476837</ele>
        <time>2020-07-23T08:53:42.000Z</time>
      </trkpt>
      <trkpt lat="47.31165" lon="-2.43269">
        <ele>-1.2000000476837</ele>
        <time>2020-07-23T08:53:51.000Z</time>
      </trkpt>
      <trkpt lat="47.3119" lon="-2.43315">
        <ele>-1.2000000476837</ele>
        <time>2020-07-23T08:53:58.000Z</time>
      </trkpt>
      <trkpt lat="47.31202" lon="-2.43355">
        <ele>-1.2000000476837</ele>
        <time>2020-07-23T08:54:04.000Z</time>
      </trkpt>
      <trkpt lat="47.31205" lon="-2.43359">
        <ele>-1.2000000476837</ele>
        <time>2020-07-23T08:54:05.000Z</time>
      </trkpt>
      <trkpt lat="47.31212" lon="-2.43362">
        <ele>-1.2000000476837</ele>
        <time>2020-07-23T08:54:07.000Z</time>
      </trkpt>
      <trkpt lat="47.31219" lon="-2.43359">
        <ele>-1.2000000476837</ele>
        <time>2020-07-23T08:54:09.000Z</time>
      </trkpt>
      <trkpt lat="47.31228" lon="-2.43356">
        <ele>-1.2000000476837</ele>
        <time>2020-07-23T08:54:12.000Z</time>
      </trkpt>
      <trkpt lat="47.31244" lon="-2.43349">
        <ele>-1.2000000476837</ele>
        <time>2020-07-23T08:54:19.000Z</time>
      </trkpt>
      <trkpt lat="47.31259" lon="-2.43343">
        <ele>-1.2000000476837</ele>
        <time>2020-07-23T08:54:26.000Z</time>
      </trkpt>
      <trkpt lat="47.31277" lon="-2.43335">
        <ele>-1.2000000476837</ele>
        <time>2020-07-23T08:54:33.000Z</time>
      </trkpt>
      <trkpt lat="47.31308" lon="-2.43322">
        <ele>-1.2000000476837</ele>
        <time>2020-07-23T08:54:43.000Z</time>
      </trkpt>
      <trkpt lat="47.31328" lon="-2.43316">
        <ele>-1.2000000476837</ele>
        <time>2020-07-23T08:54:50.000Z</time>
      </trkpt>
      <trkpt lat="47.31353" lon="-2.4331">
        <ele>-0.80000001192093</ele>
        <time>2020-07-23T08:54:58.000Z</time>
      </trkpt>
      <trkpt lat="47.31356" lon="-2.43309">
        <ele>-0.40000000596046</ele>
        <time>2020-07-23T08:54:59.000Z</time>
      </trkpt>
      <trkpt lat="47.3136" lon="-2.43309">
        <ele>7</ele>
        <time>2020-07-23T08:55:00.000Z</time>
      </trkpt>
      <trkpt lat="47.31363" lon="-2.43308">
        <ele>0.40000000596046</ele>
        <time>2020-07-23T08:55:01.000Z</time>
      </trkpt>
      <trkpt lat="47.31366" lon="-2.43307">
        <ele>0.80000001192093</ele>
        <time>2020-07-23T08:55:02.000Z</time>
      </trkpt>
      <trkpt lat="47.31388" lon="-2.433">
        <ele>0.80000001192093</ele>
        <time>2020-07-23T08:55:08.000Z</time>
      </trkpt>
      <trkpt lat="47.31424" lon="-2.43291">
        <ele>0.80000001192093</ele>
        <time>2020-07-23T08:55:15.000Z</time>
      </trkpt>
      <trkpt lat="47.31455" lon="-2.43285">
        <ele>0.80000001192093</ele>
        <time>2020-07-23T08:55:21.000Z</time>
      </trkpt>
      <trkpt lat="47.31496" lon="-2.43274">
        <ele>0.80000001192093</ele>
        <time>2020-07-23T08:55:29.000Z</time>
      </trkpt>
      <trkpt lat="47.31501" lon="-2.43272">
        <ele>1.2000000476837</ele>
        <time>2020-07-23T08:55:30.000Z</time>
      </trkpt>
      <trkpt lat="47.31507" lon="-2.43271">
        <ele>1.7999999523163</ele>
        <time>2020-07-23T08:55:31.000Z</time>
      </trkpt>
      <trkpt lat="47.31512" lon="-2.4327">
        <ele>2.2000000476837</ele>
        <time>2020-07-23T08:55:32.000Z</time>
      </trkpt>
      <trkpt lat="47.31517" lon="-2.43269">
        <ele>2.5999999046326</ele>
        <time>2020-07-23T08:55:33.000Z</time>
      </trkpt>
      <trkpt lat="47.31522" lon="-2.43268">
        <ele>3</ele>
        <time>2020-07-23T08:55:34.000Z</time>
      </trkpt>
      <trkpt lat="47.3154" lon="-2.43262">
        <ele>3</ele>
        <time>2020-07-23T08:55:37.000Z</time>
      </trkpt>
      <trkpt lat="47.31589" lon="-2.43244">
        <ele>3</ele>
        <time>2020-07-23T08:55:45.000Z</time>
      </trkpt>
      <trkpt lat="47.31607" lon="-2.43236">
        <ele>3.4000000953674</ele>
        <time>2020-07-23T08:55:48.000Z</time>
      </trkpt>
      <trkpt lat="47.31613" lon="-2.43233">
        <ele>3.7999999523163</ele>
        <time>2020-07-23T08:55:49.000Z</time>
      </trkpt>
      <trkpt lat="47.31619" lon="-2.4323">
        <ele>4.1999998092651</ele>
        <time>2020-07-23T08:55:50.000Z</time>
      </trkpt>
      <trkpt lat="47.31625" lon="-2.43227">
        <ele>4.8000001907349</ele>
        <time>2020-07-23T08:55:51.000Z</time>
      </trkpt>
      <trkpt lat="47.31631" lon="-2.43224">
        <ele>5.1999998092651</ele>
        <time>2020-07-23T08:55:52.000Z</time>
      </trkpt>
      <trkpt lat="47.31636" lon="-2.43219">
        <ele>5.1999998092651</ele>
        <time>2020-07-23T08:55:53.000Z</time>
      </trkpt>
      <trkpt lat="47.31669" lon="-2.43184">
        <ele>5.1999998092651</ele>
        <time>2020-07-23T08:56:00.000Z</time>
      </trkpt>
      <trkpt lat="47.31686" lon="-2.43163">
        <ele>5.5999999046326</ele>
        <time>2020-07-23T08:56:04.000Z</time>
      </trkpt>
      <trkpt lat="47.3169" lon="-2.43158">
        <ele>6</ele>
        <time>2020-07-23T08:56:05.000Z</time>
      </trkpt>
      <trkpt lat="47.31694" lon="-2.43153">
        <ele>6.8000001907349</ele>
        <time>2020-07-23T08:56:06.000Z</time>
      </trkpt>
      <trkpt lat="47.31699" lon="-2.43149">
        <ele>7.1999998092651</ele>
        <time>2020-07-23T08:56:07.000Z</time>
      </trkpt>
      <trkpt lat="47.31719" lon="-2.43128">
        <ele>7.1999998092651</ele>
        <time>2020-07-23T08:56:12.000Z</time>
      </trkpt>
      <trkpt lat="47.31722" lon="-2.43124">
        <ele>7.5999999046326</ele>
        <time>2020-07-23T08:56:13.000Z</time>
      </trkpt>
      <trkpt lat="47.31726" lon="-2.43119">
        <ele>8</ele>
        <time>2020-07-23T08:56:14.000Z</time>
      </trkpt>
      <trkpt lat="47.31729" lon="-2.43115">
        <ele>8.3999996185303</ele>
        <time>2020-07-23T08:56:15.000Z</time>
      </trkpt>
      <trkpt lat="47.31733" lon="-2.43111">
        <ele>8.8000001907349</ele>
        <time>2020-07-23T08:56:16.000Z</time>
      </trkpt>
      <trkpt lat="47.31736" lon="-2.43107">
        <ele>9.1999998092651</ele>
        <time>2020-07-23T08:56:17.000Z</time>
      </trkpt>
      <trkpt lat="47.31743" lon="-2.43099">
        <ele>9.1999998092651</ele>
        <time>2020-07-23T08:56:19.000Z</time>
      </trkpt>
      <trkpt lat="47.31757" lon="-2.43083">
        <ele>9.8000001907349</ele>
        <time>2020-07-23T08:56:23.000Z</time>
      </trkpt>
      <trkpt lat="47.3176" lon="-2.43078">
        <ele>10.199999809265</ele>
        <time>2020-07-23T08:56:24.000Z</time>
      </trkpt>
      <trkpt lat="47.31763" lon="-2.43074">
        <ele>10.60000038147</ele>
        <time>2020-07-23T08:56:25.000Z</time>
      </trkpt>
      <trkpt lat="47.31766" lon="-2.43071">
        <ele>11</ele>
        <time>2020-07-23T08:56:26.000Z</time>
      </trkpt>
      <trkpt lat="47.3177" lon="-2.43067">
        <ele>11.39999961853</ele>
        <time>2020-07-23T08:56:27.000Z</time>
      </trkpt>
      <trkpt lat="47.31781" lon="-2.43055">
        <ele>11.800000190735</ele>
        <time>2020-07-23T08:56:31.000Z</time>
      </trkpt>
      <trkpt lat="47.31784" lon="-2.43052">
        <ele>12.199999809265</ele>
        <time>2020-07-23T08:56:32.000Z</time>
      </trkpt>
      <trkpt lat="47.31786" lon="-2.43049">
        <ele>12.800000190735</ele>
        <time>2020-07-23T08:56:33.000Z</time>
      </trkpt>
      <trkpt lat="47.31789" lon="-2.43046">
        <ele>13.199999809265</ele>
        <time>2020-07-23T08:56:34.000Z</time>
      </trkpt>
      <trkpt lat="47.31791" lon="-2.43044">
        <ele>13.60000038147</ele>
        <time>2020-07-23T08:56:35.000Z</time>
      </trkpt>
      <trkpt lat="47.31803" lon="-2.43031">
        <ele>14</ele>
        <time>2020-07-23T08:56:40.000Z</time>
      </trkpt>
      <trkpt lat="47.31805" lon="-2.43028">
        <ele>14.39999961853</ele>
        <time>2020-07-23T08:56:41.000Z</time>
      </trkpt>
      <trkpt lat="47.31807" lon="-2.43026">
        <ele>14.800000190735</ele>
        <time>2020-07-23T08:56:42.000Z</time>
      </trkpt>
      <trkpt lat="47.31809" lon="-2.43024">
        <ele>15.39999961853</ele>
        <time>2020-07-23T08:56:43.000Z</time>
      </trkpt>
      <trkpt lat="47.31811" lon="-2.43023">
        <ele>15.800000190735</ele>
        <time>2020-07-23T08:56:44.000Z</time>
      </trkpt>
      <trkpt lat="47.31819" lon="-2.43017">
        <ele>15.800000190735</ele>
        <time>2020-07-23T08:56:48.000Z</time>
      </trkpt>
      <trkpt lat="47.31821" lon="-2.43015">
        <ele>16.200000762939</ele>
        <time>2020-07-23T08:56:49.000Z</time>
      </trkpt>
      <trkpt lat="47.31824" lon="-2.43014">
        <ele>16.60000038147</ele>
        <time>2020-07-23T08:56:50.000Z</time>
      </trkpt>
      <trkpt lat="47.31826" lon="-2.43014">
        <ele>17</ele>
        <time>2020-07-23T08:56:51.000Z</time>
      </trkpt>
      <trkpt lat="47.31828" lon="-2.43014">
        <ele>17.39999961853</ele>
        <time>2020-07-23T08:56:52.000Z</time>
      </trkpt>
      <trkpt lat="47.31831" lon="-2.43014">
        <ele>17.799999237061</ele>
        <time>2020-07-23T08:56:53.000Z</time>
      </trkpt>
      <trkpt lat="47.31835" lon="-2.43014">
        <ele>17.799999237061</ele>
        <time>2020-07-23T08:56:54.000Z</time>
      </trkpt>
      <trkpt lat="47.31858" lon="-2.4301">
        <ele>17.799999237061</ele>
        <time>2020-07-23T08:57:00.000Z</time>
      </trkpt>
      <trkpt lat="47.31869" lon="-2.43007">
        <ele>17.799999237061</ele>
        <time>2020-07-23T08:57:03.000Z</time>
      </trkpt>
      <trkpt lat="47.31881" lon="-2.42998">
        <ele>18.39999961853</ele>
        <time>2020-07-23T08:57:06.000Z</time>
      </trkpt>
      <trkpt lat="47.31884" lon="-2.42995">
        <ele>18.799999237061</ele>
        <time>2020-07-23T08:57:07.000Z</time>
      </trkpt>
      <trkpt lat="47.31888" lon="-2.42992">
        <ele>19.200000762939</ele>
        <time>2020-07-23T08:57:08.000Z</time>
      </trkpt>
      <trkpt lat="47.31892" lon="-2.42989">
        <ele>19.60000038147</ele>
        <time>2020-07-23T08:57:09.000Z</time>
      </trkpt>
      <trkpt lat="47.31895" lon="-2.42985">
        <ele>20</ele>
        <time>2020-07-23T08:57:10.000Z</time>
      </trkpt>
      <trkpt lat="47.31906" lon="-2.42972">
        <ele>20</ele>
        <time>2020-07-23T08:57:13.000Z</time>
      </trkpt>
      <trkpt lat="47.31935" lon="-2.42939">
        <ele>20</ele>
        <time>2020-07-23T08:57:21.000Z</time>
      </trkpt>
      <trkpt lat="47.31938" lon="-2.42935">
        <ele>20.39999961853</ele>
        <time>2020-07-23T08:57:22.000Z</time>
      </trkpt>
      <trkpt lat="47.31942" lon="-2.42931">
        <ele>20.799999237061</ele>
        <time>2020-07-23T08:57:23.000Z</time>
      </trkpt>
      <trkpt lat="47.31945" lon="-2.42927">
        <ele>21.200000762939</ele>
        <time>2020-07-23T08:57:24.000Z</time>
      </trkpt>
      <trkpt lat="47.31948" lon="-2.42923">
        <ele>21.60000038147</ele>
        <time>2020-07-23T08:57:25.000Z</time>
      </trkpt>
      <trkpt lat="47.31951" lon="-2.42919">
        <ele>22</ele>
        <time>2020-07-23T08:57:26.000Z</time>
      </trkpt>
      <trkpt lat="47.31958" lon="-2.42911">
        <ele>22</ele>
        <time>2020-07-23T08:57:28.000Z</time>
      </trkpt>
      <trkpt lat="47.31982" lon="-2.4288">
        <ele>22</ele>
        <time>2020-07-23T08:57:36.000Z</time>
      </trkpt>
      <trkpt lat="47.3199" lon="-2.42869">
        <ele>22.39999961853</ele>
        <time>2020-07-23T08:57:39.000Z</time>
      </trkpt>
      <trkpt lat="47.31993" lon="-2.42865">
        <ele>22.799999237061</ele>
        <time>2020-07-23T08:57:40.000Z</time>
      </trkpt>
      <trkpt lat="47.31996" lon="-2.42863">
        <ele>23.200000762939</ele>
        <time>2020-07-23T08:57:41.000Z</time>
      </trkpt>
      <trkpt lat="47.32" lon="-2.42862">
        <ele>23.60000038147</ele>
        <time>2020-07-23T08:57:42.000Z</time>
      </trkpt>
      <trkpt lat="47.32002" lon="-2.42863">
        <ele>24</ele>
        <time>2020-07-23T08:57:43.000Z</time>
      </trkpt>
      <trkpt lat="47.32004" lon="-2.42874">
        <ele>24</ele>
        <time>2020-07-23T08:57:46.000Z</time>
      </trkpt>
      <trkpt lat="47.32004" lon="-2.42885">
        <ele>24</ele>
        <time>2020-07-23T08:57:49.000Z</time>
      </trkpt>
      <trkpt lat="47.32004" lon="-2.42905">
        <ele>24</ele>
        <time>2020-07-23T08:57:53.000Z</time>
      </trkpt>
      <trkpt lat="47.32004" lon="-2.42917">
        <ele>24.39999961853</ele>
        <time>2020-07-23T08:57:55.000Z</time>
      </trkpt>
      <trkpt lat="47.32004" lon="-2.42923">
        <ele>24.799999237061</ele>
        <time>2020-07-23T08:57:56.000Z</time>
      </trkpt>
      <trkpt lat="47.32003" lon="-2.4293">
        <ele>25.200000762939</ele>
        <time>2020-07-23T08:57:57.000Z</time>
      </trkpt>
      <trkpt lat="47.32003" lon="-2.42936">
        <ele>25.60000038147</ele>
        <time>2020-07-23T08:57:58.000Z</time>
      </trkpt>
      <trkpt lat="47.32002" lon="-2.42943">
        <ele>26</ele>
        <time>2020-07-23T08:57:59.000Z</time>
      </trkpt>
      <trkpt lat="47.31999" lon="-2.42989">
        <ele>26</ele>
        <time>2020-07-23T08:58:05.000Z</time>
      </trkpt>
      <trkpt lat="47.32003" lon="-2.43039">
        <ele>26</ele>
        <time>2020-07-23T08:58:10.000Z</time>
      </trkpt>
      <trkpt lat="47.32016" lon="-2.43104">
        <ele>26</ele>
        <time>2020-07-23T08:58:16.000Z</time>
      </trkpt>
      <trkpt lat="47.32028" lon="-2.4316">
        <ele>25.60000038147</ele>
        <time>2020-07-23T08:58:21.000Z</time>
      </trkpt>
      <trkpt lat="47.3203" lon="-2.43171">
        <ele>25.200000762939</ele>
        <time>2020-07-23T08:58:22.000Z</time>
      </trkpt>
      <trkpt lat="47.32032" lon="-2.43182">
        <ele>24.799999237061</ele>
        <time>2020-07-23T08:58:23.000Z</time>
      </trkpt>
      <trkpt lat="47.32035" lon="-2.43193">
        <ele>24.39999961853</ele>
        <time>2020-07-23T08:58:24.000Z</time>
      </trkpt>
      <trkpt lat="47.32037" lon="-2.43203">
        <ele>24</ele>
        <time>2020-07-23T08:58:25.000Z</time>
      </trkpt>
      <trkpt lat="47.32044" lon="-2.43223">
        <ele>24</ele>
        <time>2020-07-23T08:58:28.000Z</time>
      </trkpt>
      <trkpt lat="47.32046" lon="-2.43231">
        <ele>24</ele>
        <time>2020-07-23T08:58:30.000Z</time>
      </trkpt>
      <trkpt lat="47.32044" lon="-2.43235">
        <ele>24</ele>
        <time>2020-07-23T08:58:31.000Z</time>
      </trkpt>
      <trkpt lat="47.32032" lon="-2.43247">
        <ele>24</ele>
        <time>2020-07-23T08:58:34.000Z</time>
      </trkpt>
      <trkpt lat="47.32027" lon="-2.4325">
        <ele>23.60000038147</ele>
        <time>2020-07-23T08:58:35.000Z</time>
      </trkpt>
      <trkpt lat="47.32021" lon="-2.43254">
        <ele>23.200000762939</ele>
        <time>2020-07-23T08:58:36.000Z</time>
      </trkpt>
      <trkpt lat="47.32015" lon="-2.43258">
        <ele>22.799999237061</ele>
        <time>2020-07-23T08:58:37.000Z</time>
      </trkpt>
      <trkpt lat="47.32009" lon="-2.43262">
        <ele>22.39999961853</ele>
        <time>2020-07-23T08:58:38.000Z</time>
      </trkpt>
      <trkpt lat="47.32002" lon="-2.43266">
        <ele>22</ele>
        <time>2020-07-23T08:58:39.000Z</time>
      </trkpt>
      <trkpt lat="47.31984" lon="-2.43279">
        <ele>22</ele>
        <time>2020-07-23T08:58:42.000Z</time>
      </trkpt>
      <trkpt lat="47.3198" lon="-2.43284">
        <ele>21.60000038147</ele>
        <time>2020-07-23T08:58:43.000Z</time>
      </trkpt>
      <trkpt lat="47.31978" lon="-2.43292">
        <ele>21.200000762939</ele>
        <time>2020-07-23T08:58:44.000Z</time>
      </trkpt>
      <trkpt lat="47.31977" lon="-2.433">
        <ele>20.60000038147</ele>
        <time>2020-07-23T08:58:45.000Z</time>
      </trkpt>
      <trkpt lat="47.31976" lon="-2.43308">
        <ele>20.200000762939</ele>
        <time>2020-07-23T08:58:46.000Z</time>
      </trkpt>
      <trkpt lat="47.31975" lon="-2.43317">
        <ele>19.799999237061</ele>
        <time>2020-07-23T08:58:47.000Z</time>
      </trkpt>
      <trkpt lat="47.31968" lon="-2.43357">
        <ele>19.799999237061</ele>
        <time>2020-07-23T08:58:51.000Z</time>
      </trkpt>
      <trkpt lat="47.31963" lon="-2.43378">
        <ele>19.39999961853</ele>
        <time>2020-07-23T08:58:53.000Z</time>
      </trkpt>
      <trkpt lat="47.3196" lon="-2.43388">
        <ele>19</ele>
        <time>2020-07-23T08:58:54.000Z</time>
      </trkpt>
      <trkpt lat="47.31957" lon="-2.43399">
        <ele>18.60000038147</ele>
        <time>2020-07-23T08:58:55.000Z</time>
      </trkpt>
      <trkpt lat="47.31954" lon="-2.4341">
        <ele>18.200000762939</ele>
        <time>2020-07-23T08:58:56.000Z</time>
      </trkpt>
      <trkpt lat="47.3195" lon="-2.43421">
        <ele>17.799999237061</ele>
        <time>2020-07-23T08:58:57.000Z</time>
      </trkpt>
      <trkpt lat="47.31947" lon="-2.43432">
        <ele>17.799999237061</ele>
        <time>2020-07-23T08:58:58.000Z</time>
      </trkpt>
      <trkpt lat="47.31943" lon="-2.43443">
        <ele>17.39999961853</ele>
        <time>2020-07-23T08:58:59.000Z</time>
      </trkpt>
      <trkpt lat="47.31939" lon="-2.43453">
        <ele>17</ele>
        <time>2020-07-23T08:59:00.000Z</time>
      </trkpt>
      <trkpt lat="47.31935" lon="-2.43464">
        <ele>16.39999961853</ele>
        <time>2020-07-23T08:59:01.000Z</time>
      </trkpt>
      <trkpt lat="47.31933" lon="-2.43476">
        <ele>16</ele>
        <time>2020-07-23T08:59:02.000Z</time>
      </trkpt>
      <trkpt lat="47.3193" lon="-2.43488">
        <ele>15.60000038147</ele>
        <time>2020-07-23T08:59:03.000Z</time>
      </trkpt>
      <trkpt lat="47.31928" lon="-2.435">
        <ele>15.60000038147</ele>
        <time>2020-07-23T08:59:04.000Z</time>
      </trkpt>
      <trkpt lat="47.31927" lon="-2.43512">
        <ele>15.199999809265</ele>
        <time>2020-07-23T08:59:05.000Z</time>
      </trkpt>
      <trkpt lat="47.31927" lon="-2.43525">
        <ele>14.800000190735</ele>
        <time>2020-07-23T08:59:06.000Z</time>
      </trkpt>
      <trkpt lat="47.31927" lon="-2.43537">
        <ele>14.199999809265</ele>
        <time>2020-07-23T08:59:07.000Z</time>
      </trkpt>
      <trkpt lat="47.31927" lon="-2.43549">
        <ele>13.800000190735</ele>
        <time>2020-07-23T08:59:08.000Z</time>
      </trkpt>
      <trkpt lat="47.31928" lon="-2.4356">
        <ele>13.39999961853</ele>
        <time>2020-07-23T08:59:09.000Z</time>
      </trkpt>
      <trkpt lat="47.31928" lon="-2.43572">
        <ele>13.39999961853</ele>
        <time>2020-07-23T08:59:10.000Z</time>
      </trkpt>
      <trkpt lat="47.31924" lon="-2.43593">
        <ele>13.39999961853</ele>
        <time>2020-07-23T08:59:12.000Z</time>
      </trkpt>
      <trkpt lat="47.31919" lon="-2.43602">
        <ele>13</ele>
        <time>2020-07-23T08:59:13.000Z</time>
      </trkpt>
      <trkpt lat="47.31913" lon="-2.43609">
        <ele>12.39999961853</ele>
        <time>2020-07-23T08:59:14.000Z</time>
      </trkpt>
      <trkpt lat="47.31906" lon="-2.43616">
        <ele>12</ele>
        <time>2020-07-23T08:59:15.000Z</time>
      </trkpt>
      <trkpt lat="47.319" lon="-2.43621">
        <ele>11.60000038147</ele>
        <time>2020-07-23T08:59:16.000Z</time>
      </trkpt>
      <trkpt lat="47.31895" lon="-2.43627">
        <ele>11</ele>
        <time>2020-07-23T08:59:17.000Z</time>
      </trkpt>
      <trkpt lat="47.31891" lon="-2.43635">
        <ele>11</ele>
        <time>2020-07-23T08:59:18.000Z</time>
      </trkpt>
      <trkpt lat="47.31889" lon="-2.43644">
        <ele>10.60000038147</ele>
        <time>2020-07-23T08:59:19.000Z</time>
      </trkpt>
      <trkpt lat="47.31889" lon="-2.43654">
        <ele>10.199999809265</ele>
        <time>2020-07-23T08:59:20.000Z</time>
      </trkpt>
      <trkpt lat="47.31891" lon="-2.43662">
        <ele>9.6000003814697</ele>
        <time>2020-07-23T08:59:21.000Z</time>
      </trkpt>
      <trkpt lat="47.31895" lon="-2.43669">
        <ele>8.8000001907349</ele>
        <time>2020-07-23T08:59:22.000Z</time>
      </trkpt>
      <trkpt lat="47.31899" lon="-2.43677">
        <ele>8.1999998092651</ele>
        <time>2020-07-23T08:59:23.000Z</time>
      </trkpt>
      <trkpt lat="47.31904" lon="-2.43685">
        <ele>7.8000001907349</ele>
        <time>2020-07-23T08:59:24.000Z</time>
      </trkpt>
      <trkpt lat="47.31908" lon="-2.43694">
        <ele>7.1999998092651</ele>
        <time>2020-07-23T08:59:25.000Z</time>
      </trkpt>
      <trkpt lat="47.31913" lon="-2.43702">
        <ele>6.8000001907349</ele>
        <time>2020-07-23T08:59:26.000Z</time>
      </trkpt>
      <trkpt lat="47.31933" lon="-2.43746">
        <ele>6.8000001907349</ele>
        <time>2020-07-23T08:59:31.000Z</time>
      </trkpt>
      <trkpt lat="47.3194" lon="-2.43763">
        <ele>6.8000001907349</ele>
        <time>2020-07-23T08:59:33.000Z</time>
      </trkpt>
      <trkpt lat="47.31953" lon="-2.43798">
        <ele>6.8000001907349</ele>
        <time>2020-07-23T08:59:37.000Z</time>
      </trkpt>
      <trkpt lat="47.31976" lon="-2.43832">
        <ele>6.8000001907349</ele>
        <time>2020-07-23T08:59:42.000Z</time>
      </trkpt>
      <trkpt lat="47.31981" lon="-2.43836">
        <ele>7.1999998092651</ele>
        <time>2020-07-23T08:59:43.000Z</time>
      </trkpt>
      <trkpt lat="47.31987" lon="-2.43837">
        <ele>7.5999999046326</ele>
        <time>2020-07-23T08:59:44.000Z</time>
      </trkpt>
      <trkpt lat="47.31992" lon="-2.43835">
        <ele>8</ele>
        <time>2020-07-23T08:59:45.000Z</time>
      </trkpt>
      <trkpt lat="47.31997" lon="-2.43831">
        <ele>8.3999996185303</ele>
        <time>2020-07-23T08:59:46.000Z</time>
      </trkpt>
      <trkpt lat="47.32001" lon="-2.43826">
        <ele>8.8000001907349</ele>
        <time>2020-07-23T08:59:47.000Z</time>
      </trkpt>
      <trkpt lat="47.32005" lon="-2.43821">
        <ele>8.8000001907349</ele>
        <time>2020-07-23T08:59:48.000Z</time>
      </trkpt>
      <trkpt lat="47.32016" lon="-2.43807">
        <ele>8.8000001907349</ele>
        <time>2020-07-23T08:59:51.000Z</time>
      </trkpt>
      <trkpt lat="47.3202" lon="-2.43803">
        <ele>9.1999998092651</ele>
        <time>2020-07-23T08:59:52.000Z</time>
      </trkpt>
      <trkpt lat="47.32024" lon="-2.438">
        <ele>9.6000003814697</ele>
        <time>2020-07-23T08:59:53.000Z</time>
      </trkpt>
      <trkpt lat="47.32028" lon="-2.43798">
        <ele>10.199999809265</ele>
        <time>2020-07-23T08:59:54.000Z</time>
      </trkpt>
      <trkpt lat="47.32031" lon="-2.43798">
        <ele>10.60000038147</ele>
        <time>2020-07-23T08:59:55.000Z</time>
      </trkpt>
      <trkpt lat="47.32035" lon="-2.438">
        <ele>11</ele>
        <time>2020-07-23T08:59:56.000Z</time>
      </trkpt>
      <trkpt lat="47.32038" lon="-2.43804">
        <ele>11</ele>
        <time>2020-07-23T08:59:57.000Z</time>
      </trkpt>
      <trkpt lat="47.3204" lon="-2.43808">
        <ele>11.60000038147</ele>
        <time>2020-07-23T08:59:58.000Z</time>
      </trkpt>
      <trkpt lat="47.32043" lon="-2.43814">
        <ele>12</ele>
        <time>2020-07-23T08:59:59.000Z</time>
      </trkpt>
      <trkpt lat="47.32046" lon="-2.4382">
        <ele>12.39999961853</ele>
        <time>2020-07-23T09:00:00.000Z</time>
      </trkpt>
      <trkpt lat="47.32049" lon="-2.43826">
        <ele>13</ele>
        <time>2020-07-23T09:00:01.000Z</time>
      </trkpt>
      <trkpt lat="47.32051" lon="-2.43831">
        <ele>13.39999961853</ele>
        <time>2020-07-23T09:00:02.000Z</time>
      </trkpt>
      <trkpt lat="47.32071" lon="-2.43869">
        <ele>13.800000190735</ele>
        <time>2020-07-23T09:00:08.000Z</time>
      </trkpt>
      <trkpt lat="47.32074" lon="-2.43876">
        <ele>14.199999809265</ele>
        <time>2020-07-23T09:00:09.000Z</time>
      </trkpt>
      <trkpt lat="47.32078" lon="-2.43882">
        <ele>14.60000038147</ele>
        <time>2020-07-23T09:00:10.000Z</time>
      </trkpt>
      <trkpt lat="47.32082" lon="-2.43887">
        <ele>15</ele>
        <time>2020-07-23T09:00:11.000Z</time>
      </trkpt>
      <trkpt lat="47.32087" lon="-2.43892">
        <ele>15.39999961853</ele>
        <time>2020-07-23T09:00:12.000Z</time>
      </trkpt>
      <trkpt lat="47.32096" lon="-2.43899">
        <ele>15.39999961853</ele>
        <time>2020-07-23T09:00:14.000Z</time>
      </trkpt>
      <trkpt lat="47.32123" lon="-2.43914">
        <ele>15.800000190735</ele>
        <time>2020-07-23T09:00:20.000Z</time>
      </trkpt>
      <trkpt lat="47.32127" lon="-2.43918">
        <ele>16.200000762939</ele>
        <time>2020-07-23T09:00:21.000Z</time>
      </trkpt>
      <trkpt lat="47.32131" lon="-2.43921">
        <ele>16.60000038147</ele>
        <time>2020-07-23T09:00:22.000Z</time>
      </trkpt>
      <trkpt lat="47.32134" lon="-2.43925">
        <ele>17</ele>
        <time>2020-07-23T09:00:23.000Z</time>
      </trkpt>
      <trkpt lat="47.32137" lon="-2.43929">
        <ele>17.39999961853</ele>
        <time>2020-07-23T09:00:24.000Z</time>
      </trkpt>
      <trkpt lat="47.32144" lon="-2.43937">
        <ele>17.39999961853</ele>
        <time>2020-07-23T09:00:26.000Z</time>
      </trkpt>
      <trkpt lat="47.32149" lon="-2.43946">
        <ele>18</ele>
        <time>2020-07-23T09:00:28.000Z</time>
      </trkpt>
      <trkpt lat="47.32152" lon="-2.43951">
        <ele>18.39999961853</ele>
        <time>2020-07-23T09:00:29.000Z</time>
      </trkpt>
      <trkpt lat="47.32155" lon="-2.43956">
        <ele>18.799999237061</ele>
        <time>2020-07-23T09:00:30.000Z</time>
      </trkpt>
      <trkpt lat="47.32158" lon="-2.4396">
        <ele>19.200000762939</ele>
        <time>2020-07-23T09:00:31.000Z</time>
      </trkpt>
      <trkpt lat="47.32161" lon="-2.43965">
        <ele>19.60000038147</ele>
        <time>2020-07-23T09:00:32.000Z</time>
      </trkpt>
      <trkpt lat="47.32178" lon="-2.43988">
        <ele>20.60000038147</ele>
        <time>2020-07-23T09:00:37.000Z</time>
      </trkpt>
      <trkpt lat="47.32181" lon="-2.43992">
        <ele>21</ele>
        <time>2020-07-23T09:00:38.000Z</time>
      </trkpt>
      <trkpt lat="47.32185" lon="-2.43997">
        <ele>21.39999961853</ele>
        <time>2020-07-23T09:00:39.000Z</time>
      </trkpt>
      <trkpt lat="47.32188" lon="-2.44001">
        <ele>21.799999237061</ele>
        <time>2020-07-23T09:00:40.000Z</time>
      </trkpt>
      <trkpt lat="47.3221" lon="-2.44026">
        <ele>21.799999237061</ele>
        <time>2020-07-23T09:00:46.000Z</time>
      </trkpt>
      <trkpt lat="47.32231" lon="-2.44043">
        <ele>21.799999237061</ele>
        <time>2020-07-23T09:00:51.000Z</time>
      </trkpt>
      <trkpt lat="47.32241" lon="-2.44046">
        <ele>22.200000762939</ele>
        <time>2020-07-23T09:00:53.000Z</time>
      </trkpt>
      <trkpt lat="47.32245" lon="-2.44046">
        <ele>22.60000038147</ele>
        <time>2020-07-23T09:00:54.000Z</time>
      </trkpt>
      <trkpt lat="47.3225" lon="-2.44046">
        <ele>23.200000762939</ele>
        <time>2020-07-23T09:00:55.000Z</time>
      </trkpt>
      <trkpt lat="47.32255" lon="-2.44047">
        <ele>23.60000038147</ele>
        <time>2020-07-23T09:00:56.000Z</time>
      </trkpt>
      <trkpt lat="47.3226" lon="-2.44047">
        <ele>24</ele>
        <time>2020-07-23T09:00:57.000Z</time>
      </trkpt>
      <trkpt lat="47.32275" lon="-2.44049">
        <ele>24</ele>
        <time>2020-07-23T09:01:00.000Z</time>
      </trkpt>
      <trkpt lat="47.32307" lon="-2.44061">
        <ele>24</ele>
        <time>2020-07-23T09:01:07.000Z</time>
      </trkpt>
      <trkpt lat="47.32323" lon="-2.44068">
        <ele>24.39999961853</ele>
        <time>2020-07-23T09:01:11.000Z</time>
      </trkpt>
      <trkpt lat="47.32328" lon="-2.4407">
        <ele>24.799999237061</ele>
        <time>2020-07-23T09:01:12.000Z</time>
      </trkpt>
      <trkpt lat="47.32332" lon="-2.44071">
        <ele>25.200000762939</ele>
        <time>2020-07-23T09:01:13.000Z</time>
      </trkpt>
      <trkpt lat="47.32336" lon="-2.44072">
        <ele>25.60000038147</ele>
        <time>2020-07-23T09:01:14.000Z</time>
      </trkpt>
      <trkpt lat="47.32341" lon="-2.44072">
        <ele>26</ele>
        <time>2020-07-23T09:01:15.000Z</time>
      </trkpt>
      <trkpt lat="47.3235" lon="-2.44073">
        <ele>26</ele>
        <time>2020-07-23T09:01:17.000Z</time>
      </trkpt>
      <trkpt lat="47.32368" lon="-2.44069">
        <ele>26</ele>
        <time>2020-07-23T09:01:21.000Z</time>
      </trkpt>
      <trkpt lat="47.32377" lon="-2.44066">
        <ele>26</ele>
        <time>2020-07-23T09:01:23.000Z</time>
      </trkpt>
      <trkpt lat="47.32381" lon="-2.44063">
        <ele>26.60000038147</ele>
        <time>2020-07-23T09:01:24.000Z</time>
      </trkpt>
      <trkpt lat="47.32385" lon="-2.44061">
        <ele>27.39999961853</ele>
        <time>2020-07-23T09:01:25.000Z</time>
      </trkpt>
      <trkpt lat="47.32389" lon="-2.44058">
        <ele>27.799999237061</ele>
        <time>2020-07-23T09:01:26.000Z</time>
      </trkpt>
      <trkpt lat="47.32393" lon="-2.44055">
        <ele>28.200000762939</ele>
        <time>2020-07-23T09:01:27.000Z</time>
      </trkpt>
      <trkpt lat="47.32422" lon="-2.44038">
        <ele>28.60000038147</ele>
        <time>2020-07-23T09:01:34.000Z</time>
      </trkpt>
      <trkpt lat="47.32426" lon="-2.44035">
        <ele>29</ele>
        <time>2020-07-23T09:01:35.000Z</time>
      </trkpt>
      <trkpt lat="47.3243" lon="-2.44032">
        <ele>29.39999961853</ele>
        <time>2020-07-23T09:01:36.000Z</time>
      </trkpt>
      <trkpt lat="47.32434" lon="-2.4403">
        <ele>30</ele>
        <time>2020-07-23T09:01:37.000Z</time>
      </trkpt>
      <trkpt lat="47.32439" lon="-2.44027">
        <ele>30.39999961853</ele>
        <time>2020-07-23T09:01:38.000Z</time>
      </trkpt>
      <trkpt lat="47.32455" lon="-2.44015">
        <ele>30.39999961853</ele>
        <time>2020-07-23T09:01:42.000Z</time>
      </trkpt>
      <trkpt lat="47.32483" lon="-2.43995">
        <ele>30.799999237061</ele>
        <time>2020-07-23T09:01:49.000Z</time>
      </trkpt>
      <trkpt lat="47.32487" lon="-2.43993">
        <ele>31.60000038147</ele>
        <time>2020-07-23T09:01:50.000Z</time>
      </trkpt>
      <trkpt lat="47.3249" lon="-2.43991">
        <ele>32</ele>
        <time>2020-07-23T09:01:51.000Z</time>
      </trkpt>
      <trkpt lat="47.32494" lon="-2.43989">
        <ele>32.599998474121</ele>
        <time>2020-07-23T09:01:52.000Z</time>
      </trkpt>
      <trkpt lat="47.32505" lon="-2.43985">
        <ele>32.599998474121</ele>
        <time>2020-07-23T09:01:55.000Z</time>
      </trkpt>
      <trkpt lat="47.32509" lon="-2.43986">
        <ele>32.599998474121</ele>
        <time>2020-07-23T09:01:56.000Z</time>
      </trkpt>
      <trkpt lat="47.32516" lon="-2.43993">
        <ele>32.599998474121</ele>
        <time>2020-07-23T09:01:58.000Z</time>
      </trkpt>
      <trkpt lat="47.32525" lon="-2.44004">
        <ele>32.599998474121</ele>
        <time>2020-07-23T09:02:00.000Z</time>
      </trkpt>
      <trkpt lat="47.32529" lon="-2.44009">
        <ele>32.599998474121</ele>
        <time>2020-07-23T09:02:01.000Z</time>
      </trkpt>
      <trkpt lat="47.32539" lon="-2.44017">
        <ele>32.599998474121</ele>
        <time>2020-07-23T09:02:03.000Z</time>
      </trkpt>
      <trkpt lat="47.32563" lon="-2.44028">
        <ele>32.599998474121</ele>
        <time>2020-07-23T09:02:08.000Z</time>
      </trkpt>
      <trkpt lat="47.32567" lon="-2.4403">
        <ele>32.599998474121</ele>
        <time>2020-07-23T09:02:09.000Z</time>
      </trkpt>
      <trkpt lat="47.32572" lon="-2.44038">
        <ele>32.599998474121</ele>
        <time>2020-07-23T09:02:11.000Z</time>
      </trkpt>
      <trkpt lat="47.3257" lon="-2.44051">
        <ele>32.599998474121</ele>
        <time>2020-07-23T09:02:14.000Z</time>
      </trkpt>
      <trkpt lat="47.32569" lon="-2.44056">
        <ele>32.599998474121</ele>
        <time>2020-07-23T09:02:15.000Z</time>
      </trkpt>
      <trkpt lat="47.32564" lon="-2.44068">
        <ele>33</ele>
        <time>2020-07-23T09:02:17.000Z</time>
      </trkpt>
      <trkpt lat="47.32562" lon="-2.44074">
        <ele>33.400001525879</ele>
        <time>2020-07-23T09:02:18.000Z</time>
      </trkpt>
      <trkpt lat="47.3256" lon="-2.44081">
        <ele>33.799999237061</ele>
        <time>2020-07-23T09:02:19.000Z</time>
      </trkpt>
      <trkpt lat="47.32558" lon="-2.44088">
        <ele>34.200000762939</ele>
        <time>2020-07-23T09:02:20.000Z</time>
      </trkpt>
      <trkpt lat="47.32557" lon="-2.44095">
        <ele>34.599998474121</ele>
        <time>2020-07-23T09:02:21.000Z</time>
      </trkpt>
      <trkpt lat="47.32547" lon="-2.44126">
        <ele>34.599998474121</ele>
        <time>2020-07-23T09:02:25.000Z</time>
      </trkpt>
      <trkpt lat="47.32531" lon="-2.44175">
        <ele>34.599998474121</ele>
        <time>2020-07-23T09:02:31.000Z</time>
      </trkpt>
      <trkpt lat="47.32525" lon="-2.44198">
        <ele>34.599998474121</ele>
        <time>2020-07-23T09:02:34.000Z</time>
      </trkpt>
      <trkpt lat="47.32526" lon="-2.44206">
        <ele>34.599998474121</ele>
        <time>2020-07-23T09:02:35.000Z</time>
      </trkpt>
      <trkpt lat="47.32536" lon="-2.44227">
        <ele>34.599998474121</ele>
        <time>2020-07-23T09:02:39.000Z</time>
      </trkpt>
      <trkpt lat="47.32539" lon="-2.44231">
        <ele>34.599998474121</ele>
        <time>2020-07-23T09:02:40.000Z</time>
      </trkpt>
      <trkpt lat="47.3255" lon="-2.44252">
        <ele>34.599998474121</ele>
        <time>2020-07-23T09:02:46.000Z</time>
      </trkpt>
      <trkpt lat="47.32552" lon="-2.44253">
        <ele>34.599998474121</ele>
        <time>2020-07-23T09:02:49.000Z</time>
      </trkpt>
      <trkpt lat="47.32549" lon="-2.44261">
        <ele>32.599998474121</ele>
        <time>2020-07-23T09:16:11.000Z</time>
      </trkpt>
      <trkpt lat="47.32551" lon="-2.44264">
        <ele>32.599998474121</ele>
        <time>2020-07-23T09:16:12.000Z</time>
      </trkpt>
      <trkpt lat="47.32561" lon="-2.44283">
        <ele>32.599998474121</ele>
        <time>2020-07-23T09:16:17.000Z</time>
      </trkpt>
      <trkpt lat="47.32564" lon="-2.44292">
        <ele>32.200000762939</ele>
        <time>2020-07-23T09:16:19.000Z</time>
      </trkpt>
      <trkpt lat="47.32566" lon="-2.44297">
        <ele>31.799999237061</ele>
        <time>2020-07-23T09:16:20.000Z</time>
      </trkpt>
      <trkpt lat="47.32568" lon="-2.44302">
        <ele>31.39999961853</ele>
        <time>2020-07-23T09:16:21.000Z</time>
      </trkpt>
      <trkpt lat="47.3257" lon="-2.44307">
        <ele>31</ele>
        <time>2020-07-23T09:16:22.000Z</time>
      </trkpt>
      <trkpt lat="47.32572" lon="-2.44312">
        <ele>30.60000038147</ele>
        <time>2020-07-23T09:16:23.000Z</time>
      </trkpt>
      <trkpt lat="47.32576" lon="-2.44321">
        <ele>30.60000038147</ele>
        <time>2020-07-23T09:16:25.000Z</time>
      </trkpt>
      <trkpt lat="47.32582" lon="-2.44338">
        <ele>30.60000038147</ele>
        <time>2020-07-23T09:16:30.000Z</time>
      </trkpt>
      <trkpt lat="47.32593" lon="-2.44363">
        <ele>30.60000038147</ele>
        <time>2020-07-23T09:16:37.000Z</time>
      </trkpt>
      <trkpt lat="47.32604" lon="-2.44374">
        <ele>30.60000038147</ele>
        <time>2020-07-23T09:16:41.000Z</time>
      </trkpt>
      <trkpt lat="47.32618" lon="-2.44382">
        <ele>30.60000038147</ele>
        <time>2020-07-23T09:16:47.000Z</time>
      </trkpt>
      <trkpt lat="47.3264" lon="-2.44386">
        <ele>30.60000038147</ele>
        <time>2020-07-23T09:16:53.000Z</time>
      </trkpt>
      <trkpt lat="47.32677" lon="-2.44396">
        <ele>30.60000038147</ele>
        <time>2020-07-23T09:17:02.000Z</time>
      </trkpt>
      <trkpt lat="47.32699" lon="-2.44401">
        <ele>31</ele>
        <time>2020-07-23T09:17:07.000Z</time>
      </trkpt>
      <trkpt lat="47.32703" lon="-2.44403">
        <ele>31.39999961853</ele>
        <time>2020-07-23T09:17:08.000Z</time>
      </trkpt>
      <trkpt lat="47.32708" lon="-2.44403">
        <ele>31.799999237061</ele>
        <time>2020-07-23T09:17:09.000Z</time>
      </trkpt>
      <trkpt lat="47.32712" lon="-2.44404">
        <ele>32.200000762939</ele>
        <time>2020-07-23T09:17:10.000Z</time>
      </trkpt>
      <trkpt lat="47.32717" lon="-2.44405">
        <ele>32.599998474121</ele>
        <time>2020-07-23T09:17:11.000Z</time>
      </trkpt>
      <trkpt lat="47.32721" lon="-2.44406">
        <ele>32.599998474121</ele>
        <time>2020-07-23T09:17:12.000Z</time>
      </trkpt>
      <trkpt lat="47.32741" lon="-2.44411">
        <ele>32.599998474121</ele>
        <time>2020-07-23T09:17:18.000Z</time>
      </trkpt>
      <trkpt lat="47.32755" lon="-2.44411">
        <ele>32.599998474121</ele>
        <time>2020-07-23T09:17:23.000Z</time>
      </trkpt>
      <trkpt lat="47.32757" lon="-2.44409">
        <ele>32.599998474121</ele>
        <time>2020-07-23T09:17:24.000Z</time>
      </trkpt>
      <trkpt lat="47.32762" lon="-2.44397">
        <ele>32.599998474121</ele>
        <time>2020-07-23T09:17:27.000Z</time>
      </trkpt>
      <trkpt lat="47.32763" lon="-2.4439">
        <ele>33</ele>
        <time>2020-07-23T09:17:28.000Z</time>
      </trkpt>
      <trkpt lat="47.32764" lon="-2.44383">
        <ele>33.400001525879</ele>
        <time>2020-07-23T09:17:29.000Z</time>
      </trkpt>
      <trkpt lat="47.32763" lon="-2.44377">
        <ele>33.799999237061</ele>
        <time>2020-07-23T09:17:30.000Z</time>
      </trkpt>
      <trkpt lat="47.32763" lon="-2.4437">
        <ele>34.200000762939</ele>
        <time>2020-07-23T09:17:31.000Z</time>
      </trkpt>
      <trkpt lat="47.32763" lon="-2.44363">
        <ele>34.799999237061</ele>
        <time>2020-07-23T09:17:32.000Z</time>
      </trkpt>
      <trkpt lat="47.32764" lon="-2.44319">
        <ele>34.799999237061</ele>
        <time>2020-07-23T09:17:38.000Z</time>
      </trkpt>
      <trkpt lat="47.32772" lon="-2.44262">
        <ele>34.799999237061</ele>
        <time>2020-07-23T09:17:45.000Z</time>
      </trkpt>
      <trkpt lat="47.32782" lon="-2.44213">
        <ele>34.799999237061</ele>
        <time>2020-07-23T09:17:51.000Z</time>
      </trkpt>
      <trkpt lat="47.32797" lon="-2.44145">
        <ele>34.799999237061</ele>
        <time>2020-07-23T09:17:59.000Z</time>
      </trkpt>
      <trkpt lat="47.328" lon="-2.4413">
        <ele>34.799999237061</ele>
        <time>2020-07-23T09:18:01.000Z</time>
      </trkpt>
      <trkpt lat="47.32803" lon="-2.44114">
        <ele>34.799999237061</ele>
        <time>2020-07-23T09:18:03.000Z</time>
      </trkpt>
      <trkpt lat="47.32807" lon="-2.44093">
        <ele>35.200000762939</ele>
        <time>2020-07-23T09:18:06.000Z</time>
      </trkpt>
      <trkpt lat="47.32809" lon="-2.44086">
        <ele>35.599998474121</ele>
        <time>2020-07-23T09:18:07.000Z</time>
      </trkpt>
      <trkpt lat="47.32811" lon="-2.44078">
        <ele>36.400001525879</ele>
        <time>2020-07-23T09:18:08.000Z</time>
      </trkpt>
      <trkpt lat="47.32812" lon="-2.44071">
        <ele>36.799999237061</ele>
        <time>2020-07-23T09:18:09.000Z</time>
      </trkpt>
      <trkpt lat="47.32816" lon="-2.44055">
        <ele>36.799999237061</ele>
        <time>2020-07-23T09:18:11.000Z</time>
      </trkpt>
      <trkpt lat="47.32821" lon="-2.44031">
        <ele>36.799999237061</ele>
        <time>2020-07-23T09:18:14.000Z</time>
      </trkpt>
      <trkpt lat="47.3283" lon="-2.43979">
        <ele>36.799999237061</ele>
        <time>2020-07-23T09:18:21.000Z</time>
      </trkpt>
      <trkpt lat="47.3284" lon="-2.43925">
        <ele>36.799999237061</ele>
        <time>2020-07-23T09:18:28.000Z</time>
      </trkpt>
      <trkpt lat="47.32857" lon="-2.43872">
        <ele>36.799999237061</ele>
        <time>2020-07-23T09:18:35.000Z</time>
      </trkpt>
      <trkpt lat="47.32879" lon="-2.43822">
        <ele>36.799999237061</ele>
        <time>2020-07-23T09:18:42.000Z</time>
      </trkpt>
      <trkpt lat="47.32904" lon="-2.43765">
        <ele>36.799999237061</ele>
        <time>2020-07-23T09:18:50.000Z</time>
      </trkpt>
      <trkpt lat="47.32916" lon="-2.43735">
        <ele>37.200000762939</ele>
        <time>2020-07-23T09:18:54.000Z</time>
      </trkpt>
      <trkpt lat="47.32919" lon="-2.43728">
        <ele>37.599998474121</ele>
        <time>2020-07-23T09:18:55.000Z</time>
      </trkpt>
      <trkpt lat="47.32922" lon="-2.43721">
        <ele>38</ele>
        <time>2020-07-23T09:18:56.000Z</time>
      </trkpt>
      <trkpt lat="47.32926" lon="-2.43714">
        <ele>39</ele>
        <time>2020-07-23T09:18:57.000Z</time>
      </trkpt>
      <trkpt lat="47.32952" lon="-2.43658">
        <ele>39</ele>
        <time>2020-07-23T09:19:05.000Z</time>
      </trkpt>
      <trkpt lat="47.32959" lon="-2.43644">
        <ele>39</ele>
        <time>2020-07-23T09:19:07.000Z</time>
      </trkpt>
      <trkpt lat="47.32969" lon="-2.43622">
        <ele>39</ele>
        <time>2020-07-23T09:19:10.000Z</time>
      </trkpt>
      <trkpt lat="47.32998" lon="-2.43561">
        <ele>39</ele>
        <time>2020-07-23T09:19:18.000Z</time>
      </trkpt>
      <trkpt lat="47.33024" lon="-2.43505">
        <ele>39</ele>
        <time>2020-07-23T09:19:25.000Z</time>
      </trkpt>
      <trkpt lat="47.33053" lon="-2.4344">
        <ele>39</ele>
        <time>2020-07-23T09:19:33.000Z</time>
      </trkpt>
      <trkpt lat="47.33076" lon="-2.43387">
        <ele>39</ele>
        <time>2020-07-23T09:19:40.000Z</time>
      </trkpt>
      <trkpt lat="47.33099" lon="-2.43342">
        <ele>39</ele>
        <time>2020-07-23T09:19:46.000Z</time>
      </trkpt>
      <trkpt lat="47.33128" lon="-2.43281">
        <ele>39</ele>
        <time>2020-07-23T09:19:54.000Z</time>
      </trkpt>
      <trkpt lat="47.33152" lon="-2.43225">
        <ele>39</ele>
        <time>2020-07-23T09:20:01.000Z</time>
      </trkpt>
      <trkpt lat="47.33169" lon="-2.43167">
        <ele>39</ele>
        <time>2020-07-23T09:20:08.000Z</time>
      </trkpt>
      <trkpt lat="47.33175" lon="-2.43108">
        <ele>39</ele>
        <time>2020-07-23T09:20:14.000Z</time>
      </trkpt>
      <trkpt lat="47.33175" lon="-2.43087">
        <ele>39</ele>
        <time>2020-07-23T09:20:16.000Z</time>
      </trkpt>
      <trkpt lat="47.33176" lon="-2.43056">
        <ele>39</ele>
        <time>2020-07-23T09:20:19.000Z</time>
      </trkpt>
      <trkpt lat="47.33175" lon="-2.42989">
        <ele>39</ele>
        <time>2020-07-23T09:20:26.000Z</time>
      </trkpt>
      <trkpt lat="47.33168" lon="-2.42924">
        <ele>39</ele>
        <time>2020-07-23T09:20:34.000Z</time>
      </trkpt>
      <trkpt lat="47.33156" lon="-2.42898">
        <ele>39</ele>
        <time>2020-07-23T09:20:38.000Z</time>
      </trkpt>
      <trkpt lat="47.33156" lon="-2.42864">
        <ele>39</ele>
        <time>2020-07-23T09:20:42.000Z</time>
      </trkpt>
      <trkpt lat="47.33157" lon="-2.42797">
        <ele>39</ele>
        <time>2020-07-23T09:20:49.000Z</time>
      </trkpt>
      <trkpt lat="47.33152" lon="-2.42731">
        <ele>39</ele>
        <time>2020-07-23T09:20:55.000Z</time>
      </trkpt>
      <trkpt lat="47.3315" lon="-2.4272">
        <ele>39</ele>
        <time>2020-07-23T09:20:56.000Z</time>
      </trkpt>
      <trkpt lat="47.3314" lon="-2.42692">
        <ele>39</ele>
        <time>2020-07-23T09:20:59.000Z</time>
      </trkpt>
      <trkpt lat="47.33136" lon="-2.42683">
        <ele>39</ele>
        <time>2020-07-23T09:21:00.000Z</time>
      </trkpt>
      <trkpt lat="47.33111" lon="-2.42631">
        <ele>39</ele>
        <time>2020-07-23T09:21:06.000Z</time>
      </trkpt>
      <trkpt lat="47.33083" lon="-2.4257">
        <ele>39</ele>
        <time>2020-07-23T09:21:13.000Z</time>
      </trkpt>
      <trkpt lat="47.33074" lon="-2.42545">
        <ele>39</ele>
        <time>2020-07-23T09:21:16.000Z</time>
      </trkpt>
      <trkpt lat="47.33068" lon="-2.4253">
        <ele>39</ele>
        <time>2020-07-23T09:21:18.000Z</time>
      </trkpt>
      <trkpt lat="47.33047" lon="-2.42481">
        <ele>39</ele>
        <time>2020-07-23T09:21:25.000Z</time>
      </trkpt>
      <trkpt lat="47.33041" lon="-2.42467">
        <ele>39</ele>
        <time>2020-07-23T09:21:27.000Z</time>
      </trkpt>
      <trkpt lat="47.33032" lon="-2.42459">
        <ele>39</ele>
        <time>2020-07-23T09:21:29.000Z</time>
      </trkpt>
      <trkpt lat="47.33012" lon="-2.42441">
        <ele>39</ele>
        <time>2020-07-23T09:21:33.000Z</time>
      </trkpt>
      <trkpt lat="47.33006" lon="-2.42425">
        <ele>39</ele>
        <time>2020-07-23T09:21:35.000Z</time>
      </trkpt>
      <trkpt lat="47.33002" lon="-2.42408">
        <ele>39</ele>
        <time>2020-07-23T09:21:37.000Z</time>
      </trkpt>
      <trkpt lat="47.33001" lon="-2.42399">
        <ele>39</ele>
        <time>2020-07-23T09:21:38.000Z</time>
      </trkpt>
      <trkpt lat="47.32999" lon="-2.42391">
        <ele>39</ele>
        <time>2020-07-23T09:21:39.000Z</time>
      </trkpt>
      <trkpt lat="47.32993" lon="-2.42374">
        <ele>39</ele>
        <time>2020-07-23T09:21:41.000Z</time>
      </trkpt>
      <trkpt lat="47.32989" lon="-2.42366">
        <ele>39</ele>
        <time>2020-07-23T09:21:42.000Z</time>
      </trkpt>
      <trkpt lat="47.32961" lon="-2.42303">
        <ele>39</ele>
        <time>2020-07-23T09:21:50.000Z</time>
      </trkpt>
      <trkpt lat="47.32957" lon="-2.42295">
        <ele>39</ele>
        <time>2020-07-23T09:21:51.000Z</time>
      </trkpt>
      <trkpt lat="47.32945" lon="-2.42268">
        <ele>39</ele>
        <time>2020-07-23T09:21:55.000Z</time>
      </trkpt>
      <trkpt lat="47.32943" lon="-2.42261">
        <ele>39</ele>
        <time>2020-07-23T09:21:56.000Z</time>
      </trkpt>
      <trkpt lat="47.32938" lon="-2.42248">
        <ele>39</ele>
        <time>2020-07-23T09:21:58.000Z</time>
      </trkpt>
      <trkpt lat="47.32931" lon="-2.42234">
        <ele>39</ele>
        <time>2020-07-23T09:22:00.000Z</time>
      </trkpt>
      <trkpt lat="47.32921" lon="-2.42213">
        <ele>39</ele>
        <time>2020-07-23T09:22:03.000Z</time>
      </trkpt>
      <trkpt lat="47.32914" lon="-2.42199">
        <ele>39</ele>
        <time>2020-07-23T09:22:05.000Z</time>
      </trkpt>
      <trkpt lat="47.32901" lon="-2.42172">
        <ele>38.599998474121</ele>
        <time>2020-07-23T09:22:09.000Z</time>
      </trkpt>
      <trkpt lat="47.32896" lon="-2.42166">
        <ele>38</ele>
        <time>2020-07-23T09:22:10.000Z</time>
      </trkpt>
      <trkpt lat="47.32892" lon="-2.4216">
        <ele>37.599998474121</ele>
        <time>2020-07-23T09:22:11.000Z</time>
      </trkpt>
      <trkpt lat="47.32887" lon="-2.42154">
        <ele>37.200000762939</ele>
        <time>2020-07-23T09:22:12.000Z</time>
      </trkpt>
      <trkpt lat="47.32883" lon="-2.42147">
        <ele>36.599998474121</ele>
        <time>2020-07-23T09:22:13.000Z</time>
      </trkpt>
      <trkpt lat="47.32879" lon="-2.42141">
        <ele>36.599998474121</ele>
        <time>2020-07-23T09:22:14.000Z</time>
      </trkpt>
      <trkpt lat="47.32866" lon="-2.42112">
        <ele>36.599998474121</ele>
        <time>2020-07-23T09:22:18.000Z</time>
      </trkpt>
      <trkpt lat="47.32864" lon="-2.42104">
        <ele>36.599998474121</ele>
        <time>2020-07-23T09:22:19.000Z</time>
      </trkpt>
      <trkpt lat="47.32848" lon="-2.42064">
        <ele>36.599998474121</ele>
        <time>2020-07-23T09:22:24.000Z</time>
      </trkpt>
      <trkpt lat="47.32835" lon="-2.42035">
        <ele>36.599998474121</ele>
        <time>2020-07-23T09:22:28.000Z</time>
      </trkpt>
      <trkpt lat="47.32828" lon="-2.42017">
        <ele>36.599998474121</ele>
        <time>2020-07-23T09:22:31.000Z</time>
      </trkpt>
      <trkpt lat="47.32826" lon="-2.42011">
        <ele>36.599998474121</ele>
        <time>2020-07-23T09:22:32.000Z</time>
      </trkpt>
      <trkpt lat="47.32818" lon="-2.41996">
        <ele>36.599998474121</ele>
        <time>2020-07-23T09:22:36.000Z</time>
      </trkpt>
      <trkpt lat="47.32811" lon="-2.41989">
        <ele>36.599998474121</ele>
        <time>2020-07-23T09:22:38.000Z</time>
      </trkpt>
      <trkpt lat="47.32807" lon="-2.41974">
        <ele>36.599998474121</ele>
        <time>2020-07-23T09:22:40.000Z</time>
      </trkpt>
      <trkpt lat="47.32806" lon="-2.41958">
        <ele>36.599998474121</ele>
        <time>2020-07-23T09:22:42.000Z</time>
      </trkpt>
      <trkpt lat="47.32805" lon="-2.41951">
        <ele>36.599998474121</ele>
        <time>2020-07-23T09:22:43.000Z</time>
      </trkpt>
      <trkpt lat="47.32802" lon="-2.41944">
        <ele>36.599998474121</ele>
        <time>2020-07-23T09:22:44.000Z</time>
      </trkpt>
      <trkpt lat="47.32781" lon="-2.41903">
        <ele>36.599998474121</ele>
        <time>2020-07-23T09:22:50.000Z</time>
      </trkpt>
      <trkpt lat="47.32779" lon="-2.41896">
        <ele>36.599998474121</ele>
        <time>2020-07-23T09:22:51.000Z</time>
      </trkpt>
      <trkpt lat="47.32768" lon="-2.41867">
        <ele>36.599998474121</ele>
        <time>2020-07-23T09:22:55.000Z</time>
      </trkpt>
      <trkpt lat="47.32751" lon="-2.41828">
        <ele>36.599998474121</ele>
        <time>2020-07-23T09:23:01.000Z</time>
      </trkpt>
      <trkpt lat="47.32729" lon="-2.41789">
        <ele>36.599998474121</ele>
        <time>2020-07-23T09:23:07.000Z</time>
      </trkpt>
      <trkpt lat="47.32726" lon="-2.41782">
        <ele>37</ele>
        <time>2020-07-23T09:23:08.000Z</time>
      </trkpt>
      <trkpt lat="47.32722" lon="-2.41777">
        <ele>37.400001525879</ele>
        <time>2020-07-23T09:23:09.000Z</time>
      </trkpt>
      <trkpt lat="47.32717" lon="-2.41772">
        <ele>37.799999237061</ele>
        <time>2020-07-23T09:23:10.000Z</time>
      </trkpt>
      <trkpt lat="47.32713" lon="-2.41767">
        <ele>38.200000762939</ele>
        <time>2020-07-23T09:23:11.000Z</time>
      </trkpt>
      <trkpt lat="47.32709" lon="-2.41761">
        <ele>38.599998474121</ele>
        <time>2020-07-23T09:23:12.000Z</time>
      </trkpt>
      <trkpt lat="47.32708" lon="-2.41746">
        <ele>38.599998474121</ele>
        <time>2020-07-23T09:23:14.000Z</time>
      </trkpt>
      <trkpt lat="47.3271" lon="-2.4173">
        <ele>38.599998474121</ele>
        <time>2020-07-23T09:23:16.000Z</time>
      </trkpt>
      <trkpt lat="47.32714" lon="-2.41696">
        <ele>38.599998474121</ele>
        <time>2020-07-23T09:23:20.000Z</time>
      </trkpt>
      <trkpt lat="47.32714" lon="-2.41687">
        <ele>38.599998474121</ele>
        <time>2020-07-23T09:23:21.000Z</time>
      </trkpt>
      <trkpt lat="47.32717" lon="-2.41653">
        <ele>38.599998474121</ele>
        <time>2020-07-23T09:23:25.000Z</time>
      </trkpt>
      <trkpt lat="47.32718" lon="-2.4163">
        <ele>38.599998474121</ele>
        <time>2020-07-23T09:23:28.000Z</time>
      </trkpt>
      <trkpt lat="47.32715" lon="-2.41616">
        <ele>38.599998474121</ele>
        <time>2020-07-23T09:23:30.000Z</time>
      </trkpt>
      <trkpt lat="47.32708" lon="-2.416">
        <ele>38.599998474121</ele>
        <time>2020-07-23T09:23:34.000Z</time>
      </trkpt>
      <trkpt lat="47.32705" lon="-2.41582">
        <ele>38.599998474121</ele>
        <time>2020-07-23T09:23:39.000Z</time>
      </trkpt>
      <trkpt lat="47.32704" lon="-2.4158">
        <ele>38.599998474121</ele>
        <time>2020-07-23T09:23:41.000Z</time>
      </trkpt>
      <trkpt lat="47.32702" lon="-2.41578">
        <ele>38.599998474121</ele>
        <time>2020-07-23T09:23:43.000Z</time>
      </trkpt>
      <trkpt lat="47.32702" lon="-2.41568">
        <ele>38.599998474121</ele>
        <time>2020-07-23T09:23:46.000Z</time>
      </trkpt>
      <trkpt lat="47.327" lon="-2.41542">
        <ele>38.599998474121</ele>
        <time>2020-07-23T09:23:50.000Z</time>
      </trkpt>
      <trkpt lat="47.32693" lon="-2.41538">
        <ele>39.599998474121</ele>
        <time>2020-07-23T09:23:52.000Z</time>
      </trkpt>
      <trkpt lat="47.32689" lon="-2.41537">
        <ele>40</ele>
        <time>2020-07-23T09:23:53.000Z</time>
      </trkpt>
      <trkpt lat="47.32684" lon="-2.41536">
        <ele>40.400001525879</ele>
        <time>2020-07-23T09:23:54.000Z</time>
      </trkpt>
      <trkpt lat="47.3268" lon="-2.41536">
        <ele>40.799999237061</ele>
        <time>2020-07-23T09:23:55.000Z</time>
      </trkpt>
      <trkpt lat="47.32657" lon="-2.41533">
        <ele>40.799999237061</ele>
        <time>2020-07-23T09:24:00.000Z</time>
      </trkpt>
      <trkpt lat="47.32636" lon="-2.41528">
        <ele>41.200000762939</ele>
        <time>2020-07-23T09:24:04.000Z</time>
      </trkpt>
      <trkpt lat="47.32631" lon="-2.41527">
        <ele>41.599998474121</ele>
        <time>2020-07-23T09:24:05.000Z</time>
      </trkpt>
      <trkpt lat="47.32625" lon="-2.41525">
        <ele>42</ele>
        <time>2020-07-23T09:24:06.000Z</time>
      </trkpt>
      <trkpt lat="47.3262" lon="-2.41524">
        <ele>42.400001525879</ele>
        <time>2020-07-23T09:24:07.000Z</time>
      </trkpt>
      <trkpt lat="47.32615" lon="-2.41523">
        <ele>43</ele>
        <time>2020-07-23T09:24:08.000Z</time>
      </trkpt>
      <trkpt lat="47.32578" lon="-2.41514">
        <ele>43</ele>
        <time>2020-07-23T09:24:15.000Z</time>
      </trkpt>
      <trkpt lat="47.32573" lon="-2.41498">
        <ele>43</ele>
        <time>2020-07-23T09:24:18.000Z</time>
      </trkpt>
      <trkpt lat="47.32573" lon="-2.41492">
        <ele>43</ele>
        <time>2020-07-23T09:24:19.000Z</time>
      </trkpt>
      <trkpt lat="47.3257" lon="-2.41472">
        <ele>43</ele>
        <time>2020-07-23T09:24:22.000Z</time>
      </trkpt>
      <trkpt lat="47.32564" lon="-2.41454">
        <ele>43</ele>
        <time>2020-07-23T09:24:25.000Z</time>
      </trkpt>
      <trkpt lat="47.32552" lon="-2.41431">
        <ele>43</ele>
        <time>2020-07-23T09:24:29.000Z</time>
      </trkpt>
      <trkpt lat="47.32529" lon="-2.41385">
        <ele>43.400001525879</ele>
        <time>2020-07-23T09:24:36.000Z</time>
      </trkpt>
      <trkpt lat="47.32526" lon="-2.41379">
        <ele>43.799999237061</ele>
        <time>2020-07-23T09:24:37.000Z</time>
      </trkpt>
      <trkpt lat="47.32522" lon="-2.41372">
        <ele>44.200000762939</ele>
        <time>2020-07-23T09:24:38.000Z</time>
      </trkpt>
      <trkpt lat="47.32519" lon="-2.41365">
        <ele>44.599998474121</ele>
        <time>2020-07-23T09:24:39.000Z</time>
      </trkpt>
      <trkpt lat="47.32515" lon="-2.41358">
        <ele>45</ele>
        <time>2020-07-23T09:24:40.000Z</time>
      </trkpt>
      <trkpt lat="47.32497" lon="-2.41323">
        <ele>45</ele>
        <time>2020-07-23T09:24:45.000Z</time>
      </trkpt>
      <trkpt lat="47.32467" lon="-2.41266">
        <ele>45</ele>
        <time>2020-07-23T09:24:53.000Z</time>
      </trkpt>
      <trkpt lat="47.32443" lon="-2.4122">
        <ele>45</ele>
        <time>2020-07-23T09:25:00.000Z</time>
      </trkpt>
      <trkpt lat="47.32437" lon="-2.41208">
        <ele>45</ele>
        <time>2020-07-23T09:25:02.000Z</time>
      </trkpt>
      <trkpt lat="47.32431" lon="-2.41197">
        <ele>45</ele>
        <time>2020-07-23T09:25:04.000Z</time>
      </trkpt>
      <trkpt lat="47.32429" lon="-2.41193">
        <ele>45</ele>
        <time>2020-07-23T09:25:05.000Z</time>
      </trkpt>
      <trkpt lat="47.32427" lon="-2.41192">
        <ele>45</ele>
        <time>2020-07-23T09:25:06.000Z</time>
      </trkpt>
      <trkpt lat="47.32425" lon="-2.41188">
        <ele>45</ele>
        <time>2020-07-23T09:25:08.000Z</time>
      </trkpt>
      <trkpt lat="47.32419" lon="-2.41172">
        <ele>45</ele>
        <time>2020-07-23T09:25:12.000Z</time>
      </trkpt>
      <trkpt lat="47.32412" lon="-2.41157">
        <ele>45</ele>
        <time>2020-07-23T09:25:15.000Z</time>
      </trkpt>
      <trkpt lat="47.32407" lon="-2.41148">
        <ele>45</ele>
        <time>2020-07-23T09:25:17.000Z</time>
      </trkpt>
      <trkpt lat="47.32388" lon="-2.41112">
        <ele>45</ele>
        <time>2020-07-23T09:25:24.000Z</time>
      </trkpt>
      <trkpt lat="47.32372" lon="-2.41083">
        <ele>45</ele>
        <time>2020-07-23T09:25:31.000Z</time>
      </trkpt>
      <trkpt lat="47.32369" lon="-2.41078">
        <ele>45</ele>
        <time>2020-07-23T09:25:33.000Z</time>
      </trkpt>
      <trkpt lat="47.32364" lon="-2.41069">
        <ele>45</ele>
        <time>2020-07-23T09:25:35.000Z</time>
      </trkpt>
      <trkpt lat="47.3235" lon="-2.41038">
        <ele>45</ele>
        <time>2020-07-23T09:25:40.000Z</time>
      </trkpt>
      <trkpt lat="47.32327" lon="-2.40997">
        <ele>45</ele>
        <time>2020-07-23T09:25:46.000Z</time>
      </trkpt>
      <trkpt lat="47.32323" lon="-2.40989">
        <ele>45.400001525879</ele>
        <time>2020-07-23T09:25:47.000Z</time>
      </trkpt>
      <trkpt lat="47.32318" lon="-2.40981">
        <ele>45.799999237061</ele>
        <time>2020-07-23T09:25:48.000Z</time>
      </trkpt>
      <trkpt lat="47.32313" lon="-2.40973">
        <ele>46.200000762939</ele>
        <time>2020-07-23T09:25:49.000Z</time>
      </trkpt>
      <trkpt lat="47.32309" lon="-2.40964">
        <ele>46.599998474121</ele>
        <time>2020-07-23T09:25:50.000Z</time>
      </trkpt>
      <trkpt lat="47.32304" lon="-2.40955">
        <ele>47</ele>
        <time>2020-07-23T09:25:51.000Z</time>
      </trkpt>
      <trkpt lat="47.32294" lon="-2.40936">
        <ele>47</ele>
        <time>2020-07-23T09:25:53.000Z</time>
      </trkpt>
      <trkpt lat="47.32261" lon="-2.40876">
        <ele>46.599998474121</ele>
        <time>2020-07-23T09:26:00.000Z</time>
      </trkpt>
      <trkpt lat="47.32256" lon="-2.40868">
        <ele>46.200000762939</ele>
        <time>2020-07-23T09:26:01.000Z</time>
      </trkpt>
      <trkpt lat="47.32252" lon="-2.40861">
        <ele>45.799999237061</ele>
        <time>2020-07-23T09:26:02.000Z</time>
      </trkpt>
      <trkpt lat="47.32248" lon="-2.40854">
        <ele>45.400001525879</ele>
        <time>2020-07-23T09:26:03.000Z</time>
      </trkpt>
      <trkpt lat="47.32244" lon="-2.40847">
        <ele>45</ele>
        <time>2020-07-23T09:26:04.000Z</time>
      </trkpt>
      <trkpt lat="47.3223" lon="-2.40825">
        <ele>45</ele>
        <time>2020-07-23T09:26:08.000Z</time>
      </trkpt>
      <trkpt lat="47.32223" lon="-2.40816">
        <ele>45</ele>
        <time>2020-07-23T09:26:10.000Z</time>
      </trkpt>
      <trkpt lat="47.32216" lon="-2.40805">
        <ele>45</ele>
        <time>2020-07-23T09:26:13.000Z</time>
      </trkpt>
      <trkpt lat="47.32211" lon="-2.40798">
        <ele>45</ele>
        <time>2020-07-23T09:26:15.000Z</time>
      </trkpt>
      <trkpt lat="47.32202" lon="-2.40786">
        <ele>45</ele>
        <time>2020-07-23T09:26:18.000Z</time>
      </trkpt>
      <trkpt lat="47.32182" lon="-2.4076">
        <ele>45</ele>
        <time>2020-07-23T09:26:23.000Z</time>
      </trkpt>
      <trkpt lat="47.32147" lon="-2.40716">
        <ele>45</ele>
        <time>2020-07-23T09:26:30.000Z</time>
      </trkpt>
      <trkpt lat="47.3211" lon="-2.40673">
        <ele>45</ele>
        <time>2020-07-23T09:26:37.000Z</time>
      </trkpt>
      <trkpt lat="47.32103" lon="-2.40668">
        <ele>45</ele>
        <time>2020-07-23T09:26:38.000Z</time>
      </trkpt>
      <trkpt lat="47.32092" lon="-2.40657">
        <ele>45</ele>
        <time>2020-07-23T09:26:40.000Z</time>
      </trkpt>
      <trkpt lat="47.32059" lon="-2.40622">
        <ele>44.599998474121</ele>
        <time>2020-07-23T09:26:46.000Z</time>
      </trkpt>
      <trkpt lat="47.32053" lon="-2.40617">
        <ele>44.200000762939</ele>
        <time>2020-07-23T09:26:47.000Z</time>
      </trkpt>
      <trkpt lat="47.32048" lon="-2.40612">
        <ele>43.799999237061</ele>
        <time>2020-07-23T09:26:48.000Z</time>
      </trkpt>
      <trkpt lat="47.32042" lon="-2.40607">
        <ele>43.400001525879</ele>
        <time>2020-07-23T09:26:49.000Z</time>
      </trkpt>
      <trkpt lat="47.32036" lon="-2.40602">
        <ele>43</ele>
        <time>2020-07-23T09:26:50.000Z</time>
      </trkpt>
      <trkpt lat="47.32007" lon="-2.40577">
        <ele>43</ele>
        <time>2020-07-23T09:26:55.000Z</time>
      </trkpt>
      <trkpt lat="47.31971" lon="-2.4055">
        <ele>43</ele>
        <time>2020-07-23T09:27:01.000Z</time>
      </trkpt>
      <trkpt lat="47.31931" lon="-2.40522">
        <ele>43</ele>
        <time>2020-07-23T09:27:07.000Z</time>
      </trkpt>
      <trkpt lat="47.3191" lon="-2.40505">
        <ele>42.599998474121</ele>
        <time>2020-07-23T09:27:10.000Z</time>
      </trkpt>
      <trkpt lat="47.31903" lon="-2.405">
        <ele>42.200000762939</ele>
        <time>2020-07-23T09:27:11.000Z</time>
      </trkpt>
      <trkpt lat="47.31896" lon="-2.40495">
        <ele>41.799999237061</ele>
        <time>2020-07-23T09:27:12.000Z</time>
      </trkpt>
      <trkpt lat="47.3189" lon="-2.4049">
        <ele>41.400001525879</ele>
        <time>2020-07-23T09:27:13.000Z</time>
      </trkpt>
      <trkpt lat="47.31883" lon="-2.40485">
        <ele>41</ele>
        <time>2020-07-23T09:27:14.000Z</time>
      </trkpt>
      <trkpt lat="47.31843" lon="-2.40452">
        <ele>41</ele>
        <time>2020-07-23T09:27:20.000Z</time>
      </trkpt>
      <trkpt lat="47.31794" lon="-2.40415">
        <ele>40.599998474121</ele>
        <time>2020-07-23T09:27:27.000Z</time>
      </trkpt>
      <trkpt lat="47.31788" lon="-2.40409">
        <ele>40.200000762939</ele>
        <time>2020-07-23T09:27:28.000Z</time>
      </trkpt>
      <trkpt lat="47.3178" lon="-2.40404">
        <ele>39.799999237061</ele>
        <time>2020-07-23T09:27:29.000Z</time>
      </trkpt>
      <trkpt lat="47.31773" lon="-2.40399">
        <ele>39.400001525879</ele>
        <time>2020-07-23T09:27:30.000Z</time>
      </trkpt>
      <trkpt lat="47.31767" lon="-2.40394">
        <ele>39</ele>
        <time>2020-07-23T09:27:31.000Z</time>
      </trkpt>
      <trkpt lat="47.31748" lon="-2.4038">
        <ele>39</ele>
        <time>2020-07-23T09:27:34.000Z</time>
      </trkpt>
      <trkpt lat="47.31713" lon="-2.40353">
        <ele>38.599998474121</ele>
        <time>2020-07-23T09:27:40.000Z</time>
      </trkpt>
      <trkpt lat="47.31709" lon="-2.4035">
        <ele>38.200000762939</ele>
        <time>2020-07-23T09:27:41.000Z</time>
      </trkpt>
      <trkpt lat="47.31705" lon="-2.40347">
        <ele>37.799999237061</ele>
        <time>2020-07-23T09:27:42.000Z</time>
      </trkpt>
      <trkpt lat="47.31702" lon="-2.40345">
        <ele>37.400001525879</ele>
        <time>2020-07-23T09:27:43.000Z</time>
      </trkpt>
      <trkpt lat="47.31699" lon="-2.40342">
        <ele>36.799999237061</ele>
        <time>2020-07-23T09:27:44.000Z</time>
      </trkpt>
      <trkpt lat="47.31685" lon="-2.40335">
        <ele>36.799999237061</ele>
        <time>2020-07-23T09:27:50.000Z</time>
      </trkpt>
      <trkpt lat="47.31686" lon="-2.40334">
        <ele>36.799999237061</ele>
        <time>2020-07-23T09:27:51.000Z</time>
      </trkpt>
      <trkpt lat="47.31686" lon="-2.40324">
        <ele>36.799999237061</ele>
        <time>2020-07-23T09:27:55.000Z</time>
      </trkpt>
      <trkpt lat="47.31685" lon="-2.40321">
        <ele>36.799999237061</ele>
        <time>2020-07-23T09:27:57.000Z</time>
      </trkpt>
      <trkpt lat="47.31687" lon="-2.40313">
        <ele>36.799999237061</ele>
        <time>2020-07-23T09:28:02.000Z</time>
      </trkpt>
      <trkpt lat="47.3169" lon="-2.4031">
        <ele>36.799999237061</ele>
        <time>2020-07-23T09:28:08.000Z</time>
      </trkpt>
      <trkpt lat="47.31692" lon="-2.40307">
        <ele>36.799999237061</ele>
        <time>2020-07-23T09:28:17.000Z</time>
      </trkpt>
      <trkpt lat="47.31695" lon="-2.40303">
        <ele>36.799999237061</ele>
        <time>2020-07-23T09:28:20.000Z</time>
      </trkpt>
      <trkpt lat="47.31698" lon="-2.403">
        <ele>36.799999237061</ele>
        <time>2020-07-23T09:28:23.000Z</time>
      </trkpt>
      <trkpt lat="47.31701" lon="-2.40298">
        <ele>36.799999237061</ele>
        <time>2020-07-23T09:28:27.000Z</time>
      </trkpt>
      <trkpt lat="47.31702" lon="-2.40298">
        <ele>36.799999237061</ele>
        <time>2020-07-23T09:28:28.000Z</time>
      </trkpt>
      <trkpt lat="47.31709" lon="-2.40285">
        <ele>36.799999237061</ele>
        <time>2020-07-23T09:28:41.000Z</time>
      </trkpt>
      <trkpt lat="47.31711" lon="-2.40281">
        <ele>36.799999237061</ele>
        <time>2020-07-23T09:28:43.000Z</time>
      </trkpt>
      <trkpt lat="47.3172" lon="-2.40266">
        <ele>36.799999237061</ele>
        <time>2020-07-23T09:28:48.000Z</time>
      </trkpt>
      <trkpt lat="47.31734" lon="-2.40243">
        <ele>36.799999237061</ele>
        <time>2020-07-23T09:28:53.000Z</time>
      </trkpt>
      <trkpt lat="47.31737" lon="-2.40236">
        <ele>36.799999237061</ele>
        <time>2020-07-23T09:28:54.000Z</time>
      </trkpt>
      <trkpt lat="47.31758" lon="-2.40192">
        <ele>36.799999237061</ele>
        <time>2020-07-23T09:29:01.000Z</time>
      </trkpt>
      <trkpt lat="47.31775" lon="-2.40159">
        <ele>36.799999237061</ele>
        <time>2020-07-23T09:29:07.000Z</time>
      </trkpt>
      <trkpt lat="47.31799" lon="-2.40123">
        <ele>36.799999237061</ele>
        <time>2020-07-23T09:29:13.000Z</time>
      </trkpt>
      <trkpt lat="47.31827" lon="-2.4008">
        <ele>36.799999237061</ele>
        <time>2020-07-23T09:29:20.000Z</time>
      </trkpt>
      <trkpt lat="47.31851" lon="-2.40042">
        <ele>36.799999237061</ele>
        <time>2020-07-23T09:29:26.000Z</time>
      </trkpt>
      <trkpt lat="47.31882" lon="-2.39994">
        <ele>36.799999237061</ele>
        <time>2020-07-23T09:29:32.000Z</time>
      </trkpt>
      <trkpt lat="47.31916" lon="-2.3995">
        <ele>37.200000762939</ele>
        <time>2020-07-23T09:29:39.000Z</time>
      </trkpt>
      <trkpt lat="47.31921" lon="-2.39946">
        <ele>37.599998474121</ele>
        <time>2020-07-23T09:29:40.000Z</time>
      </trkpt>
      <trkpt lat="47.31925" lon="-2.39941">
        <ele>38.200000762939</ele>
        <time>2020-07-23T09:29:41.000Z</time>
      </trkpt>
      <trkpt lat="47.3193" lon="-2.39938">
        <ele>38.599998474121</ele>
        <time>2020-07-23T09:29:42.000Z</time>
      </trkpt>
      <trkpt lat="47.31935" lon="-2.39935">
        <ele>39</ele>
        <time>2020-07-23T09:29:43.000Z</time>
      </trkpt>
      <trkpt lat="47.3194" lon="-2.39932">
        <ele>39</ele>
        <time>2020-07-23T09:29:44.000Z</time>
      </trkpt>
      <trkpt lat="47.31946" lon="-2.39928">
        <ele>39</ele>
        <time>2020-07-23T09:29:45.000Z</time>
      </trkpt>
      <trkpt lat="47.31971" lon="-2.39907">
        <ele>39</ele>
        <time>2020-07-23T09:29:50.000Z</time>
      </trkpt>
      <trkpt lat="47.31997" lon="-2.39888">
        <ele>39.400001525879</ele>
        <time>2020-07-23T09:29:55.000Z</time>
      </trkpt>
      <trkpt lat="47.32002" lon="-2.39884">
        <ele>39.799999237061</ele>
        <time>2020-07-23T09:29:56.000Z</time>
      </trkpt>
      <trkpt lat="47.32007" lon="-2.39881">
        <ele>40.200000762939</ele>
        <time>2020-07-23T09:29:57.000Z</time>
      </trkpt>
      <trkpt lat="47.32012" lon="-2.39876">
        <ele>40.599998474121</ele>
        <time>2020-07-23T09:29:58.000Z</time>
      </trkpt>
      <trkpt lat="47.32017" lon="-2.39872">
        <ele>41</ele>
        <time>2020-07-23T09:29:59.000Z</time>
      </trkpt>
      <trkpt lat="47.3204" lon="-2.39851">
        <ele>41</ele>
        <time>2020-07-23T09:30:04.000Z</time>
      </trkpt>
      <trkpt lat="47.32054" lon="-2.39839">
        <ele>41.400001525879</ele>
        <time>2020-07-23T09:30:07.000Z</time>
      </trkpt>
      <trkpt lat="47.32059" lon="-2.39835">
        <ele>41.799999237061</ele>
        <time>2020-07-23T09:30:08.000Z</time>
      </trkpt>
      <trkpt lat="47.32064" lon="-2.39832">
        <ele>42.200000762939</ele>
        <time>2020-07-23T09:30:09.000Z</time>
      </trkpt>
      <trkpt lat="47.32069" lon="-2.39828">
        <ele>42.599998474121</ele>
        <time>2020-07-23T09:30:10.000Z</time>
      </trkpt>
      <trkpt lat="47.32074" lon="-2.39825">
        <ele>43</ele>
        <time>2020-07-23T09:30:11.000Z</time>
      </trkpt>
      <trkpt lat="47.32078" lon="-2.39819">
        <ele>43</ele>
        <time>2020-07-23T09:30:12.000Z</time>
      </trkpt>
      <trkpt lat="47.32078" lon="-2.39799">
        <ele>43</ele>
        <time>2020-07-23T09:30:15.000Z</time>
      </trkpt>
      <trkpt lat="47.32076" lon="-2.39791">
        <ele>43</ele>
        <time>2020-07-23T09:30:16.000Z</time>
      </trkpt>
      <trkpt lat="47.32064" lon="-2.39742">
        <ele>43</ele>
        <time>2020-07-23T09:30:22.000Z</time>
      </trkpt>
      <trkpt lat="47.32049" lon="-2.39691">
        <ele>43</ele>
        <time>2020-07-23T09:30:27.000Z</time>
      </trkpt>
      <trkpt lat="47.32046" lon="-2.39681">
        <ele>43</ele>
        <time>2020-07-23T09:30:28.000Z</time>
      </trkpt>
      <trkpt lat="47.32033" lon="-2.39615">
        <ele>43</ele>
        <time>2020-07-23T09:30:34.000Z</time>
      </trkpt>
      <trkpt lat="47.32016" lon="-2.39545">
        <ele>43</ele>
        <time>2020-07-23T09:30:40.000Z</time>
      </trkpt>
      <trkpt lat="47.31999" lon="-2.39479">
        <ele>43</ele>
        <time>2020-07-23T09:30:46.000Z</time>
      </trkpt>
      <trkpt lat="47.31993" lon="-2.39456">
        <ele>42.599998474121</ele>
        <time>2020-07-23T09:30:48.000Z</time>
      </trkpt>
      <trkpt lat="47.3199" lon="-2.39444">
        <ele>42.200000762939</ele>
        <time>2020-07-23T09:30:49.000Z</time>
      </trkpt>
      <trkpt lat="47.31988" lon="-2.39433">
        <ele>41.799999237061</ele>
        <time>2020-07-23T09:30:50.000Z</time>
      </trkpt>
      <trkpt lat="47.31986" lon="-2.39422">
        <ele>41.400001525879</ele>
        <time>2020-07-23T09:30:51.000Z</time>
      </trkpt>
      <trkpt lat="47.31983" lon="-2.39411">
        <ele>41</ele>
        <time>2020-07-23T09:30:52.000Z</time>
      </trkpt>
      <trkpt lat="47.31981" lon="-2.394">
        <ele>41</ele>
        <time>2020-07-23T09:30:53.000Z</time>
      </trkpt>
      <trkpt lat="47.31964" lon="-2.39318">
        <ele>41</ele>
        <time>2020-07-23T09:31:00.000Z</time>
      </trkpt>
      <trkpt lat="47.31961" lon="-2.39307">
        <ele>41</ele>
        <time>2020-07-23T09:31:01.000Z</time>
      </trkpt>
      <trkpt lat="47.31959" lon="-2.39295">
        <ele>40.599998474121</ele>
        <time>2020-07-23T09:31:02.000Z</time>
      </trkpt>
      <trkpt lat="47.31957" lon="-2.39283">
        <ele>40.200000762939</ele>
        <time>2020-07-23T09:31:03.000Z</time>
      </trkpt>
      <trkpt lat="47.31954" lon="-2.39271">
        <ele>39.799999237061</ele>
        <time>2020-07-23T09:31:04.000Z</time>
      </trkpt>
      <trkpt lat="47.3195" lon="-2.3926">
        <ele>39.400001525879</ele>
        <time>2020-07-23T09:31:05.000Z</time>
      </trkpt>
      <trkpt lat="47.31947" lon="-2.39248">
        <ele>39</ele>
        <time>2020-07-23T09:31:06.000Z</time>
      </trkpt>
      <trkpt lat="47.31943" lon="-2.39237">
        <ele>39</ele>
        <time>2020-07-23T09:31:07.000Z</time>
      </trkpt>
      <trkpt lat="47.31919" lon="-2.39156">
        <ele>39</ele>
        <time>2020-07-23T09:31:14.000Z</time>
      </trkpt>
      <trkpt lat="47.31916" lon="-2.39145">
        <ele>38.599998474121</ele>
        <time>2020-07-23T09:31:15.000Z</time>
      </trkpt>
      <trkpt lat="47.31913" lon="-2.39134">
        <ele>38.200000762939</ele>
        <time>2020-07-23T09:31:16.000Z</time>
      </trkpt>
      <trkpt lat="47.3191" lon="-2.39123">
        <ele>37.400001525879</ele>
        <time>2020-07-23T09:31:17.000Z</time>
      </trkpt>
      <trkpt lat="47.31906" lon="-2.39112">
        <ele>37</ele>
        <time>2020-07-23T09:31:18.000Z</time>
      </trkpt>
      <trkpt lat="47.31886" lon="-2.39048">
        <ele>37</ele>
        <time>2020-07-23T09:31:24.000Z</time>
      </trkpt>
      <trkpt lat="47.31863" lon="-2.38975">
        <ele>37</ele>
        <time>2020-07-23T09:31:31.000Z</time>
      </trkpt>
      <trkpt lat="47.31859" lon="-2.38966">
        <ele>36.599998474121</ele>
        <time>2020-07-23T09:31:32.000Z</time>
      </trkpt>
      <trkpt lat="47.31856" lon="-2.38959">
        <ele>36</ele>
        <time>2020-07-23T09:31:33.000Z</time>
      </trkpt>
      <trkpt lat="47.31853" lon="-2.38952">
        <ele>35.599998474121</ele>
        <time>2020-07-23T09:31:34.000Z</time>
      </trkpt>
      <trkpt lat="47.31851" lon="-2.38947">
        <ele>35.200000762939</ele>
        <time>2020-07-23T09:31:35.000Z</time>
      </trkpt>
      <trkpt lat="47.31849" lon="-2.38941">
        <ele>34.799999237061</ele>
        <time>2020-07-23T09:31:36.000Z</time>
      </trkpt>
      <trkpt lat="47.31841" lon="-2.38911">
        <ele>34.799999237061</ele>
        <time>2020-07-23T09:31:42.000Z</time>
      </trkpt>
      <trkpt lat="47.3184" lon="-2.38905">
        <ele>34.799999237061</ele>
        <time>2020-07-23T09:31:43.000Z</time>
      </trkpt>
      <trkpt lat="47.31835" lon="-2.38876">
        <ele>34.799999237061</ele>
        <time>2020-07-23T09:31:47.000Z</time>
      </trkpt>
      <trkpt lat="47.31825" lon="-2.38826">
        <ele>34.799999237061</ele>
        <time>2020-07-23T09:31:53.000Z</time>
      </trkpt>
      <trkpt lat="47.31821" lon="-2.38771">
        <ele>34.799999237061</ele>
        <time>2020-07-23T09:31:59.000Z</time>
      </trkpt>
      <trkpt lat="47.31821" lon="-2.38734">
        <ele>35.200000762939</ele>
        <time>2020-07-23T09:32:03.000Z</time>
      </trkpt>
      <trkpt lat="47.31821" lon="-2.38724">
        <ele>35.599998474121</ele>
        <time>2020-07-23T09:32:04.000Z</time>
      </trkpt>
      <trkpt lat="47.31821" lon="-2.38713">
        <ele>36</ele>
        <time>2020-07-23T09:32:05.000Z</time>
      </trkpt>
      <trkpt lat="47.31821" lon="-2.38703">
        <ele>36.400001525879</ele>
        <time>2020-07-23T09:32:06.000Z</time>
      </trkpt>
      <trkpt lat="47.3182" lon="-2.38693">
        <ele>36.799999237061</ele>
        <time>2020-07-23T09:32:07.000Z</time>
      </trkpt>
      <trkpt lat="47.31814" lon="-2.3862">
        <ele>36.799999237061</ele>
        <time>2020-07-23T09:32:14.000Z</time>
      </trkpt>
      <trkpt lat="47.31811" lon="-2.38554">
        <ele>36.799999237061</ele>
        <time>2020-07-23T09:32:21.000Z</time>
      </trkpt>
      <trkpt lat="47.31812" lon="-2.38547">
        <ele>36.799999237061</ele>
        <time>2020-07-23T09:32:22.000Z</time>
      </trkpt>
      <trkpt lat="47.31818" lon="-2.38538">
        <ele>36.799999237061</ele>
        <time>2020-07-23T09:32:24.000Z</time>
      </trkpt>
      <trkpt lat="47.31823" lon="-2.38536">
        <ele>36.799999237061</ele>
        <time>2020-07-23T09:32:26.000Z</time>
      </trkpt>
      <trkpt lat="47.31825" lon="-2.38536">
        <ele>36.799999237061</ele>
        <time>2020-07-23T09:32:27.000Z</time>
      </trkpt>
      <trkpt lat="47.31837" lon="-2.38533">
        <ele>36.799999237061</ele>
        <time>2020-07-23T09:32:33.000Z</time>
      </trkpt>
      <trkpt lat="47.31856" lon="-2.38527">
        <ele>36.799999237061</ele>
        <time>2020-07-23T09:32:38.000Z</time>
      </trkpt>
      <trkpt lat="47.31866" lon="-2.38523">
        <ele>36.400001525879</ele>
        <time>2020-07-23T09:32:40.000Z</time>
      </trkpt>
      <trkpt lat="47.31871" lon="-2.3852">
        <ele>36</ele>
        <time>2020-07-23T09:32:41.000Z</time>
      </trkpt>
      <trkpt lat="47.31876" lon="-2.38518">
        <ele>35.599998474121</ele>
        <time>2020-07-23T09:32:42.000Z</time>
      </trkpt>
      <trkpt lat="47.31882" lon="-2.38516">
        <ele>35.200000762939</ele>
        <time>2020-07-23T09:32:43.000Z</time>
      </trkpt>
      <trkpt lat="47.31888" lon="-2.38514">
        <ele>34.599998474121</ele>
        <time>2020-07-23T09:32:44.000Z</time>
      </trkpt>
      <trkpt lat="47.31913" lon="-2.385">
        <ele>34.599998474121</ele>
        <time>2020-07-23T09:32:48.000Z</time>
      </trkpt>
      <trkpt lat="47.31941" lon="-2.38489">
        <ele>34.200000762939</ele>
        <time>2020-07-23T09:32:52.000Z</time>
      </trkpt>
      <trkpt lat="47.31948" lon="-2.38488">
        <ele>33.799999237061</ele>
        <time>2020-07-23T09:32:53.000Z</time>
      </trkpt>
      <trkpt lat="47.31955" lon="-2.38486">
        <ele>33.400001525879</ele>
        <time>2020-07-23T09:32:54.000Z</time>
      </trkpt>
      <trkpt lat="47.31962" lon="-2.38484">
        <ele>33</ele>
        <time>2020-07-23T09:32:55.000Z</time>
      </trkpt>
      <trkpt lat="47.31969" lon="-2.38482">
        <ele>32.400001525879</ele>
        <time>2020-07-23T09:32:56.000Z</time>
      </trkpt>
      <trkpt lat="47.31998" lon="-2.38471">
        <ele>32.400001525879</ele>
        <time>2020-07-23T09:33:00.000Z</time>
      </trkpt>
      <trkpt lat="47.32012" lon="-2.38465">
        <ele>32</ele>
        <time>2020-07-23T09:33:02.000Z</time>
      </trkpt>
      <trkpt lat="47.32019" lon="-2.38462">
        <ele>31.60000038147</ele>
        <time>2020-07-23T09:33:03.000Z</time>
      </trkpt>
      <trkpt lat="47.32026" lon="-2.38459">
        <ele>31.200000762939</ele>
        <time>2020-07-23T09:33:04.000Z</time>
      </trkpt>
      <trkpt lat="47.32032" lon="-2.38456">
        <ele>30.799999237061</ele>
        <time>2020-07-23T09:33:05.000Z</time>
      </trkpt>
      <trkpt lat="47.3204" lon="-2.38454">
        <ele>30.39999961853</ele>
        <time>2020-07-23T09:33:06.000Z</time>
      </trkpt>
      <trkpt lat="47.32054" lon="-2.38449">
        <ele>30.39999961853</ele>
        <time>2020-07-23T09:33:08.000Z</time>
      </trkpt>
      <trkpt lat="47.32093" lon="-2.38431">
        <ele>30.39999961853</ele>
        <time>2020-07-23T09:33:14.000Z</time>
      </trkpt>
      <trkpt lat="47.321" lon="-2.38427">
        <ele>30</ele>
        <time>2020-07-23T09:33:15.000Z</time>
      </trkpt>
      <trkpt lat="47.32105" lon="-2.38425">
        <ele>29.60000038147</ele>
        <time>2020-07-23T09:33:16.000Z</time>
      </trkpt>
      <trkpt lat="47.32111" lon="-2.38421">
        <ele>29.200000762939</ele>
        <time>2020-07-23T09:33:17.000Z</time>
      </trkpt>
      <trkpt lat="47.32117" lon="-2.38417">
        <ele>28.60000038147</ele>
        <time>2020-07-23T09:33:18.000Z</time>
      </trkpt>
      <trkpt lat="47.32123" lon="-2.38414">
        <ele>28.200000762939</ele>
        <time>2020-07-23T09:33:19.000Z</time>
      </trkpt>
      <trkpt lat="47.32133" lon="-2.38405">
        <ele>28.200000762939</ele>
        <time>2020-07-23T09:33:21.000Z</time>
      </trkpt>
      <trkpt lat="47.32155" lon="-2.38376">
        <ele>27.799999237061</ele>
        <time>2020-07-23T09:33:26.000Z</time>
      </trkpt>
      <trkpt lat="47.32159" lon="-2.38369">
        <ele>27.39999961853</ele>
        <time>2020-07-23T09:33:27.000Z</time>
      </trkpt>
      <trkpt lat="47.32163" lon="-2.38363">
        <ele>27</ele>
        <time>2020-07-23T09:33:28.000Z</time>
      </trkpt>
      <trkpt lat="47.32167" lon="-2.38357">
        <ele>26.60000038147</ele>
        <time>2020-07-23T09:33:29.000Z</time>
      </trkpt>
      <trkpt lat="47.32171" lon="-2.38351">
        <ele>26.200000762939</ele>
        <time>2020-07-23T09:33:30.000Z</time>
      </trkpt>
      <trkpt lat="47.32177" lon="-2.38341">
        <ele>26.200000762939</ele>
        <time>2020-07-23T09:33:32.000Z</time>
      </trkpt>
      <trkpt lat="47.32191" lon="-2.38321">
        <ele>26.200000762939</ele>
        <time>2020-07-23T09:33:37.000Z</time>
      </trkpt>
      <trkpt lat="47.3221" lon="-2.38298">
        <ele>26.200000762939</ele>
        <time>2020-07-23T09:33:42.000Z</time>
      </trkpt>
      <trkpt lat="47.32227" lon="-2.38296">
        <ele>26.200000762939</ele>
        <time>2020-07-23T09:33:45.000Z</time>
      </trkpt>
      <trkpt lat="47.3226" lon="-2.38289">
        <ele>26.200000762939</ele>
        <time>2020-07-23T09:33:51.000Z</time>
      </trkpt>
      <trkpt lat="47.32271" lon="-2.38288">
        <ele>26.200000762939</ele>
        <time>2020-07-23T09:33:53.000Z</time>
      </trkpt>
      <trkpt lat="47.32294" lon="-2.38291">
        <ele>26.200000762939</ele>
        <time>2020-07-23T09:33:57.000Z</time>
      </trkpt>
      <trkpt lat="47.32321" lon="-2.383">
        <ele>26.200000762939</ele>
        <time>2020-07-23T09:34:02.000Z</time>
      </trkpt>
      <trkpt lat="47.32358" lon="-2.38313">
        <ele>27</ele>
        <time>2020-07-23T09:34:09.000Z</time>
      </trkpt>
      <trkpt lat="47.32362" lon="-2.38315">
        <ele>27.39999961853</ele>
        <time>2020-07-23T09:34:10.000Z</time>
      </trkpt>
      <trkpt lat="47.32368" lon="-2.38317">
        <ele>27.799999237061</ele>
        <time>2020-07-23T09:34:11.000Z</time>
      </trkpt>
      <trkpt lat="47.32372" lon="-2.38319">
        <ele>28.200000762939</ele>
        <time>2020-07-23T09:34:12.000Z</time>
      </trkpt>
      <trkpt lat="47.32386" lon="-2.38325">
        <ele>28.200000762939</ele>
        <time>2020-07-23T09:34:15.000Z</time>
      </trkpt>
      <trkpt lat="47.32425" lon="-2.38343">
        <ele>28.60000038147</ele>
        <time>2020-07-23T09:34:23.000Z</time>
      </trkpt>
      <trkpt lat="47.3243" lon="-2.38345">
        <ele>29</ele>
        <time>2020-07-23T09:34:24.000Z</time>
      </trkpt>
      <trkpt lat="47.32435" lon="-2.38348">
        <ele>29.39999961853</ele>
        <time>2020-07-23T09:34:25.000Z</time>
      </trkpt>
      <trkpt lat="47.3244" lon="-2.38351">
        <ele>30</ele>
        <time>2020-07-23T09:34:26.000Z</time>
      </trkpt>
      <trkpt lat="47.32445" lon="-2.38354">
        <ele>30.39999961853</ele>
        <time>2020-07-23T09:34:27.000Z</time>
      </trkpt>
      <trkpt lat="47.32451" lon="-2.38356">
        <ele>30.39999961853</ele>
        <time>2020-07-23T09:34:28.000Z</time>
      </trkpt>
      <trkpt lat="47.32494" lon="-2.38375">
        <ele>30.39999961853</ele>
        <time>2020-07-23T09:34:35.000Z</time>
      </trkpt>
      <trkpt lat="47.32518" lon="-2.38382">
        <ele>30.39999961853</ele>
        <time>2020-07-23T09:34:39.000Z</time>
      </trkpt>
      <trkpt lat="47.32522" lon="-2.3838">
        <ele>30.39999961853</ele>
        <time>2020-07-23T09:34:40.000Z</time>
      </trkpt>
      <trkpt lat="47.32525" lon="-2.38369">
        <ele>30.39999961853</ele>
        <time>2020-07-23T09:34:42.000Z</time>
      </trkpt>
      <trkpt lat="47.32526" lon="-2.38354">
        <ele>30.39999961853</ele>
        <time>2020-07-23T09:34:44.000Z</time>
      </trkpt>
      <trkpt lat="47.32527" lon="-2.38326">
        <ele>30.39999961853</ele>
        <time>2020-07-23T09:34:47.000Z</time>
      </trkpt>
      <trkpt lat="47.32528" lon="-2.38319">
        <ele>30.39999961853</ele>
        <time>2020-07-23T09:34:48.000Z</time>
      </trkpt>
      <trkpt lat="47.32534" lon="-2.38312">
        <ele>30.39999961853</ele>
        <time>2020-07-23T09:34:50.000Z</time>
      </trkpt>
      <trkpt lat="47.32538" lon="-2.3831">
        <ele>29.799999237061</ele>
        <time>2020-07-23T09:34:51.000Z</time>
      </trkpt>
      <trkpt lat="47.32543" lon="-2.38308">
        <ele>29.39999961853</ele>
        <time>2020-07-23T09:34:52.000Z</time>
      </trkpt>
      <trkpt lat="47.32547" lon="-2.38306">
        <ele>29</ele>
        <time>2020-07-23T09:34:53.000Z</time>
      </trkpt>
      <trkpt lat="47.32551" lon="-2.38303">
        <ele>28.60000038147</ele>
        <time>2020-07-23T09:34:54.000Z</time>
      </trkpt>
      <trkpt lat="47.32556" lon="-2.383">
        <ele>28.200000762939</ele>
        <time>2020-07-23T09:34:55.000Z</time>
      </trkpt>
      <trkpt lat="47.32569" lon="-2.38295">
        <ele>28.200000762939</ele>
        <time>2020-07-23T09:34:57.000Z</time>
      </trkpt>
      <trkpt lat="47.32578" lon="-2.38295">
        <ele>28.200000762939</ele>
        <time>2020-07-23T09:34:58.000Z</time>
      </trkpt>
      <trkpt lat="47.32595" lon="-2.38296">
        <ele>28.200000762939</ele>
        <time>2020-07-23T09:35:00.000Z</time>
      </trkpt>
      <trkpt lat="47.32608" lon="-2.38303">
        <ele>28.200000762939</ele>
        <time>2020-07-23T09:35:02.000Z</time>
      </trkpt>
      <trkpt lat="47.32623" lon="-2.38319">
        <ele>28.200000762939</ele>
        <time>2020-07-23T09:35:05.000Z</time>
      </trkpt>
      <trkpt lat="47.32628" lon="-2.38324">
        <ele>28.200000762939</ele>
        <time>2020-07-23T09:35:06.000Z</time>
      </trkpt>
      <trkpt lat="47.32655" lon="-2.38357">
        <ele>28.200000762939</ele>
        <time>2020-07-23T09:35:13.000Z</time>
      </trkpt>
      <trkpt lat="47.3267" lon="-2.38375">
        <ele>28.60000038147</ele>
        <time>2020-07-23T09:35:17.000Z</time>
      </trkpt>
      <trkpt lat="47.32673" lon="-2.38379">
        <ele>29</ele>
        <time>2020-07-23T09:35:18.000Z</time>
      </trkpt>
      <trkpt lat="47.32675" lon="-2.38384">
        <ele>29.39999961853</ele>
        <time>2020-07-23T09:35:19.000Z</time>
      </trkpt>
      <trkpt lat="47.32678" lon="-2.38388">
        <ele>29.799999237061</ele>
        <time>2020-07-23T09:35:20.000Z</time>
      </trkpt>
      <trkpt lat="47.32681" lon="-2.38392">
        <ele>30.200000762939</ele>
        <time>2020-07-23T09:35:21.000Z</time>
      </trkpt>
      <trkpt lat="47.32699" lon="-2.38406">
        <ele>30.200000762939</ele>
        <time>2020-07-23T09:35:26.000Z</time>
      </trkpt>
      <trkpt lat="47.32706" lon="-2.38408">
        <ele>30.60000038147</ele>
        <time>2020-07-23T09:35:28.000Z</time>
      </trkpt>
      <trkpt lat="47.32709" lon="-2.38408">
        <ele>31.200000762939</ele>
        <time>2020-07-23T09:35:29.000Z</time>
      </trkpt>
      <trkpt lat="47.32712" lon="-2.38408">
        <ele>31.60000038147</ele>
        <time>2020-07-23T09:35:30.000Z</time>
      </trkpt>
      <trkpt lat="47.32715" lon="-2.38408">
        <ele>32</ele>
        <time>2020-07-23T09:35:31.000Z</time>
      </trkpt>
      <trkpt lat="47.32719" lon="-2.38408">
        <ele>32.400001525879</ele>
        <time>2020-07-23T09:35:32.000Z</time>
      </trkpt>
      <trkpt lat="47.32739" lon="-2.38403">
        <ele>32.400001525879</ele>
        <time>2020-07-23T09:35:37.000Z</time>
      </trkpt>
      <trkpt lat="47.32754" lon="-2.384">
        <ele>32.799999237061</ele>
        <time>2020-07-23T09:35:41.000Z</time>
      </trkpt>
      <trkpt lat="47.32758" lon="-2.38399">
        <ele>33.200000762939</ele>
        <time>2020-07-23T09:35:42.000Z</time>
      </trkpt>
      <trkpt lat="47.32761" lon="-2.38399">
        <ele>33.599998474121</ele>
        <time>2020-07-23T09:35:43.000Z</time>
      </trkpt>
      <trkpt lat="47.32764" lon="-2.38398">
        <ele>34</ele>
        <time>2020-07-23T09:35:44.000Z</time>
      </trkpt>
      <trkpt lat="47.32768" lon="-2.38397">
        <ele>34.400001525879</ele>
        <time>2020-07-23T09:35:45.000Z</time>
      </trkpt>
      <trkpt lat="47.32779" lon="-2.3839">
        <ele>34.400001525879</ele>
        <time>2020-07-23T09:35:49.000Z</time>
      </trkpt>
      <trkpt lat="47.32783" lon="-2.38368">
        <ele>34.400001525879</ele>
        <time>2020-07-23T09:35:53.000Z</time>
      </trkpt>
      <trkpt lat="47.3279" lon="-2.3833">
        <ele>34.400001525879</ele>
        <time>2020-07-23T09:35:58.000Z</time>
      </trkpt>
      <trkpt lat="47.32803" lon="-2.38282">
        <ele>34.400001525879</ele>
        <time>2020-07-23T09:36:03.000Z</time>
      </trkpt>
      <trkpt lat="47.32811" lon="-2.38247">
        <ele>34</ele>
        <time>2020-07-23T09:36:06.000Z</time>
      </trkpt>
      <trkpt lat="47.32815" lon="-2.38235">
        <ele>33.400001525879</ele>
        <time>2020-07-23T09:36:07.000Z</time>
      </trkpt>
      <trkpt lat="47.32818" lon="-2.38223">
        <ele>33</ele>
        <time>2020-07-23T09:36:08.000Z</time>
      </trkpt>
      <trkpt lat="47.32822" lon="-2.3821">
        <ele>32.599998474121</ele>
        <time>2020-07-23T09:36:09.000Z</time>
      </trkpt>
      <trkpt lat="47.32827" lon="-2.38197">
        <ele>32.200000762939</ele>
        <time>2020-07-23T09:36:10.000Z</time>
      </trkpt>
      <trkpt lat="47.32837" lon="-2.38173">
        <ele>31.60000038147</ele>
        <time>2020-07-23T09:36:12.000Z</time>
      </trkpt>
      <trkpt lat="47.32842" lon="-2.38161">
        <ele>30.799999237061</ele>
        <time>2020-07-23T09:36:13.000Z</time>
      </trkpt>
      <trkpt lat="47.32848" lon="-2.3815">
        <ele>30.39999961853</ele>
        <time>2020-07-23T09:36:14.000Z</time>
      </trkpt>
      <trkpt lat="47.32853" lon="-2.3814">
        <ele>29.799999237061</ele>
        <time>2020-07-23T09:36:15.000Z</time>
      </trkpt>
      <trkpt lat="47.32877" lon="-2.38099">
        <ele>29.39999961853</ele>
        <time>2020-07-23T09:36:19.000Z</time>
      </trkpt>
      <trkpt lat="47.32883" lon="-2.38089">
        <ele>29</ele>
        <time>2020-07-23T09:36:20.000Z</time>
      </trkpt>
      <trkpt lat="47.32889" lon="-2.38079">
        <ele>28.60000038147</ele>
        <time>2020-07-23T09:36:21.000Z</time>
      </trkpt>
      <trkpt lat="47.32895" lon="-2.38069">
        <ele>28</ele>
        <time>2020-07-23T09:36:22.000Z</time>
      </trkpt>
      <trkpt lat="47.32901" lon="-2.38058">
        <ele>27.60000038147</ele>
        <time>2020-07-23T09:36:23.000Z</time>
      </trkpt>
      <trkpt lat="47.3293" lon="-2.3801">
        <ele>27.60000038147</ele>
        <time>2020-07-23T09:36:28.000Z</time>
      </trkpt>
      <trkpt lat="47.32941" lon="-2.37994">
        <ele>27.200000762939</ele>
        <time>2020-07-23T09:36:30.000Z</time>
      </trkpt>
      <trkpt lat="47.32947" lon="-2.37985">
        <ele>26.799999237061</ele>
        <time>2020-07-23T09:36:31.000Z</time>
      </trkpt>
      <trkpt lat="47.32953" lon="-2.37977">
        <ele>26.39999961853</ele>
        <time>2020-07-23T09:36:32.000Z</time>
      </trkpt>
      <trkpt lat="47.32959" lon="-2.37969">
        <ele>26</ele>
        <time>2020-07-23T09:36:33.000Z</time>
      </trkpt>
      <trkpt lat="47.32964" lon="-2.3796">
        <ele>25.60000038147</ele>
        <time>2020-07-23T09:36:34.000Z</time>
      </trkpt>
      <trkpt lat="47.32996" lon="-2.37909">
        <ele>25.60000038147</ele>
        <time>2020-07-23T09:36:40.000Z</time>
      </trkpt>
      <trkpt lat="47.3302" lon="-2.37865">
        <ele>25.200000762939</ele>
        <time>2020-07-23T09:36:45.000Z</time>
      </trkpt>
      <trkpt lat="47.33023" lon="-2.37855">
        <ele>24.799999237061</ele>
        <time>2020-07-23T09:36:46.000Z</time>
      </trkpt>
      <trkpt lat="47.33028" lon="-2.37848">
        <ele>24.39999961853</ele>
        <time>2020-07-23T09:36:47.000Z</time>
      </trkpt>
      <trkpt lat="47.33033" lon="-2.37842">
        <ele>23.799999237061</ele>
        <time>2020-07-23T09:36:48.000Z</time>
      </trkpt>
      <trkpt lat="47.33038" lon="-2.37835">
        <ele>23.39999961853</ele>
        <time>2020-07-23T09:36:49.000Z</time>
      </trkpt>
      <trkpt lat="47.33063" lon="-2.37806">
        <ele>23.39999961853</ele>
        <time>2020-07-23T09:36:54.000Z</time>
      </trkpt>
      <trkpt lat="47.33069" lon="-2.378">
        <ele>23</ele>
        <time>2020-07-23T09:36:55.000Z</time>
      </trkpt>
      <trkpt lat="47.33074" lon="-2.37794">
        <ele>22.60000038147</ele>
        <time>2020-07-23T09:36:56.000Z</time>
      </trkpt>
      <trkpt lat="47.3308" lon="-2.37788">
        <ele>22.200000762939</ele>
        <time>2020-07-23T09:36:57.000Z</time>
      </trkpt>
      <trkpt lat="47.33086" lon="-2.37782">
        <ele>21.799999237061</ele>
        <time>2020-07-23T09:36:58.000Z</time>
      </trkpt>
      <trkpt lat="47.33091" lon="-2.37776">
        <ele>21.39999961853</ele>
        <time>2020-07-23T09:36:59.000Z</time>
      </trkpt>
      <trkpt lat="47.33106" lon="-2.37758">
        <ele>21.39999961853</ele>
        <time>2020-07-23T09:37:02.000Z</time>
      </trkpt>
      <trkpt lat="47.33121" lon="-2.3774">
        <ele>21</ele>
        <time>2020-07-23T09:37:05.000Z</time>
      </trkpt>
      <trkpt lat="47.33127" lon="-2.37737">
        <ele>20.60000038147</ele>
        <time>2020-07-23T09:37:06.000Z</time>
      </trkpt>
      <trkpt lat="47.33134" lon="-2.37735">
        <ele>20.200000762939</ele>
        <time>2020-07-23T09:37:07.000Z</time>
      </trkpt>
      <trkpt lat="47.33141" lon="-2.37735">
        <ele>19.799999237061</ele>
        <time>2020-07-23T09:37:08.000Z</time>
      </trkpt>
      <trkpt lat="47.33149" lon="-2.37739">
        <ele>19.39999961853</ele>
        <time>2020-07-23T09:37:09.000Z</time>
      </trkpt>
      <trkpt lat="47.33157" lon="-2.37742">
        <ele>19.39999961853</ele>
        <time>2020-07-23T09:37:10.000Z</time>
      </trkpt>
      <trkpt lat="47.33175" lon="-2.37764">
        <ele>19.39999961853</ele>
        <time>2020-07-23T09:37:13.000Z</time>
      </trkpt>
      <trkpt lat="47.33179" lon="-2.37772">
        <ele>19.39999961853</ele>
        <time>2020-07-23T09:37:14.000Z</time>
      </trkpt>
      <trkpt lat="47.332" lon="-2.3781">
        <ele>19.39999961853</ele>
        <time>2020-07-23T09:37:19.000Z</time>
      </trkpt>
      <trkpt lat="47.33212" lon="-2.3783">
        <ele>19.799999237061</ele>
        <time>2020-07-23T09:37:22.000Z</time>
      </trkpt>
      <trkpt lat="47.33216" lon="-2.37837">
        <ele>20.200000762939</ele>
        <time>2020-07-23T09:37:23.000Z</time>
      </trkpt>
      <trkpt lat="47.3322" lon="-2.37844">
        <ele>20.60000038147</ele>
        <time>2020-07-23T09:37:24.000Z</time>
      </trkpt>
      <trkpt lat="47.33225" lon="-2.3785">
        <ele>21</ele>
        <time>2020-07-23T09:37:25.000Z</time>
      </trkpt>
      <trkpt lat="47.3323" lon="-2.37856">
        <ele>21.39999961853</ele>
        <time>2020-07-23T09:37:26.000Z</time>
      </trkpt>
      <trkpt lat="47.33236" lon="-2.37861">
        <ele>21.39999961853</ele>
        <time>2020-07-23T09:37:27.000Z</time>
      </trkpt>
      <trkpt lat="47.33247" lon="-2.37869">
        <ele>21.39999961853</ele>
        <time>2020-07-23T09:37:29.000Z</time>
      </trkpt>
      <trkpt lat="47.33257" lon="-2.37876">
        <ele>21.39999961853</ele>
        <time>2020-07-23T09:37:31.000Z</time>
      </trkpt>
      <trkpt lat="47.33266" lon="-2.37877">
        <ele>21.799999237061</ele>
        <time>2020-07-23T09:37:33.000Z</time>
      </trkpt>
      <trkpt lat="47.33271" lon="-2.37876">
        <ele>22.200000762939</ele>
        <time>2020-07-23T09:37:34.000Z</time>
      </trkpt>
      <trkpt lat="47.33275" lon="-2.37874">
        <ele>22.60000038147</ele>
        <time>2020-07-23T09:37:35.000Z</time>
      </trkpt>
      <trkpt lat="47.33279" lon="-2.37873">
        <ele>23</ele>
        <time>2020-07-23T09:37:36.000Z</time>
      </trkpt>
      <trkpt lat="47.33282" lon="-2.37871">
        <ele>23.39999961853</ele>
        <time>2020-07-23T09:37:37.000Z</time>
      </trkpt>
      <trkpt lat="47.33294" lon="-2.37867">
        <ele>24</ele>
        <time>2020-07-23T09:37:40.000Z</time>
      </trkpt>
      <trkpt lat="47.33297" lon="-2.37867">
        <ele>24.39999961853</ele>
        <time>2020-07-23T09:37:41.000Z</time>
      </trkpt>
      <trkpt lat="47.33301" lon="-2.37866">
        <ele>24.799999237061</ele>
        <time>2020-07-23T09:37:42.000Z</time>
      </trkpt>
      <trkpt lat="47.33304" lon="-2.37865">
        <ele>25.39999961853</ele>
        <time>2020-07-23T09:37:43.000Z</time>
      </trkpt>
      <trkpt lat="47.33308" lon="-2.37864">
        <ele>25.799999237061</ele>
        <time>2020-07-23T09:37:44.000Z</time>
      </trkpt>
      <trkpt lat="47.33312" lon="-2.37864">
        <ele>25.799999237061</ele>
        <time>2020-07-23T09:37:45.000Z</time>
      </trkpt>
      <trkpt lat="47.33327" lon="-2.37858">
        <ele>26.200000762939</ele>
        <time>2020-07-23T09:37:49.000Z</time>
      </trkpt>
      <trkpt lat="47.33331" lon="-2.37857">
        <ele>26.60000038147</ele>
        <time>2020-07-23T09:37:50.000Z</time>
      </trkpt>
      <trkpt lat="47.33334" lon="-2.37855">
        <ele>27</ele>
        <time>2020-07-23T09:37:51.000Z</time>
      </trkpt>
      <trkpt lat="47.33338" lon="-2.37855">
        <ele>27.799999237061</ele>
        <time>2020-07-23T09:37:52.000Z</time>
      </trkpt>
      <trkpt lat="47.33361" lon="-2.37849">
        <ele>27.799999237061</ele>
        <time>2020-07-23T09:37:58.000Z</time>
      </trkpt>
      <trkpt lat="47.33374" lon="-2.37825">
        <ele>28.200000762939</ele>
        <time>2020-07-23T09:38:03.000Z</time>
      </trkpt>
      <trkpt lat="47.33376" lon="-2.3782">
        <ele>28.799999237061</ele>
        <time>2020-07-23T09:38:04.000Z</time>
      </trkpt>
      <trkpt lat="47.33379" lon="-2.37814">
        <ele>29.200000762939</ele>
        <time>2020-07-23T09:38:05.000Z</time>
      </trkpt>
      <trkpt lat="47.3338" lon="-2.37809">
        <ele>29.60000038147</ele>
        <time>2020-07-23T09:38:06.000Z</time>
      </trkpt>
      <trkpt lat="47.33382" lon="-2.37803">
        <ele>30</ele>
        <time>2020-07-23T09:38:07.000Z</time>
      </trkpt>
      <trkpt lat="47.33383" lon="-2.37798">
        <ele>30</ele>
        <time>2020-07-23T09:38:08.000Z</time>
      </trkpt>
      <trkpt lat="47.33385" lon="-2.37772">
        <ele>30</ele>
        <time>2020-07-23T09:38:13.000Z</time>
      </trkpt>
      <trkpt lat="47.33386" lon="-2.37751">
        <ele>30</ele>
        <time>2020-07-23T09:38:20.000Z</time>
      </trkpt>
      <trkpt lat="47.33384" lon="-2.3774">
        <ele>30</ele>
        <time>2020-07-23T09:38:26.000Z</time>
      </trkpt>
      <trkpt lat="47.33385" lon="-2.3772">
        <ele>30</ele>
        <time>2020-07-23T09:38:34.000Z</time>
      </trkpt>
      <trkpt lat="47.33385" lon="-2.37696">
        <ele>30</ele>
        <time>2020-07-23T09:38:41.000Z</time>
      </trkpt>
      <trkpt lat="47.33387" lon="-2.37672">
        <ele>30</ele>
        <time>2020-07-23T09:38:48.000Z</time>
      </trkpt>
      <trkpt lat="47.33392" lon="-2.3765">
        <ele>30</ele>
        <time>2020-07-23T09:38:53.000Z</time>
      </trkpt>
      <trkpt lat="47.33405" lon="-2.37632">
        <ele>30</ele>
        <time>2020-07-23T09:38:58.000Z</time>
      </trkpt>
      <trkpt lat="47.33429" lon="-2.37612">
        <ele>30</ele>
        <time>2020-07-23T09:39:05.000Z</time>
      </trkpt>
      <trkpt lat="47.33446" lon="-2.376">
        <ele>30</ele>
        <time>2020-07-23T09:39:11.000Z</time>
      </trkpt>
      <trkpt lat="47.33464" lon="-2.37583">
        <ele>30</ele>
        <time>2020-07-23T09:39:18.000Z</time>
      </trkpt>
      <trkpt lat="47.3348" lon="-2.37566">
        <ele>30</ele>
        <time>2020-07-23T09:39:25.000Z</time>
      </trkpt>
      <trkpt lat="47.33482" lon="-2.37564">
        <ele>30</ele>
        <time>2020-07-23T09:39:27.000Z</time>
      </trkpt>
      <trkpt lat="47.33484" lon="-2.37555">
        <ele>30</ele>
        <time>2020-07-23T09:39:31.000Z</time>
      </trkpt>
      <trkpt lat="47.33486" lon="-2.37554">
        <ele>30</ele>
        <time>2020-07-23T09:39:32.000Z</time>
      </trkpt>
      <trkpt lat="47.33493" lon="-2.37546">
        <ele>30</ele>
        <time>2020-07-23T09:39:38.000Z</time>
      </trkpt>
      <trkpt lat="47.33499" lon="-2.37539">
        <ele>30</ele>
        <time>2020-07-23T09:39:45.000Z</time>
      </trkpt>
      <trkpt lat="47.33503" lon="-2.37529">
        <ele>30</ele>
        <time>2020-07-23T09:39:51.000Z</time>
      </trkpt>
      <trkpt lat="47.33508" lon="-2.37516">
        <ele>30</ele>
        <time>2020-07-23T09:39:59.000Z</time>
      </trkpt>
      <trkpt lat="47.33512" lon="-2.37509">
        <ele>30</ele>
        <time>2020-07-23T09:40:04.000Z</time>
      </trkpt>
      <trkpt lat="47.33514" lon="-2.37507">
        <ele>30</ele>
        <time>2020-07-23T09:40:07.000Z</time>
      </trkpt>
      <trkpt lat="47.33522" lon="-2.37492">
        <ele>29.60000038147</ele>
        <time>2020-07-23T09:40:12.000Z</time>
      </trkpt>
      <trkpt lat="47.33524" lon="-2.37488">
        <ele>28.799999237061</ele>
        <time>2020-07-23T09:40:13.000Z</time>
      </trkpt>
      <trkpt lat="47.33525" lon="-2.37484">
        <ele>28.39999961853</ele>
        <time>2020-07-23T09:40:14.000Z</time>
      </trkpt>
      <trkpt lat="47.33527" lon="-2.3748">
        <ele>28</ele>
        <time>2020-07-23T09:40:15.000Z</time>
      </trkpt>
      <trkpt lat="47.33532" lon="-2.37465">
        <ele>28</ele>
        <time>2020-07-23T09:40:18.000Z</time>
      </trkpt>
      <trkpt lat="47.33533" lon="-2.37459">
        <ele>28</ele>
        <time>2020-07-23T09:40:19.000Z</time>
      </trkpt>
      <trkpt lat="47.33538" lon="-2.37428">
        <ele>28</ele>
        <time>2020-07-23T09:40:24.000Z</time>
      </trkpt>
      <trkpt lat="47.33537" lon="-2.3739">
        <ele>28</ele>
        <time>2020-07-23T09:40:31.000Z</time>
      </trkpt>
      <trkpt lat="47.33538" lon="-2.37369">
        <ele>28</ele>
        <time>2020-07-23T09:40:36.000Z</time>
      </trkpt>
      <trkpt lat="47.33537" lon="-2.37364">
        <ele>27.60000038147</ele>
        <time>2020-07-23T09:40:37.000Z</time>
      </trkpt>
      <trkpt lat="47.33537" lon="-2.37361">
        <ele>26.60000038147</ele>
        <time>2020-07-23T09:40:38.000Z</time>
      </trkpt>
      <trkpt lat="47.33537" lon="-2.37358">
        <ele>26.200000762939</ele>
        <time>2020-07-23T09:40:39.000Z</time>
      </trkpt>
      <trkpt lat="47.33537" lon="-2.37355">
        <ele>25.799999237061</ele>
        <time>2020-07-23T09:40:40.000Z</time>
      </trkpt>
      <trkpt lat="47.33538" lon="-2.37353">
        <ele>25.799999237061</ele>
        <time>2020-07-23T09:40:41.000Z</time>
      </trkpt>
      <trkpt lat="47.33539" lon="-2.37352">
        <ele>25.799999237061</ele>
        <time>2020-07-23T09:40:42.000Z</time>
      </trkpt>
      <trkpt lat="47.3354" lon="-2.37347">
        <ele>25.799999237061</ele>
        <time>2020-07-23T09:40:45.000Z</time>
      </trkpt>
      <trkpt lat="47.33532" lon="-2.37338">
        <ele>25.799999237061</ele>
        <time>2020-07-23T09:40:49.000Z</time>
      </trkpt>
      <trkpt lat="47.33528" lon="-2.37327">
        <ele>25.799999237061</ele>
        <time>2020-07-23T09:40:51.000Z</time>
      </trkpt>
      <trkpt lat="47.33521" lon="-2.37309">
        <ele>25.39999961853</ele>
        <time>2020-07-23T09:40:54.000Z</time>
      </trkpt>
      <trkpt lat="47.33519" lon="-2.37303">
        <ele>25</ele>
        <time>2020-07-23T09:40:55.000Z</time>
      </trkpt>
      <trkpt lat="47.33517" lon="-2.37296">
        <ele>24.60000038147</ele>
        <time>2020-07-23T09:40:56.000Z</time>
      </trkpt>
      <trkpt lat="47.33515" lon="-2.37289">
        <ele>24.200000762939</ele>
        <time>2020-07-23T09:40:57.000Z</time>
      </trkpt>
      <trkpt lat="47.33514" lon="-2.37281">
        <ele>23.799999237061</ele>
        <time>2020-07-23T09:40:58.000Z</time>
      </trkpt>
      <trkpt lat="47.3351" lon="-2.37266">
        <ele>23.799999237061</ele>
        <time>2020-07-23T09:41:00.000Z</time>
      </trkpt>
      <trkpt lat="47.33503" lon="-2.37241">
        <ele>23.799999237061</ele>
        <time>2020-07-23T09:41:03.000Z</time>
      </trkpt>
      <trkpt lat="47.33496" lon="-2.37224">
        <ele>23.799999237061</ele>
        <time>2020-07-23T09:41:05.000Z</time>
      </trkpt>
      <trkpt lat="47.33492" lon="-2.37215">
        <ele>23.39999961853</ele>
        <time>2020-07-23T09:41:06.000Z</time>
      </trkpt>
      <trkpt lat="47.33488" lon="-2.37206">
        <ele>23</ele>
        <time>2020-07-23T09:41:07.000Z</time>
      </trkpt>
      <trkpt lat="47.33485" lon="-2.37197">
        <ele>22.60000038147</ele>
        <time>2020-07-23T09:41:08.000Z</time>
      </trkpt>
      <trkpt lat="47.33483" lon="-2.37188">
        <ele>22</ele>
        <time>2020-07-23T09:41:09.000Z</time>
      </trkpt>
      <trkpt lat="47.33482" lon="-2.37179">
        <ele>21.60000038147</ele>
        <time>2020-07-23T09:41:10.000Z</time>
      </trkpt>
      <trkpt lat="47.33477" lon="-2.3714">
        <ele>21.60000038147</ele>
        <time>2020-07-23T09:41:14.000Z</time>
      </trkpt>
      <trkpt lat="47.33473" lon="-2.37109">
        <ele>21.200000762939</ele>
        <time>2020-07-23T09:41:17.000Z</time>
      </trkpt>
      <trkpt lat="47.33472" lon="-2.37098">
        <ele>20.799999237061</ele>
        <time>2020-07-23T09:41:18.000Z</time>
      </trkpt>
      <trkpt lat="47.33471" lon="-2.37087">
        <ele>20.39999961853</ele>
        <time>2020-07-23T09:41:19.000Z</time>
      </trkpt>
      <trkpt lat="47.3347" lon="-2.37076">
        <ele>20</ele>
        <time>2020-07-23T09:41:20.000Z</time>
      </trkpt>
      <trkpt lat="47.33469" lon="-2.37064">
        <ele>19.60000038147</ele>
        <time>2020-07-23T09:41:21.000Z</time>
      </trkpt>
      <trkpt lat="47.33472" lon="-2.37013">
        <ele>19</ele>
        <time>2020-07-23T09:41:26.000Z</time>
      </trkpt>
      <trkpt lat="47.33472" lon="-2.37006">
        <ele>18.60000038147</ele>
        <time>2020-07-23T09:41:27.000Z</time>
      </trkpt>
      <trkpt lat="47.33473" lon="-2.37">
        <ele>17.799999237061</ele>
        <time>2020-07-23T09:41:28.000Z</time>
      </trkpt>
      <trkpt lat="47.33474" lon="-2.36995">
        <ele>17.200000762939</ele>
        <time>2020-07-23T09:41:29.000Z</time>
      </trkpt>
      <trkpt lat="47.33474" lon="-2.36991">
        <ele>17.200000762939</ele>
        <time>2020-07-23T09:41:30.000Z</time>
      </trkpt>
      <trkpt lat="47.33475" lon="-2.36988">
        <ele>16.799999237061</ele>
        <time>2020-07-23T09:41:31.000Z</time>
      </trkpt>
      <trkpt lat="47.33476" lon="-2.36985">
        <ele>16.39999961853</ele>
        <time>2020-07-23T09:41:32.000Z</time>
      </trkpt>
      <trkpt lat="47.33477" lon="-2.36983">
        <ele>16</ele>
        <time>2020-07-23T09:41:33.000Z</time>
      </trkpt>
      <trkpt lat="47.33477" lon="-2.36982">
        <ele>15.60000038147</ele>
        <time>2020-07-23T09:41:34.000Z</time>
      </trkpt>
      <trkpt lat="47.33478" lon="-2.36982">
        <ele>15.199999809265</ele>
        <time>2020-07-23T09:41:35.000Z</time>
      </trkpt>
      <trkpt lat="47.33473" lon="-2.36991">
        <ele>15.199999809265</ele>
        <time>2020-07-23T09:43:55.000Z</time>
      </trkpt>
      <trkpt lat="47.33469" lon="-2.36989">
        <ele>15.199999809265</ele>
        <time>2020-07-23T09:43:57.000Z</time>
      </trkpt>
      <trkpt lat="47.33463" lon="-2.36976">
        <ele>15.199999809265</ele>
        <time>2020-07-23T09:44:01.000Z</time>
      </trkpt>
      <trkpt lat="47.33458" lon="-2.36968">
        <ele>15.199999809265</ele>
        <time>2020-07-23T09:44:04.000Z</time>
      </trkpt>
      <trkpt lat="47.33455" lon="-2.36963">
        <ele>15.199999809265</ele>
        <time>2020-07-23T09:44:06.000Z</time>
      </trkpt>
      <trkpt lat="47.33451" lon="-2.36938">
        <ele>15.199999809265</ele>
        <time>2020-07-23T09:44:13.000Z</time>
      </trkpt>
      <trkpt lat="47.33448" lon="-2.36904">
        <ele>15.199999809265</ele>
        <time>2020-07-23T09:44:20.000Z</time>
      </trkpt>
      <trkpt lat="47.33452" lon="-2.36874">
        <ele>15.199999809265</ele>
        <time>2020-07-23T09:44:27.000Z</time>
      </trkpt>
      <trkpt lat="47.33458" lon="-2.36864">
        <ele>14.800000190735</ele>
        <time>2020-07-23T09:44:29.000Z</time>
      </trkpt>
      <trkpt lat="47.3346" lon="-2.36853">
        <ele>14.39999961853</ele>
        <time>2020-07-23T09:44:30.000Z</time>
      </trkpt>
      <trkpt lat="47.33461" lon="-2.36845">
        <ele>13.800000190735</ele>
        <time>2020-07-23T09:44:31.000Z</time>
      </trkpt>
      <trkpt lat="47.33463" lon="-2.36837">
        <ele>13.39999961853</ele>
        <time>2020-07-23T09:44:32.000Z</time>
      </trkpt>
      <trkpt lat="47.33465" lon="-2.36829">
        <ele>13</ele>
        <time>2020-07-23T09:44:33.000Z</time>
      </trkpt>
      <trkpt lat="47.33467" lon="-2.36816">
        <ele>13</ele>
        <time>2020-07-23T09:44:35.000Z</time>
      </trkpt>
      <trkpt lat="47.33468" lon="-2.36809">
        <ele>13</ele>
        <time>2020-07-23T09:44:36.000Z</time>
      </trkpt>
      <trkpt lat="47.3347" lon="-2.36796">
        <ele>13</ele>
        <time>2020-07-23T09:44:38.000Z</time>
      </trkpt>
      <trkpt lat="47.33472" lon="-2.36783">
        <ele>13</ele>
        <time>2020-07-23T09:44:40.000Z</time>
      </trkpt>
      <trkpt lat="47.33473" lon="-2.36772">
        <ele>13</ele>
        <time>2020-07-23T09:44:42.000Z</time>
      </trkpt>
      <trkpt lat="47.33486" lon="-2.36737">
        <ele>13</ele>
        <time>2020-07-23T09:44:49.000Z</time>
      </trkpt>
      <trkpt lat="47.33498" lon="-2.36707">
        <ele>13</ele>
        <time>2020-07-23T09:44:55.000Z</time>
      </trkpt>
      <trkpt lat="47.33514" lon="-2.3668">
        <ele>13</ele>
        <time>2020-07-23T09:45:01.000Z</time>
      </trkpt>
      <trkpt lat="47.33524" lon="-2.36666">
        <ele>13</ele>
        <time>2020-07-23T09:45:06.000Z</time>
      </trkpt>
      <trkpt lat="47.33525" lon="-2.36665">
        <ele>12.60000038147</ele>
        <time>2020-07-23T09:45:07.000Z</time>
      </trkpt>
      <trkpt lat="47.33527" lon="-2.36663">
        <ele>12.199999809265</ele>
        <time>2020-07-23T09:45:08.000Z</time>
      </trkpt>
      <trkpt lat="47.33528" lon="-2.36662">
        <ele>11.800000190735</ele>
        <time>2020-07-23T09:45:09.000Z</time>
      </trkpt>
      <trkpt lat="47.33529" lon="-2.36661">
        <ele>11</ele>
        <time>2020-07-23T09:45:10.000Z</time>
      </trkpt>
      <trkpt lat="47.3353" lon="-2.3666">
        <ele>11</ele>
        <time>2020-07-23T09:45:12.000Z</time>
      </trkpt>
      <trkpt lat="47.33535" lon="-2.36654">
        <ele>11</ele>
        <time>2020-07-23T09:46:29.000Z</time>
      </trkpt>
      <trkpt lat="47.33537" lon="-2.36649">
        <ele>11</ele>
        <time>2020-07-23T09:46:31.000Z</time>
      </trkpt>
      <trkpt lat="47.3354" lon="-2.3664">
        <ele>11</ele>
        <time>2020-07-23T09:46:34.000Z</time>
      </trkpt>
      <trkpt lat="47.3354" lon="-2.36638">
        <ele>11</ele>
        <time>2020-07-23T09:46:35.000Z</time>
      </trkpt>
      <trkpt lat="47.33538" lon="-2.36633">
        <ele>11</ele>
        <time>2020-07-23T09:46:38.000Z</time>
      </trkpt>
      <trkpt lat="47.33537" lon="-2.36631">
        <ele>11.39999961853</ele>
        <time>2020-07-23T09:46:40.000Z</time>
      </trkpt>
      <trkpt lat="47.33535" lon="-2.36629">
        <ele>13</ele>
        <time>2020-07-23T09:46:44.000Z</time>
      </trkpt>
      <trkpt lat="47.3353" lon="-2.3662">
        <ele>13</ele>
        <time>2020-07-23T09:46:49.000Z</time>
      </trkpt>
      <trkpt lat="47.33528" lon="-2.36616">
        <ele>14.800000190735</ele>
        <time>2020-07-23T09:46:53.000Z</time>
      </trkpt>
      <trkpt lat="47.33526" lon="-2.36614">
        <ele>15.199999809265</ele>
        <time>2020-07-23T09:46:54.000Z</time>
      </trkpt>
      <trkpt lat="47.33516" lon="-2.3661">
        <ele>15.199999809265</ele>
        <time>2020-07-23T09:46:57.000Z</time>
      </trkpt>
      <trkpt lat="47.33502" lon="-2.366">
        <ele>15.60000038147</ele>
        <time>2020-07-23T09:47:01.000Z</time>
      </trkpt>
      <trkpt lat="47.33499" lon="-2.36597">
        <ele>16</ele>
        <time>2020-07-23T09:47:02.000Z</time>
      </trkpt>
      <trkpt lat="47.33495" lon="-2.36596">
        <ele>16.39999961853</ele>
        <time>2020-07-23T09:47:03.000Z</time>
      </trkpt>
      <trkpt lat="47.33491" lon="-2.36596">
        <ele>17</ele>
        <time>2020-07-23T09:47:04.000Z</time>
      </trkpt>
      <trkpt lat="47.33487" lon="-2.36595">
        <ele>17.39999961853</ele>
        <time>2020-07-23T09:47:05.000Z</time>
      </trkpt>
      <trkpt lat="47.33472" lon="-2.36593">
        <ele>17.39999961853</ele>
        <time>2020-07-23T09:47:09.000Z</time>
      </trkpt>
      <trkpt lat="47.33471" lon="-2.36589">
        <ele>17.39999961853</ele>
        <time>2020-07-23T09:47:10.000Z</time>
      </trkpt>
      <trkpt lat="47.3347" lon="-2.36584">
        <ele>17.39999961853</ele>
        <time>2020-07-23T09:47:11.000Z</time>
      </trkpt>
      <trkpt lat="47.33471" lon="-2.36567">
        <ele>17.39999961853</ele>
        <time>2020-07-23T09:47:14.000Z</time>
      </trkpt>
      <trkpt lat="47.33473" lon="-2.36554">
        <ele>17.39999961853</ele>
        <time>2020-07-23T09:47:16.000Z</time>
      </trkpt>
      <trkpt lat="47.33474" lon="-2.36527">
        <ele>17.39999961853</ele>
        <time>2020-07-23T09:47:20.000Z</time>
      </trkpt>
      <trkpt lat="47.33474" lon="-2.36513">
        <ele>17.39999961853</ele>
        <time>2020-07-23T09:47:22.000Z</time>
      </trkpt>
      <trkpt lat="47.33475" lon="-2.36485">
        <ele>17.799999237061</ele>
        <time>2020-07-23T09:47:26.000Z</time>
      </trkpt>
      <trkpt lat="47.33475" lon="-2.36477">
        <ele>18.200000762939</ele>
        <time>2020-07-23T09:47:27.000Z</time>
      </trkpt>
      <trkpt lat="47.33475" lon="-2.36471">
        <ele>18.60000038147</ele>
        <time>2020-07-23T09:47:28.000Z</time>
      </trkpt>
      <trkpt lat="47.33475" lon="-2.36464">
        <ele>19</ele>
        <time>2020-07-23T09:47:29.000Z</time>
      </trkpt>
      <trkpt lat="47.33474" lon="-2.36457">
        <ele>19.39999961853</ele>
        <time>2020-07-23T09:47:30.000Z</time>
      </trkpt>
      <trkpt lat="47.33474" lon="-2.36451">
        <ele>19.39999961853</ele>
        <time>2020-07-23T09:47:31.000Z</time>
      </trkpt>
      <trkpt lat="47.33471" lon="-2.36418">
        <ele>19.39999961853</ele>
        <time>2020-07-23T09:47:37.000Z</time>
      </trkpt>
      <trkpt lat="47.33459" lon="-2.36406">
        <ele>19.39999961853</ele>
        <time>2020-07-23T09:47:42.000Z</time>
      </trkpt>
      <trkpt lat="47.33443" lon="-2.36383">
        <ele>19.39999961853</ele>
        <time>2020-07-23T09:47:48.000Z</time>
      </trkpt>
      <trkpt lat="47.3343" lon="-2.36351">
        <ele>19.799999237061</ele>
        <time>2020-07-23T09:47:54.000Z</time>
      </trkpt>
      <trkpt lat="47.33428" lon="-2.36347">
        <ele>20.200000762939</ele>
        <time>2020-07-23T09:47:55.000Z</time>
      </trkpt>
      <trkpt lat="47.33427" lon="-2.36342">
        <ele>20.60000038147</ele>
        <time>2020-07-23T09:47:56.000Z</time>
      </trkpt>
      <trkpt lat="47.33425" lon="-2.36337">
        <ele>21</ele>
        <time>2020-07-23T09:47:57.000Z</time>
      </trkpt>
      <trkpt lat="47.33424" lon="-2.36332">
        <ele>21.60000038147</ele>
        <time>2020-07-23T09:47:58.000Z</time>
      </trkpt>
      <trkpt lat="47.33421" lon="-2.36321">
        <ele>21.60000038147</ele>
        <time>2020-07-23T09:48:00.000Z</time>
      </trkpt>
      <trkpt lat="47.33413" lon="-2.36287">
        <ele>21.60000038147</ele>
        <time>2020-07-23T09:48:06.000Z</time>
      </trkpt>
      <trkpt lat="47.33412" lon="-2.3628">
        <ele>21.60000038147</ele>
        <time>2020-07-23T09:48:07.000Z</time>
      </trkpt>
      <trkpt lat="47.33411" lon="-2.36266">
        <ele>21.60000038147</ele>
        <time>2020-07-23T09:48:09.000Z</time>
      </trkpt>
      <trkpt lat="47.33411" lon="-2.36236">
        <ele>22</ele>
        <time>2020-07-23T09:48:13.000Z</time>
      </trkpt>
      <trkpt lat="47.33411" lon="-2.36229">
        <ele>22.39999961853</ele>
        <time>2020-07-23T09:48:14.000Z</time>
      </trkpt>
      <trkpt lat="47.33412" lon="-2.36221">
        <ele>22.799999237061</ele>
        <time>2020-07-23T09:48:15.000Z</time>
      </trkpt>
      <trkpt lat="47.33413" lon="-2.36214">
        <ele>23.200000762939</ele>
        <time>2020-07-23T09:48:16.000Z</time>
      </trkpt>
      <trkpt lat="47.33415" lon="-2.36207">
        <ele>23.60000038147</ele>
        <time>2020-07-23T09:48:17.000Z</time>
      </trkpt>
      <trkpt lat="47.33415" lon="-2.36201">
        <ele>23.60000038147</ele>
        <time>2020-07-23T09:48:18.000Z</time>
      </trkpt>
      <trkpt lat="47.33412" lon="-2.3617">
        <ele>23.60000038147</ele>
        <time>2020-07-23T09:48:23.000Z</time>
      </trkpt>
      <trkpt lat="47.33407" lon="-2.36161">
        <ele>23.60000038147</ele>
        <time>2020-07-23T09:48:25.000Z</time>
      </trkpt>
      <trkpt lat="47.33404" lon="-2.36159">
        <ele>23.60000038147</ele>
        <time>2020-07-23T09:48:26.000Z</time>
      </trkpt>
      <trkpt lat="47.33395" lon="-2.36163">
        <ele>23.60000038147</ele>
        <time>2020-07-23T09:48:29.000Z</time>
      </trkpt>
      <trkpt lat="47.33369" lon="-2.36184">
        <ele>23.60000038147</ele>
        <time>2020-07-23T09:48:34.000Z</time>
      </trkpt>
      <trkpt lat="47.33332" lon="-2.36209">
        <ele>23.60000038147</ele>
        <time>2020-07-23T09:48:41.000Z</time>
      </trkpt>
      <trkpt lat="47.33327" lon="-2.36213">
        <ele>23.60000038147</ele>
        <time>2020-07-23T09:48:42.000Z</time>
      </trkpt>
      <trkpt lat="47.33315" lon="-2.36221">
        <ele>23.60000038147</ele>
        <time>2020-07-23T09:48:45.000Z</time>
      </trkpt>
      <trkpt lat="47.33311" lon="-2.36212">
        <ele>23.60000038147</ele>
        <time>2020-07-23T09:48:47.000Z</time>
      </trkpt>
      <trkpt lat="47.3331" lon="-2.36192">
        <ele>23.60000038147</ele>
        <time>2020-07-23T09:48:50.000Z</time>
      </trkpt>
      <trkpt lat="47.3331" lon="-2.36185">
        <ele>23.60000038147</ele>
        <time>2020-07-23T09:48:51.000Z</time>
      </trkpt>
      <trkpt lat="47.33309" lon="-2.36139">
        <ele>23.60000038147</ele>
        <time>2020-07-23T09:48:57.000Z</time>
      </trkpt>
      <trkpt lat="47.33309" lon="-2.36088">
        <ele>24</ele>
        <time>2020-07-23T09:49:03.000Z</time>
      </trkpt>
      <trkpt lat="47.33309" lon="-2.3608">
        <ele>24.39999961853</ele>
        <time>2020-07-23T09:49:04.000Z</time>
      </trkpt>
      <trkpt lat="47.33309" lon="-2.36071">
        <ele>24.799999237061</ele>
        <time>2020-07-23T09:49:05.000Z</time>
      </trkpt>
      <trkpt lat="47.33309" lon="-2.36062">
        <ele>25.200000762939</ele>
        <time>2020-07-23T09:49:06.000Z</time>
      </trkpt>
      <trkpt lat="47.33309" lon="-2.36052">
        <ele>25.60000038147</ele>
        <time>2020-07-23T09:49:07.000Z</time>
      </trkpt>
      <trkpt lat="47.33313" lon="-2.36005">
        <ele>25.60000038147</ele>
        <time>2020-07-23T09:49:12.000Z</time>
      </trkpt>
      <trkpt lat="47.33321" lon="-2.35956">
        <ele>25.60000038147</ele>
        <time>2020-07-23T09:49:17.000Z</time>
      </trkpt>
      <trkpt lat="47.33318" lon="-2.35914">
        <ele>25.60000038147</ele>
        <time>2020-07-23T09:49:21.000Z</time>
      </trkpt>
      <trkpt lat="47.33302" lon="-2.35876">
        <ele>25.60000038147</ele>
        <time>2020-07-23T09:49:25.000Z</time>
      </trkpt>
      <trkpt lat="47.33291" lon="-2.35859">
        <ele>25.60000038147</ele>
        <time>2020-07-23T09:49:27.000Z</time>
      </trkpt>
      <trkpt lat="47.33277" lon="-2.35846">
        <ele>25.60000038147</ele>
        <time>2020-07-23T09:49:29.000Z</time>
      </trkpt>
      <trkpt lat="47.33269" lon="-2.3584">
        <ele>25.60000038147</ele>
        <time>2020-07-23T09:49:30.000Z</time>
      </trkpt>
      <trkpt lat="47.33237" lon="-2.35812">
        <ele>25.200000762939</ele>
        <time>2020-07-23T09:49:34.000Z</time>
      </trkpt>
      <trkpt lat="47.33229" lon="-2.35806">
        <ele>24.799999237061</ele>
        <time>2020-07-23T09:49:35.000Z</time>
      </trkpt>
      <trkpt lat="47.33222" lon="-2.358">
        <ele>24.39999961853</ele>
        <time>2020-07-23T09:49:36.000Z</time>
      </trkpt>
      <trkpt lat="47.33213" lon="-2.35795">
        <ele>23.799999237061</ele>
        <time>2020-07-23T09:49:37.000Z</time>
      </trkpt>
      <trkpt lat="47.33205" lon="-2.3579">
        <ele>23.39999961853</ele>
        <time>2020-07-23T09:49:38.000Z</time>
      </trkpt>
      <trkpt lat="47.33197" lon="-2.35787">
        <ele>23</ele>
        <time>2020-07-23T09:49:39.000Z</time>
      </trkpt>
      <trkpt lat="47.33188" lon="-2.35785">
        <ele>22.60000038147</ele>
        <time>2020-07-23T09:49:40.000Z</time>
      </trkpt>
      <trkpt lat="47.33174" lon="-2.35791">
        <ele>22</ele>
        <time>2020-07-23T09:49:41.000Z</time>
      </trkpt>
      <trkpt lat="47.33162" lon="-2.35794">
        <ele>21</ele>
        <time>2020-07-23T09:49:42.000Z</time>
      </trkpt>
      <trkpt lat="47.33134" lon="-2.35795">
        <ele>21</ele>
        <time>2020-07-23T09:49:45.000Z</time>
      </trkpt>
      <trkpt lat="47.33105" lon="-2.35799">
        <ele>20.60000038147</ele>
        <time>2020-07-23T09:49:48.000Z</time>
      </trkpt>
      <trkpt lat="47.33096" lon="-2.358">
        <ele>20.200000762939</ele>
        <time>2020-07-23T09:49:49.000Z</time>
      </trkpt>
      <trkpt lat="47.33087" lon="-2.358">
        <ele>19.799999237061</ele>
        <time>2020-07-23T09:49:50.000Z</time>
      </trkpt>
      <trkpt lat="47.33078" lon="-2.35801">
        <ele>19.39999961853</ele>
        <time>2020-07-23T09:49:51.000Z</time>
      </trkpt>
      <trkpt lat="47.33069" lon="-2.35802">
        <ele>19</ele>
        <time>2020-07-23T09:49:52.000Z</time>
      </trkpt>
      <trkpt lat="47.33028" lon="-2.35792">
        <ele>18.60000038147</ele>
        <time>2020-07-23T09:49:57.000Z</time>
      </trkpt>
      <trkpt lat="47.33022" lon="-2.35785">
        <ele>18.200000762939</ele>
        <time>2020-07-23T09:49:58.000Z</time>
      </trkpt>
      <trkpt lat="47.33017" lon="-2.35775">
        <ele>17.799999237061</ele>
        <time>2020-07-23T09:49:59.000Z</time>
      </trkpt>
      <trkpt lat="47.33013" lon="-2.35765">
        <ele>17.39999961853</ele>
        <time>2020-07-23T09:50:00.000Z</time>
      </trkpt>
      <trkpt lat="47.3301" lon="-2.35755">
        <ele>17</ele>
        <time>2020-07-23T09:50:01.000Z</time>
      </trkpt>
      <trkpt lat="47.33007" lon="-2.35719">
        <ele>17</ele>
        <time>2020-07-23T09:50:04.000Z</time>
      </trkpt>
      <trkpt lat="47.3301" lon="-2.35684">
        <ele>16.200000762939</ele>
        <time>2020-07-23T09:50:07.000Z</time>
      </trkpt>
      <trkpt lat="47.33013" lon="-2.35674">
        <ele>15.800000190735</ele>
        <time>2020-07-23T09:50:08.000Z</time>
      </trkpt>
      <trkpt lat="47.33015" lon="-2.35664">
        <ele>15.39999961853</ele>
        <time>2020-07-23T09:50:09.000Z</time>
      </trkpt>
      <trkpt lat="47.33016" lon="-2.35653">
        <ele>15</ele>
        <time>2020-07-23T09:50:10.000Z</time>
      </trkpt>
      <trkpt lat="47.33017" lon="-2.35634">
        <ele>15</ele>
        <time>2020-07-23T09:50:12.000Z</time>
      </trkpt>
      <trkpt lat="47.33018" lon="-2.35626">
        <ele>15</ele>
        <time>2020-07-23T09:50:13.000Z</time>
      </trkpt>
      <trkpt lat="47.33019" lon="-2.3561">
        <ele>15</ele>
        <time>2020-07-23T09:50:15.000Z</time>
      </trkpt>
      <trkpt lat="47.33022" lon="-2.35588">
        <ele>15</ele>
        <time>2020-07-23T09:50:18.000Z</time>
      </trkpt>
      <trkpt lat="47.33026" lon="-2.35556">
        <ele>15</ele>
        <time>2020-07-23T09:50:23.000Z</time>
      </trkpt>
      <trkpt lat="47.33027" lon="-2.35535">
        <ele>15.39999961853</ele>
        <time>2020-07-23T09:50:26.000Z</time>
      </trkpt>
      <trkpt lat="47.33027" lon="-2.35527">
        <ele>15.800000190735</ele>
        <time>2020-07-23T09:50:27.000Z</time>
      </trkpt>
      <trkpt lat="47.33027" lon="-2.35519">
        <ele>16.200000762939</ele>
        <time>2020-07-23T09:50:28.000Z</time>
      </trkpt>
      <trkpt lat="47.33027" lon="-2.35511">
        <ele>16.60000038147</ele>
        <time>2020-07-23T09:50:29.000Z</time>
      </trkpt>
      <trkpt lat="47.33028" lon="-2.35504">
        <ele>17.200000762939</ele>
        <time>2020-07-23T09:50:30.000Z</time>
      </trkpt>
      <trkpt lat="47.33031" lon="-2.35476">
        <ele>17.200000762939</ele>
        <time>2020-07-23T09:50:34.000Z</time>
      </trkpt>
      <trkpt lat="47.33031" lon="-2.35462">
        <ele>17.200000762939</ele>
        <time>2020-07-23T09:50:36.000Z</time>
      </trkpt>
      <trkpt lat="47.33029" lon="-2.35444">
        <ele>17.200000762939</ele>
        <time>2020-07-23T09:50:39.000Z</time>
      </trkpt>
      <trkpt lat="47.33029" lon="-2.35412">
        <ele>17.200000762939</ele>
        <time>2020-07-23T09:50:44.000Z</time>
      </trkpt>
      <trkpt lat="47.33028" lon="-2.35405">
        <ele>17.60000038147</ele>
        <time>2020-07-23T09:50:45.000Z</time>
      </trkpt>
      <trkpt lat="47.33027" lon="-2.35399">
        <ele>18</ele>
        <time>2020-07-23T09:50:46.000Z</time>
      </trkpt>
      <trkpt lat="47.33025" lon="-2.35392">
        <ele>18.39999961853</ele>
        <time>2020-07-23T09:50:47.000Z</time>
      </trkpt>
      <trkpt lat="47.33024" lon="-2.35385">
        <ele>18.799999237061</ele>
        <time>2020-07-23T09:50:48.000Z</time>
      </trkpt>
      <trkpt lat="47.33023" lon="-2.35378">
        <ele>19.200000762939</ele>
        <time>2020-07-23T09:50:49.000Z</time>
      </trkpt>
      <trkpt lat="47.3302" lon="-2.35356">
        <ele>19.200000762939</ele>
        <time>2020-07-23T09:50:52.000Z</time>
      </trkpt>
      <trkpt lat="47.33018" lon="-2.35312">
        <ele>19.200000762939</ele>
        <time>2020-07-23T09:50:58.000Z</time>
      </trkpt>
      <trkpt lat="47.33018" lon="-2.35305">
        <ele>19.200000762939</ele>
        <time>2020-07-23T09:50:59.000Z</time>
      </trkpt>
      <trkpt lat="47.33021" lon="-2.35274">
        <ele>19.60000038147</ele>
        <time>2020-07-23T09:51:03.000Z</time>
      </trkpt>
      <trkpt lat="47.33022" lon="-2.35265">
        <ele>20</ele>
        <time>2020-07-23T09:51:04.000Z</time>
      </trkpt>
      <trkpt lat="47.33021" lon="-2.35257">
        <ele>20.39999961853</ele>
        <time>2020-07-23T09:51:05.000Z</time>
      </trkpt>
      <trkpt lat="47.3302" lon="-2.35248">
        <ele>20.799999237061</ele>
        <time>2020-07-23T09:51:06.000Z</time>
      </trkpt>
      <trkpt lat="47.3302" lon="-2.3524">
        <ele>21.200000762939</ele>
        <time>2020-07-23T09:51:07.000Z</time>
      </trkpt>
      <trkpt lat="47.33019" lon="-2.35233">
        <ele>21.200000762939</ele>
        <time>2020-07-23T09:51:08.000Z</time>
      </trkpt>
      <trkpt lat="47.33021" lon="-2.35199">
        <ele>21.200000762939</ele>
        <time>2020-07-23T09:51:12.000Z</time>
      </trkpt>
      <trkpt lat="47.33023" lon="-2.35174">
        <ele>21.200000762939</ele>
        <time>2020-07-23T09:51:15.000Z</time>
      </trkpt>
      <trkpt lat="47.33023" lon="-2.35159">
        <ele>21.200000762939</ele>
        <time>2020-07-23T09:51:17.000Z</time>
      </trkpt>
      <trkpt lat="47.33022" lon="-2.35143">
        <ele>21.200000762939</ele>
        <time>2020-07-23T09:51:19.000Z</time>
      </trkpt>
      <trkpt lat="47.33019" lon="-2.35113">
        <ele>21.200000762939</ele>
        <time>2020-07-23T09:51:23.000Z</time>
      </trkpt>
      <trkpt lat="47.33016" lon="-2.35098">
        <ele>20.799999237061</ele>
        <time>2020-07-23T09:51:25.000Z</time>
      </trkpt>
      <trkpt lat="47.33015" lon="-2.3509">
        <ele>20.39999961853</ele>
        <time>2020-07-23T09:51:26.000Z</time>
      </trkpt>
      <trkpt lat="47.33013" lon="-2.35084">
        <ele>20</ele>
        <time>2020-07-23T09:51:27.000Z</time>
      </trkpt>
      <trkpt lat="47.33011" lon="-2.35078">
        <ele>19.60000038147</ele>
        <time>2020-07-23T09:51:28.000Z</time>
      </trkpt>
      <trkpt lat="47.33009" lon="-2.35071">
        <ele>19.200000762939</ele>
        <time>2020-07-23T09:51:29.000Z</time>
      </trkpt>
      <trkpt lat="47.33004" lon="-2.35049">
        <ele>19.200000762939</ele>
        <time>2020-07-23T09:51:33.000Z</time>
      </trkpt>
      <trkpt lat="47.32991" lon="-2.35022">
        <ele>19.200000762939</ele>
        <time>2020-07-23T09:51:39.000Z</time>
      </trkpt>
      <trkpt lat="47.32988" lon="-2.35016">
        <ele>18.799999237061</ele>
        <time>2020-07-23T09:51:40.000Z</time>
      </trkpt>
      <trkpt lat="47.32985" lon="-2.35009">
        <ele>18.39999961853</ele>
        <time>2020-07-23T09:51:41.000Z</time>
      </trkpt>
      <trkpt lat="47.32983" lon="-2.35002">
        <ele>17.799999237061</ele>
        <time>2020-07-23T09:51:42.000Z</time>
      </trkpt>
      <trkpt lat="47.3298" lon="-2.34996">
        <ele>17.39999961853</ele>
        <time>2020-07-23T09:51:43.000Z</time>
      </trkpt>
      <trkpt lat="47.32978" lon="-2.3499">
        <ele>17</ele>
        <time>2020-07-23T09:51:44.000Z</time>
      </trkpt>
      <trkpt lat="47.32974" lon="-2.34976">
        <ele>17</ele>
        <time>2020-07-23T09:51:46.000Z</time>
      </trkpt>
      <trkpt lat="47.32954" lon="-2.3492">
        <ele>17</ele>
        <time>2020-07-23T09:51:53.000Z</time>
      </trkpt>
      <trkpt lat="47.32935" lon="-2.34867">
        <ele>17</ele>
        <time>2020-07-23T09:52:00.000Z</time>
      </trkpt>
      <trkpt lat="47.32918" lon="-2.34824">
        <ele>17</ele>
        <time>2020-07-23T09:52:06.000Z</time>
      </trkpt>
      <trkpt lat="47.3291" lon="-2.34815">
        <ele>16.60000038147</ele>
        <time>2020-07-23T09:52:08.000Z</time>
      </trkpt>
      <trkpt lat="47.32904" lon="-2.3481">
        <ele>16.200000762939</ele>
        <time>2020-07-23T09:52:09.000Z</time>
      </trkpt>
      <trkpt lat="47.32899" lon="-2.34806">
        <ele>15.39999961853</ele>
        <time>2020-07-23T09:52:10.000Z</time>
      </trkpt>
      <trkpt lat="47.32894" lon="-2.34805">
        <ele>15</ele>
        <time>2020-07-23T09:52:11.000Z</time>
      </trkpt>
      <trkpt lat="47.32888" lon="-2.34805">
        <ele>15</ele>
        <time>2020-07-23T09:52:12.000Z</time>
      </trkpt>
      <trkpt lat="47.32883" lon="-2.34807">
        <ele>15</ele>
        <time>2020-07-23T09:52:13.000Z</time>
      </trkpt>
      <trkpt lat="47.32855" lon="-2.34823">
        <ele>15</ele>
        <time>2020-07-23T09:52:18.000Z</time>
      </trkpt>
      <trkpt lat="47.32838" lon="-2.34834">
        <ele>15.39999961853</ele>
        <time>2020-07-23T09:52:21.000Z</time>
      </trkpt>
      <trkpt lat="47.32832" lon="-2.34838">
        <ele>15.800000190735</ele>
        <time>2020-07-23T09:52:22.000Z</time>
      </trkpt>
      <trkpt lat="47.32827" lon="-2.34842">
        <ele>16.200000762939</ele>
        <time>2020-07-23T09:52:23.000Z</time>
      </trkpt>
      <trkpt lat="47.32822" lon="-2.34845">
        <ele>16.60000038147</ele>
        <time>2020-07-23T09:52:24.000Z</time>
      </trkpt>
      <trkpt lat="47.32817" lon="-2.34849">
        <ele>17</ele>
        <time>2020-07-23T09:52:25.000Z</time>
      </trkpt>
      <trkpt lat="47.32782" lon="-2.34872">
        <ele>17</ele>
        <time>2020-07-23T09:52:32.000Z</time>
      </trkpt>
      <trkpt lat="47.32749" lon="-2.34894">
        <ele>17</ele>
        <time>2020-07-23T09:52:38.000Z</time>
      </trkpt>
      <trkpt lat="47.32703" lon="-2.34927">
        <ele>17</ele>
        <time>2020-07-23T09:52:46.000Z</time>
      </trkpt>
      <trkpt lat="47.32677" lon="-2.34947">
        <ele>17.39999961853</ele>
        <time>2020-07-23T09:52:51.000Z</time>
      </trkpt>
      <trkpt lat="47.32673" lon="-2.3495">
        <ele>17.799999237061</ele>
        <time>2020-07-23T09:52:52.000Z</time>
      </trkpt>
      <trkpt lat="47.32669" lon="-2.34954">
        <ele>18.200000762939</ele>
        <time>2020-07-23T09:52:53.000Z</time>
      </trkpt>
      <trkpt lat="47.32665" lon="-2.34957">
        <ele>18.60000038147</ele>
        <time>2020-07-23T09:52:54.000Z</time>
      </trkpt>
      <trkpt lat="47.32662" lon="-2.34959">
        <ele>19</ele>
        <time>2020-07-23T09:52:55.000Z</time>
      </trkpt>
      <trkpt lat="47.3266" lon="-2.3496">
        <ele>19</ele>
        <time>2020-07-23T09:52:56.000Z</time>
      </trkpt>
      <trkpt lat="47.32659" lon="-2.34961">
        <ele>19</ele>
        <time>2020-07-23T09:52:58.000Z</time>
      </trkpt>
      <trkpt lat="47.32655" lon="-2.34962">
        <ele>19</ele>
        <time>2020-07-23T09:53:10.000Z</time>
      </trkpt>
      <trkpt lat="47.32652" lon="-2.34963">
        <ele>19</ele>
        <time>2020-07-23T09:53:11.000Z</time>
      </trkpt>
      <trkpt lat="47.32633" lon="-2.34973">
        <ele>19</ele>
        <time>2020-07-23T09:53:16.000Z</time>
      </trkpt>
      <trkpt lat="47.32619" lon="-2.34982">
        <ele>19</ele>
        <time>2020-07-23T09:53:19.000Z</time>
      </trkpt>
      <trkpt lat="47.32614" lon="-2.34985">
        <ele>19</ele>
        <time>2020-07-23T09:53:20.000Z</time>
      </trkpt>
      <trkpt lat="47.32609" lon="-2.34988">
        <ele>19</ele>
        <time>2020-07-23T09:53:22.000Z</time>
      </trkpt>
      <trkpt lat="47.32582" lon="-2.35002">
        <ele>19</ele>
        <time>2020-07-23T09:53:27.000Z</time>
      </trkpt>
      <trkpt lat="47.32548" lon="-2.35019">
        <ele>19.39999961853</ele>
        <time>2020-07-23T09:53:33.000Z</time>
      </trkpt>
      <trkpt lat="47.32542" lon="-2.3502">
        <ele>19.799999237061</ele>
        <time>2020-07-23T09:53:34.000Z</time>
      </trkpt>
      <trkpt lat="47.32536" lon="-2.35022">
        <ele>20.200000762939</ele>
        <time>2020-07-23T09:53:35.000Z</time>
      </trkpt>
      <trkpt lat="47.32529" lon="-2.35024">
        <ele>20.60000038147</ele>
        <time>2020-07-23T09:53:36.000Z</time>
      </trkpt>
      <trkpt lat="47.32522" lon="-2.35027">
        <ele>21</ele>
        <time>2020-07-23T09:53:37.000Z</time>
      </trkpt>
      <trkpt lat="47.3251" lon="-2.35031">
        <ele>21</ele>
        <time>2020-07-23T09:53:39.000Z</time>
      </trkpt>
      <trkpt lat="47.32469" lon="-2.3504">
        <ele>21</ele>
        <time>2020-07-23T09:53:46.000Z</time>
      </trkpt>
      <trkpt lat="47.32426" lon="-2.35049">
        <ele>21</ele>
        <time>2020-07-23T09:53:53.000Z</time>
      </trkpt>
      <trkpt lat="47.32387" lon="-2.35053">
        <ele>21</ele>
        <time>2020-07-23T09:53:59.000Z</time>
      </trkpt>
      <trkpt lat="47.32348" lon="-2.35052">
        <ele>21</ele>
        <time>2020-07-23T09:54:05.000Z</time>
      </trkpt>
      <trkpt lat="47.32305" lon="-2.3505">
        <ele>21</ele>
        <time>2020-07-23T09:54:11.000Z</time>
      </trkpt>
      <trkpt lat="47.32259" lon="-2.35051">
        <ele>21</ele>
        <time>2020-07-23T09:54:17.000Z</time>
      </trkpt>
      <trkpt lat="47.32223" lon="-2.35056">
        <ele>21</ele>
        <time>2020-07-23T09:54:22.000Z</time>
      </trkpt>
      <trkpt lat="47.32169" lon="-2.35059">
        <ele>21</ele>
        <time>2020-07-23T09:54:29.000Z</time>
      </trkpt>
      <trkpt lat="47.32145" lon="-2.35061">
        <ele>20.60000038147</ele>
        <time>2020-07-23T09:54:32.000Z</time>
      </trkpt>
      <trkpt lat="47.32138" lon="-2.35062">
        <ele>20.200000762939</ele>
        <time>2020-07-23T09:54:33.000Z</time>
      </trkpt>
      <trkpt lat="47.3213" lon="-2.35062">
        <ele>19.799999237061</ele>
        <time>2020-07-23T09:54:34.000Z</time>
      </trkpt>
      <trkpt lat="47.32122" lon="-2.35063">
        <ele>19.39999961853</ele>
        <time>2020-07-23T09:54:35.000Z</time>
      </trkpt>
      <trkpt lat="47.32114" lon="-2.35063">
        <ele>18.799999237061</ele>
        <time>2020-07-23T09:54:36.000Z</time>
      </trkpt>
      <trkpt lat="47.32077" lon="-2.35063">
        <ele>18.799999237061</ele>
        <time>2020-07-23T09:54:41.000Z</time>
      </trkpt>
      <trkpt lat="47.32039" lon="-2.35062">
        <ele>18.799999237061</ele>
        <time>2020-07-23T09:54:47.000Z</time>
      </trkpt>
      <trkpt lat="47.32035" lon="-2.35065">
        <ele>18.39999961853</ele>
        <time>2020-07-23T09:54:48.000Z</time>
      </trkpt>
      <trkpt lat="47.32033" lon="-2.3507">
        <ele>18</ele>
        <time>2020-07-23T09:54:49.000Z</time>
      </trkpt>
      <trkpt lat="47.32033" lon="-2.35076">
        <ele>17.60000038147</ele>
        <time>2020-07-23T09:54:50.000Z</time>
      </trkpt>
      <trkpt lat="47.32035" lon="-2.35083">
        <ele>17.200000762939</ele>
        <time>2020-07-23T09:54:51.000Z</time>
      </trkpt>
      <trkpt lat="47.32036" lon="-2.3509">
        <ele>16.799999237061</ele>
        <time>2020-07-23T09:54:52.000Z</time>
      </trkpt>
      <trkpt lat="47.32038" lon="-2.35105">
        <ele>16.799999237061</ele>
        <time>2020-07-23T09:54:54.000Z</time>
      </trkpt>
      <trkpt lat="47.32039" lon="-2.35112">
        <ele>16.799999237061</ele>
        <time>2020-07-23T09:54:55.000Z</time>
      </trkpt>
      <trkpt lat="47.32035" lon="-2.35124">
        <ele>16.799999237061</ele>
        <time>2020-07-23T09:54:57.000Z</time>
      </trkpt>
      <trkpt lat="47.32019" lon="-2.35141">
        <ele>16.799999237061</ele>
        <time>2020-07-23T09:55:01.000Z</time>
      </trkpt>
      <trkpt lat="47.32015" lon="-2.35145">
        <ele>16.799999237061</ele>
        <time>2020-07-23T09:55:02.000Z</time>
      </trkpt>
      <trkpt lat="47.31991" lon="-2.35166">
        <ele>16.799999237061</ele>
        <time>2020-07-23T09:55:08.000Z</time>
      </trkpt>
      <trkpt lat="47.31957" lon="-2.35196">
        <ele>16.799999237061</ele>
        <time>2020-07-23T09:55:16.000Z</time>
      </trkpt>
      <trkpt lat="47.31953" lon="-2.352">
        <ele>16.799999237061</ele>
        <time>2020-07-23T09:55:17.000Z</time>
      </trkpt>
      <trkpt lat="47.31931" lon="-2.35221">
        <ele>16.799999237061</ele>
        <time>2020-07-23T09:55:22.000Z</time>
      </trkpt>
      <trkpt lat="47.31902" lon="-2.35252">
        <ele>17.200000762939</ele>
        <time>2020-07-23T09:55:27.000Z</time>
      </trkpt>
      <trkpt lat="47.31897" lon="-2.35257">
        <ele>17.60000038147</ele>
        <time>2020-07-23T09:55:28.000Z</time>
      </trkpt>
      <trkpt lat="47.31892" lon="-2.35262">
        <ele>18.60000038147</ele>
        <time>2020-07-23T09:55:29.000Z</time>
      </trkpt>
      <trkpt lat="47.31886" lon="-2.35268">
        <ele>19</ele>
        <time>2020-07-23T09:55:30.000Z</time>
      </trkpt>
      <trkpt lat="47.31857" lon="-2.35291">
        <ele>19</ele>
        <time>2020-07-23T09:55:35.000Z</time>
      </trkpt>
      <trkpt lat="47.31841" lon="-2.35301">
        <ele>19</ele>
        <time>2020-07-23T09:55:38.000Z</time>
      </trkpt>
      <trkpt lat="47.31824" lon="-2.35313">
        <ele>19.39999961853</ele>
        <time>2020-07-23T09:55:41.000Z</time>
      </trkpt>
      <trkpt lat="47.31817" lon="-2.35317">
        <ele>19.799999237061</ele>
        <time>2020-07-23T09:55:42.000Z</time>
      </trkpt>
      <trkpt lat="47.31812" lon="-2.3532">
        <ele>20.200000762939</ele>
        <time>2020-07-23T09:55:43.000Z</time>
      </trkpt>
      <trkpt lat="47.31807" lon="-2.35324">
        <ele>20.799999237061</ele>
        <time>2020-07-23T09:55:44.000Z</time>
      </trkpt>
      <trkpt lat="47.31802" lon="-2.35327">
        <ele>21.200000762939</ele>
        <time>2020-07-23T09:55:45.000Z</time>
      </trkpt>
      <trkpt lat="47.31797" lon="-2.35331">
        <ele>21.200000762939</ele>
        <time>2020-07-23T09:55:46.000Z</time>
      </trkpt>
      <trkpt lat="47.31777" lon="-2.35343">
        <ele>21.200000762939</ele>
        <time>2020-07-23T09:55:50.000Z</time>
      </trkpt>
      <trkpt lat="47.31773" lon="-2.35345">
        <ele>21.200000762939</ele>
        <time>2020-07-23T09:55:51.000Z</time>
      </trkpt>
      <trkpt lat="47.31765" lon="-2.35354">
        <ele>22</ele>
        <time>2020-07-23T09:55:54.000Z</time>
      </trkpt>
      <trkpt lat="47.31764" lon="-2.35359">
        <ele>22.60000038147</ele>
        <time>2020-07-23T09:55:55.000Z</time>
      </trkpt>
      <trkpt lat="47.31765" lon="-2.35365">
        <ele>23</ele>
        <time>2020-07-23T09:55:56.000Z</time>
      </trkpt>
      <trkpt lat="47.31767" lon="-2.35371">
        <ele>23.39999961853</ele>
        <time>2020-07-23T09:55:57.000Z</time>
      </trkpt>
      <trkpt lat="47.31771" lon="-2.35383">
        <ele>23.39999961853</ele>
        <time>2020-07-23T09:55:59.000Z</time>
      </trkpt>
      <trkpt lat="47.31788" lon="-2.35419">
        <ele>23.39999961853</ele>
        <time>2020-07-23T09:56:04.000Z</time>
      </trkpt>
      <trkpt lat="47.31812" lon="-2.35454">
        <ele>23</ele>
        <time>2020-07-23T09:56:09.000Z</time>
      </trkpt>
      <trkpt lat="47.31817" lon="-2.35461">
        <ele>22.60000038147</ele>
        <time>2020-07-23T09:56:10.000Z</time>
      </trkpt>
      <trkpt lat="47.3182" lon="-2.35469">
        <ele>22.200000762939</ele>
        <time>2020-07-23T09:56:11.000Z</time>
      </trkpt>
      <trkpt lat="47.31824" lon="-2.35476">
        <ele>21.799999237061</ele>
        <time>2020-07-23T09:56:12.000Z</time>
      </trkpt>
      <trkpt lat="47.31828" lon="-2.35482">
        <ele>21.39999961853</ele>
        <time>2020-07-23T09:56:13.000Z</time>
      </trkpt>
      <trkpt lat="47.31849" lon="-2.35522">
        <ele>21.39999961853</ele>
        <time>2020-07-23T09:56:19.000Z</time>
      </trkpt>
      <trkpt lat="47.3185" lon="-2.35529">
        <ele>21.39999961853</ele>
        <time>2020-07-23T09:56:20.000Z</time>
      </trkpt>
      <trkpt lat="47.31847" lon="-2.35541">
        <ele>21.39999961853</ele>
        <time>2020-07-23T09:56:22.000Z</time>
      </trkpt>
      <trkpt lat="47.31833" lon="-2.35554">
        <ele>21.39999961853</ele>
        <time>2020-07-23T09:56:25.000Z</time>
      </trkpt>
      <trkpt lat="47.31828" lon="-2.35558">
        <ele>21.39999961853</ele>
        <time>2020-07-23T09:56:26.000Z</time>
      </trkpt>
      <trkpt lat="47.31824" lon="-2.35564">
        <ele>21.39999961853</ele>
        <time>2020-07-23T09:56:27.000Z</time>
      </trkpt>
      <trkpt lat="47.3182" lon="-2.35577">
        <ele>21.39999961853</ele>
        <time>2020-07-23T09:56:29.000Z</time>
      </trkpt>
      <trkpt lat="47.31805" lon="-2.35603">
        <ele>21.39999961853</ele>
        <time>2020-07-23T09:56:33.000Z</time>
      </trkpt>
      <trkpt lat="47.31802" lon="-2.35609">
        <ele>21.39999961853</ele>
        <time>2020-07-23T09:56:34.000Z</time>
      </trkpt>
      <trkpt lat="47.31799" lon="-2.35615">
        <ele>21.39999961853</ele>
        <time>2020-07-23T09:56:35.000Z</time>
      </trkpt>
      <trkpt lat="47.31792" lon="-2.35637">
        <ele>21.39999961853</ele>
        <time>2020-07-23T09:56:38.000Z</time>
      </trkpt>
      <trkpt lat="47.31791" lon="-2.35659">
        <ele>21.39999961853</ele>
        <time>2020-07-23T09:56:41.000Z</time>
      </trkpt>
      <trkpt lat="47.3179" lon="-2.35671">
        <ele>21.39999961853</ele>
        <time>2020-07-23T09:56:43.000Z</time>
      </trkpt>
      <trkpt lat="47.31791" lon="-2.35677">
        <ele>21.39999961853</ele>
        <time>2020-07-23T09:56:44.000Z</time>
      </trkpt>
      <trkpt lat="47.3179" lon="-2.35704">
        <ele>21.39999961853</ele>
        <time>2020-07-23T09:56:48.000Z</time>
      </trkpt>
      <trkpt lat="47.3179" lon="-2.3571">
        <ele>21.799999237061</ele>
        <time>2020-07-23T09:56:49.000Z</time>
      </trkpt>
      <trkpt lat="47.3179" lon="-2.35716">
        <ele>22.200000762939</ele>
        <time>2020-07-23T09:56:50.000Z</time>
      </trkpt>
      <trkpt lat="47.31789" lon="-2.35722">
        <ele>22.60000038147</ele>
        <time>2020-07-23T09:56:51.000Z</time>
      </trkpt>
      <trkpt lat="47.31789" lon="-2.35727">
        <ele>23.200000762939</ele>
        <time>2020-07-23T09:56:52.000Z</time>
      </trkpt>
      <trkpt lat="47.31789" lon="-2.35732">
        <ele>23.60000038147</ele>
        <time>2020-07-23T09:56:53.000Z</time>
      </trkpt>
      <trkpt lat="47.31788" lon="-2.3574">
        <ele>23.60000038147</ele>
        <time>2020-07-23T09:56:55.000Z</time>
      </trkpt>
      <trkpt lat="47.31786" lon="-2.3577">
        <ele>23.60000038147</ele>
        <time>2020-07-23T09:57:01.000Z</time>
      </trkpt>
      <trkpt lat="47.318" lon="-2.35801">
        <ele>24</ele>
        <time>2020-07-23T09:57:06.000Z</time>
      </trkpt>
      <trkpt lat="47.31803" lon="-2.35807">
        <ele>24.39999961853</ele>
        <time>2020-07-23T09:57:07.000Z</time>
      </trkpt>
      <trkpt lat="47.31807" lon="-2.35813">
        <ele>25.200000762939</ele>
        <time>2020-07-23T09:57:08.000Z</time>
      </trkpt>
      <trkpt lat="47.31811" lon="-2.35819">
        <ele>25.60000038147</ele>
        <time>2020-07-23T09:57:09.000Z</time>
      </trkpt>
      <trkpt lat="47.31823" lon="-2.35839">
        <ele>25.60000038147</ele>
        <time>2020-07-23T09:57:12.000Z</time>
      </trkpt>
      <trkpt lat="47.31826" lon="-2.35847">
        <ele>25.60000038147</ele>
        <time>2020-07-23T09:57:13.000Z</time>
      </trkpt>
      <trkpt lat="47.31824" lon="-2.35871">
        <ele>25.60000038147</ele>
        <time>2020-07-23T09:57:16.000Z</time>
      </trkpt>
      <trkpt lat="47.31804" lon="-2.35888">
        <ele>25.60000038147</ele>
        <time>2020-07-23T09:57:20.000Z</time>
      </trkpt>
      <trkpt lat="47.31799" lon="-2.3589">
        <ele>25.60000038147</ele>
        <time>2020-07-23T09:57:21.000Z</time>
      </trkpt>
      <trkpt lat="47.31777" lon="-2.35903">
        <ele>25.60000038147</ele>
        <time>2020-07-23T09:57:26.000Z</time>
      </trkpt>
      <trkpt lat="47.31745" lon="-2.35922">
        <ele>25.60000038147</ele>
        <time>2020-07-23T09:57:32.000Z</time>
      </trkpt>
      <trkpt lat="47.31723" lon="-2.35935">
        <ele>26</ele>
        <time>2020-07-23T09:57:36.000Z</time>
      </trkpt>
      <trkpt lat="47.31718" lon="-2.35939">
        <ele>26.39999961853</ele>
        <time>2020-07-23T09:57:37.000Z</time>
      </trkpt>
      <trkpt lat="47.31713" lon="-2.35942">
        <ele>26.799999237061</ele>
        <time>2020-07-23T09:57:38.000Z</time>
      </trkpt>
      <trkpt lat="47.31707" lon="-2.35945">
        <ele>27.200000762939</ele>
        <time>2020-07-23T09:57:39.000Z</time>
      </trkpt>
      <trkpt lat="47.31702" lon="-2.35948">
        <ele>27.60000038147</ele>
        <time>2020-07-23T09:57:40.000Z</time>
      </trkpt>
      <trkpt lat="47.31673" lon="-2.35967">
        <ele>27.60000038147</ele>
        <time>2020-07-23T09:57:46.000Z</time>
      </trkpt>
      <trkpt lat="47.31644" lon="-2.35987">
        <ele>27.60000038147</ele>
        <time>2020-07-23T09:57:52.000Z</time>
      </trkpt>
      <trkpt lat="47.31635" lon="-2.35996">
        <ele>27.60000038147</ele>
        <time>2020-07-23T09:57:54.000Z</time>
      </trkpt>
      <trkpt lat="47.31631" lon="-2.36001">
        <ele>28.200000762939</ele>
        <time>2020-07-23T09:57:55.000Z</time>
      </trkpt>
      <trkpt lat="47.31626" lon="-2.36006">
        <ele>28.60000038147</ele>
        <time>2020-07-23T09:57:56.000Z</time>
      </trkpt>
      <trkpt lat="47.31621" lon="-2.36012">
        <ele>29.60000038147</ele>
        <time>2020-07-23T09:57:57.000Z</time>
      </trkpt>
      <trkpt lat="47.31617" lon="-2.36018">
        <ele>30</ele>
        <time>2020-07-23T09:57:58.000Z</time>
      </trkpt>
      <trkpt lat="47.31589" lon="-2.36046">
        <ele>30</ele>
        <time>2020-07-23T09:58:04.000Z</time>
      </trkpt>
      <trkpt lat="47.31584" lon="-2.36049">
        <ele>30</ele>
        <time>2020-07-23T09:58:05.000Z</time>
      </trkpt>
      <trkpt lat="47.31567" lon="-2.36065">
        <ele>30</ele>
        <time>2020-07-23T09:58:09.000Z</time>
      </trkpt>
      <trkpt lat="47.31553" lon="-2.3608">
        <ele>30</ele>
        <time>2020-07-23T09:58:12.000Z</time>
      </trkpt>
      <trkpt lat="47.31544" lon="-2.36091">
        <ele>30</ele>
        <time>2020-07-23T09:58:14.000Z</time>
      </trkpt>
      <trkpt lat="47.31527" lon="-2.36109">
        <ele>30</ele>
        <time>2020-07-23T09:58:18.000Z</time>
      </trkpt>
      <trkpt lat="47.31523" lon="-2.36114">
        <ele>30.39999961853</ele>
        <time>2020-07-23T09:58:19.000Z</time>
      </trkpt>
      <trkpt lat="47.31519" lon="-2.36119">
        <ele>30.799999237061</ele>
        <time>2020-07-23T09:58:20.000Z</time>
      </trkpt>
      <trkpt lat="47.31514" lon="-2.36123">
        <ele>31.60000038147</ele>
        <time>2020-07-23T09:58:21.000Z</time>
      </trkpt>
      <trkpt lat="47.31509" lon="-2.36129">
        <ele>32</ele>
        <time>2020-07-23T09:58:22.000Z</time>
      </trkpt>
      <trkpt lat="47.31487" lon="-2.36156">
        <ele>32</ele>
        <time>2020-07-23T09:58:27.000Z</time>
      </trkpt>
      <trkpt lat="47.31483" lon="-2.36161">
        <ele>32</ele>
        <time>2020-07-23T09:58:28.000Z</time>
      </trkpt>
      <trkpt lat="47.31467" lon="-2.36171">
        <ele>32</ele>
        <time>2020-07-23T09:58:32.000Z</time>
      </trkpt>
      <trkpt lat="47.31455" lon="-2.36157">
        <ele>32</ele>
        <time>2020-07-23T09:58:36.000Z</time>
      </trkpt>
      <trkpt lat="47.31445" lon="-2.36138">
        <ele>32</ele>
        <time>2020-07-23T09:58:40.000Z</time>
      </trkpt>
      <trkpt lat="47.31443" lon="-2.36132">
        <ele>32</ele>
        <time>2020-07-23T09:58:41.000Z</time>
      </trkpt>
      <trkpt lat="47.3142" lon="-2.36066">
        <ele>32</ele>
        <time>2020-07-23T09:58:50.000Z</time>
      </trkpt>
      <trkpt lat="47.31401" lon="-2.36012">
        <ele>32</ele>
        <time>2020-07-23T09:58:56.000Z</time>
      </trkpt>
      <trkpt lat="47.31392" lon="-2.35983">
        <ele>31.60000038147</ele>
        <time>2020-07-23T09:58:59.000Z</time>
      </trkpt>
      <trkpt lat="47.31388" lon="-2.35974">
        <ele>31.200000762939</ele>
        <time>2020-07-23T09:59:00.000Z</time>
      </trkpt>
      <trkpt lat="47.31384" lon="-2.35964">
        <ele>30.799999237061</ele>
        <time>2020-07-23T09:59:01.000Z</time>
      </trkpt>
      <trkpt lat="47.31379" lon="-2.35954">
        <ele>30.39999961853</ele>
        <time>2020-07-23T09:59:02.000Z</time>
      </trkpt>
      <trkpt lat="47.31374" lon="-2.35944">
        <ele>30</ele>
        <time>2020-07-23T09:59:03.000Z</time>
      </trkpt>
      <trkpt lat="47.31347" lon="-2.35885">
        <ele>30</ele>
        <time>2020-07-23T09:59:09.000Z</time>
      </trkpt>
      <trkpt lat="47.31338" lon="-2.35858">
        <ele>30</ele>
        <time>2020-07-23T09:59:12.000Z</time>
      </trkpt>
      <trkpt lat="47.31337" lon="-2.35848">
        <ele>30</ele>
        <time>2020-07-23T09:59:13.000Z</time>
      </trkpt>
      <trkpt lat="47.31333" lon="-2.35779">
        <ele>30</ele>
        <time>2020-07-23T09:59:20.000Z</time>
      </trkpt>
      <trkpt lat="47.31333" lon="-2.3572">
        <ele>30</ele>
        <time>2020-07-23T09:59:26.000Z</time>
      </trkpt>
      <trkpt lat="47.31333" lon="-2.3567">
        <ele>30</ele>
        <time>2020-07-23T09:59:31.000Z</time>
      </trkpt>
      <trkpt lat="47.3133" lon="-2.35606">
        <ele>30</ele>
        <time>2020-07-23T09:59:38.000Z</time>
      </trkpt>
      <trkpt lat="47.31331" lon="-2.3555">
        <ele>30</ele>
        <time>2020-07-23T09:59:44.000Z</time>
      </trkpt>
      <trkpt lat="47.31333" lon="-2.35478">
        <ele>30</ele>
        <time>2020-07-23T09:59:51.000Z</time>
      </trkpt>
      <trkpt lat="47.31335" lon="-2.35427">
        <ele>30</ele>
        <time>2020-07-23T09:59:56.000Z</time>
      </trkpt>
      <trkpt lat="47.31336" lon="-2.35383">
        <ele>30</ele>
        <time>2020-07-23T10:00:01.000Z</time>
      </trkpt>
      <trkpt lat="47.31337" lon="-2.35375">
        <ele>30</ele>
        <time>2020-07-23T10:00:02.000Z</time>
      </trkpt>
      <trkpt lat="47.31339" lon="-2.35312">
        <ele>30</ele>
        <time>2020-07-23T10:00:09.000Z</time>
      </trkpt>
      <trkpt lat="47.31342" lon="-2.35233">
        <ele>30</ele>
        <time>2020-07-23T10:00:17.000Z</time>
      </trkpt>
      <trkpt lat="47.31345" lon="-2.35154">
        <ele>30</ele>
        <time>2020-07-23T10:00:25.000Z</time>
      </trkpt>
      <trkpt lat="47.31346" lon="-2.3509">
        <ele>30</ele>
        <time>2020-07-23T10:00:32.000Z</time>
      </trkpt>
      <trkpt lat="47.31342" lon="-2.35007">
        <ele>30</ele>
        <time>2020-07-23T10:00:41.000Z</time>
      </trkpt>
      <trkpt lat="47.3134" lon="-2.34998">
        <ele>29.60000038147</ele>
        <time>2020-07-23T10:00:42.000Z</time>
      </trkpt>
      <trkpt lat="47.31338" lon="-2.34988">
        <ele>29</ele>
        <time>2020-07-23T10:00:43.000Z</time>
      </trkpt>
      <trkpt lat="47.31336" lon="-2.34978">
        <ele>28.60000038147</ele>
        <time>2020-07-23T10:00:44.000Z</time>
      </trkpt>
      <trkpt lat="47.31335" lon="-2.34968">
        <ele>28.200000762939</ele>
        <time>2020-07-23T10:00:45.000Z</time>
      </trkpt>
      <trkpt lat="47.31333" lon="-2.34958">
        <ele>27.799999237061</ele>
        <time>2020-07-23T10:00:46.000Z</time>
      </trkpt>
      <trkpt lat="47.3133" lon="-2.34949">
        <ele>27.799999237061</ele>
        <time>2020-07-23T10:00:47.000Z</time>
      </trkpt>
      <trkpt lat="47.31315" lon="-2.34898">
        <ele>27.799999237061</ele>
        <time>2020-07-23T10:00:53.000Z</time>
      </trkpt>
      <trkpt lat="47.31299" lon="-2.34837">
        <ele>27.799999237061</ele>
        <time>2020-07-23T10:01:00.000Z</time>
      </trkpt>
      <trkpt lat="47.31288" lon="-2.34785">
        <ele>27.799999237061</ele>
        <time>2020-07-23T10:01:06.000Z</time>
      </trkpt>
      <trkpt lat="47.31279" lon="-2.34729">
        <ele>27.799999237061</ele>
        <time>2020-07-23T10:01:13.000Z</time>
      </trkpt>
      <trkpt lat="47.31276" lon="-2.34708">
        <ele>27.799999237061</ele>
        <time>2020-07-23T10:01:17.000Z</time>
      </trkpt>
      <trkpt lat="47.3128" lon="-2.34685">
        <ele>27.799999237061</ele>
        <time>2020-07-23T10:01:22.000Z</time>
      </trkpt>
      <trkpt lat="47.31282" lon="-2.3468">
        <ele>27.799999237061</ele>
        <time>2020-07-23T10:01:23.000Z</time>
      </trkpt>
      <trkpt lat="47.3129" lon="-2.34662">
        <ele>27.799999237061</ele>
        <time>2020-07-23T10:01:26.000Z</time>
      </trkpt>
      <trkpt lat="47.3129" lon="-2.34637">
        <ele>27.799999237061</ele>
        <time>2020-07-23T10:01:29.000Z</time>
      </trkpt>
      <trkpt lat="47.31285" lon="-2.34586">
        <ele>27.39999961853</ele>
        <time>2020-07-23T10:01:34.000Z</time>
      </trkpt>
      <trkpt lat="47.31284" lon="-2.34575">
        <ele>27</ele>
        <time>2020-07-23T10:01:35.000Z</time>
      </trkpt>
      <trkpt lat="47.31283" lon="-2.34564">
        <ele>26.60000038147</ele>
        <time>2020-07-23T10:01:36.000Z</time>
      </trkpt>
      <trkpt lat="47.31282" lon="-2.34552">
        <ele>26.200000762939</ele>
        <time>2020-07-23T10:01:37.000Z</time>
      </trkpt>
      <trkpt lat="47.31281" lon="-2.3454">
        <ele>25.799999237061</ele>
        <time>2020-07-23T10:01:38.000Z</time>
      </trkpt>
      <trkpt lat="47.31275" lon="-2.34496">
        <ele>25.799999237061</ele>
        <time>2020-07-23T10:01:42.000Z</time>
      </trkpt>
      <trkpt lat="47.31271" lon="-2.34449">
        <ele>25.39999961853</ele>
        <time>2020-07-23T10:01:46.000Z</time>
      </trkpt>
      <trkpt lat="47.31269" lon="-2.34438">
        <ele>24.799999237061</ele>
        <time>2020-07-23T10:01:47.000Z</time>
      </trkpt>
      <trkpt lat="47.31267" lon="-2.34426">
        <ele>24.39999961853</ele>
        <time>2020-07-23T10:01:48.000Z</time>
      </trkpt>
      <trkpt lat="47.31266" lon="-2.34413">
        <ele>24</ele>
        <time>2020-07-23T10:01:49.000Z</time>
      </trkpt>
      <trkpt lat="47.31264" lon="-2.344">
        <ele>23.60000038147</ele>
        <time>2020-07-23T10:01:50.000Z</time>
      </trkpt>
      <trkpt lat="47.31251" lon="-2.34349">
        <ele>23.60000038147</ele>
        <time>2020-07-23T10:01:54.000Z</time>
      </trkpt>
      <trkpt lat="47.31247" lon="-2.34336">
        <ele>23</ele>
        <time>2020-07-23T10:01:55.000Z</time>
      </trkpt>
      <trkpt lat="47.31243" lon="-2.34326">
        <ele>22.60000038147</ele>
        <time>2020-07-23T10:01:56.000Z</time>
      </trkpt>
      <trkpt lat="47.31239" lon="-2.34316">
        <ele>22.200000762939</ele>
        <time>2020-07-23T10:01:57.000Z</time>
      </trkpt>
      <trkpt lat="47.31234" lon="-2.34306">
        <ele>21.60000038147</ele>
        <time>2020-07-23T10:01:58.000Z</time>
      </trkpt>
      <trkpt lat="47.31228" lon="-2.34296">
        <ele>21.200000762939</ele>
        <time>2020-07-23T10:01:59.000Z</time>
      </trkpt>
      <trkpt lat="47.31205" lon="-2.34273">
        <ele>21.200000762939</ele>
        <time>2020-07-23T10:02:02.000Z</time>
      </trkpt>
      <trkpt lat="47.31169" lon="-2.34216">
        <ele>21.200000762939</ele>
        <time>2020-07-23T10:02:08.000Z</time>
      </trkpt>
      <trkpt lat="47.3113" lon="-2.34162">
        <ele>21.200000762939</ele>
        <time>2020-07-23T10:02:15.000Z</time>
      </trkpt>
      <trkpt lat="47.31101" lon="-2.34121">
        <ele>21.60000038147</ele>
        <time>2020-07-23T10:02:21.000Z</time>
      </trkpt>
      <trkpt lat="47.31097" lon="-2.34115">
        <ele>22</ele>
        <time>2020-07-23T10:02:22.000Z</time>
      </trkpt>
      <trkpt lat="47.31093" lon="-2.34108">
        <ele>22.39999961853</ele>
        <time>2020-07-23T10:02:23.000Z</time>
      </trkpt>
      <trkpt lat="47.31089" lon="-2.341">
        <ele>22.799999237061</ele>
        <time>2020-07-23T10:02:24.000Z</time>
      </trkpt>
      <trkpt lat="47.31085" lon="-2.34093">
        <ele>23.200000762939</ele>
        <time>2020-07-23T10:02:25.000Z</time>
      </trkpt>
      <trkpt lat="47.31082" lon="-2.34086">
        <ele>23.60000038147</ele>
        <time>2020-07-23T10:02:26.000Z</time>
      </trkpt>
      <trkpt lat="47.31079" lon="-2.34078">
        <ele>24</ele>
        <time>2020-07-23T10:02:27.000Z</time>
      </trkpt>
      <trkpt lat="47.31076" lon="-2.34071">
        <ele>24.799999237061</ele>
        <time>2020-07-23T10:02:28.000Z</time>
      </trkpt>
      <trkpt lat="47.31074" lon="-2.34063">
        <ele>25.200000762939</ele>
        <time>2020-07-23T10:02:29.000Z</time>
      </trkpt>
      <trkpt lat="47.31072" lon="-2.34055">
        <ele>25.200000762939</ele>
        <time>2020-07-23T10:02:30.000Z</time>
      </trkpt>
      <trkpt lat="47.31068" lon="-2.34039">
        <ele>25.60000038147</ele>
        <time>2020-07-23T10:02:32.000Z</time>
      </trkpt>
      <trkpt lat="47.31067" lon="-2.3403">
        <ele>26</ele>
        <time>2020-07-23T10:02:33.000Z</time>
      </trkpt>
      <trkpt lat="47.31066" lon="-2.34021">
        <ele>26.39999961853</ele>
        <time>2020-07-23T10:02:34.000Z</time>
      </trkpt>
      <trkpt lat="47.31065" lon="-2.34012">
        <ele>27</ele>
        <time>2020-07-23T10:02:35.000Z</time>
      </trkpt>
      <trkpt lat="47.31064" lon="-2.34004">
        <ele>27.39999961853</ele>
        <time>2020-07-23T10:02:36.000Z</time>
      </trkpt>
      <trkpt lat="47.31063" lon="-2.33977">
        <ele>27.39999961853</ele>
        <time>2020-07-23T10:02:39.000Z</time>
      </trkpt>
      <trkpt lat="47.31061" lon="-2.33952">
        <ele>27.39999961853</ele>
        <time>2020-07-23T10:02:42.000Z</time>
      </trkpt>
      <trkpt lat="47.31053" lon="-2.33943">
        <ele>27.39999961853</ele>
        <time>2020-07-23T10:02:44.000Z</time>
      </trkpt>
      <trkpt lat="47.3104" lon="-2.33942">
        <ele>27.39999961853</ele>
        <time>2020-07-23T10:02:47.000Z</time>
      </trkpt>
      <trkpt lat="47.31035" lon="-2.33942">
        <ele>27.39999961853</ele>
        <time>2020-07-23T10:02:48.000Z</time>
      </trkpt>
      <trkpt lat="47.3101" lon="-2.3395">
        <ele>27.39999961853</ele>
        <time>2020-07-23T10:02:52.000Z</time>
      </trkpt>
      <trkpt lat="47.3098" lon="-2.33956">
        <ele>27.39999961853</ele>
        <time>2020-07-23T10:02:58.000Z</time>
      </trkpt>
      <trkpt lat="47.3097" lon="-2.33955">
        <ele>27.39999961853</ele>
        <time>2020-07-23T10:03:00.000Z</time>
      </trkpt>
      <trkpt lat="47.30951" lon="-2.33952">
        <ele>27.799999237061</ele>
        <time>2020-07-23T10:03:04.000Z</time>
      </trkpt>
      <trkpt lat="47.30946" lon="-2.33951">
        <ele>28.200000762939</ele>
        <time>2020-07-23T10:03:05.000Z</time>
      </trkpt>
      <trkpt lat="47.30941" lon="-2.3395">
        <ele>28.60000038147</ele>
        <time>2020-07-23T10:03:06.000Z</time>
      </trkpt>
      <trkpt lat="47.30935" lon="-2.33949">
        <ele>29</ele>
        <time>2020-07-23T10:03:07.000Z</time>
      </trkpt>
      <trkpt lat="47.3093" lon="-2.33948">
        <ele>29.39999961853</ele>
        <time>2020-07-23T10:03:08.000Z</time>
      </trkpt>
      <trkpt lat="47.30913" lon="-2.33946">
        <ele>29.39999961853</ele>
        <time>2020-07-23T10:03:11.000Z</time>
      </trkpt>
      <trkpt lat="47.30877" lon="-2.3395">
        <ele>29.39999961853</ele>
        <time>2020-07-23T10:03:17.000Z</time>
      </trkpt>
      <trkpt lat="47.30832" lon="-2.33959">
        <ele>29.39999961853</ele>
        <time>2020-07-23T10:03:25.000Z</time>
      </trkpt>
      <trkpt lat="47.308" lon="-2.3397">
        <ele>29.39999961853</ele>
        <time>2020-07-23T10:03:32.000Z</time>
      </trkpt>
      <trkpt lat="47.30796" lon="-2.33971">
        <ele>29.39999961853</ele>
        <time>2020-07-23T10:03:33.000Z</time>
      </trkpt>
      <trkpt lat="47.30771" lon="-2.33978">
        <ele>29.39999961853</ele>
        <time>2020-07-23T10:03:39.000Z</time>
      </trkpt>
      <trkpt lat="47.30766" lon="-2.33979">
        <ele>29.39999961853</ele>
        <time>2020-07-23T10:03:40.000Z</time>
      </trkpt>
      <trkpt lat="47.30751" lon="-2.33982">
        <ele>29.39999961853</ele>
        <time>2020-07-23T10:03:43.000Z</time>
      </trkpt>
      <trkpt lat="47.30745" lon="-2.33983">
        <ele>29.39999961853</ele>
        <time>2020-07-23T10:03:44.000Z</time>
      </trkpt>
      <trkpt lat="47.30723" lon="-2.33991">
        <ele>29.39999961853</ele>
        <time>2020-07-23T10:03:48.000Z</time>
      </trkpt>
      <trkpt lat="47.3072" lon="-2.33998">
        <ele>29.39999961853</ele>
        <time>2020-07-23T10:03:49.000Z</time>
      </trkpt>
      <trkpt lat="47.30718" lon="-2.34016">
        <ele>29.39999961853</ele>
        <time>2020-07-23T10:03:52.000Z</time>
      </trkpt>
      <trkpt lat="47.30715" lon="-2.34021">
        <ele>29.39999961853</ele>
        <time>2020-07-23T10:03:55.000Z</time>
      </trkpt>
      <trkpt lat="47.30713" lon="-2.34022">
        <ele>29.39999961853</ele>
        <time>2020-07-23T10:03:56.000Z</time>
      </trkpt>
      <trkpt lat="47.30703" lon="-2.34022">
        <ele>29.39999961853</ele>
        <time>2020-07-23T10:03:59.000Z</time>
      </trkpt>
      <trkpt lat="47.30695" lon="-2.34024">
        <ele>29.39999961853</ele>
        <time>2020-07-23T10:04:01.000Z</time>
      </trkpt>
      <trkpt lat="47.3067" lon="-2.34033">
        <ele>29.39999961853</ele>
        <time>2020-07-23T10:04:08.000Z</time>
      </trkpt>
      <trkpt lat="47.30652" lon="-2.34052">
        <ele>29.39999961853</ele>
        <time>2020-07-23T10:04:14.000Z</time>
      </trkpt>
      <trkpt lat="47.30633" lon="-2.34061">
        <ele>29.39999961853</ele>
        <time>2020-07-23T10:04:20.000Z</time>
      </trkpt>
      <trkpt lat="47.30608" lon="-2.34079">
        <ele>29.39999961853</ele>
        <time>2020-07-23T10:04:28.000Z</time>
      </trkpt>
      <trkpt lat="47.30595" lon="-2.341">
        <ele>29.39999961853</ele>
        <time>2020-07-23T10:04:33.000Z</time>
      </trkpt>
      <trkpt lat="47.30586" lon="-2.34124">
        <ele>29.39999961853</ele>
        <time>2020-07-23T10:04:38.000Z</time>
      </trkpt>
      <trkpt lat="47.30569" lon="-2.34147">
        <ele>29.39999961853</ele>
        <time>2020-07-23T10:04:44.000Z</time>
      </trkpt>
      <trkpt lat="47.30556" lon="-2.34165">
        <ele>29.39999961853</ele>
        <time>2020-07-23T10:04:50.000Z</time>
      </trkpt>
      <trkpt lat="47.30552" lon="-2.34169">
        <ele>29.39999961853</ele>
        <time>2020-07-23T10:04:52.000Z</time>
      </trkpt>
      <trkpt lat="47.30547" lon="-2.34172">
        <ele>29.39999961853</ele>
        <time>2020-07-23T10:04:54.000Z</time>
      </trkpt>
      <trkpt lat="47.30545" lon="-2.34174">
        <ele>29.39999961853</ele>
        <time>2020-07-23T10:04:55.000Z</time>
      </trkpt>
      <trkpt lat="47.30533" lon="-2.34182">
        <ele>29.39999961853</ele>
        <time>2020-07-23T10:05:00.000Z</time>
      </trkpt>
      <trkpt lat="47.30517" lon="-2.34201">
        <ele>29.39999961853</ele>
        <time>2020-07-23T10:05:05.000Z</time>
      </trkpt>
      <trkpt lat="47.30511" lon="-2.34223">
        <ele>29.39999961853</ele>
        <time>2020-07-23T10:05:09.000Z</time>
      </trkpt>
      <trkpt lat="47.30498" lon="-2.34251">
        <ele>29.39999961853</ele>
        <time>2020-07-23T10:05:15.000Z</time>
      </trkpt>
      <trkpt lat="47.30494" lon="-2.34269">
        <ele>29.799999237061</ele>
        <time>2020-07-23T10:05:19.000Z</time>
      </trkpt>
      <trkpt lat="47.30494" lon="-2.34275">
        <ele>30.200000762939</ele>
        <time>2020-07-23T10:05:20.000Z</time>
      </trkpt>
      <trkpt lat="47.30494" lon="-2.3428">
        <ele>31</ele>
        <time>2020-07-23T10:05:21.000Z</time>
      </trkpt>
      <trkpt lat="47.30495" lon="-2.34284">
        <ele>31.39999961853</ele>
        <time>2020-07-23T10:05:22.000Z</time>
      </trkpt>
      <trkpt lat="47.30501" lon="-2.34301">
        <ele>31.39999961853</ele>
        <time>2020-07-23T10:05:25.000Z</time>
      </trkpt>
      <trkpt lat="47.30514" lon="-2.34344">
        <ele>31.39999961853</ele>
        <time>2020-07-23T10:05:32.000Z</time>
      </trkpt>
      <trkpt lat="47.30513" lon="-2.34382">
        <ele>31.39999961853</ele>
        <time>2020-07-23T10:05:38.000Z</time>
      </trkpt>
      <trkpt lat="47.30512" lon="-2.34387">
        <ele>31.39999961853</ele>
        <time>2020-07-23T10:05:39.000Z</time>
      </trkpt>
      <trkpt lat="47.30507" lon="-2.34403">
        <ele>31.39999961853</ele>
        <time>2020-07-23T10:05:42.000Z</time>
      </trkpt>
      <trkpt lat="47.30507" lon="-2.34428">
        <ele>31.39999961853</ele>
        <time>2020-07-23T10:05:45.000Z</time>
      </trkpt>
      <trkpt lat="47.30508" lon="-2.34435">
        <ele>31.39999961853</ele>
        <time>2020-07-23T10:05:46.000Z</time>
      </trkpt>
      <trkpt lat="47.30507" lon="-2.34452">
        <ele>31.39999961853</ele>
        <time>2020-07-23T10:05:48.000Z</time>
      </trkpt>
      <trkpt lat="47.3051" lon="-2.34469">
        <ele>31.39999961853</ele>
        <time>2020-07-23T10:05:51.000Z</time>
      </trkpt>
      <trkpt lat="47.30523" lon="-2.34487">
        <ele>31.39999961853</ele>
        <time>2020-07-23T10:05:56.000Z</time>
      </trkpt>
      <trkpt lat="47.30543" lon="-2.34508">
        <ele>31.39999961853</ele>
        <time>2020-07-23T10:06:01.000Z</time>
      </trkpt>
      <trkpt lat="47.30562" lon="-2.34534">
        <ele>31.39999961853</ele>
        <time>2020-07-23T10:06:07.000Z</time>
      </trkpt>
      <trkpt lat="47.30563" lon="-2.34543">
        <ele>31.39999961853</ele>
        <time>2020-07-23T10:06:09.000Z</time>
      </trkpt>
      <trkpt lat="47.3056" lon="-2.34552">
        <ele>31.39999961853</ele>
        <time>2020-07-23T10:06:11.000Z</time>
      </trkpt>
      <trkpt lat="47.30548" lon="-2.34571">
        <ele>31.39999961853</ele>
        <time>2020-07-23T10:06:15.000Z</time>
      </trkpt>
      <trkpt lat="47.30544" lon="-2.34577">
        <ele>31.39999961853</ele>
        <time>2020-07-23T10:06:16.000Z</time>
      </trkpt>
      <trkpt lat="47.30533" lon="-2.34589">
        <ele>31.39999961853</ele>
        <time>2020-07-23T10:06:18.000Z</time>
      </trkpt>
      <trkpt lat="47.30528" lon="-2.34597">
        <ele>31.39999961853</ele>
        <time>2020-07-23T10:06:19.000Z</time>
      </trkpt>
      <trkpt lat="47.30505" lon="-2.34637">
        <ele>31.39999961853</ele>
        <time>2020-07-23T10:06:24.000Z</time>
      </trkpt>
      <trkpt lat="47.30479" lon="-2.34666">
        <ele>31.39999961853</ele>
        <time>2020-07-23T10:06:28.000Z</time>
      </trkpt>
      <trkpt lat="47.30469" lon="-2.34678">
        <ele>31.39999961853</ele>
        <time>2020-07-23T10:06:30.000Z</time>
      </trkpt>
      <trkpt lat="47.30458" lon="-2.34688">
        <ele>31.39999961853</ele>
        <time>2020-07-23T10:06:32.000Z</time>
      </trkpt>
      <trkpt lat="47.30448" lon="-2.34699">
        <ele>31.39999961853</ele>
        <time>2020-07-23T10:06:34.000Z</time>
      </trkpt>
      <trkpt lat="47.30431" lon="-2.34714">
        <ele>31.39999961853</ele>
        <time>2020-07-23T10:06:37.000Z</time>
      </trkpt>
      <trkpt lat="47.30425" lon="-2.34717">
        <ele>31.39999961853</ele>
        <time>2020-07-23T10:06:38.000Z</time>
      </trkpt>
      <trkpt lat="47.30395" lon="-2.34738">
        <ele>31.39999961853</ele>
        <time>2020-07-23T10:06:43.000Z</time>
      </trkpt>
      <trkpt lat="47.30369" lon="-2.34756">
        <ele>31.39999961853</ele>
        <time>2020-07-23T10:06:48.000Z</time>
      </trkpt>
      <trkpt lat="47.30352" lon="-2.3477">
        <ele>31.39999961853</ele>
        <time>2020-07-23T10:06:51.000Z</time>
      </trkpt>
      <trkpt lat="47.30343" lon="-2.34784">
        <ele>31.39999961853</ele>
        <time>2020-07-23T10:06:53.000Z</time>
      </trkpt>
      <trkpt lat="47.30333" lon="-2.34801">
        <ele>31.39999961853</ele>
        <time>2020-07-23T10:06:55.000Z</time>
      </trkpt>
      <trkpt lat="47.30323" lon="-2.34817">
        <ele>31.39999961853</ele>
        <time>2020-07-23T10:06:57.000Z</time>
      </trkpt>
      <trkpt lat="47.30313" lon="-2.34831">
        <ele>31.39999961853</ele>
        <time>2020-07-23T10:06:59.000Z</time>
      </trkpt>
      <trkpt lat="47.30302" lon="-2.34844">
        <ele>31.39999961853</ele>
        <time>2020-07-23T10:07:01.000Z</time>
      </trkpt>
      <trkpt lat="47.30289" lon="-2.34851">
        <ele>31.39999961853</ele>
        <time>2020-07-23T10:07:03.000Z</time>
      </trkpt>
      <trkpt lat="47.30252" lon="-2.34873">
        <ele>31.39999961853</ele>
        <time>2020-07-23T10:07:09.000Z</time>
      </trkpt>
      <trkpt lat="47.30221" lon="-2.34899">
        <ele>31.39999961853</ele>
        <time>2020-07-23T10:07:14.000Z</time>
      </trkpt>
      <trkpt lat="47.30216" lon="-2.34907">
        <ele>31.39999961853</ele>
        <time>2020-07-23T10:07:15.000Z</time>
      </trkpt>
      <trkpt lat="47.30212" lon="-2.34927">
        <ele>31.39999961853</ele>
        <time>2020-07-23T10:07:17.000Z</time>
      </trkpt>
      <trkpt lat="47.3021" lon="-2.34972">
        <ele>31.39999961853</ele>
        <time>2020-07-23T10:07:21.000Z</time>
      </trkpt>
      <trkpt lat="47.30209" lon="-2.35006">
        <ele>31</ele>
        <time>2020-07-23T10:07:24.000Z</time>
      </trkpt>
      <trkpt lat="47.3021" lon="-2.35017">
        <ele>30.200000762939</ele>
        <time>2020-07-23T10:07:25.000Z</time>
      </trkpt>
      <trkpt lat="47.3021" lon="-2.35029">
        <ele>29.60000038147</ele>
        <time>2020-07-23T10:07:26.000Z</time>
      </trkpt>
      <trkpt lat="47.3021" lon="-2.3504">
        <ele>29.200000762939</ele>
        <time>2020-07-23T10:07:27.000Z</time>
      </trkpt>
      <trkpt lat="47.3021" lon="-2.35052">
        <ele>29.200000762939</ele>
        <time>2020-07-23T10:07:28.000Z</time>
      </trkpt>
      <trkpt lat="47.3021" lon="-2.35108">
        <ele>28.799999237061</ele>
        <time>2020-07-23T10:07:33.000Z</time>
      </trkpt>
      <trkpt lat="47.30209" lon="-2.35118">
        <ele>28.39999961853</ele>
        <time>2020-07-23T10:07:34.000Z</time>
      </trkpt>
      <trkpt lat="47.30208" lon="-2.3513">
        <ele>28</ele>
        <time>2020-07-23T10:07:35.000Z</time>
      </trkpt>
      <trkpt lat="47.30208" lon="-2.35141">
        <ele>27.60000038147</ele>
        <time>2020-07-23T10:07:36.000Z</time>
      </trkpt>
      <trkpt lat="47.30208" lon="-2.35152">
        <ele>27.200000762939</ele>
        <time>2020-07-23T10:07:37.000Z</time>
      </trkpt>
      <trkpt lat="47.30207" lon="-2.35162">
        <ele>27.200000762939</ele>
        <time>2020-07-23T10:07:38.000Z</time>
      </trkpt>
      <trkpt lat="47.30203" lon="-2.35169">
        <ele>27.200000762939</ele>
        <time>2020-07-23T10:07:39.000Z</time>
      </trkpt>
      <trkpt lat="47.30192" lon="-2.35174">
        <ele>27.200000762939</ele>
        <time>2020-07-23T10:07:41.000Z</time>
      </trkpt>
      <trkpt lat="47.30186" lon="-2.35175">
        <ele>27.200000762939</ele>
        <time>2020-07-23T10:07:42.000Z</time>
      </trkpt>
      <trkpt lat="47.3017" lon="-2.3518">
        <ele>27.200000762939</ele>
        <time>2020-07-23T10:07:45.000Z</time>
      </trkpt>
      <trkpt lat="47.30164" lon="-2.35184">
        <ele>26.799999237061</ele>
        <time>2020-07-23T10:07:46.000Z</time>
      </trkpt>
      <trkpt lat="47.3016" lon="-2.35188">
        <ele>26.39999961853</ele>
        <time>2020-07-23T10:07:47.000Z</time>
      </trkpt>
      <trkpt lat="47.30155" lon="-2.35193">
        <ele>26</ele>
        <time>2020-07-23T10:07:48.000Z</time>
      </trkpt>
      <trkpt lat="47.3015" lon="-2.35196">
        <ele>25.60000038147</ele>
        <time>2020-07-23T10:07:49.000Z</time>
      </trkpt>
      <trkpt lat="47.30144" lon="-2.35197">
        <ele>25.200000762939</ele>
        <time>2020-07-23T10:07:50.000Z</time>
      </trkpt>
      <trkpt lat="47.30138" lon="-2.35198">
        <ele>25.200000762939</ele>
        <time>2020-07-23T10:07:51.000Z</time>
      </trkpt>
      <trkpt lat="47.30133" lon="-2.35198">
        <ele>25.200000762939</ele>
        <time>2020-07-23T10:07:52.000Z</time>
      </trkpt>
      <trkpt lat="47.30122" lon="-2.35201">
        <ele>25.200000762939</ele>
        <time>2020-07-23T10:07:54.000Z</time>
      </trkpt>
      <trkpt lat="47.30105" lon="-2.35209">
        <ele>25.200000762939</ele>
        <time>2020-07-23T10:07:57.000Z</time>
      </trkpt>
      <trkpt lat="47.30074" lon="-2.35223">
        <ele>25.200000762939</ele>
        <time>2020-07-23T10:08:02.000Z</time>
      </trkpt>
      <trkpt lat="47.3004" lon="-2.3524">
        <ele>25.200000762939</ele>
        <time>2020-07-23T10:08:08.000Z</time>
      </trkpt>
      <trkpt lat="47.30036" lon="-2.35244">
        <ele>25.200000762939</ele>
        <time>2020-07-23T10:08:09.000Z</time>
      </trkpt>
      <trkpt lat="47.3003" lon="-2.35248">
        <ele>25.200000762939</ele>
        <time>2020-07-23T10:08:12.000Z</time>
      </trkpt>
      <trkpt lat="47.30025" lon="-2.35252">
        <ele>25.200000762939</ele>
        <time>2020-07-23T10:08:17.000Z</time>
      </trkpt>
      <trkpt lat="47.30013" lon="-2.35259">
        <ele>25.200000762939</ele>
        <time>2020-07-23T10:08:21.000Z</time>
      </trkpt>
      <trkpt lat="47.30002" lon="-2.35264">
        <ele>25.200000762939</ele>
        <time>2020-07-23T10:08:26.000Z</time>
      </trkpt>
      <trkpt lat="47.29998" lon="-2.35266">
        <ele>25.200000762939</ele>
        <time>2020-07-23T10:08:31.000Z</time>
      </trkpt>
      <trkpt lat="47.29995" lon="-2.35267">
        <ele>23.200000762939</ele>
        <time>2020-07-23T10:09:27.000Z</time>
      </trkpt>
      <trkpt lat="47.29991" lon="-2.35272">
        <ele>23.200000762939</ele>
        <time>2020-07-23T10:09:30.000Z</time>
      </trkpt>
      <trkpt lat="47.29981" lon="-2.35283">
        <ele>23.200000762939</ele>
        <time>2020-07-23T10:09:35.000Z</time>
      </trkpt>
      <trkpt lat="47.29966" lon="-2.35302">
        <ele>23.200000762939</ele>
        <time>2020-07-23T10:09:41.000Z</time>
      </trkpt>
      <trkpt lat="47.29954" lon="-2.35317">
        <ele>23.200000762939</ele>
        <time>2020-07-23T10:09:45.000Z</time>
      </trkpt>
      <trkpt lat="47.29951" lon="-2.35321">
        <ele>23.200000762939</ele>
        <time>2020-07-23T10:09:46.000Z</time>
      </trkpt>
      <trkpt lat="47.29935" lon="-2.35344">
        <ele>23.200000762939</ele>
        <time>2020-07-23T10:09:51.000Z</time>
      </trkpt>
      <trkpt lat="47.29913" lon="-2.3537">
        <ele>23.200000762939</ele>
        <time>2020-07-23T10:09:56.000Z</time>
      </trkpt>
      <trkpt lat="47.29882" lon="-2.35404">
        <ele>23.200000762939</ele>
        <time>2020-07-23T10:10:03.000Z</time>
      </trkpt>
      <trkpt lat="47.29869" lon="-2.35419">
        <ele>23.200000762939</ele>
        <time>2020-07-23T10:10:06.000Z</time>
      </trkpt>
      <trkpt lat="47.29856" lon="-2.35433">
        <ele>23.200000762939</ele>
        <time>2020-07-23T10:10:09.000Z</time>
      </trkpt>
      <trkpt lat="47.29837" lon="-2.35453">
        <ele>23.60000038147</ele>
        <time>2020-07-23T10:10:13.000Z</time>
      </trkpt>
      <trkpt lat="47.29834" lon="-2.3546">
        <ele>24</ele>
        <time>2020-07-23T10:10:14.000Z</time>
      </trkpt>
      <trkpt lat="47.29831" lon="-2.35467">
        <ele>24.39999961853</ele>
        <time>2020-07-23T10:10:15.000Z</time>
      </trkpt>
      <trkpt lat="47.29829" lon="-2.35475">
        <ele>24.799999237061</ele>
        <time>2020-07-23T10:10:16.000Z</time>
      </trkpt>
      <trkpt lat="47.29831" lon="-2.35484">
        <ele>25.200000762939</ele>
        <time>2020-07-23T10:10:17.000Z</time>
      </trkpt>
      <trkpt lat="47.29834" lon="-2.355">
        <ele>25.200000762939</ele>
        <time>2020-07-23T10:10:19.000Z</time>
      </trkpt>
      <trkpt lat="47.29849" lon="-2.35552">
        <ele>25.799999237061</ele>
        <time>2020-07-23T10:10:26.000Z</time>
      </trkpt>
      <trkpt lat="47.29851" lon="-2.35559">
        <ele>26.200000762939</ele>
        <time>2020-07-23T10:10:27.000Z</time>
      </trkpt>
      <trkpt lat="47.29853" lon="-2.35566">
        <ele>26.60000038147</ele>
        <time>2020-07-23T10:10:28.000Z</time>
      </trkpt>
      <trkpt lat="47.29855" lon="-2.35573">
        <ele>27</ele>
        <time>2020-07-23T10:10:29.000Z</time>
      </trkpt>
      <trkpt lat="47.29857" lon="-2.3558">
        <ele>27.39999961853</ele>
        <time>2020-07-23T10:10:30.000Z</time>
      </trkpt>
      <trkpt lat="47.29862" lon="-2.35599">
        <ele>27.39999961853</ele>
        <time>2020-07-23T10:10:33.000Z</time>
      </trkpt>
      <trkpt lat="47.29872" lon="-2.35637">
        <ele>27.39999961853</ele>
        <time>2020-07-23T10:10:40.000Z</time>
      </trkpt>
      <trkpt lat="47.29876" lon="-2.35673">
        <ele>27.39999961853</ele>
        <time>2020-07-23T10:10:46.000Z</time>
      </trkpt>
      <trkpt lat="47.29885" lon="-2.35711">
        <ele>27.39999961853</ele>
        <time>2020-07-23T10:10:53.000Z</time>
      </trkpt>
      <trkpt lat="47.29895" lon="-2.35747">
        <ele>27.39999961853</ele>
        <time>2020-07-23T10:11:02.000Z</time>
      </trkpt>
      <trkpt lat="47.29895" lon="-2.35748">
        <ele>27.39999961853</ele>
        <time>2020-07-23T10:11:03.000Z</time>
      </trkpt>
      <trkpt lat="47.29892" lon="-2.35754">
        <ele>27.39999961853</ele>
        <time>2020-07-23T10:11:06.000Z</time>
      </trkpt>
      <trkpt lat="47.29879" lon="-2.35761">
        <ele>27.39999961853</ele>
        <time>2020-07-23T10:11:11.000Z</time>
      </trkpt>
      <trkpt lat="47.29856" lon="-2.35769">
        <ele>27.39999961853</ele>
        <time>2020-07-23T10:11:18.000Z</time>
      </trkpt>
      <trkpt lat="47.2984" lon="-2.35782">
        <ele>27.39999961853</ele>
        <time>2020-07-23T10:11:23.000Z</time>
      </trkpt>
      <trkpt lat="47.29836" lon="-2.35785">
        <ele>27.39999961853</ele>
        <time>2020-07-23T10:11:24.000Z</time>
      </trkpt>
      <trkpt lat="47.2982" lon="-2.35792">
        <ele>27.39999961853</ele>
        <time>2020-07-23T10:11:27.000Z</time>
      </trkpt>
      <trkpt lat="47.29815" lon="-2.35794">
        <ele>27.799999237061</ele>
        <time>2020-07-23T10:11:28.000Z</time>
      </trkpt>
      <trkpt lat="47.29809" lon="-2.35796">
        <ele>28.200000762939</ele>
        <time>2020-07-23T10:11:29.000Z</time>
      </trkpt>
      <trkpt lat="47.29804" lon="-2.35797">
        <ele>28.799999237061</ele>
        <time>2020-07-23T10:11:30.000Z</time>
      </trkpt>
      <trkpt lat="47.29799" lon="-2.35798">
        <ele>29.200000762939</ele>
        <time>2020-07-23T10:11:31.000Z</time>
      </trkpt>
      <trkpt lat="47.29794" lon="-2.358">
        <ele>29.60000038147</ele>
        <time>2020-07-23T10:11:32.000Z</time>
      </trkpt>
      <trkpt lat="47.29784" lon="-2.35803">
        <ele>29.60000038147</ele>
        <time>2020-07-23T10:11:34.000Z</time>
      </trkpt>
      <trkpt lat="47.2975" lon="-2.35814">
        <ele>29.60000038147</ele>
        <time>2020-07-23T10:11:40.000Z</time>
      </trkpt>
      <trkpt lat="47.29711" lon="-2.35834">
        <ele>29.60000038147</ele>
        <time>2020-07-23T10:11:46.000Z</time>
      </trkpt>
      <trkpt lat="47.29684" lon="-2.35846">
        <ele>29.60000038147</ele>
        <time>2020-07-23T10:11:50.000Z</time>
      </trkpt>
      <trkpt lat="47.29671" lon="-2.35852">
        <ele>29.60000038147</ele>
        <time>2020-07-23T10:11:52.000Z</time>
      </trkpt>
      <trkpt lat="47.29666" lon="-2.35858">
        <ele>29.60000038147</ele>
        <time>2020-07-23T10:11:53.000Z</time>
      </trkpt>
      <trkpt lat="47.2965" lon="-2.35869">
        <ele>29.60000038147</ele>
        <time>2020-07-23T10:11:56.000Z</time>
      </trkpt>
      <trkpt lat="47.29627" lon="-2.35881">
        <ele>29.60000038147</ele>
        <time>2020-07-23T10:12:00.000Z</time>
      </trkpt>
      <trkpt lat="47.29621" lon="-2.35885">
        <ele>29.60000038147</ele>
        <time>2020-07-23T10:12:01.000Z</time>
      </trkpt>
      <trkpt lat="47.29584" lon="-2.35907">
        <ele>29.60000038147</ele>
        <time>2020-07-23T10:12:08.000Z</time>
      </trkpt>
      <trkpt lat="47.29538" lon="-2.35932">
        <ele>29.60000038147</ele>
        <time>2020-07-23T10:12:16.000Z</time>
      </trkpt>
      <trkpt lat="47.29527" lon="-2.35938">
        <ele>29.60000038147</ele>
        <time>2020-07-23T10:12:18.000Z</time>
      </trkpt>
      <trkpt lat="47.29512" lon="-2.35941">
        <ele>28.799999237061</ele>
        <time>2020-07-23T10:12:21.000Z</time>
      </trkpt>
      <trkpt lat="47.29507" lon="-2.35938">
        <ele>28.200000762939</ele>
        <time>2020-07-23T10:12:22.000Z</time>
      </trkpt>
      <trkpt lat="47.29506" lon="-2.35931">
        <ele>27.799999237061</ele>
        <time>2020-07-23T10:12:23.000Z</time>
      </trkpt>
      <trkpt lat="47.29505" lon="-2.35926">
        <ele>27.39999961853</ele>
        <time>2020-07-23T10:12:24.000Z</time>
      </trkpt>
      <trkpt lat="47.29495" lon="-2.359">
        <ele>27.39999961853</ele>
        <time>2020-07-23T10:12:29.000Z</time>
      </trkpt>
      <trkpt lat="47.2948" lon="-2.35896">
        <ele>27.39999961853</ele>
        <time>2020-07-23T10:12:33.000Z</time>
      </trkpt>
      <trkpt lat="47.29468" lon="-2.359">
        <ele>27.39999961853</ele>
        <time>2020-07-23T10:12:36.000Z</time>
      </trkpt>
      <trkpt lat="47.2946" lon="-2.35901">
        <ele>27.39999961853</ele>
        <time>2020-07-23T10:12:38.000Z</time>
      </trkpt>
      <trkpt lat="47.29451" lon="-2.35903">
        <ele>27.39999961853</ele>
        <time>2020-07-23T10:12:42.000Z</time>
      </trkpt>
      <trkpt lat="47.29449" lon="-2.35904">
        <ele>27.39999961853</ele>
        <time>2020-07-23T10:12:43.000Z</time>
      </trkpt>
      <trkpt lat="47.29443" lon="-2.35914">
        <ele>27.39999961853</ele>
        <time>2020-07-23T10:12:46.000Z</time>
      </trkpt>
      <trkpt lat="47.2944" lon="-2.35913">
        <ele>27.39999961853</ele>
        <time>2020-07-23T10:12:47.000Z</time>
      </trkpt>
      <trkpt lat="47.29435" lon="-2.35908">
        <ele>27.39999961853</ele>
        <time>2020-07-23T10:12:49.000Z</time>
      </trkpt>
      <trkpt lat="47.2943" lon="-2.35899">
        <ele>27.39999961853</ele>
        <time>2020-07-23T10:12:51.000Z</time>
      </trkpt>
      <trkpt lat="47.29416" lon="-2.3588">
        <ele>27.39999961853</ele>
        <time>2020-07-23T10:12:55.000Z</time>
      </trkpt>
      <trkpt lat="47.2939" lon="-2.3585">
        <ele>27.39999961853</ele>
        <time>2020-07-23T10:13:02.000Z</time>
      </trkpt>
      <trkpt lat="47.29376" lon="-2.3584">
        <ele>27.39999961853</ele>
        <time>2020-07-23T10:13:06.000Z</time>
      </trkpt>
      <trkpt lat="47.29358" lon="-2.35824">
        <ele>27.39999961853</ele>
        <time>2020-07-23T10:13:12.000Z</time>
      </trkpt>
      <trkpt lat="47.29355" lon="-2.35821">
        <ele>27.39999961853</ele>
        <time>2020-07-23T10:13:13.000Z</time>
      </trkpt>
      <trkpt lat="47.29335" lon="-2.35802">
        <ele>27.39999961853</ele>
        <time>2020-07-23T10:13:18.000Z</time>
      </trkpt>
      <trkpt lat="47.29331" lon="-2.35798">
        <ele>27.39999961853</ele>
        <time>2020-07-23T10:13:19.000Z</time>
      </trkpt>
      <trkpt lat="47.29313" lon="-2.35785">
        <ele>27.39999961853</ele>
        <time>2020-07-23T10:13:23.000Z</time>
      </trkpt>
      <trkpt lat="47.29271" lon="-2.35749">
        <ele>27.39999961853</ele>
        <time>2020-07-23T10:13:32.000Z</time>
      </trkpt>
      <trkpt lat="47.29258" lon="-2.35738">
        <ele>27.39999961853</ele>
        <time>2020-07-23T10:13:35.000Z</time>
      </trkpt>
      <trkpt lat="47.29255" lon="-2.35739">
        <ele>27.39999961853</ele>
        <time>2020-07-23T10:13:36.000Z</time>
      </trkpt>
      <trkpt lat="47.29245" lon="-2.35755">
        <ele>27.39999961853</ele>
        <time>2020-07-23T10:13:39.000Z</time>
      </trkpt>
      <trkpt lat="47.29242" lon="-2.3576">
        <ele>27.39999961853</ele>
        <time>2020-07-23T10:13:40.000Z</time>
      </trkpt>
      <trkpt lat="47.29217" lon="-2.35789">
        <ele>27.39999961853</ele>
        <time>2020-07-23T10:13:46.000Z</time>
      </trkpt>
      <trkpt lat="47.29181" lon="-2.35816">
        <ele>27.39999961853</ele>
        <time>2020-07-23T10:13:54.000Z</time>
      </trkpt>
      <trkpt lat="47.29154" lon="-2.35834">
        <ele>27.39999961853</ele>
        <time>2020-07-23T10:14:00.000Z</time>
      </trkpt>
      <trkpt lat="47.29125" lon="-2.35864">
        <ele>27.39999961853</ele>
        <time>2020-07-23T10:14:07.000Z</time>
      </trkpt>
      <trkpt lat="47.29085" lon="-2.35912">
        <ele>27.39999961853</ele>
        <time>2020-07-23T10:14:17.000Z</time>
      </trkpt>
      <trkpt lat="47.29052" lon="-2.3595">
        <ele>27.39999961853</ele>
        <time>2020-07-23T10:14:25.000Z</time>
      </trkpt>
      <trkpt lat="47.29009" lon="-2.35995">
        <ele>27.39999961853</ele>
        <time>2020-07-23T10:14:35.000Z</time>
      </trkpt>
      <trkpt lat="47.28972" lon="-2.36031">
        <ele>27.39999961853</ele>
        <time>2020-07-23T10:14:43.000Z</time>
      </trkpt>
      <trkpt lat="47.28938" lon="-2.36058">
        <ele>27.39999961853</ele>
        <time>2020-07-23T10:14:50.000Z</time>
      </trkpt>
      <trkpt lat="47.28901" lon="-2.36084">
        <ele>27.39999961853</ele>
        <time>2020-07-23T10:14:57.000Z</time>
      </trkpt>
      <trkpt lat="47.28872" lon="-2.36113">
        <ele>27.39999961853</ele>
        <time>2020-07-23T10:15:03.000Z</time>
      </trkpt>
      <trkpt lat="47.2884" lon="-2.3615">
        <ele>27.39999961853</ele>
        <time>2020-07-23T10:15:10.000Z</time>
      </trkpt>
      <trkpt lat="47.28819" lon="-2.36179">
        <ele>27.39999961853</ele>
        <time>2020-07-23T10:15:15.000Z</time>
      </trkpt>
      <trkpt lat="47.28809" lon="-2.36187">
        <ele>27.39999961853</ele>
        <time>2020-07-23T10:15:17.000Z</time>
      </trkpt>
      <trkpt lat="47.28799" lon="-2.36194">
        <ele>27.39999961853</ele>
        <time>2020-07-23T10:15:19.000Z</time>
      </trkpt>
      <trkpt lat="47.28786" lon="-2.36202">
        <ele>27.39999961853</ele>
        <time>2020-07-23T10:15:22.000Z</time>
      </trkpt>
      <trkpt lat="47.28758" lon="-2.36219">
        <ele>27.39999961853</ele>
        <time>2020-07-23T10:15:29.000Z</time>
      </trkpt>
      <trkpt lat="47.28741" lon="-2.36229">
        <ele>27.39999961853</ele>
        <time>2020-07-23T10:15:34.000Z</time>
      </trkpt>
      <trkpt lat="47.2873" lon="-2.36241">
        <ele>27.39999961853</ele>
        <time>2020-07-23T10:15:39.000Z</time>
      </trkpt>
      <trkpt lat="47.28723" lon="-2.36254">
        <ele>27.39999961853</ele>
        <time>2020-07-23T10:15:44.000Z</time>
      </trkpt>
      <trkpt lat="47.28716" lon="-2.36263">
        <ele>27.799999237061</ele>
        <time>2020-07-23T10:15:47.000Z</time>
      </trkpt>
      <trkpt lat="47.28714" lon="-2.36266">
        <ele>28.200000762939</ele>
        <time>2020-07-23T10:15:48.000Z</time>
      </trkpt>
      <trkpt lat="47.28712" lon="-2.36268">
        <ele>28.60000038147</ele>
        <time>2020-07-23T10:15:49.000Z</time>
      </trkpt>
      <trkpt lat="47.2871" lon="-2.3627">
        <ele>29</ele>
        <time>2020-07-23T10:15:50.000Z</time>
      </trkpt>
      <trkpt lat="47.28707" lon="-2.36272">
        <ele>29.60000038147</ele>
        <time>2020-07-23T10:15:51.000Z</time>
      </trkpt>
      <trkpt lat="47.28692" lon="-2.36276">
        <ele>30</ele>
        <time>2020-07-23T10:15:56.000Z</time>
      </trkpt>
      <trkpt lat="47.28689" lon="-2.36276">
        <ele>30.39999961853</ele>
        <time>2020-07-23T10:15:57.000Z</time>
      </trkpt>
      <trkpt lat="47.28687" lon="-2.36275">
        <ele>30.799999237061</ele>
        <time>2020-07-23T10:15:58.000Z</time>
      </trkpt>
      <trkpt lat="47.28683" lon="-2.36273">
        <ele>31.200000762939</ele>
        <time>2020-07-23T10:15:59.000Z</time>
      </trkpt>
      <trkpt lat="47.2868" lon="-2.3627">
        <ele>31.60000038147</ele>
        <time>2020-07-23T10:16:00.000Z</time>
      </trkpt>
      <trkpt lat="47.28678" lon="-2.36268">
        <ele>31.60000038147</ele>
        <time>2020-07-23T10:16:01.000Z</time>
      </trkpt>
      <trkpt lat="47.28674" lon="-2.36262">
        <ele>31.60000038147</ele>
        <time>2020-07-23T10:16:03.000Z</time>
      </trkpt>
      <trkpt lat="47.28673" lon="-2.36255">
        <ele>31.60000038147</ele>
        <time>2020-07-23T10:16:05.000Z</time>
      </trkpt>
      <trkpt lat="47.28674" lon="-2.36246">
        <ele>31.60000038147</ele>
        <time>2020-07-23T10:16:07.000Z</time>
      </trkpt>
      <trkpt lat="47.28673" lon="-2.36233">
        <ele>32</ele>
        <time>2020-07-23T10:16:10.000Z</time>
      </trkpt>
      <trkpt lat="47.28673" lon="-2.36228">
        <ele>32.400001525879</ele>
        <time>2020-07-23T10:16:11.000Z</time>
      </trkpt>
      <trkpt lat="47.28673" lon="-2.36223">
        <ele>32.799999237061</ele>
        <time>2020-07-23T10:16:12.000Z</time>
      </trkpt>
      <trkpt lat="47.28672" lon="-2.36218">
        <ele>33.200000762939</ele>
        <time>2020-07-23T10:16:13.000Z</time>
      </trkpt>
      <trkpt lat="47.28671" lon="-2.36214">
        <ele>33.599998474121</ele>
        <time>2020-07-23T10:16:14.000Z</time>
      </trkpt>
      <trkpt lat="47.28668" lon="-2.36205">
        <ele>33.599998474121</ele>
        <time>2020-07-23T10:16:16.000Z</time>
      </trkpt>
      <trkpt lat="47.28655" lon="-2.36183">
        <ele>33.599998474121</ele>
        <time>2020-07-23T10:16:21.000Z</time>
      </trkpt>
      <trkpt lat="47.28641" lon="-2.36168">
        <ele>34</ele>
        <time>2020-07-23T10:16:24.000Z</time>
      </trkpt>
      <trkpt lat="47.28638" lon="-2.36164">
        <ele>34.400001525879</ele>
        <time>2020-07-23T10:16:25.000Z</time>
      </trkpt>
      <trkpt lat="47.28636" lon="-2.3616">
        <ele>34.799999237061</ele>
        <time>2020-07-23T10:16:26.000Z</time>
      </trkpt>
      <trkpt lat="47.28633" lon="-2.36155">
        <ele>35.200000762939</ele>
        <time>2020-07-23T10:16:27.000Z</time>
      </trkpt>
      <trkpt lat="47.28631" lon="-2.36152">
        <ele>35.599998474121</ele>
        <time>2020-07-23T10:16:28.000Z</time>
      </trkpt>
      <trkpt lat="47.28628" lon="-2.3615">
        <ele>35.599998474121</ele>
        <time>2020-07-23T10:16:29.000Z</time>
      </trkpt>
      <trkpt lat="47.28625" lon="-2.36149">
        <ele>35.599998474121</ele>
        <time>2020-07-23T10:16:30.000Z</time>
      </trkpt>
      <trkpt lat="47.28617" lon="-2.36152">
        <ele>36</ele>
        <time>2020-07-23T10:16:33.000Z</time>
      </trkpt>
      <trkpt lat="47.28614" lon="-2.36154">
        <ele>36.400001525879</ele>
        <time>2020-07-23T10:16:34.000Z</time>
      </trkpt>
      <trkpt lat="47.2861" lon="-2.36157">
        <ele>36.799999237061</ele>
        <time>2020-07-23T10:16:35.000Z</time>
      </trkpt>
      <trkpt lat="47.28606" lon="-2.36158">
        <ele>37.200000762939</ele>
        <time>2020-07-23T10:16:36.000Z</time>
      </trkpt>
      <trkpt lat="47.28602" lon="-2.36159">
        <ele>37.599998474121</ele>
        <time>2020-07-23T10:16:37.000Z</time>
      </trkpt>
      <trkpt lat="47.28592" lon="-2.36156">
        <ele>37.599998474121</ele>
        <time>2020-07-23T10:16:39.000Z</time>
      </trkpt>
      <trkpt lat="47.28573" lon="-2.36149">
        <ele>37.599998474121</ele>
        <time>2020-07-23T10:16:43.000Z</time>
      </trkpt>
      <trkpt lat="47.28567" lon="-2.36151">
        <ele>37.599998474121</ele>
        <time>2020-07-23T10:16:44.000Z</time>
      </trkpt>
      <trkpt lat="47.28556" lon="-2.36154">
        <ele>37.200000762939</ele>
        <time>2020-07-23T10:16:46.000Z</time>
      </trkpt>
      <trkpt lat="47.28552" lon="-2.36154">
        <ele>36.799999237061</ele>
        <time>2020-07-23T10:16:47.000Z</time>
      </trkpt>
      <trkpt lat="47.28547" lon="-2.36152">
        <ele>36.400001525879</ele>
        <time>2020-07-23T10:16:48.000Z</time>
      </trkpt>
      <trkpt lat="47.28544" lon="-2.36148">
        <ele>35.799999237061</ele>
        <time>2020-07-23T10:16:49.000Z</time>
      </trkpt>
      <trkpt lat="47.28541" lon="-2.36141">
        <ele>35.200000762939</ele>
        <time>2020-07-23T10:16:50.000Z</time>
      </trkpt>
      <trkpt lat="47.28539" lon="-2.36133">
        <ele>34.599998474121</ele>
        <time>2020-07-23T10:16:51.000Z</time>
      </trkpt>
      <trkpt lat="47.28537" lon="-2.36126">
        <ele>34</ele>
        <time>2020-07-23T10:16:52.000Z</time>
      </trkpt>
      <trkpt lat="47.28535" lon="-2.36118">
        <ele>33.400001525879</ele>
        <time>2020-07-23T10:16:53.000Z</time>
      </trkpt>
      <trkpt lat="47.28532" lon="-2.36105">
        <ele>33.400001525879</ele>
        <time>2020-07-23T10:16:55.000Z</time>
      </trkpt>
      <trkpt lat="47.28531" lon="-2.36098">
        <ele>33.400001525879</ele>
        <time>2020-07-23T10:16:56.000Z</time>
      </trkpt>
      <trkpt lat="47.28528" lon="-2.36086">
        <ele>33.400001525879</ele>
        <time>2020-07-23T10:16:58.000Z</time>
      </trkpt>
      <trkpt lat="47.28519" lon="-2.3607">
        <ele>33.400001525879</ele>
        <time>2020-07-23T10:17:01.000Z</time>
      </trkpt>
      <trkpt lat="47.28512" lon="-2.36059">
        <ele>33.400001525879</ele>
        <time>2020-07-23T10:17:03.000Z</time>
      </trkpt>
      <trkpt lat="47.28498" lon="-2.3604">
        <ele>33.400001525879</ele>
        <time>2020-07-23T10:17:07.000Z</time>
      </trkpt>
      <trkpt lat="47.28477" lon="-2.36024">
        <ele>33.400001525879</ele>
        <time>2020-07-23T10:17:12.000Z</time>
      </trkpt>
      <trkpt lat="47.28473" lon="-2.3602">
        <ele>33.400001525879</ele>
        <time>2020-07-23T10:17:13.000Z</time>
      </trkpt>
      <trkpt lat="47.28458" lon="-2.35999">
        <ele>33.400001525879</ele>
        <time>2020-07-23T10:17:17.000Z</time>
      </trkpt>
      <trkpt lat="47.28451" lon="-2.35994">
        <ele>33.400001525879</ele>
        <time>2020-07-23T10:17:19.000Z</time>
      </trkpt>
      <trkpt lat="47.28448" lon="-2.35994">
        <ele>33.400001525879</ele>
        <time>2020-07-23T10:17:20.000Z</time>
      </trkpt>
      <trkpt lat="47.28435" lon="-2.36">
        <ele>33.400001525879</ele>
        <time>2020-07-23T10:17:24.000Z</time>
      </trkpt>
      <trkpt lat="47.2842" lon="-2.36012">
        <ele>33.400001525879</ele>
        <time>2020-07-23T10:17:27.000Z</time>
      </trkpt>
      <trkpt lat="47.28409" lon="-2.36016">
        <ele>33.400001525879</ele>
        <time>2020-07-23T10:17:29.000Z</time>
      </trkpt>
      <trkpt lat="47.28395" lon="-2.36018">
        <ele>33.400001525879</ele>
        <time>2020-07-23T10:17:31.000Z</time>
      </trkpt>
      <trkpt lat="47.28379" lon="-2.3602">
        <ele>33.400001525879</ele>
        <time>2020-07-23T10:17:33.000Z</time>
      </trkpt>
      <trkpt lat="47.28371" lon="-2.36019">
        <ele>32.799999237061</ele>
        <time>2020-07-23T10:17:34.000Z</time>
      </trkpt>
      <trkpt lat="47.28363" lon="-2.36021">
        <ele>32.400001525879</ele>
        <time>2020-07-23T10:17:35.000Z</time>
      </trkpt>
      <trkpt lat="47.28356" lon="-2.36024">
        <ele>31.799999237061</ele>
        <time>2020-07-23T10:17:36.000Z</time>
      </trkpt>
      <trkpt lat="47.28349" lon="-2.36028">
        <ele>31.200000762939</ele>
        <time>2020-07-23T10:17:37.000Z</time>
      </trkpt>
      <trkpt lat="47.28342" lon="-2.36032">
        <ele>30.60000038147</ele>
        <time>2020-07-23T10:17:38.000Z</time>
      </trkpt>
      <trkpt lat="47.28335" lon="-2.36038">
        <ele>30</ele>
        <time>2020-07-23T10:17:39.000Z</time>
      </trkpt>
      <trkpt lat="47.28329" lon="-2.36043">
        <ele>29.39999961853</ele>
        <time>2020-07-23T10:17:40.000Z</time>
      </trkpt>
      <trkpt lat="47.28323" lon="-2.36047">
        <ele>28.60000038147</ele>
        <time>2020-07-23T10:17:41.000Z</time>
      </trkpt>
      <trkpt lat="47.28318" lon="-2.36049">
        <ele>27.39999961853</ele>
        <time>2020-07-23T10:17:42.000Z</time>
      </trkpt>
      <trkpt lat="47.28313" lon="-2.3605">
        <ele>26.799999237061</ele>
        <time>2020-07-23T10:17:43.000Z</time>
      </trkpt>
      <trkpt lat="47.28295" lon="-2.36046">
        <ele>26.799999237061</ele>
        <time>2020-07-23T10:17:46.000Z</time>
      </trkpt>
      <trkpt lat="47.28289" lon="-2.36042">
        <ele>26.200000762939</ele>
        <time>2020-07-23T10:17:47.000Z</time>
      </trkpt>
      <trkpt lat="47.28284" lon="-2.36036">
        <ele>25.60000038147</ele>
        <time>2020-07-23T10:17:48.000Z</time>
      </trkpt>
      <trkpt lat="47.2828" lon="-2.36031">
        <ele>24.799999237061</ele>
        <time>2020-07-23T10:17:49.000Z</time>
      </trkpt>
      <trkpt lat="47.28277" lon="-2.36025">
        <ele>24</ele>
        <time>2020-07-23T10:17:50.000Z</time>
      </trkpt>
      <trkpt lat="47.28276" lon="-2.36019">
        <ele>23</ele>
        <time>2020-07-23T10:17:51.000Z</time>
      </trkpt>
      <trkpt lat="47.28276" lon="-2.36012">
        <ele>22</ele>
        <time>2020-07-23T10:17:52.000Z</time>
      </trkpt>
      <trkpt lat="47.28277" lon="-2.36006">
        <ele>21</ele>
        <time>2020-07-23T10:17:53.000Z</time>
      </trkpt>
      <trkpt lat="47.28279" lon="-2.36">
        <ele>20.200000762939</ele>
        <time>2020-07-23T10:17:54.000Z</time>
      </trkpt>
      <trkpt lat="47.28281" lon="-2.35996">
        <ele>19.39999961853</ele>
        <time>2020-07-23T10:17:55.000Z</time>
      </trkpt>
      <trkpt lat="47.28282" lon="-2.3599">
        <ele>18.60000038147</ele>
        <time>2020-07-23T10:17:56.000Z</time>
      </trkpt>
      <trkpt lat="47.28282" lon="-2.35985">
        <ele>17.60000038147</ele>
        <time>2020-07-23T10:17:57.000Z</time>
      </trkpt>
      <trkpt lat="47.28282" lon="-2.3598">
        <ele>16.799999237061</ele>
        <time>2020-07-23T10:17:58.000Z</time>
      </trkpt>
      <trkpt lat="47.28281" lon="-2.35976">
        <ele>16.799999237061</ele>
        <time>2020-07-23T10:17:59.000Z</time>
      </trkpt>
      <trkpt lat="47.28273" lon="-2.3596">
        <ele>16.799999237061</ele>
        <time>2020-07-23T10:18:02.000Z</time>
      </trkpt>
      <trkpt lat="47.2827" lon="-2.35956">
        <ele>16.799999237061</ele>
        <time>2020-07-23T10:18:03.000Z</time>
      </trkpt>
      <trkpt lat="47.28261" lon="-2.35937">
        <ele>17.200000762939</ele>
        <time>2020-07-23T10:18:07.000Z</time>
      </trkpt>
      <trkpt lat="47.2826" lon="-2.35931">
        <ele>17.60000038147</ele>
        <time>2020-07-23T10:18:08.000Z</time>
      </trkpt>
      <trkpt lat="47.28258" lon="-2.35927">
        <ele>18.200000762939</ele>
        <time>2020-07-23T10:18:09.000Z</time>
      </trkpt>
      <trkpt lat="47.28256" lon="-2.35922">
        <ele>18.60000038147</ele>
        <time>2020-07-23T10:18:10.000Z</time>
      </trkpt>
      <trkpt lat="47.28254" lon="-2.35919">
        <ele>19</ele>
        <time>2020-07-23T10:18:11.000Z</time>
      </trkpt>
      <trkpt lat="47.28247" lon="-2.35918">
        <ele>19</ele>
        <time>2020-07-23T10:18:13.000Z</time>
      </trkpt>
      <trkpt lat="47.28232" lon="-2.35915">
        <ele>19</ele>
        <time>2020-07-23T10:18:16.000Z</time>
      </trkpt>
      <trkpt lat="47.28227" lon="-2.35915">
        <ele>19</ele>
        <time>2020-07-23T10:18:17.000Z</time>
      </trkpt>
      <trkpt lat="47.28212" lon="-2.35909">
        <ele>19</ele>
        <time>2020-07-23T10:18:20.000Z</time>
      </trkpt>
      <trkpt lat="47.28205" lon="-2.35902">
        <ele>19</ele>
        <time>2020-07-23T10:18:22.000Z</time>
      </trkpt>
      <trkpt lat="47.28199" lon="-2.3589">
        <ele>19</ele>
        <time>2020-07-23T10:18:24.000Z</time>
      </trkpt>
      <trkpt lat="47.28193" lon="-2.35876">
        <ele>19</ele>
        <time>2020-07-23T10:18:26.000Z</time>
      </trkpt>
      <trkpt lat="47.28175" lon="-2.35825">
        <ele>19</ele>
        <time>2020-07-23T10:18:34.000Z</time>
      </trkpt>
      <trkpt lat="47.28168" lon="-2.35809">
        <ele>19</ele>
        <time>2020-07-23T10:18:39.000Z</time>
      </trkpt>
      <trkpt lat="47.28166" lon="-2.35802">
        <ele>19</ele>
        <time>2020-07-23T10:18:41.000Z</time>
      </trkpt>
      <trkpt lat="47.28164" lon="-2.35794">
        <ele>17.60000038147</ele>
        <time>2020-07-23T10:18:45.000Z</time>
      </trkpt>
      <trkpt lat="47.28163" lon="-2.35791">
        <ele>17.200000762939</ele>
        <time>2020-07-23T10:18:46.000Z</time>
      </trkpt>
      <trkpt lat="47.2816" lon="-2.35787">
        <ele>16.799999237061</ele>
        <time>2020-07-23T10:18:47.000Z</time>
      </trkpt>
      <trkpt lat="47.28147" lon="-2.35773">
        <ele>16.799999237061</ele>
        <time>2020-07-23T10:18:51.000Z</time>
      </trkpt>
      <trkpt lat="47.28141" lon="-2.35772">
        <ele>16.799999237061</ele>
        <time>2020-07-23T10:18:52.000Z</time>
      </trkpt>
      <trkpt lat="47.28126" lon="-2.35776">
        <ele>16.799999237061</ele>
        <time>2020-07-23T10:18:55.000Z</time>
      </trkpt>
      <trkpt lat="47.28121" lon="-2.3578">
        <ele>16.799999237061</ele>
        <time>2020-07-23T10:18:56.000Z</time>
      </trkpt>
      <trkpt lat="47.28113" lon="-2.3579">
        <ele>16.200000762939</ele>
        <time>2020-07-23T10:18:58.000Z</time>
      </trkpt>
      <trkpt lat="47.2811" lon="-2.35795">
        <ele>15.800000190735</ele>
        <time>2020-07-23T10:18:59.000Z</time>
      </trkpt>
      <trkpt lat="47.28107" lon="-2.35801">
        <ele>15.39999961853</ele>
        <time>2020-07-23T10:19:00.000Z</time>
      </trkpt>
      <trkpt lat="47.28104" lon="-2.35806">
        <ele>15</ele>
        <time>2020-07-23T10:19:01.000Z</time>
      </trkpt>
      <trkpt lat="47.28101" lon="-2.35811">
        <ele>14.60000038147</ele>
        <time>2020-07-23T10:19:02.000Z</time>
      </trkpt>
      <trkpt lat="47.28094" lon="-2.35823">
        <ele>14.60000038147</ele>
        <time>2020-07-23T10:19:05.000Z</time>
      </trkpt>
      <trkpt lat="47.2809" lon="-2.35823">
        <ele>14.60000038147</ele>
        <time>2020-07-23T10:19:06.000Z</time>
      </trkpt>
      <trkpt lat="47.28083" lon="-2.35817">
        <ele>14.60000038147</ele>
        <time>2020-07-23T10:19:08.000Z</time>
      </trkpt>
      <trkpt lat="47.28083" lon="-2.35802">
        <ele>14.60000038147</ele>
        <time>2020-07-23T10:19:12.000Z</time>
      </trkpt>
      <trkpt lat="47.28084" lon="-2.35796">
        <ele>14.60000038147</ele>
        <time>2020-07-23T10:19:13.000Z</time>
      </trkpt>
      <trkpt lat="47.28085" lon="-2.35786">
        <ele>15</ele>
        <time>2020-07-23T10:19:15.000Z</time>
      </trkpt>
      <trkpt lat="47.28085" lon="-2.35779">
        <ele>15.39999961853</ele>
        <time>2020-07-23T10:19:16.000Z</time>
      </trkpt>
      <trkpt lat="47.28085" lon="-2.35774">
        <ele>15.800000190735</ele>
        <time>2020-07-23T10:19:17.000Z</time>
      </trkpt>
      <trkpt lat="47.28085" lon="-2.35769">
        <ele>16.39999961853</ele>
        <time>2020-07-23T10:19:18.000Z</time>
      </trkpt>
      <trkpt lat="47.28086" lon="-2.35764">
        <ele>16.799999237061</ele>
        <time>2020-07-23T10:19:19.000Z</time>
      </trkpt>
      <trkpt lat="47.28089" lon="-2.35748">
        <ele>16.799999237061</ele>
        <time>2020-07-23T10:19:22.000Z</time>
      </trkpt>
      <trkpt lat="47.28091" lon="-2.35739">
        <ele>17.200000762939</ele>
        <time>2020-07-23T10:19:24.000Z</time>
      </trkpt>
      <trkpt lat="47.28092" lon="-2.35734">
        <ele>17.60000038147</ele>
        <time>2020-07-23T10:19:25.000Z</time>
      </trkpt>
      <trkpt lat="47.28092" lon="-2.35729">
        <ele>18</ele>
        <time>2020-07-23T10:19:26.000Z</time>
      </trkpt>
      <trkpt lat="47.28091" lon="-2.35724">
        <ele>18.39999961853</ele>
        <time>2020-07-23T10:19:27.000Z</time>
      </trkpt>
      <trkpt lat="47.2809" lon="-2.35719">
        <ele>18.799999237061</ele>
        <time>2020-07-23T10:19:28.000Z</time>
      </trkpt>
      <trkpt lat="47.28085" lon="-2.35691">
        <ele>18.799999237061</ele>
        <time>2020-07-23T10:19:32.000Z</time>
      </trkpt>
      <trkpt lat="47.28078" lon="-2.35665">
        <ele>18.799999237061</ele>
        <time>2020-07-23T10:19:35.000Z</time>
      </trkpt>
      <trkpt lat="47.28075" lon="-2.35647">
        <ele>18.39999961853</ele>
        <time>2020-07-23T10:19:37.000Z</time>
      </trkpt>
      <trkpt lat="47.28073" lon="-2.35636">
        <ele>17.799999237061</ele>
        <time>2020-07-23T10:19:38.000Z</time>
      </trkpt>
      <trkpt lat="47.28072" lon="-2.35626">
        <ele>17.39999961853</ele>
        <time>2020-07-23T10:19:39.000Z</time>
      </trkpt>
      <trkpt lat="47.28071" lon="-2.35616">
        <ele>16.799999237061</ele>
        <time>2020-07-23T10:19:40.000Z</time>
      </trkpt>
      <trkpt lat="47.28068" lon="-2.35607">
        <ele>16.200000762939</ele>
        <time>2020-07-23T10:19:41.000Z</time>
      </trkpt>
      <trkpt lat="47.28065" lon="-2.35599">
        <ele>15.800000190735</ele>
        <time>2020-07-23T10:19:42.000Z</time>
      </trkpt>
      <trkpt lat="47.28061" lon="-2.35594">
        <ele>15.39999961853</ele>
        <time>2020-07-23T10:19:43.000Z</time>
      </trkpt>
      <trkpt lat="47.28056" lon="-2.35591">
        <ele>15</ele>
        <time>2020-07-23T10:19:44.000Z</time>
      </trkpt>
      <trkpt lat="47.2805" lon="-2.3559">
        <ele>14</ele>
        <time>2020-07-23T10:19:45.000Z</time>
      </trkpt>
      <trkpt lat="47.28044" lon="-2.35588">
        <ele>14</ele>
        <time>2020-07-23T10:19:46.000Z</time>
      </trkpt>
      <trkpt lat="47.28038" lon="-2.35586">
        <ele>14</ele>
        <time>2020-07-23T10:19:47.000Z</time>
      </trkpt>
      <trkpt lat="47.2803" lon="-2.35583">
        <ele>13.39999961853</ele>
        <time>2020-07-23T10:19:49.000Z</time>
      </trkpt>
      <trkpt lat="47.28028" lon="-2.35583">
        <ele>13</ele>
        <time>2020-07-23T10:19:50.000Z</time>
      </trkpt>
      <trkpt lat="47.28027" lon="-2.35583">
        <ele>12.60000038147</ele>
        <time>2020-07-23T10:19:51.000Z</time>
      </trkpt>
      <trkpt lat="47.28027" lon="-2.35583">
        <ele>12</ele>
        <time>2020-07-23T10:19:52.000Z</time>
      </trkpt>
      <trkpt lat="47.28023" lon="-2.35581">
        <ele>9.6000003814697</ele>
        <time>2020-07-23T10:22:08.000Z</time>
      </trkpt>
      <trkpt lat="47.28021" lon="-2.3558">
        <ele>9.6000003814697</ele>
        <time>2020-07-23T10:22:09.000Z</time>
      </trkpt>
      <trkpt lat="47.28008" lon="-2.35584">
        <ele>9.6000003814697</ele>
        <time>2020-07-23T10:22:14.000Z</time>
      </trkpt>
      <trkpt lat="47.27985" lon="-2.35592">
        <ele>9.6000003814697</ele>
        <time>2020-07-23T10:22:22.000Z</time>
      </trkpt>
      <trkpt lat="47.27967" lon="-2.35591">
        <ele>9.6000003814697</ele>
        <time>2020-07-23T10:22:28.000Z</time>
      </trkpt>
      <trkpt lat="47.27957" lon="-2.35591">
        <ele>9.6000003814697</ele>
        <time>2020-07-23T10:22:30.000Z</time>
      </trkpt>
      <trkpt lat="47.27942" lon="-2.35595">
        <ele>9.6000003814697</ele>
        <time>2020-07-23T10:22:33.000Z</time>
      </trkpt>
      <trkpt lat="47.27908" lon="-2.356">
        <ele>9.6000003814697</ele>
        <time>2020-07-23T10:22:39.000Z</time>
      </trkpt>
      <trkpt lat="47.27872" lon="-2.35608">
        <ele>9.6000003814697</ele>
        <time>2020-07-23T10:22:45.000Z</time>
      </trkpt>
      <trkpt lat="47.27826" lon="-2.3562">
        <ele>9.6000003814697</ele>
        <time>2020-07-23T10:22:52.000Z</time>
      </trkpt>
      <trkpt lat="47.2782" lon="-2.35622">
        <ele>9.1999998092651</ele>
        <time>2020-07-23T10:22:53.000Z</time>
      </trkpt>
      <trkpt lat="47.27813" lon="-2.35624">
        <ele>8.6000003814697</ele>
        <time>2020-07-23T10:22:54.000Z</time>
      </trkpt>
      <trkpt lat="47.27806" lon="-2.35626">
        <ele>8.1999998092651</ele>
        <time>2020-07-23T10:22:55.000Z</time>
      </trkpt>
      <trkpt lat="47.27799" lon="-2.35629">
        <ele>7.8000001907349</ele>
        <time>2020-07-23T10:22:56.000Z</time>
      </trkpt>
      <trkpt lat="47.27793" lon="-2.35631">
        <ele>7.4000000953674</ele>
        <time>2020-07-23T10:22:57.000Z</time>
      </trkpt>
      <trkpt lat="47.27779" lon="-2.35639">
        <ele>7.4000000953674</ele>
        <time>2020-07-23T10:22:59.000Z</time>
      </trkpt>
      <trkpt lat="47.27773" lon="-2.35644">
        <ele>7.4000000953674</ele>
        <time>2020-07-23T10:23:00.000Z</time>
      </trkpt>
      <trkpt lat="47.27756" lon="-2.35663">
        <ele>7</ele>
        <time>2020-07-23T10:23:03.000Z</time>
      </trkpt>
      <trkpt lat="47.27751" lon="-2.35671">
        <ele>6.5999999046326</ele>
        <time>2020-07-23T10:23:04.000Z</time>
      </trkpt>
      <trkpt lat="47.27746" lon="-2.35678">
        <ele>6.1999998092651</ele>
        <time>2020-07-23T10:23:05.000Z</time>
      </trkpt>
      <trkpt lat="47.27741" lon="-2.35686">
        <ele>5.8000001907349</ele>
        <time>2020-07-23T10:23:06.000Z</time>
      </trkpt>
      <trkpt lat="47.27736" lon="-2.35693">
        <ele>5.4000000953674</ele>
        <time>2020-07-23T10:23:07.000Z</time>
      </trkpt>
      <trkpt lat="47.27726" lon="-2.35708">
        <ele>5.4000000953674</ele>
        <time>2020-07-23T10:23:09.000Z</time>
      </trkpt>
      <trkpt lat="47.27695" lon="-2.35737">
        <ele>5.4000000953674</ele>
        <time>2020-07-23T10:23:14.000Z</time>
      </trkpt>
      <trkpt lat="47.2769" lon="-2.35744">
        <ele>5.4000000953674</ele>
        <time>2020-07-23T10:23:15.000Z</time>
      </trkpt>
      <trkpt lat="47.27684" lon="-2.35749">
        <ele>4.8000001907349</ele>
        <time>2020-07-23T10:23:16.000Z</time>
      </trkpt>
      <trkpt lat="47.27678" lon="-2.35751">
        <ele>4.4000000953674</ele>
        <time>2020-07-23T10:23:17.000Z</time>
      </trkpt>
      <trkpt lat="47.27672" lon="-2.35748">
        <ele>3.7999999523163</ele>
        <time>2020-07-23T10:23:18.000Z</time>
      </trkpt>
      <trkpt lat="47.27667" lon="-2.35743">
        <ele>3.4000000953674</ele>
        <time>2020-07-23T10:23:19.000Z</time>
      </trkpt>
      <trkpt lat="47.27663" lon="-2.35736">
        <ele>3</ele>
        <time>2020-07-23T10:23:20.000Z</time>
      </trkpt>
      <trkpt lat="47.27659" lon="-2.3573">
        <ele>3</ele>
        <time>2020-07-23T10:23:21.000Z</time>
      </trkpt>
      <trkpt lat="47.27655" lon="-2.35724">
        <ele>3</ele>
        <time>2020-07-23T10:23:22.000Z</time>
      </trkpt>
      <trkpt lat="47.2765" lon="-2.3572">
        <ele>2.5999999046326</ele>
        <time>2020-07-23T10:23:23.000Z</time>
      </trkpt>
      <trkpt lat="47.27645" lon="-2.35716">
        <ele>2.2000000476837</ele>
        <time>2020-07-23T10:23:24.000Z</time>
      </trkpt>
      <trkpt lat="47.2764" lon="-2.35712">
        <ele>1.7999999523163</ele>
        <time>2020-07-23T10:23:25.000Z</time>
      </trkpt>
      <trkpt lat="47.27634" lon="-2.35709">
        <ele>1.3999999761581</ele>
        <time>2020-07-23T10:23:26.000Z</time>
      </trkpt>
      <trkpt lat="47.27628" lon="-2.35707">
        <ele>1</ele>
        <time>2020-07-23T10:23:27.000Z</time>
      </trkpt>
      <trkpt lat="47.27621" lon="-2.35705">
        <ele>1</ele>
        <time>2020-07-23T10:23:28.000Z</time>
      </trkpt>
      <trkpt lat="47.27569" lon="-2.35696">
        <ele>1</ele>
        <time>2020-07-23T10:23:35.000Z</time>
      </trkpt>
      <trkpt lat="47.27526" lon="-2.35686">
        <ele>0.40000000596046</ele>
        <time>2020-07-23T10:23:41.000Z</time>
      </trkpt>
      <trkpt lat="47.27518" lon="-2.35684">
        <ele>6.8</ele>
        <time>2020-07-23T10:23:42.000Z</time>
      </trkpt>
      <trkpt lat="47.2751" lon="-2.35683">
        <ele>-0.40000000596046</ele>
        <time>2020-07-23T10:23:43.000Z</time>
      </trkpt>
      <trkpt lat="47.27503" lon="-2.35682">
        <ele>-0.80000001192093</ele>
        <time>2020-07-23T10:23:44.000Z</time>
      </trkpt>
      <trkpt lat="47.27495" lon="-2.35681">
        <ele>-1.2000000476837</ele>
        <time>2020-07-23T10:23:45.000Z</time>
      </trkpt>
      <trkpt lat="47.2748" lon="-2.3568">
        <ele>-1.2000000476837</ele>
        <time>2020-07-23T10:23:47.000Z</time>
      </trkpt>
      <trkpt lat="47.27433" lon="-2.35669">
        <ele>-1.2000000476837</ele>
        <time>2020-07-23T10:23:54.000Z</time>
      </trkpt>
      <trkpt lat="47.27426" lon="-2.35668">
        <ele>-1.2000000476837</ele>
        <time>2020-07-23T10:23:55.000Z</time>
      </trkpt>
      <trkpt lat="47.27405" lon="-2.35672">
        <ele>-1.2000000476837</ele>
        <time>2020-07-23T10:23:58.000Z</time>
      </trkpt>
      <trkpt lat="47.27386" lon="-2.35683">
        <ele>-1.2000000476837</ele>
        <time>2020-07-23T10:24:01.000Z</time>
      </trkpt>
      <trkpt lat="47.2738" lon="-2.35686">
        <ele>-1.6000000238419</ele>
        <time>2020-07-23T10:24:02.000Z</time>
      </trkpt>
      <trkpt lat="47.27374" lon="-2.3569">
        <ele>-2</ele>
        <time>2020-07-23T10:24:03.000Z</time>
      </trkpt>
      <trkpt lat="47.27368" lon="-2.35695">
        <ele>-2.4000000953674</ele>
        <time>2020-07-23T10:24:04.000Z</time>
      </trkpt>
      <trkpt lat="47.27361" lon="-2.35699">
        <ele>-3</ele>
        <time>2020-07-23T10:24:05.000Z</time>
      </trkpt>
      <trkpt lat="47.27356" lon="-2.35704">
        <ele>-3.4000000953674</ele>
        <time>2020-07-23T10:24:06.000Z</time>
      </trkpt>
      <trkpt lat="47.27344" lon="-2.35713">
        <ele>-3.4000000953674</ele>
        <time>2020-07-23T10:24:08.000Z</time>
      </trkpt>
      <trkpt lat="47.27324" lon="-2.35731">
        <ele>-3.4000000953674</ele>
        <time>2020-07-23T10:24:13.000Z</time>
      </trkpt>
      <trkpt lat="47.27316" lon="-2.35744">
        <ele>-3.4000000953674</ele>
        <time>2020-07-23T10:24:17.000Z</time>
      </trkpt>
      <trkpt lat="47.27306" lon="-2.35737">
        <ele>-3.4000000953674</ele>
        <time>2020-07-23T10:24:20.000Z</time>
      </trkpt>
      <trkpt lat="47.27299" lon="-2.3572">
        <ele>-3.4000000953674</ele>
        <time>2020-07-23T10:24:23.000Z</time>
      </trkpt>
      <trkpt lat="47.27294" lon="-2.35708">
        <ele>-3.4000000953674</ele>
        <time>2020-07-23T10:24:25.000Z</time>
      </trkpt>
      <trkpt lat="47.27277" lon="-2.35675">
        <ele>-3.4000000953674</ele>
        <time>2020-07-23T10:24:31.000Z</time>
      </trkpt>
      <trkpt lat="47.27258" lon="-2.35632">
        <ele>-3.4000000953674</ele>
        <time>2020-07-23T10:24:38.000Z</time>
      </trkpt>
      <trkpt lat="47.27237" lon="-2.35583">
        <ele>-3.4000000953674</ele>
        <time>2020-07-23T10:24:46.000Z</time>
      </trkpt>
      <trkpt lat="47.27212" lon="-2.35528">
        <ele>-3.4000000953674</ele>
        <time>2020-07-23T10:24:55.000Z</time>
      </trkpt>
      <trkpt lat="47.27187" lon="-2.35478">
        <ele>-3.4000000953674</ele>
        <time>2020-07-23T10:25:03.000Z</time>
      </trkpt>
      <trkpt lat="47.27157" lon="-2.35421">
        <ele>-3.4000000953674</ele>
        <time>2020-07-23T10:25:12.000Z</time>
      </trkpt>
      <trkpt lat="47.27121" lon="-2.35355">
        <ele>-3.4000000953674</ele>
        <time>2020-07-23T10:25:22.000Z</time>
      </trkpt>
      <trkpt lat="47.27094" lon="-2.35311">
        <ele>-3.4000000953674</ele>
        <time>2020-07-23T10:25:29.000Z</time>
      </trkpt>
      <trkpt lat="47.27057" lon="-2.35257">
        <ele>-3.4000000953674</ele>
        <time>2020-07-23T10:25:38.000Z</time>
      </trkpt>
      <trkpt lat="47.2703" lon="-2.35215">
        <ele>-3.4000000953674</ele>
        <time>2020-07-23T10:25:45.000Z</time>
      </trkpt>
      <trkpt lat="47.26998" lon="-2.35166">
        <ele>-3.4000000953674</ele>
        <time>2020-07-23T10:25:53.000Z</time>
      </trkpt>
      <trkpt lat="47.26963" lon="-2.35111">
        <ele>-3.4000000953674</ele>
        <time>2020-07-23T10:26:02.000Z</time>
      </trkpt>
      <trkpt lat="47.26928" lon="-2.35057">
        <ele>-3.4000000953674</ele>
        <time>2020-07-23T10:26:11.000Z</time>
      </trkpt>
      <trkpt lat="47.26888" lon="-2.34997">
        <ele>-3.4000000953674</ele>
        <time>2020-07-23T10:26:21.000Z</time>
      </trkpt>
      <trkpt lat="47.26852" lon="-2.34941">
        <ele>-3.4000000953674</ele>
        <time>2020-07-23T10:26:30.000Z</time>
      </trkpt>
      <trkpt lat="47.26815" lon="-2.34887">
        <ele>-3.4000000953674</ele>
        <time>2020-07-23T10:26:39.000Z</time>
      </trkpt>
      <trkpt lat="47.26775" lon="-2.34829">
        <ele>-3.4000000953674</ele>
        <time>2020-07-23T10:26:49.000Z</time>
      </trkpt>
      <trkpt lat="47.26765" lon="-2.34816">
        <ele>-3.4000000953674</ele>
        <time>2020-07-23T10:26:52.000Z</time>
      </trkpt>
      <trkpt lat="47.26757" lon="-2.34807">
        <ele>-3.4000000953674</ele>
        <time>2020-07-23T10:26:54.000Z</time>
      </trkpt>
      <trkpt lat="47.26754" lon="-2.34802">
        <ele>-3.4000000953674</ele>
        <time>2020-07-23T10:26:55.000Z</time>
      </trkpt>
      <trkpt lat="47.26721" lon="-2.34759">
        <ele>-3.4000000953674</ele>
        <time>2020-07-23T10:27:03.000Z</time>
      </trkpt>
      <trkpt lat="47.26683" lon="-2.34711">
        <ele>-3.4000000953674</ele>
        <time>2020-07-23T10:27:12.000Z</time>
      </trkpt>
      <trkpt lat="47.26647" lon="-2.34667">
        <ele>-3.4000000953674</ele>
        <time>2020-07-23T10:27:20.000Z</time>
      </trkpt>
      <trkpt lat="47.26609" lon="-2.34621">
        <ele>-3.4000000953674</ele>
        <time>2020-07-23T10:27:28.000Z</time>
      </trkpt>
      <trkpt lat="47.26581" lon="-2.3459">
        <ele>-3.4000000953674</ele>
        <time>2020-07-23T10:27:34.000Z</time>
      </trkpt>
      <trkpt lat="47.26544" lon="-2.34549">
        <ele>-3.4000000953674</ele>
        <time>2020-07-23T10:27:42.000Z</time>
      </trkpt>
      <trkpt lat="47.26504" lon="-2.34515">
        <ele>-3.4000000953674</ele>
        <time>2020-07-23T10:27:50.000Z</time>
      </trkpt>
      <trkpt lat="47.26458" lon="-2.34478">
        <ele>-3.4000000953674</ele>
        <time>2020-07-23T10:27:59.000Z</time>
      </trkpt>
      <trkpt lat="47.26452" lon="-2.34475">
        <ele>-3.4000000953674</ele>
        <time>2020-07-23T10:28:00.000Z</time>
      </trkpt>
      <trkpt lat="47.26442" lon="-2.3447">
        <ele>-3.4000000953674</ele>
        <time>2020-07-23T10:28:02.000Z</time>
      </trkpt>
      <trkpt lat="47.26431" lon="-2.34462">
        <ele>-3.4000000953674</ele>
        <time>2020-07-23T10:28:04.000Z</time>
      </trkpt>
      <trkpt lat="47.2638" lon="-2.34421">
        <ele>-3.4000000953674</ele>
        <time>2020-07-23T10:28:14.000Z</time>
      </trkpt>
      <trkpt lat="47.26375" lon="-2.34417">
        <ele>-3.4000000953674</ele>
        <time>2020-07-23T10:28:15.000Z</time>
      </trkpt>
      <trkpt lat="47.2635" lon="-2.34394">
        <ele>-3.4000000953674</ele>
        <time>2020-07-23T10:28:20.000Z</time>
      </trkpt>
      <trkpt lat="47.26335" lon="-2.34384">
        <ele>-3.4000000953674</ele>
        <time>2020-07-23T10:28:23.000Z</time>
      </trkpt>
      <trkpt lat="47.26319" lon="-2.34375">
        <ele>-3.4000000953674</ele>
        <time>2020-07-23T10:28:26.000Z</time>
      </trkpt>
      <trkpt lat="47.26302" lon="-2.3435">
        <ele>-3.4000000953674</ele>
        <time>2020-07-23T10:28:30.000Z</time>
      </trkpt>
      <trkpt lat="47.26297" lon="-2.34345">
        <ele>-3.4000000953674</ele>
        <time>2020-07-23T10:28:31.000Z</time>
      </trkpt>
      <trkpt lat="47.26262" lon="-2.3431">
        <ele>-3.4000000953674</ele>
        <time>2020-07-23T10:28:38.000Z</time>
      </trkpt>
      <trkpt lat="47.26214" lon="-2.34259">
        <ele>-3.4000000953674</ele>
        <time>2020-07-23T10:28:48.000Z</time>
      </trkpt>
      <trkpt lat="47.26171" lon="-2.34215">
        <ele>-3.4000000953674</ele>
        <time>2020-07-23T10:28:57.000Z</time>
      </trkpt>
      <trkpt lat="47.26142" lon="-2.34188">
        <ele>-3.4000000953674</ele>
        <time>2020-07-23T10:29:03.000Z</time>
      </trkpt>
      <trkpt lat="47.26136" lon="-2.34186">
        <ele>-3.4000000953674</ele>
        <time>2020-07-23T10:29:04.000Z</time>
      </trkpt>
      <trkpt lat="47.26121" lon="-2.34171">
        <ele>-3.4000000953674</ele>
        <time>2020-07-23T10:29:07.000Z</time>
      </trkpt>
      <trkpt lat="47.26116" lon="-2.34167">
        <ele>-3.4000000953674</ele>
        <time>2020-07-23T10:29:08.000Z</time>
      </trkpt>
      <trkpt lat="47.26094" lon="-2.34155">
        <ele>-3.4000000953674</ele>
        <time>2020-07-23T10:29:12.000Z</time>
      </trkpt>
      <trkpt lat="47.26038" lon="-2.34127">
        <ele>-3.4000000953674</ele>
        <time>2020-07-23T10:29:22.000Z</time>
      </trkpt>
      <trkpt lat="47.25989" lon="-2.34103">
        <ele>-3.4000000953674</ele>
        <time>2020-07-23T10:29:31.000Z</time>
      </trkpt>
      <trkpt lat="47.25952" lon="-2.34087">
        <ele>-3.4000000953674</ele>
        <time>2020-07-23T10:29:38.000Z</time>
      </trkpt>
      <trkpt lat="47.25916" lon="-2.34075">
        <ele>-3.4000000953674</ele>
        <time>2020-07-23T10:29:45.000Z</time>
      </trkpt>
      <trkpt lat="47.2591" lon="-2.34073">
        <ele>-3.4000000953674</ele>
        <time>2020-07-23T10:29:46.000Z</time>
      </trkpt>
      <trkpt lat="47.259" lon="-2.34064">
        <ele>-3.4000000953674</ele>
        <time>2020-07-23T10:29:48.000Z</time>
      </trkpt>
      <trkpt lat="47.25897" lon="-2.3404">
        <ele>-3.4000000953674</ele>
        <time>2020-07-23T10:29:51.000Z</time>
      </trkpt>
      <trkpt lat="47.25899" lon="-2.34033">
        <ele>-3.7999999523163</ele>
        <time>2020-07-23T10:29:52.000Z</time>
      </trkpt>
      <trkpt lat="47.25901" lon="-2.34026">
        <ele>-4.1999998092651</ele>
        <time>2020-07-23T10:29:53.000Z</time>
      </trkpt>
      <trkpt lat="47.25904" lon="-2.34018">
        <ele>-4.5999999046326</ele>
        <time>2020-07-23T10:29:54.000Z</time>
      </trkpt>
      <trkpt lat="47.25907" lon="-2.34011">
        <ele>-5</ele>
        <time>2020-07-23T10:29:55.000Z</time>
      </trkpt>
      <trkpt lat="47.25909" lon="-2.34002">
        <ele>-5.4000000953674</ele>
        <time>2020-07-23T10:29:56.000Z</time>
      </trkpt>
      <trkpt lat="47.25913" lon="-2.33988">
        <ele>-5.4000000953674</ele>
        <time>2020-07-23T10:29:58.000Z</time>
      </trkpt>
      <trkpt lat="47.25918" lon="-2.33974">
        <ele>-5.4000000953674</ele>
        <time>2020-07-23T10:30:00.000Z</time>
      </trkpt>
      <trkpt lat="47.25941" lon="-2.33929">
        <ele>-5.4000000953674</ele>
        <time>2020-07-23T10:30:07.000Z</time>
      </trkpt>
      <trkpt lat="47.25943" lon="-2.33922">
        <ele>-5.4000000953674</ele>
        <time>2020-07-23T10:30:08.000Z</time>
      </trkpt>
      <trkpt lat="47.25946" lon="-2.33909">
        <ele>-5.4000000953674</ele>
        <time>2020-07-23T10:30:10.000Z</time>
      </trkpt>
      <trkpt lat="47.25951" lon="-2.33896">
        <ele>-5.4000000953674</ele>
        <time>2020-07-23T10:30:12.000Z</time>
      </trkpt>
      <trkpt lat="47.25956" lon="-2.33884">
        <ele>-5.4000000953674</ele>
        <time>2020-07-23T10:30:14.000Z</time>
      </trkpt>
      <trkpt lat="47.25958" lon="-2.33878">
        <ele>-5.4000000953674</ele>
        <time>2020-07-23T10:30:15.000Z</time>
      </trkpt>
      <trkpt lat="47.25968" lon="-2.33844">
        <ele>-5.4000000953674</ele>
        <time>2020-07-23T10:30:20.000Z</time>
      </trkpt>
      <trkpt lat="47.25985" lon="-2.33794">
        <ele>-5.4000000953674</ele>
        <time>2020-07-23T10:30:27.000Z</time>
      </trkpt>
      <trkpt lat="47.26006" lon="-2.33736">
        <ele>-5.4000000953674</ele>
        <time>2020-07-23T10:30:35.000Z</time>
      </trkpt>
      <trkpt lat="47.26023" lon="-2.33682">
        <ele>-5.4000000953674</ele>
        <time>2020-07-23T10:30:42.000Z</time>
      </trkpt>
      <trkpt lat="47.26025" lon="-2.33675">
        <ele>-5.4000000953674</ele>
        <time>2020-07-23T10:30:43.000Z</time>
      </trkpt>
      <trkpt lat="47.26033" lon="-2.33668">
        <ele>-5.4000000953674</ele>
        <time>2020-07-23T10:30:45.000Z</time>
      </trkpt>
      <trkpt lat="47.26044" lon="-2.33667">
        <ele>-5.4000000953674</ele>
        <time>2020-07-23T10:30:48.000Z</time>
      </trkpt>
      <trkpt lat="47.26054" lon="-2.33653">
        <ele>-5.4000000953674</ele>
        <time>2020-07-23T10:30:52.000Z</time>
      </trkpt>
      <trkpt lat="47.26059" lon="-2.3364">
        <ele>-5.4000000953674</ele>
        <time>2020-07-23T10:30:54.000Z</time>
      </trkpt>
      <trkpt lat="47.26061" lon="-2.33632">
        <ele>-5.4000000953674</ele>
        <time>2020-07-23T10:30:55.000Z</time>
      </trkpt>
      <trkpt lat="47.26064" lon="-2.33618">
        <ele>-5.4000000953674</ele>
        <time>2020-07-23T10:30:57.000Z</time>
      </trkpt>
      <trkpt lat="47.26067" lon="-2.33602">
        <ele>-5.4000000953674</ele>
        <time>2020-07-23T10:30:59.000Z</time>
      </trkpt>
      <trkpt lat="47.26072" lon="-2.33572">
        <ele>-5.4000000953674</ele>
        <time>2020-07-23T10:31:03.000Z</time>
      </trkpt>
      <trkpt lat="47.26083" lon="-2.33519">
        <ele>-5.4000000953674</ele>
        <time>2020-07-23T10:31:10.000Z</time>
      </trkpt>
      <trkpt lat="47.26085" lon="-2.33512">
        <ele>-5.4000000953674</ele>
        <time>2020-07-23T10:31:11.000Z</time>
      </trkpt>
      <trkpt lat="47.26086" lon="-2.33491">
        <ele>-5.4000000953674</ele>
        <time>2020-07-23T10:31:14.000Z</time>
      </trkpt>
      <trkpt lat="47.26086" lon="-2.33484">
        <ele>-5.4000000953674</ele>
        <time>2020-07-23T10:31:15.000Z</time>
      </trkpt>
      <trkpt lat="47.26079" lon="-2.33465">
        <ele>-5.4000000953674</ele>
        <time>2020-07-23T10:31:19.000Z</time>
      </trkpt>
      <trkpt lat="47.26073" lon="-2.33452">
        <ele>-5.4000000953674</ele>
        <time>2020-07-23T10:31:21.000Z</time>
      </trkpt>
      <trkpt lat="47.26067" lon="-2.33438">
        <ele>-5.4000000953674</ele>
        <time>2020-07-23T10:31:23.000Z</time>
      </trkpt>
      <trkpt lat="47.26069" lon="-2.33413">
        <ele>-5.4000000953674</ele>
        <time>2020-07-23T10:31:26.000Z</time>
      </trkpt>
      <trkpt lat="47.26083" lon="-2.33398">
        <ele>-5.4000000953674</ele>
        <time>2020-07-23T10:31:29.000Z</time>
      </trkpt>
      <trkpt lat="47.26087" lon="-2.33387">
        <ele>-5.4000000953674</ele>
        <time>2020-07-23T10:31:32.000Z</time>
      </trkpt>
      <trkpt lat="47.26082" lon="-2.33374">
        <ele>-5.4000000953674</ele>
        <time>2020-07-23T10:31:35.000Z</time>
      </trkpt>
      <trkpt lat="47.26079" lon="-2.33368">
        <ele>-5.4000000953674</ele>
        <time>2020-07-23T10:31:36.000Z</time>
      </trkpt>
      <trkpt lat="47.26066" lon="-2.33324">
        <ele>-5.4000000953674</ele>
        <time>2020-07-23T10:31:42.000Z</time>
      </trkpt>
      <trkpt lat="47.2605" lon="-2.33277">
        <ele>-5.4000000953674</ele>
        <time>2020-07-23T10:31:48.000Z</time>
      </trkpt>
      <trkpt lat="47.2603" lon="-2.33221">
        <ele>-5.4000000953674</ele>
        <time>2020-07-23T10:31:55.000Z</time>
      </trkpt>
      <trkpt lat="47.26016" lon="-2.33179">
        <ele>-5.4000000953674</ele>
        <time>2020-07-23T10:32:01.000Z</time>
      </trkpt>
      <trkpt lat="47.26013" lon="-2.33172">
        <ele>-5.4000000953674</ele>
        <time>2020-07-23T10:32:02.000Z</time>
      </trkpt>
      <trkpt lat="47.25998" lon="-2.33134">
        <ele>-5.4000000953674</ele>
        <time>2020-07-23T10:32:07.000Z</time>
      </trkpt>
      <trkpt lat="47.25978" lon="-2.33075">
        <ele>-5.4000000953674</ele>
        <time>2020-07-23T10:32:14.000Z</time>
      </trkpt>
      <trkpt lat="47.25958" lon="-2.33016">
        <ele>-5.4000000953674</ele>
        <time>2020-07-23T10:32:21.000Z</time>
      </trkpt>
      <trkpt lat="47.25938" lon="-2.32956">
        <ele>-5.4000000953674</ele>
        <time>2020-07-23T10:32:28.000Z</time>
      </trkpt>
      <trkpt lat="47.25919" lon="-2.32897">
        <ele>-5.4000000953674</ele>
        <time>2020-07-23T10:32:35.000Z</time>
      </trkpt>
      <trkpt lat="47.25893" lon="-2.32822">
        <ele>-5.4000000953674</ele>
        <time>2020-07-23T10:32:44.000Z</time>
      </trkpt>
      <trkpt lat="47.25875" lon="-2.32765">
        <ele>-5.4000000953674</ele>
        <time>2020-07-23T10:32:51.000Z</time>
      </trkpt>
      <trkpt lat="47.25874" lon="-2.32762">
        <ele>-5.4000000953674</ele>
        <time>2020-07-23T10:32:53.000Z</time>
      </trkpt>
      <trkpt lat="47.25876" lon="-2.32766">
        <ele>-5.4000000953674</ele>
        <time>2020-07-23T10:33:15.000Z</time>
      </trkpt>
      <trkpt lat="47.25878" lon="-2.32775">
        <ele>-5.4000000953674</ele>
        <time>2020-07-23T10:33:17.000Z</time>
      </trkpt>
      <trkpt lat="47.25884" lon="-2.32799">
        <ele>-5.4000000953674</ele>
        <time>2020-07-23T10:33:21.000Z</time>
      </trkpt>
      <trkpt lat="47.25887" lon="-2.32804">
        <ele>-5.4000000953674</ele>
        <time>2020-07-23T10:33:22.000Z</time>
      </trkpt>
      <trkpt lat="47.25893" lon="-2.32821">
        <ele>-5.4000000953674</ele>
        <time>2020-07-23T10:33:27.000Z</time>
      </trkpt>
      <trkpt lat="47.25893" lon="-2.32822">
        <ele>-5.4000000953674</ele>
        <time>2020-07-23T10:33:28.000Z</time>
      </trkpt>
      <trkpt lat="47.25891" lon="-2.3282">
        <ele>-5.4000000953674</ele>
        <time>2020-07-23T10:33:49.000Z</time>
      </trkpt>
      <trkpt lat="47.25889" lon="-2.32814">
        <ele>-5.4000000953674</ele>
        <time>2020-07-23T10:33:51.000Z</time>
      </trkpt>
      <trkpt lat="47.2588" lon="-2.32788">
        <ele>-5.4000000953674</ele>
        <time>2020-07-23T10:33:56.000Z</time>
      </trkpt>
      <trkpt lat="47.25873" lon="-2.32762">
        <ele>-5.4000000953674</ele>
        <time>2020-07-23T10:34:00.000Z</time>
      </trkpt>
      <trkpt lat="47.25867" lon="-2.3274">
        <ele>-5.4000000953674</ele>
        <time>2020-07-23T10:34:03.000Z</time>
      </trkpt>
      <trkpt lat="47.25849" lon="-2.32672">
        <ele>-5.4000000953674</ele>
        <time>2020-07-23T10:34:12.000Z</time>
      </trkpt>
      <trkpt lat="47.25833" lon="-2.32609">
        <ele>-5.4000000953674</ele>
        <time>2020-07-23T10:34:20.000Z</time>
      </trkpt>
      <trkpt lat="47.25818" lon="-2.32553">
        <ele>-5.4000000953674</ele>
        <time>2020-07-23T10:34:27.000Z</time>
      </trkpt>
      <trkpt lat="47.25807" lon="-2.32506">
        <ele>-5.4000000953674</ele>
        <time>2020-07-23T10:34:33.000Z</time>
      </trkpt>
      <trkpt lat="47.25808" lon="-2.32499">
        <ele>-5.4000000953674</ele>
        <time>2020-07-23T10:34:34.000Z</time>
      </trkpt>
      <trkpt lat="47.25818" lon="-2.32485">
        <ele>-5.4000000953674</ele>
        <time>2020-07-23T10:34:37.000Z</time>
      </trkpt>
      <trkpt lat="47.25835" lon="-2.32484">
        <ele>-5.4000000953674</ele>
        <time>2020-07-23T10:34:40.000Z</time>
      </trkpt>
      <trkpt lat="47.25876" lon="-2.32488">
        <ele>-5.4000000953674</ele>
        <time>2020-07-23T10:34:47.000Z</time>
      </trkpt>
      <trkpt lat="47.25881" lon="-2.32486">
        <ele>-5.4000000953674</ele>
        <time>2020-07-23T10:34:48.000Z</time>
      </trkpt>
      <trkpt lat="47.25887" lon="-2.32476">
        <ele>-5.4000000953674</ele>
        <time>2020-07-23T10:34:50.000Z</time>
      </trkpt>
      <trkpt lat="47.25892" lon="-2.32465">
        <ele>-5.4000000953674</ele>
        <time>2020-07-23T10:34:52.000Z</time>
      </trkpt>
      <trkpt lat="47.25894" lon="-2.3246">
        <ele>-5.4000000953674</ele>
        <time>2020-07-23T10:34:53.000Z</time>
      </trkpt>
      <trkpt lat="47.25902" lon="-2.32451">
        <ele>-5.4000000953674</ele>
        <time>2020-07-23T10:34:55.000Z</time>
      </trkpt>
      <trkpt lat="47.25931" lon="-2.32417">
        <ele>-5.4000000953674</ele>
        <time>2020-07-23T10:35:02.000Z</time>
      </trkpt>
      <trkpt lat="47.25971" lon="-2.32366">
        <ele>-5.4000000953674</ele>
        <time>2020-07-23T10:35:11.000Z</time>
      </trkpt>
      <trkpt lat="47.26" lon="-2.3233">
        <ele>-5.4000000953674</ele>
        <time>2020-07-23T10:35:18.000Z</time>
      </trkpt>
      <trkpt lat="47.26034" lon="-2.32289">
        <ele>-5.4000000953674</ele>
        <time>2020-07-23T10:35:26.000Z</time>
      </trkpt>
      <trkpt lat="47.26066" lon="-2.32253">
        <ele>-5.4000000953674</ele>
        <time>2020-07-23T10:35:33.000Z</time>
      </trkpt>
      <trkpt lat="47.26071" lon="-2.32249">
        <ele>-5.4000000953674</ele>
        <time>2020-07-23T10:35:34.000Z</time>
      </trkpt>
      <trkpt lat="47.26089" lon="-2.32228">
        <ele>-5.4000000953674</ele>
        <time>2020-07-23T10:35:38.000Z</time>
      </trkpt>
      <trkpt lat="47.26101" lon="-2.32208">
        <ele>-5.4000000953674</ele>
        <time>2020-07-23T10:35:41.000Z</time>
      </trkpt>
      <trkpt lat="47.2611" lon="-2.32185">
        <ele>-5.4000000953674</ele>
        <time>2020-07-23T10:35:44.000Z</time>
      </trkpt>
      <trkpt lat="47.26127" lon="-2.32137">
        <ele>-5.4000000953674</ele>
        <time>2020-07-23T10:35:50.000Z</time>
      </trkpt>
      <trkpt lat="47.26144" lon="-2.32081">
        <ele>-5.4000000953674</ele>
        <time>2020-07-23T10:35:57.000Z</time>
      </trkpt>
      <trkpt lat="47.26166" lon="-2.32023">
        <ele>-5.4000000953674</ele>
        <time>2020-07-23T10:36:05.000Z</time>
      </trkpt>
      <trkpt lat="47.26179" lon="-2.32023">
        <ele>-5.4000000953674</ele>
        <time>2020-07-23T10:36:08.000Z</time>
      </trkpt>
      <trkpt lat="47.26183" lon="-2.32024">
        <ele>-5.4000000953674</ele>
        <time>2020-07-23T10:36:09.000Z</time>
      </trkpt>
      <trkpt lat="47.26194" lon="-2.32026">
        <ele>-5.4000000953674</ele>
        <time>2020-07-23T10:36:13.000Z</time>
      </trkpt>
      <trkpt lat="47.26198" lon="-2.32024">
        <ele>-5.4000000953674</ele>
        <time>2020-07-23T10:36:15.000Z</time>
      </trkpt>
      <trkpt lat="47.26199" lon="-2.32019">
        <ele>-5.4000000953674</ele>
        <time>2020-07-23T10:36:17.000Z</time>
      </trkpt>
      <trkpt lat="47.26203" lon="-2.32007">
        <ele>-5.4000000953674</ele>
        <time>2020-07-23T10:36:21.000Z</time>
      </trkpt>
      <trkpt lat="47.26204" lon="-2.32005">
        <ele>-5.4000000953674</ele>
        <time>2020-07-23T10:36:22.000Z</time>
      </trkpt>
      <trkpt lat="47.26213" lon="-2.31994">
        <ele>-5.4000000953674</ele>
        <time>2020-07-23T10:36:26.000Z</time>
      </trkpt>
      <trkpt lat="47.26221" lon="-2.31986">
        <ele>-5.4000000953674</ele>
        <time>2020-07-23T10:36:28.000Z</time>
      </trkpt>
      <trkpt lat="47.26228" lon="-2.31983">
        <ele>-5.4000000953674</ele>
        <time>2020-07-23T10:36:30.000Z</time>
      </trkpt>
      <trkpt lat="47.26235" lon="-2.31971">
        <ele>-5.4000000953674</ele>
        <time>2020-07-23T10:36:33.000Z</time>
      </trkpt>
      <trkpt lat="47.26237" lon="-2.31968">
        <ele>-5.4000000953674</ele>
        <time>2020-07-23T10:36:34.000Z</time>
      </trkpt>
      <trkpt lat="47.26242" lon="-2.31958">
        <ele>-5.4000000953674</ele>
        <time>2020-07-23T10:36:38.000Z</time>
      </trkpt>
      <trkpt lat="47.26254" lon="-2.3194">
        <ele>-5.4000000953674</ele>
        <time>2020-07-23T10:36:45.000Z</time>
      </trkpt>
      <trkpt lat="47.26265" lon="-2.3192">
        <ele>-5.4000000953674</ele>
        <time>2020-07-23T10:36:50.000Z</time>
      </trkpt>
      <trkpt lat="47.26284" lon="-2.31902">
        <ele>-5.4000000953674</ele>
        <time>2020-07-23T10:36:55.000Z</time>
      </trkpt>
      <trkpt lat="47.26293" lon="-2.31882">
        <ele>-5.4000000953674</ele>
        <time>2020-07-23T10:36:59.000Z</time>
      </trkpt>
      <trkpt lat="47.26294" lon="-2.31852">
        <ele>-5.4000000953674</ele>
        <time>2020-07-23T10:37:04.000Z</time>
      </trkpt>
      <trkpt lat="47.26299" lon="-2.31828">
        <ele>-5.4000000953674</ele>
        <time>2020-07-23T10:37:10.000Z</time>
      </trkpt>
      <trkpt lat="47.26302" lon="-2.31808">
        <ele>-5.4000000953674</ele>
        <time>2020-07-23T10:37:15.000Z</time>
      </trkpt>
      <trkpt lat="47.26301" lon="-2.31786">
        <ele>-5.4000000953674</ele>
        <time>2020-07-23T10:37:20.000Z</time>
      </trkpt>
      <trkpt lat="47.26298" lon="-2.31753">
        <ele>-5.4000000953674</ele>
        <time>2020-07-23T10:37:25.000Z</time>
      </trkpt>
      <trkpt lat="47.26299" lon="-2.31727">
        <ele>-5.4000000953674</ele>
        <time>2020-07-23T10:37:29.000Z</time>
      </trkpt>
      <trkpt lat="47.26302" lon="-2.31722">
        <ele>-5.4000000953674</ele>
        <time>2020-07-23T10:37:30.000Z</time>
      </trkpt>
      <trkpt lat="47.26311" lon="-2.31715">
        <ele>-5.4000000953674</ele>
        <time>2020-07-23T10:37:33.000Z</time>
      </trkpt>
      <trkpt lat="47.26315" lon="-2.31713">
        <ele>-5.4000000953674</ele>
        <time>2020-07-23T10:37:34.000Z</time>
      </trkpt>
      <trkpt lat="47.2633" lon="-2.31699">
        <ele>-5.4000000953674</ele>
        <time>2020-07-23T10:37:38.000Z</time>
      </trkpt>
      <trkpt lat="47.26336" lon="-2.3169">
        <ele>-5</ele>
        <time>2020-07-23T10:37:40.000Z</time>
      </trkpt>
      <trkpt lat="47.26339" lon="-2.31688">
        <ele>-4.5999999046326</ele>
        <time>2020-07-23T10:37:41.000Z</time>
      </trkpt>
      <trkpt lat="47.26342" lon="-2.31686">
        <ele>-4.1999998092651</ele>
        <time>2020-07-23T10:37:42.000Z</time>
      </trkpt>
      <trkpt lat="47.26346" lon="-2.31684">
        <ele>-3.7999999523163</ele>
        <time>2020-07-23T10:37:43.000Z</time>
      </trkpt>
      <trkpt lat="47.2635" lon="-2.31682">
        <ele>-3.4000000953674</ele>
        <time>2020-07-23T10:37:44.000Z</time>
      </trkpt>
      <trkpt lat="47.26354" lon="-2.31679">
        <ele>-3.4000000953674</ele>
        <time>2020-07-23T10:37:45.000Z</time>
      </trkpt>
      <trkpt lat="47.26365" lon="-2.31674">
        <ele>-3.4000000953674</ele>
        <time>2020-07-23T10:37:48.000Z</time>
      </trkpt>
      <trkpt lat="47.26377" lon="-2.3167">
        <ele>-3</ele>
        <time>2020-07-23T10:37:51.000Z</time>
      </trkpt>
      <trkpt lat="47.26381" lon="-2.31667">
        <ele>-2.5999999046326</ele>
        <time>2020-07-23T10:37:52.000Z</time>
      </trkpt>
      <trkpt lat="47.26385" lon="-2.31665">
        <ele>-2</ele>
        <time>2020-07-23T10:37:53.000Z</time>
      </trkpt>
      <trkpt lat="47.26388" lon="-2.31663">
        <ele>-1.2000000476837</ele>
        <time>2020-07-23T10:37:54.000Z</time>
      </trkpt>
      <trkpt lat="47.26403" lon="-2.31657">
        <ele>-1.2000000476837</ele>
        <time>2020-07-23T10:37:58.000Z</time>
      </trkpt>
      <trkpt lat="47.26413" lon="-2.31647">
        <ele>-1.2000000476837</ele>
        <time>2020-07-23T10:38:02.000Z</time>
      </trkpt>
      <trkpt lat="47.26412" lon="-2.31643">
        <ele>-1.2000000476837</ele>
        <time>2020-07-23T10:38:03.000Z</time>
      </trkpt>
      <trkpt lat="47.2641" lon="-2.31606">
        <ele>-1.2000000476837</ele>
        <time>2020-07-23T10:38:10.000Z</time>
      </trkpt>
      <trkpt lat="47.26409" lon="-2.31582">
        <ele>-1.2000000476837</ele>
        <time>2020-07-23T10:38:15.000Z</time>
      </trkpt>
      <trkpt lat="47.26409" lon="-2.31558">
        <ele>-1.2000000476837</ele>
        <time>2020-07-23T10:38:21.000Z</time>
      </trkpt>
      <trkpt lat="47.2641" lon="-2.31554">
        <ele>-1.2000000476837</ele>
        <time>2020-07-23T10:38:22.000Z</time>
      </trkpt>
      <trkpt lat="47.26414" lon="-2.31553">
        <ele>-1.2000000476837</ele>
        <time>2020-07-23T10:38:24.000Z</time>
      </trkpt>
      <trkpt lat="47.26417" lon="-2.31554">
        <ele>-0.80000001192093</ele>
        <time>2020-07-23T10:38:27.000Z</time>
      </trkpt>
      <trkpt lat="47.26417" lon="-2.31555">
        <ele>-0.40000000596046</ele>
        <time>2020-07-23T10:38:28.000Z</time>
      </trkpt>
    </trkseg>
  </trk>
</gpx>